<?xml version="1.0" encoding="UTF-8" standalone="no" ?>
<gpx xmlns="http://www.topografix.com/GPX/1/1" creator="MapSource 6.16.3" version="1.1" xmlns:xsi="http://www.w3.org/2001/XMLSchema-instance" xsi:schemaLocation="http://www.topografix.com/GPX/1/1 http://www.topografix.com/GPX/1/1/gpx.xsd">

  <metadata>
    <link href="http://www.garmin.com">
      <text>Garmin International</text>
    </link>
    <time>2014-12-20T15:35:58Z</time>
    <bounds maxlat="43.825372578576207" maxlon="5.318447314202786" minlat="43.793517909944057" minlon="5.237374361604452"/>
  </metadata>

  <trk>
    <name>Forêt des cèdres</name>
    <desc>Changé de chaîne</desc>
    <trkseg>
      <trkpt lat="43.825308373197913" lon="5.304094310849905">
        <ele>309.39999389648437</ele>
        <time>2014-12-08T10:28:33Z</time>
      </trkpt>
      <trkpt lat="43.825315665453672" lon="5.304066734388471">
        <ele>309.39999389648437</ele>
        <time>2014-12-08T10:28:58Z</time>
      </trkpt>
      <trkpt lat="43.825313486158848" lon="5.303991213440895">
        <ele>309.79998779296875</ele>
        <time>2014-12-08T10:29:01Z</time>
      </trkpt>
      <trkpt lat="43.825287753716111" lon="5.303785856813192">
        <ele>310.39999389648437</ele>
        <time>2014-12-08T10:29:07Z</time>
      </trkpt>
      <trkpt lat="43.825264200568199" lon="5.303739756345749">
        <ele>310.60000610351562</ele>
        <time>2014-12-08T10:29:09Z</time>
      </trkpt>
      <trkpt lat="43.825194127857685" lon="5.303708240389824">
        <ele>311</ele>
        <time>2014-12-08T10:29:12Z</time>
      </trkpt>
      <trkpt lat="43.825126234441996" lon="5.30375299975276">
        <ele>311.60000610351562</ele>
        <time>2014-12-08T10:29:15Z</time>
      </trkpt>
      <trkpt lat="43.825100166723132" lon="5.303771439939737">
        <ele>311.79998779296875</ele>
        <time>2014-12-08T10:29:16Z</time>
      </trkpt>
      <trkpt lat="43.82499841041863" lon="5.303857354447246">
        <ele>312.60000610351562</ele>
        <time>2014-12-08T10:29:20Z</time>
      </trkpt>
      <trkpt lat="43.824952058494091" lon="5.30390840023756">
        <ele>313.20001220703125</ele>
        <time>2014-12-08T10:29:22Z</time>
      </trkpt>
      <trkpt lat="43.824886344373226" lon="5.303978975862265">
        <ele>313.79998779296875</ele>
        <time>2014-12-08T10:29:25Z</time>
      </trkpt>
      <trkpt lat="43.824741924181581" lon="5.304121887311339">
        <ele>315</ele>
        <time>2014-12-08T10:29:31Z</time>
      </trkpt>
      <trkpt lat="43.824645532295108" lon="5.304251052439213">
        <ele>316.20001220703125</ele>
        <time>2014-12-08T10:29:36Z</time>
      </trkpt>
      <trkpt lat="43.824575124308467" lon="5.304366555064917">
        <ele>317</ele>
        <time>2014-12-08T10:29:40Z</time>
      </trkpt>
      <trkpt lat="43.824545703828335" lon="5.3044243901968">
        <ele>317.20001220703125</ele>
        <time>2014-12-08T10:29:42Z</time>
      </trkpt>
      <trkpt lat="43.824448054656386" lon="5.304531008005142">
        <ele>318.39999389648437</ele>
        <time>2014-12-08T10:29:47Z</time>
      </trkpt>
      <trkpt lat="43.824428776279092" lon="5.30454651452601">
        <ele>318.60000610351562</ele>
        <time>2014-12-08T10:29:48Z</time>
      </trkpt>
      <trkpt lat="43.82432802580297" lon="5.304679367691279">
        <ele>319.39999389648438</ele>
        <time>2014-12-08T10:29:54Z</time>
      </trkpt>
      <trkpt lat="43.82431042380631" lon="5.304698394611478">
        <ele>319.79998779296875</ele>
        <time>2014-12-08T10:29:55Z</time>
      </trkpt>
      <trkpt lat="43.8242332264781" lon="5.304812807589769">
        <ele>321</ele>
        <time>2014-12-08T10:30:00Z</time>
      </trkpt>
      <trkpt lat="43.824203386902809" lon="5.304860835894942">
        <ele>321.39999389648437</ele>
        <time>2014-12-08T10:30:02Z</time>
      </trkpt>
      <trkpt lat="43.824170110747218" lon="5.304945493116975">
        <ele>322</ele>
        <time>2014-12-08T10:30:05Z</time>
      </trkpt>
      <trkpt lat="43.824117723852396" lon="5.305096032097936">
        <ele>323.20001220703125</ele>
        <time>2014-12-08T10:30:10Z</time>
      </trkpt>
      <trkpt lat="43.824052261188626" lon="5.305272554978728">
        <ele>324.20001220703125</ele>
        <time>2014-12-08T10:30:16Z</time>
      </trkpt>
      <trkpt lat="43.82404706440866" lon="5.305308513343334">
        <ele>324.39999389648437</ele>
        <time>2014-12-08T10:30:17Z</time>
      </trkpt>
      <trkpt lat="43.824010267853737" lon="5.305511606857181">
        <ele>325.39999389648437</ele>
        <time>2014-12-08T10:30:23Z</time>
      </trkpt>
      <trkpt lat="43.823981517925858" lon="5.305602801963687">
        <ele>326.39999389648437</ele>
        <time>2014-12-08T10:30:26Z</time>
      </trkpt>
      <trkpt lat="43.823951007798314" lon="5.305822743102908">
        <ele>327.39999389648437</ele>
        <time>2014-12-08T10:30:33Z</time>
      </trkpt>
      <trkpt lat="43.823945643380284" lon="5.305910585448146">
        <ele>327.60000610351562</ele>
        <time>2014-12-08T10:30:36Z</time>
      </trkpt>
      <trkpt lat="43.823931310325861" lon="5.306002870202065">
        <ele>328.39999389648437</ele>
        <time>2014-12-08T10:30:39Z</time>
      </trkpt>
      <trkpt lat="43.823919994756579" lon="5.306131867691875">
        <ele>329.39999389648437</ele>
        <time>2014-12-08T10:30:43Z</time>
      </trkpt>
      <trkpt lat="43.8239102717489" lon="5.306152235716581">
        <ele>329.60000610351562</ele>
        <time>2014-12-08T10:30:44Z</time>
      </trkpt>
      <trkpt lat="43.823856627568603" lon="5.30622398480773">
        <ele>330.79998779296875</ele>
        <time>2014-12-08T10:30:49Z</time>
      </trkpt>
      <trkpt lat="43.823810946196318" lon="5.306254914030433">
        <ele>331.39999389648437</ele>
        <time>2014-12-08T10:30:53Z</time>
      </trkpt>
      <trkpt lat="43.8237997982651" lon="5.306222978979349">
        <ele>331.39999389648437</ele>
        <time>2014-12-08T10:31:19Z</time>
      </trkpt>
      <trkpt lat="43.823818909004331" lon="5.306237647309899">
        <ele>331.60000610351562</ele>
        <time>2014-12-08T10:31:21Z</time>
      </trkpt>
      <trkpt lat="43.823794014751911" lon="5.306300679221749">
        <ele>331.79998779296875</ele>
        <time>2014-12-08T10:31:25Z</time>
      </trkpt>
      <trkpt lat="43.823750345036387" lon="5.306329680606723">
        <ele>332.79998779296875</ele>
        <time>2014-12-08T10:31:28Z</time>
      </trkpt>
      <trkpt lat="43.82373676635325" lon="5.306335296481848">
        <ele>333.20001220703125</ele>
        <time>2014-12-08T10:31:29Z</time>
      </trkpt>
      <trkpt lat="43.823710698634386" lon="5.306355161592364">
        <ele>333.60000610351562</ele>
        <time>2014-12-08T10:31:31Z</time>
      </trkpt>
      <trkpt lat="43.823686894029379" lon="5.306366477161646">
        <ele>334.20001220703125</ele>
        <time>2014-12-08T10:31:33Z</time>
      </trkpt>
      <trkpt lat="43.823647079989314" lon="5.306391706690192">
        <ele>335.60000610351562</ele>
        <time>2014-12-08T10:31:36Z</time>
      </trkpt>
      <trkpt lat="43.82361707277596" lon="5.306407548487186">
        <ele>336.20001220703125</ele>
        <time>2014-12-08T10:31:38Z</time>
      </trkpt>
      <trkpt lat="43.823588322848082" lon="5.306429760530591">
        <ele>336.79998779296875</ele>
        <time>2014-12-08T10:31:40Z</time>
      </trkpt>
      <trkpt lat="43.82354574277997" lon="5.306458929553628">
        <ele>337.79998779296875</ele>
        <time>2014-12-08T10:31:43Z</time>
      </trkpt>
      <trkpt lat="43.823500145226717" lon="5.306489439681172">
        <ele>339</ele>
        <time>2014-12-08T10:31:46Z</time>
      </trkpt>
      <trkpt lat="43.823485560715199" lon="5.306527158245444">
        <ele>339.60000610351562</ele>
        <time>2014-12-08T10:31:48Z</time>
      </trkpt>
      <trkpt lat="43.823506264016032" lon="5.306592117995024">
        <ele>340</ele>
        <time>2014-12-08T10:31:51Z</time>
      </trkpt>
      <trkpt lat="43.823515232652426" lon="5.30660904943943">
        <ele>340</ele>
        <time>2014-12-08T10:31:52Z</time>
      </trkpt>
      <trkpt lat="43.823535265401006" lon="5.306682223454118">
        <ele>340.60000610351562</ele>
        <time>2014-12-08T10:31:56Z</time>
      </trkpt>
      <trkpt lat="43.823526799678802" lon="5.306695215404034">
        <ele>340.79998779296875</ele>
        <time>2014-12-08T10:31:57Z</time>
      </trkpt>
      <trkpt lat="43.823515400290489" lon="5.306694125756621">
        <ele>341.20001220703125</ele>
        <time>2014-12-08T10:31:58Z</time>
      </trkpt>
      <trkpt lat="43.823497211560607" lon="5.306691443547607">
        <ele>341.20001220703125</ele>
        <time>2014-12-08T10:31:59Z</time>
      </trkpt>
      <trkpt lat="43.82346854545176" lon="5.306669902056456">
        <ele>341.60000610351562</ele>
        <time>2014-12-08T10:32:01Z</time>
      </trkpt>
      <trkpt lat="43.823392521589994" lon="5.306628495454788">
        <ele>342.20001220703125</ele>
        <time>2014-12-08T10:32:05Z</time>
      </trkpt>
      <trkpt lat="43.823331752792001" lon="5.306569319218397">
        <ele>342.79998779296875</ele>
        <time>2014-12-08T10:32:08Z</time>
      </trkpt>
      <trkpt lat="43.823226308450103" lon="5.306419786065817">
        <ele>343.39999389648437</ele>
        <time>2014-12-08T10:32:14Z</time>
      </trkpt>
      <trkpt lat="43.823202420026064" lon="5.306387851014733">
        <ele>343.60000610351562</ele>
        <time>2014-12-08T10:32:15Z</time>
      </trkpt>
      <trkpt lat="43.82300091907382" lon="5.306127090007067">
        <ele>344</ele>
        <time>2014-12-08T10:32:24Z</time>
      </trkpt>
      <trkpt lat="43.822800172492862" lon="5.305929780006409">
        <ele>343.79998779296875</ele>
        <time>2014-12-08T10:32:32Z</time>
      </trkpt>
      <trkpt lat="43.822674946859479" lon="5.305782174691558">
        <ele>343.20001220703125</ele>
        <time>2014-12-08T10:32:37Z</time>
      </trkpt>
      <trkpt lat="43.822531951591372" lon="5.305821988731623">
        <ele>343</ele>
        <time>2014-12-08T10:32:41Z</time>
      </trkpt>
      <trkpt lat="43.82237353362143" lon="5.305882589891553">
        <ele>342.79998779296875</ele>
        <time>2014-12-08T10:32:45Z</time>
      </trkpt>
      <trkpt lat="43.822290217503905" lon="5.30592986382544">
        <ele>342.39999389648437</ele>
        <time>2014-12-08T10:32:47Z</time>
      </trkpt>
      <trkpt lat="43.82215166464448" lon="5.305993650108576">
        <ele>341</ele>
        <time>2014-12-08T10:32:50Z</time>
      </trkpt>
      <trkpt lat="43.822015626356006" lon="5.306094316765666">
        <ele>340.39999389648437</ele>
        <time>2014-12-08T10:32:53Z</time>
      </trkpt>
      <trkpt lat="43.821944128721952" lon="5.306203700602055">
        <ele>339.79998779296875</ele>
        <time>2014-12-08T10:32:55Z</time>
      </trkpt>
      <trkpt lat="43.82188344374299" lon="5.306340828537941">
        <ele>339.60000610351562</ele>
        <time>2014-12-08T10:32:57Z</time>
      </trkpt>
      <trkpt lat="43.821832062676549" lon="5.306493462994695">
        <ele>339.39999389648438</ele>
        <time>2014-12-08T10:32:59Z</time>
      </trkpt>
      <trkpt lat="43.821812784299254" lon="5.306580048054457">
        <ele>339.20001220703125</ele>
        <time>2014-12-08T10:33:00Z</time>
      </trkpt>
      <trkpt lat="43.821797277778387" lon="5.306670740246773">
        <ele>338.79998779296875</ele>
        <time>2014-12-08T10:33:01Z</time>
      </trkpt>
      <trkpt lat="43.821784202009439" lon="5.306764785200357">
        <ele>338.39999389648437</ele>
        <time>2014-12-08T10:33:02Z</time>
      </trkpt>
      <trkpt lat="43.821756290271878" lon="5.307062258943915">
        <ele>337.60000610351562</ele>
        <time>2014-12-08T10:33:05Z</time>
      </trkpt>
      <trkpt lat="43.821703065186739" lon="5.307463919743896">
        <ele>336.79998779296875</ele>
        <time>2014-12-08T10:33:09Z</time>
      </trkpt>
      <trkpt lat="43.821693174540997" lon="5.307568106800318">
        <ele>336.60000610351562</ele>
        <time>2014-12-08T10:33:10Z</time>
      </trkpt>
      <trkpt lat="43.821616228669882" lon="5.307971695438027">
        <ele>335.79998779296875</ele>
        <time>2014-12-08T10:33:14Z</time>
      </trkpt>
      <trkpt lat="43.821582449600101" lon="5.30806758441031">
        <ele>335.39999389648437</ele>
        <time>2014-12-08T10:33:15Z</time>
      </trkpt>
      <trkpt lat="43.82146367803216" lon="5.308347204700112">
        <ele>334</ele>
        <time>2014-12-08T10:33:18Z</time>
      </trkpt>
      <trkpt lat="43.821382122114301" lon="5.308542335405946">
        <ele>333</ele>
        <time>2014-12-08T10:33:20Z</time>
      </trkpt>
      <trkpt lat="43.821340966969728" lon="5.308641158044338">
        <ele>332.79998779296875</ele>
        <time>2014-12-08T10:33:21Z</time>
      </trkpt>
      <trkpt lat="43.82124868221581" lon="5.308809382840991">
        <ele>332.60000610351562</ele>
        <time>2014-12-08T10:33:23Z</time>
      </trkpt>
      <trkpt lat="43.821121109649539" lon="5.308916252106428">
        <ele>331.79998779296875</ele>
        <time>2014-12-08T10:33:25Z</time>
      </trkpt>
      <trkpt lat="43.820985071361065" lon="5.308933770284057">
        <ele>330.39999389648438</ele>
        <time>2014-12-08T10:33:27Z</time>
      </trkpt>
      <trkpt lat="43.820923799648881" lon="5.308925388380885">
        <ele>329.60000610351562</ele>
        <time>2014-12-08T10:33:28Z</time>
      </trkpt>
      <trkpt lat="43.820871748030186" lon="5.308915413916111">
        <ele>328.79998779296875</ele>
        <time>2014-12-08T10:33:29Z</time>
      </trkpt>
      <trkpt lat="43.820825815200806" lon="5.308909211307764">
        <ele>328.20001220703125</ele>
        <time>2014-12-08T10:33:30Z</time>
      </trkpt>
      <trkpt lat="43.820783151313663" lon="5.308915330097079">
        <ele>327.60000610351562</ele>
        <time>2014-12-08T10:33:31Z</time>
      </trkpt>
      <trkpt lat="43.820742415264249" lon="5.30893343500793">
        <ele>327</ele>
        <time>2014-12-08T10:33:32Z</time>
      </trkpt>
      <trkpt lat="43.820630768314004" lon="5.30904533341527">
        <ele>327.20001220703125</ele>
        <time>2014-12-08T10:33:36Z</time>
      </trkpt>
      <trkpt lat="43.820579051971436" lon="5.309138037264347">
        <ele>328.20001220703125</ele>
        <time>2014-12-08T10:33:39Z</time>
      </trkpt>
      <trkpt lat="43.820559689775109" lon="5.309162847697735">
        <ele>328.60000610351562</ele>
        <time>2014-12-08T10:33:40Z</time>
      </trkpt>
      <trkpt lat="43.820520211011171" lon="5.309208277612925">
        <ele>329.20001220703125</ele>
        <time>2014-12-08T10:33:42Z</time>
      </trkpt>
      <trkpt lat="43.82045567035675" lon="5.309275584295392">
        <ele>329.79998779296875</ele>
        <time>2014-12-08T10:33:45Z</time>
      </trkpt>
      <trkpt lat="43.82034226320684" lon="5.309402151033282">
        <ele>331</ele>
        <time>2014-12-08T10:33:50Z</time>
      </trkpt>
      <trkpt lat="43.820173786953092" lon="5.309556629508734">
        <ele>332.20001220703125</ele>
        <time>2014-12-08T10:33:57Z</time>
      </trkpt>
      <trkpt lat="43.820154089480639" lon="5.309580769389868">
        <ele>332.39999389648437</ele>
        <time>2014-12-08T10:33:58Z</time>
      </trkpt>
      <trkpt lat="43.820106144994497" lon="5.309651931747794">
        <ele>333.39999389648438</ele>
        <time>2014-12-08T10:34:01Z</time>
      </trkpt>
      <trkpt lat="43.820058535784483" lon="5.309729967266321">
        <ele>334.39999389648437</ele>
        <time>2014-12-08T10:34:05Z</time>
      </trkpt>
      <trkpt lat="43.820002377033234" lon="5.309819234535098">
        <ele>335.60000610351562</ele>
        <time>2014-12-08T10:34:10Z</time>
      </trkpt>
      <trkpt lat="43.819989552721381" lon="5.309839518740773">
        <ele>335.79998779296875</ele>
        <time>2014-12-08T10:34:11Z</time>
      </trkpt>
      <trkpt lat="43.81993037648499" lon="5.309933563694358">
        <ele>336.79998779296875</ele>
        <time>2014-12-08T10:34:15Z</time>
      </trkpt>
      <trkpt lat="43.819856951013207" lon="5.310004055500031">
        <ele>337.60000610351562</ele>
        <time>2014-12-08T10:34:19Z</time>
      </trkpt>
      <trkpt lat="43.819823088124394" lon="5.310044623911381">
        <ele>338</ele>
        <time>2014-12-08T10:34:21Z</time>
      </trkpt>
      <trkpt lat="43.819747399538755" lon="5.310165910050273">
        <ele>338.79998779296875</ele>
        <time>2014-12-08T10:34:26Z</time>
      </trkpt>
      <trkpt lat="43.819715129211545" lon="5.310215279459953">
        <ele>339</ele>
        <time>2014-12-08T10:34:28Z</time>
      </trkpt>
      <trkpt lat="43.819633573293686" lon="5.310350563377142">
        <ele>339.79998779296875</ele>
        <time>2014-12-08T10:34:33Z</time>
      </trkpt>
      <trkpt lat="43.819614546373487" lon="5.31037537381053">
        <ele>340.20001220703125</ele>
        <time>2014-12-08T10:34:34Z</time>
      </trkpt>
      <trkpt lat="43.819511868059635" lon="5.310541251674295">
        <ele>341.20001220703125</ele>
        <time>2014-12-08T10:34:40Z</time>
      </trkpt>
      <trkpt lat="43.819401059299707" lon="5.310703776776791">
        <ele>342.20001220703125</ele>
        <time>2014-12-08T10:34:47Z</time>
      </trkpt>
      <trkpt lat="43.819396952167153" lon="5.310717020183802">
        <ele>342.39999389648437</ele>
        <time>2014-12-08T10:34:48Z</time>
      </trkpt>
      <trkpt lat="43.819393012672663" lon="5.310728503391147">
        <ele>342.60000610351562</ele>
        <time>2014-12-08T10:34:49Z</time>
      </trkpt>
      <trkpt lat="43.819367783144116" lon="5.310785584151745">
        <ele>342.79998779296875</ele>
        <time>2014-12-08T10:34:53Z</time>
      </trkpt>
      <trkpt lat="43.81932302378118" lon="5.310879042372108">
        <ele>343.39999389648437</ele>
        <time>2014-12-08T10:34:59Z</time>
      </trkpt>
      <trkpt lat="43.819316737353802" lon="5.310891196131706">
        <ele>343.60000610351562</ele>
        <time>2014-12-08T10:35:00Z</time>
      </trkpt>
      <trkpt lat="43.819271977990866" lon="5.31103159300983">
        <ele>344.39999389648437</ele>
        <time>2014-12-08T10:35:09Z</time>
      </trkpt>
      <trkpt lat="43.81925605237484" lon="5.311075849458575">
        <ele>344.79998779296875</ele>
        <time>2014-12-08T10:35:13Z</time>
      </trkpt>
      <trkpt lat="43.819047175347805" lon="5.311667611822486">
        <ele>351</ele>
        <time>2014-12-08T10:37:26Z</time>
      </trkpt>
      <trkpt lat="43.819042313843966" lon="5.311677251011133">
        <ele>351</ele>
        <time>2014-12-08T10:37:27Z</time>
      </trkpt>
      <trkpt lat="43.818996632471681" lon="5.311787389218807">
        <ele>351.39999389648437</ele>
        <time>2014-12-08T10:37:35Z</time>
      </trkpt>
      <trkpt lat="43.818946005776525" lon="5.311891240999103">
        <ele>352.20001220703125</ele>
        <time>2014-12-08T10:37:43Z</time>
      </trkpt>
      <trkpt lat="43.818929996341467" lon="5.31191504560411">
        <ele>352.20001220703125</ele>
        <time>2014-12-08T10:37:45Z</time>
      </trkpt>
      <trkpt lat="43.818927146494389" lon="5.311931138858199">
        <ele>352.20001220703125</ele>
        <time>2014-12-08T10:37:46Z</time>
      </trkpt>
      <trkpt lat="43.818885153159499" lon="5.311998194083571">
        <ele>353</ele>
        <time>2014-12-08T10:37:52Z</time>
      </trkpt>
      <trkpt lat="43.818876352161169" lon="5.312003726139665">
        <ele>353.39999389648438</ele>
        <time>2014-12-08T10:37:53Z</time>
      </trkpt>
      <trkpt lat="43.818748444318771" lon="5.312044797465205">
        <ele>351.79998779296875</ele>
        <time>2014-12-08T10:38:06Z</time>
      </trkpt>
      <trkpt lat="43.81873126141727" lon="5.312055358663201">
        <ele>351.60000610351562</ele>
        <time>2014-12-08T10:38:08Z</time>
      </trkpt>
      <trkpt lat="43.818675521761179" lon="5.312134986743331">
        <ele>352.39999389648437</ele>
        <time>2014-12-08T10:38:16Z</time>
      </trkpt>
      <trkpt lat="43.818636126816273" lon="5.312166335061193">
        <ele>352.39999389648437</ele>
        <time>2014-12-08T10:38:18Z</time>
      </trkpt>
      <trkpt lat="43.818598240613937" lon="5.312209585681558">
        <ele>352.79998779296875</ele>
        <time>2014-12-08T10:38:20Z</time>
      </trkpt>
      <trkpt lat="43.818584159016609" lon="5.312233809381723">
        <ele>352.79998779296875</ele>
        <time>2014-12-08T10:38:21Z</time>
      </trkpt>
      <trkpt lat="43.818539651110768" lon="5.312297260388732">
        <ele>353.20001220703125</ele>
        <time>2014-12-08T10:38:24Z</time>
      </trkpt>
      <trkpt lat="43.818509057164192" lon="5.312346378341317">
        <ele>354</ele>
        <time>2014-12-08T10:38:26Z</time>
      </trkpt>
      <trkpt lat="43.818433452397585" lon="5.312467245385051">
        <ele>354.79998779296875</ele>
        <time>2014-12-08T10:38:31Z</time>
      </trkpt>
      <trkpt lat="43.818421047180891" lon="5.312497084960342">
        <ele>355</ele>
        <time>2014-12-08T10:38:32Z</time>
      </trkpt>
      <trkpt lat="43.818364134058356" lon="5.312646953389049">
        <ele>356.20001220703125</ele>
        <time>2014-12-08T10:38:37Z</time>
      </trkpt>
      <trkpt lat="43.818351896479726" lon="5.312675116583705">
        <ele>356.39999389648438</ele>
        <time>2014-12-08T10:38:38Z</time>
      </trkpt>
      <trkpt lat="43.818322224542499" lon="5.312753738835454">
        <ele>357.39999389648437</ele>
        <time>2014-12-08T10:38:41Z</time>
      </trkpt>
      <trkpt lat="43.818304454907775" lon="5.312769999727607">
        <ele>357.60000610351562</ele>
        <time>2014-12-08T10:38:42Z</time>
      </trkpt>
      <trkpt lat="43.818292133510113" lon="5.312796737998724">
        <ele>358</ele>
        <time>2014-12-08T10:38:43Z</time>
      </trkpt>
      <trkpt lat="43.818254834040999" lon="5.312840240076184">
        <ele>358.39999389648437</ele>
        <time>2014-12-08T10:38:46Z</time>
      </trkpt>
      <trkpt lat="43.818225329741836" lon="5.312900338321924">
        <ele>359</ele>
        <time>2014-12-08T10:38:49Z</time>
      </trkpt>
      <trkpt lat="43.818193478509784" lon="5.312964376062155">
        <ele>359.39999389648437</ele>
        <time>2014-12-08T10:38:52Z</time>
      </trkpt>
      <trkpt lat="43.818158358335495" lon="5.313012069091201">
        <ele>359.79998779296875</ele>
        <time>2014-12-08T10:38:55Z</time>
      </trkpt>
      <trkpt lat="43.818121645599604" lon="5.31307116150856">
        <ele>360.39999389648437</ele>
        <time>2014-12-08T10:38:58Z</time>
      </trkpt>
      <trkpt lat="43.818093985319138" lon="5.313112065196037">
        <ele>361.39999389648437</ele>
        <time>2014-12-08T10:39:01Z</time>
      </trkpt>
      <trkpt lat="43.818087698891759" lon="5.313128074631095">
        <ele>361.79998779296875</ele>
        <time>2014-12-08T10:39:02Z</time>
      </trkpt>
      <trkpt lat="43.818061714991927" lon="5.313202925026417">
        <ele>362.79998779296875</ele>
        <time>2014-12-08T10:39:06Z</time>
      </trkpt>
      <trkpt lat="43.818050064146519" lon="5.313242487609386">
        <ele>363.39999389648437</ele>
        <time>2014-12-08T10:39:08Z</time>
      </trkpt>
      <trkpt lat="43.818035647273064" lon="5.31328909099102">
        <ele>363.79998779296875</ele>
        <time>2014-12-08T10:39:10Z</time>
      </trkpt>
      <trkpt lat="43.818004634231329" lon="5.313384309411049">
        <ele>365</ele>
        <time>2014-12-08T10:39:14Z</time>
      </trkpt>
      <trkpt lat="43.817979823797941" lon="5.313443904742599">
        <ele>365.79998779296875</ele>
        <time>2014-12-08T10:39:17Z</time>
      </trkpt>
      <trkpt lat="43.817964065819979" lon="5.313486400991678">
        <ele>366.20001220703125</ele>
        <time>2014-12-08T10:39:19Z</time>
      </trkpt>
      <trkpt lat="43.817935818806291" lon="5.313576338812709">
        <ele>367.39999389648438</ele>
        <time>2014-12-08T10:39:23Z</time>
      </trkpt>
      <trkpt lat="43.817538600414991" lon="5.314194336533546">
        <ele>378.39999389648437</ele>
        <time>2014-12-08T10:40:34Z</time>
      </trkpt>
      <trkpt lat="43.817467438057065" lon="5.314274886623025">
        <ele>379.39999389648437</ele>
        <time>2014-12-08T10:40:39Z</time>
      </trkpt>
      <trkpt lat="43.817438101395965" lon="5.31430640257895">
        <ele>379.79998779296875</ele>
        <time>2014-12-08T10:40:41Z</time>
      </trkpt>
      <trkpt lat="43.817398706451058" lon="5.314365327358246">
        <ele>380.60000610351562</ele>
        <time>2014-12-08T10:40:45Z</time>
      </trkpt>
      <trkpt lat="43.817388648167253" lon="5.314366249367595">
        <ele>380.79998779296875</ele>
        <time>2014-12-08T10:40:46Z</time>
      </trkpt>
      <trkpt lat="43.817376075312495" lon="5.314362645149231">
        <ele>381</ele>
        <time>2014-12-08T10:40:47Z</time>
      </trkpt>
      <trkpt lat="43.81735478527844" lon="5.314364740625024">
        <ele>381.79998779296875</ele>
        <time>2014-12-08T10:40:49Z</time>
      </trkpt>
      <trkpt lat="43.815987026318908" lon="5.316455187276006">
        <ele>424.20001220703125</ele>
        <time>2014-12-08T10:46:07Z</time>
      </trkpt>
      <trkpt lat="43.815991636365652" lon="5.316479578614235">
        <ele>424.39999389648438</ele>
        <time>2014-12-08T10:46:08Z</time>
      </trkpt>
      <trkpt lat="43.815984930843115" lon="5.316559290513396">
        <ele>424.20001220703125</ele>
        <time>2014-12-08T10:46:12Z</time>
      </trkpt>
      <trkpt lat="43.815969340503216" lon="5.316596757620573">
        <ele>424.20001220703125</ele>
        <time>2014-12-08T10:46:14Z</time>
      </trkpt>
      <trkpt lat="43.815871523693204" lon="5.316765401512384">
        <ele>424.39999389648438</ele>
        <time>2014-12-08T10:46:23Z</time>
      </trkpt>
      <trkpt lat="43.815808072686195" lon="5.316903702914715">
        <ele>425.39999389648437</ele>
        <time>2014-12-08T10:46:29Z</time>
      </trkpt>
      <trkpt lat="43.815799774602056" lon="5.316929770633578">
        <ele>425.60000610351562</ele>
        <time>2014-12-08T10:46:30Z</time>
      </trkpt>
      <trkpt lat="43.815739257261157" lon="5.317049296572805">
        <ele>426.39999389648437</ele>
        <time>2014-12-08T10:46:35Z</time>
      </trkpt>
      <trkpt lat="43.815697766840458" lon="5.31712674535811">
        <ele>426.60000610351562</ele>
        <time>2014-12-08T10:46:38Z</time>
      </trkpt>
      <trkpt lat="43.815604224801064" lon="5.317319612950087">
        <ele>427.39999389648438</ele>
        <time>2014-12-08T10:46:46Z</time>
      </trkpt>
      <trkpt lat="43.815519483759999" lon="5.317447520792484">
        <ele>428.39999389648437</ele>
        <time>2014-12-08T10:46:52Z</time>
      </trkpt>
      <trkpt lat="43.815419990569353" lon="5.317603424191475">
        <ele>429.60000610351562</ele>
        <time>2014-12-08T10:46:59Z</time>
      </trkpt>
      <trkpt lat="43.815352600067854" lon="5.317736277356744">
        <ele>430.60000610351562</ele>
        <time>2014-12-08T10:47:05Z</time>
      </trkpt>
      <trkpt lat="43.815340949222445" lon="5.317751867696643">
        <ele>431</ele>
        <time>2014-12-08T10:47:06Z</time>
      </trkpt>
      <trkpt lat="43.815284706652164" lon="5.317827723920345">
        <ele>431.60000610351562</ele>
        <time>2014-12-08T10:47:10Z</time>
      </trkpt>
      <trkpt lat="43.81521756760776" lon="5.317920595407486">
        <ele>432.39999389648437</ele>
        <time>2014-12-08T10:47:15Z</time>
      </trkpt>
      <trkpt lat="43.815201222896576" lon="5.31793249770999">
        <ele>432.60000610351562</ele>
        <time>2014-12-08T10:47:16Z</time>
      </trkpt>
      <trkpt lat="43.815139280632138" lon="5.318006342276931">
        <ele>433.39999389648437</ele>
        <time>2014-12-08T10:47:21Z</time>
      </trkpt>
      <trkpt lat="43.815116984769702" lon="5.318037942051888">
        <ele>433.79998779296875</ele>
        <time>2014-12-08T10:47:23Z</time>
      </trkpt>
      <trkpt lat="43.815024616196752" lon="5.318120503798127">
        <ele>434.60000610351562</ele>
        <time>2014-12-08T10:47:29Z</time>
      </trkpt>
      <trkpt lat="43.81500986404717" lon="5.318138608708978">
        <ele>434.79998779296875</ele>
        <time>2014-12-08T10:47:30Z</time>
      </trkpt>
      <trkpt lat="43.814932582899928" lon="5.318239023908973">
        <ele>435.79998779296875</ele>
        <time>2014-12-08T10:47:35Z</time>
      </trkpt>
      <trkpt lat="43.814880028367043" lon="5.318294512107968">
        <ele>436.20001220703125</ele>
        <time>2014-12-08T10:47:38Z</time>
      </trkpt>
      <trkpt lat="43.814810626208782" lon="5.318377576768398">
        <ele>437</ele>
        <time>2014-12-08T10:47:43Z</time>
      </trkpt>
      <trkpt lat="43.814801070839167" lon="5.318397106602788">
        <ele>437.20001220703125</ele>
        <time>2014-12-08T10:47:44Z</time>
      </trkpt>
      <trkpt lat="43.814707780256867" lon="5.318447314202786">
        <ele>438.20001220703125</ele>
        <time>2014-12-08T10:47:49Z</time>
      </trkpt>
      <trkpt lat="43.814547769725323" lon="5.318413283675909">
        <ele>439.20001220703125</ele>
        <time>2014-12-08T10:47:56Z</time>
      </trkpt>
      <trkpt lat="43.814521450549364" lon="5.318403812125325">
        <ele>439.39999389648437</ele>
        <time>2014-12-08T10:47:57Z</time>
      </trkpt>
      <trkpt lat="43.814362278208137" lon="5.318335751071572">
        <ele>440.20001220703125</ele>
        <time>2014-12-08T10:48:04Z</time>
      </trkpt>
      <trkpt lat="43.814338473603129" lon="5.318324435502291">
        <ele>440.39999389648437</ele>
        <time>2014-12-08T10:48:05Z</time>
      </trkpt>
      <trkpt lat="43.814151221886277" lon="5.3182134591043">
        <ele>441.20001220703125</ele>
        <time>2014-12-08T10:48:12Z</time>
      </trkpt>
      <trkpt lat="43.814102774485946" lon="5.318179009482265">
        <ele>441.39999389648438</ele>
        <time>2014-12-08T10:48:14Z</time>
      </trkpt>
      <trkpt lat="43.813931783661246" lon="5.318075912073255">
        <ele>442.20001220703125</ele>
        <time>2014-12-08T10:48:21Z</time>
      </trkpt>
      <trkpt lat="43.813880234956741" lon="5.318037439137697">
        <ele>442.60000610351562</ele>
        <time>2014-12-08T10:48:23Z</time>
      </trkpt>
      <trkpt lat="43.813716284930706" lon="5.317939203232527">
        <ele>443.20001220703125</ele>
        <time>2014-12-08T10:48:29Z</time>
      </trkpt>
      <trkpt lat="43.813658701255918" lon="5.317908441647887">
        <ele>443.60000610351562</ele>
        <time>2014-12-08T10:48:31Z</time>
      </trkpt>
      <trkpt lat="43.813507407903671" lon="5.317783551290631">
        <ele>444</ele>
        <time>2014-12-08T10:48:37Z</time>
      </trkpt>
      <trkpt lat="43.813315546140075" lon="5.31764960847795">
        <ele>444.60000610351562</ele>
        <time>2014-12-08T10:48:44Z</time>
      </trkpt>
      <trkpt lat="43.813286377117038" lon="5.317627899348736">
        <ele>444.79998779296875</ele>
        <time>2014-12-08T10:48:45Z</time>
      </trkpt>
      <trkpt lat="43.813084373250604" lon="5.31753963790834">
        <ele>445.79998779296875</ele>
        <time>2014-12-08T10:48:52Z</time>
      </trkpt>
      <trkpt lat="43.813056126236916" lon="5.317525137215853">
        <ele>446</ele>
        <time>2014-12-08T10:48:53Z</time>
      </trkpt>
      <trkpt lat="43.812856217846274" lon="5.31742824241519">
        <ele>446.79998779296875</ele>
        <time>2014-12-08T10:49:00Z</time>
      </trkpt>
      <trkpt lat="43.812774494290352" lon="5.317390188574791">
        <ele>447.20001220703125</ele>
        <time>2014-12-08T10:49:03Z</time>
      </trkpt>
      <trkpt lat="43.81264004856348" lon="5.317316511645913">
        <ele>447.39999389648438</ele>
        <time>2014-12-08T10:49:08Z</time>
      </trkpt>
      <trkpt lat="43.812461094930768" lon="5.317204361781478">
        <ele>448.20001220703125</ele>
        <time>2014-12-08T10:49:14Z</time>
      </trkpt>
      <trkpt lat="43.812404684722424" lon="5.317171588540077">
        <ele>448.60000610351562</ele>
        <time>2014-12-08T10:49:16Z</time>
      </trkpt>
      <trkpt lat="43.812201172113419" lon="5.317049631848931">
        <ele>449.39999389648437</ele>
        <time>2014-12-08T10:49:22Z</time>
      </trkpt>
      <trkpt lat="43.812135793268681" lon="5.317013505846262">
        <ele>449.79998779296875</ele>
        <time>2014-12-08T10:49:24Z</time>
      </trkpt>
      <trkpt lat="43.811950134113431" lon="5.316847795620561">
        <ele>450.20001220703125</ele>
        <time>2014-12-08T10:49:31Z</time>
      </trkpt>
      <trkpt lat="43.811924820765853" lon="5.316825415939093">
        <ele>450.39999389648437</ele>
        <time>2014-12-08T10:49:32Z</time>
      </trkpt>
      <trkpt lat="43.811774365603924" lon="5.316692478954792">
        <ele>451.39999389648437</ele>
        <time>2014-12-08T10:49:38Z</time>
      </trkpt>
      <trkpt lat="43.811682667583227" lon="5.316627519205213">
        <ele>451.39999389648437</ele>
        <time>2014-12-08T10:49:41Z</time>
      </trkpt>
      <trkpt lat="43.811500780284405" lon="5.316510256379843">
        <ele>451.79998779296875</ele>
        <time>2014-12-08T10:49:47Z</time>
      </trkpt>
      <trkpt lat="43.811296094208956" lon="5.316386120393872">
        <ele>451.39999389648437</ele>
        <time>2014-12-08T10:49:54Z</time>
      </trkpt>
      <trkpt lat="43.811112698167562" lon="5.316297607496381">
        <ele>452.60000610351562</ele>
        <time>2014-12-08T10:50:00Z</time>
      </trkpt>
      <trkpt lat="43.811056707054377" lon="5.316267181187868">
        <ele>453</ele>
        <time>2014-12-08T10:50:02Z</time>
      </trkpt>
      <trkpt lat="43.810974732041359" lon="5.31621940433979">
        <ele>453.60000610351562</ele>
        <time>2014-12-08T10:50:05Z</time>
      </trkpt>
      <trkpt lat="43.810819247737527" lon="5.31613826751709">
        <ele>454.20001220703125</ele>
        <time>2014-12-08T10:50:11Z</time>
      </trkpt>
      <trkpt lat="43.810713803395629" lon="5.31609334051609">
        <ele>454.79998779296875</ele>
        <time>2014-12-08T10:50:15Z</time>
      </trkpt>
      <trkpt lat="43.810524037107825" lon="5.316037852317095">
        <ele>455.60000610351562</ele>
        <time>2014-12-08T10:50:22Z</time>
      </trkpt>
      <trkpt lat="43.810496795922518" lon="5.316029135137796">
        <ele>455.79998779296875</ele>
        <time>2014-12-08T10:50:23Z</time>
      </trkpt>
      <trkpt lat="43.810343155637383" lon="5.315968533977866">
        <ele>456.79998779296875</ele>
        <time>2014-12-08T10:50:29Z</time>
      </trkpt>
      <trkpt lat="43.810154981911182" lon="5.315883876755834">
        <ele>457.79998779296875</ele>
        <time>2014-12-08T10:50:36Z</time>
      </trkpt>
      <trkpt lat="43.81012849509716" lon="5.31587096862495">
        <ele>458</ele>
        <time>2014-12-08T10:50:37Z</time>
      </trkpt>
      <trkpt lat="43.810017434880137" lon="5.315821431577206">
        <ele>459</ele>
        <time>2014-12-08T10:50:41Z</time>
      </trkpt>
      <trkpt lat="43.80989246070385" lon="5.315748509019613">
        <ele>459.39999389648437</ele>
        <time>2014-12-08T10:50:46Z</time>
      </trkpt>
      <trkpt lat="43.809798834845424" lon="5.315695703029633">
        <ele>460.39999389648437</ele>
        <time>2014-12-08T10:50:50Z</time>
      </trkpt>
      <trkpt lat="43.809722475707531" lon="5.315632838755846">
        <ele>461.20001220703125</ele>
        <time>2014-12-08T10:50:54Z</time>
      </trkpt>
      <trkpt lat="43.809702610597014" lon="5.315620014443994">
        <ele>461.39999389648438</ele>
        <time>2014-12-08T10:50:55Z</time>
      </trkpt>
      <trkpt lat="43.809608900919557" lon="5.315528064966202">
        <ele>462.60000610351562</ele>
        <time>2014-12-08T10:51:00Z</time>
      </trkpt>
      <trkpt lat="43.809561459347606" lon="5.315457908436656">
        <ele>463.39999389648437</ele>
        <time>2014-12-08T10:51:03Z</time>
      </trkpt>
      <trkpt lat="43.809552993625402" lon="5.315434522926807">
        <ele>463.79998779296875</ele>
        <time>2014-12-08T10:51:04Z</time>
      </trkpt>
      <trkpt lat="43.809481663629413" lon="5.315332179889083">
        <ele>463.79998779296875</ele>
        <time>2014-12-08T10:51:08Z</time>
      </trkpt>
      <trkpt lat="43.80941703915596" lon="5.315236626192927">
        <ele>464.79998779296875</ele>
        <time>2014-12-08T10:51:13Z</time>
      </trkpt>
      <trkpt lat="43.809350822120905" lon="5.315159345045686">
        <ele>465.20001220703125</ele>
        <time>2014-12-08T10:51:17Z</time>
      </trkpt>
      <trkpt lat="43.809221154078841" lon="5.315034538507462">
        <ele>466</ele>
        <time>2014-12-08T10:51:24Z</time>
      </trkpt>
      <trkpt lat="43.809187542647123" lon="5.314997574314475">
        <ele>466.60000610351562</ele>
        <time>2014-12-08T10:51:26Z</time>
      </trkpt>
      <trkpt lat="43.809127612039447" lon="5.314946863800287">
        <ele>467</ele>
        <time>2014-12-08T10:51:29Z</time>
      </trkpt>
      <trkpt lat="43.809055276215076" lon="5.31488492153585">
        <ele>467.60000610351562</ele>
        <time>2014-12-08T10:51:33Z</time>
      </trkpt>
      <trkpt lat="43.809002973139286" lon="5.314849633723497">
        <ele>468</ele>
        <time>2014-12-08T10:51:36Z</time>
      </trkpt>
      <trkpt lat="43.808891326189041" lon="5.3147510625422">
        <ele>468.79998779296875</ele>
        <time>2014-12-08T10:51:42Z</time>
      </trkpt>
      <trkpt lat="43.80884044803679" lon="5.31470462679863">
        <ele>469.20001220703125</ele>
        <time>2014-12-08T10:51:45Z</time>
      </trkpt>
      <trkpt lat="43.808772386983037" lon="5.314636062830687">
        <ele>470.20001220703125</ele>
        <time>2014-12-08T10:51:49Z</time>
      </trkpt>
      <trkpt lat="43.808704912662506" lon="5.314564313739538">
        <ele>470.79998779296875</ele>
        <time>2014-12-08T10:51:54Z</time>
      </trkpt>
      <trkpt lat="43.808655878528953" lon="5.314482757821679">
        <ele>471.39999389648437</ele>
        <time>2014-12-08T10:51:58Z</time>
      </trkpt>
      <trkpt lat="43.808599971234798" lon="5.314408829435706">
        <ele>472.60000610351562</ele>
        <time>2014-12-08T10:52:02Z</time>
      </trkpt>
      <trkpt lat="43.808586644008756" lon="5.314394580200315">
        <ele>472.79998779296875</ele>
        <time>2014-12-08T10:52:03Z</time>
      </trkpt>
      <trkpt lat="43.808543644845486" lon="5.314317047595978">
        <ele>474</ele>
        <time>2014-12-08T10:52:07Z</time>
      </trkpt>
      <trkpt lat="43.808510452508926" lon="5.314230211079121">
        <ele>475</ele>
        <time>2014-12-08T10:52:11Z</time>
      </trkpt>
      <trkpt lat="43.808468459174037" lon="5.314137004315853">
        <ele>476</ele>
        <time>2014-12-08T10:52:16Z</time>
      </trkpt>
      <trkpt lat="43.80842269398272" lon="5.314046312123537">
        <ele>477</ele>
        <time>2014-12-08T10:52:21Z</time>
      </trkpt>
      <trkpt lat="43.808374330401421" lon="5.31396584585309">
        <ele>478.20001220703125</ele>
        <time>2014-12-08T10:52:26Z</time>
      </trkpt>
      <trkpt lat="43.808339210227132" lon="5.313917985185981">
        <ele>479</ele>
        <time>2014-12-08T10:52:29Z</time>
      </trkpt>
      <trkpt lat="43.808326553553343" lon="5.31390423886478">
        <ele>479.20001220703125</ele>
        <time>2014-12-08T10:52:30Z</time>
      </trkpt>
      <trkpt lat="43.808282045647502" lon="5.313829472288489">
        <ele>480.20001220703125</ele>
        <time>2014-12-08T10:52:35Z</time>
      </trkpt>
      <trkpt lat="43.808272993192077" lon="5.313819497823715">
        <ele>480.60000610351562</ele>
        <time>2014-12-08T10:52:36Z</time>
      </trkpt>
      <trkpt lat="43.808231838047504" lon="5.313745485618711">
        <ele>481.39999389648438</ele>
        <time>2014-12-08T10:52:41Z</time>
      </trkpt>
      <trkpt lat="43.808203171938658" lon="5.313682286068797">
        <ele>482.39999389648437</ele>
        <time>2014-12-08T10:52:45Z</time>
      </trkpt>
      <trkpt lat="43.808158664032817" lon="5.313588827848434">
        <ele>483.60000610351562</ele>
        <time>2014-12-08T10:52:51Z</time>
      </trkpt>
      <trkpt lat="43.80813485942781" lon="5.313539206981659">
        <ele>484.39999389648437</ele>
        <time>2014-12-08T10:52:54Z</time>
      </trkpt>
      <trkpt lat="43.80811482667923" lon="5.31349771656096">
        <ele>484.79998779296875</ele>
        <time>2014-12-08T10:52:57Z</time>
      </trkpt>
      <trkpt lat="43.808087082579732" lon="5.313417669385672">
        <ele>486</ele>
        <time>2014-12-08T10:53:02Z</time>
      </trkpt>
      <trkpt lat="43.808074509724975" lon="5.313382381573319">
        <ele>486.39999389648437</ele>
        <time>2014-12-08T10:53:04Z</time>
      </trkpt>
      <trkpt lat="43.808053638786077" lon="5.31333795748651">
        <ele>487</ele>
        <time>2014-12-08T10:53:07Z</time>
      </trkpt>
      <trkpt lat="43.808029918000102" lon="5.313294790685177">
        <ele>487.39999389648437</ele>
        <time>2014-12-08T10:53:10Z</time>
      </trkpt>
      <trkpt lat="43.808017680421472" lon="5.313284313306212">
        <ele>487.60000610351562</ele>
        <time>2014-12-08T10:53:11Z</time>
      </trkpt>
      <trkpt lat="43.808007286861539" lon="5.313268890604377">
        <ele>487.79998779296875</ele>
        <time>2014-12-08T10:53:12Z</time>
      </trkpt>
      <trkpt lat="43.80799270235002" lon="5.313237542286515">
        <ele>488.39999389648437</ele>
        <time>2014-12-08T10:53:14Z</time>
      </trkpt>
      <trkpt lat="43.80797702819109" lon="5.313186496496201">
        <ele>488.79998779296875</ele>
        <time>2014-12-08T10:53:17Z</time>
      </trkpt>
      <trkpt lat="43.807971831411123" lon="5.313172833994031">
        <ele>489.20001220703125</ele>
        <time>2014-12-08T10:53:18Z</time>
      </trkpt>
      <trkpt lat="43.807963449507952" lon="5.313161686062813">
        <ele>489.79998779296875</ele>
        <time>2014-12-08T10:53:19Z</time>
      </trkpt>
      <trkpt lat="43.807912990450859" lon="5.313117764890194">
        <ele>490.60000610351562</ele>
        <time>2014-12-08T10:53:24Z</time>
      </trkpt>
      <trkpt lat="43.807903686538339" lon="5.313108460977674">
        <ele>490.79998779296875</ele>
        <time>2014-12-08T10:53:25Z</time>
      </trkpt>
      <trkpt lat="43.80785783752799" lon="5.313063869252801">
        <ele>491.79998779296875</ele>
        <time>2014-12-08T10:53:30Z</time>
      </trkpt>
      <trkpt lat="43.807848449796438" lon="5.313057415187359">
        <ele>492.20001220703125</ele>
        <time>2014-12-08T10:53:31Z</time>
      </trkpt>
      <trkpt lat="43.807782316580415" lon="5.313042411580682">
        <ele>492.79998779296875</ele>
        <time>2014-12-08T10:53:36Z</time>
      </trkpt>
      <trkpt lat="43.807740574702621" lon="5.31304425559938">
        <ele>493.79998779296875</ele>
        <time>2014-12-08T10:53:39Z</time>
      </trkpt>
      <trkpt lat="43.807681063190103" lon="5.313039310276508">
        <ele>494</ele>
        <time>2014-12-08T10:53:43Z</time>
      </trkpt>
      <trkpt lat="43.807638399302959" lon="5.313038555905223">
        <ele>494.60000610351562</ele>
        <time>2014-12-08T10:53:46Z</time>
      </trkpt>
      <trkpt lat="43.807600010186434" lon="5.313056325539947">
        <ele>495.20001220703125</ele>
        <time>2014-12-08T10:53:49Z</time>
      </trkpt>
      <trkpt lat="43.807543348520994" lon="5.313068060204387">
        <ele>496</ele>
        <time>2014-12-08T10:53:53Z</time>
      </trkpt>
      <trkpt lat="43.807528596371412" lon="5.313068898394704">
        <ele>496.20001220703125</ele>
        <time>2014-12-08T10:53:54Z</time>
      </trkpt>
      <trkpt lat="43.807469923049212" lon="5.313075939193368">
        <ele>497.39999389648437</ele>
        <time>2014-12-08T10:53:58Z</time>
      </trkpt>
      <trkpt lat="43.807417033240199" lon="5.313068898394704">
        <ele>498.60000610351562</ele>
        <time>2014-12-08T10:54:02Z</time>
      </trkpt>
      <trkpt lat="43.807404041290283" lon="5.313074178993702">
        <ele>498.60000610351562</ele>
        <time>2014-12-08T10:54:03Z</time>
      </trkpt>
      <trkpt lat="43.807318462058902" lon="5.313085410743952">
        <ele>499.60000610351562</ele>
        <time>2014-12-08T10:54:09Z</time>
      </trkpt>
      <trkpt lat="43.807289879769087" lon="5.313087087124586">
        <ele>500</ele>
        <time>2014-12-08T10:54:11Z</time>
      </trkpt>
      <trkpt lat="43.807209748774767" lon="5.313092702999711">
        <ele>500.79998779296875</ele>
        <time>2014-12-08T10:54:16Z</time>
      </trkpt>
      <trkpt lat="43.807178903371096" lon="5.313091780990362">
        <ele>500.79998779296875</ele>
        <time>2014-12-08T10:54:18Z</time>
      </trkpt>
      <trkpt lat="43.807086031883955" lon="5.313112651929259">
        <ele>501.79998779296875</ele>
        <time>2014-12-08T10:54:24Z</time>
      </trkpt>
      <trkpt lat="43.807050492614508" lon="5.313119944185019">
        <ele>502.20001220703125</ele>
        <time>2014-12-08T10:54:26Z</time>
      </trkpt>
      <trkpt lat="43.806967847049236" lon="5.313135199248791">
        <ele>503</ele>
        <time>2014-12-08T10:54:31Z</time>
      </trkpt>
      <trkpt lat="43.806931804865599" lon="5.313134277239442">
        <ele>503.20001220703125</ele>
        <time>2014-12-08T10:54:33Z</time>
      </trkpt>
      <trkpt lat="43.806862570345402" lon="5.313135366886854">
        <ele>504</ele>
        <time>2014-12-08T10:54:37Z</time>
      </trkpt>
      <trkpt lat="43.806800963357091" lon="5.313153974711895">
        <ele>505</ele>
        <time>2014-12-08T10:54:41Z</time>
      </trkpt>
      <trkpt lat="43.806785456836224" lon="5.31315665692091">
        <ele>505.20001220703125</ele>
        <time>2014-12-08T10:54:42Z</time>
      </trkpt>
      <trkpt lat="43.806708930060267" lon="5.313172750174999">
        <ele>506.39999389648438</ele>
        <time>2014-12-08T10:54:47Z</time>
      </trkpt>
      <trkpt lat="43.80668118596077" lon="5.313183395192027">
        <ele>507.20001220703125</ele>
        <time>2014-12-08T10:54:49Z</time>
      </trkpt>
      <trkpt lat="43.806652687489986" lon="5.313185155391693">
        <ele>507.39999389648437</ele>
        <time>2014-12-08T10:54:51Z</time>
      </trkpt>
      <trkpt lat="43.806527126580477" lon="5.313187418505549">
        <ele>508.39999389648437</ele>
        <time>2014-12-08T10:54:59Z</time>
      </trkpt>
      <trkpt lat="43.806499382480979" lon="5.313197476789355">
        <ele>508.39999389648437</ele>
        <time>2014-12-08T10:55:01Z</time>
      </trkpt>
      <trkpt lat="43.806420089676976" lon="5.313213234767318">
        <ele>509.39999389648437</ele>
        <time>2014-12-08T10:55:06Z</time>
      </trkpt>
      <trkpt lat="43.806405924260616" lon="5.313215414062142">
        <ele>509.60000610351563</ele>
        <time>2014-12-08T10:55:07Z</time>
      </trkpt>
      <trkpt lat="43.80635286681354" lon="5.313242906704545">
        <ele>510.60000610351562</ele>
        <time>2014-12-08T10:55:11Z</time>
      </trkpt>
      <trkpt lat="43.806291678920388" lon="5.313259838148952">
        <ele>511.20001220703125</ele>
        <time>2014-12-08T10:55:15Z</time>
      </trkpt>
      <trkpt lat="43.806260833516717" lon="5.313256485387683">
        <ele>511.60000610351562</ele>
        <time>2014-12-08T10:55:17Z</time>
      </trkpt>
      <trkpt lat="43.806183887645602" lon="5.313264699652791">
        <ele>512.79998779296875</ele>
        <time>2014-12-08T10:55:22Z</time>
      </trkpt>
      <trkpt lat="43.806168381124735" lon="5.313270231708884">
        <ele>513</ele>
        <time>2014-12-08T10:55:23Z</time>
      </trkpt>
      <trkpt lat="43.806061511859298" lon="5.313279619440436">
        <ele>513.79998779296875</ele>
        <time>2014-12-08T10:55:30Z</time>
      </trkpt>
      <trkpt lat="43.80603083409369" lon="5.313274171203375">
        <ele>514</ele>
        <time>2014-12-08T10:55:32Z</time>
      </trkpt>
      <trkpt lat="43.805931592360139" lon="5.313241900876164">
        <ele>515.20001220703125</ele>
        <time>2014-12-08T10:55:38Z</time>
      </trkpt>
      <trkpt lat="43.805887419730425" lon="5.313220107927918">
        <ele>515.5999755859375</ele>
        <time>2014-12-08T10:55:41Z</time>
      </trkpt>
      <trkpt lat="43.8058593403548" lon="5.313202673569322">
        <ele>516.20001220703125</ele>
        <time>2014-12-08T10:55:43Z</time>
      </trkpt>
      <trkpt lat="43.805759763345122" lon="5.313118854537606">
        <ele>517.20001220703125</ele>
        <time>2014-12-08T10:55:50Z</time>
      </trkpt>
      <trkpt lat="43.805665634572506" lon="5.313026821240783">
        <ele>518.4000244140625</ele>
        <time>2014-12-08T10:55:58Z</time>
      </trkpt>
      <trkpt lat="43.805620037019253" lon="5.312987761572003">
        <ele>519.4000244140625</ele>
        <time>2014-12-08T10:56:02Z</time>
      </trkpt>
      <trkpt lat="43.805579384788871" lon="5.312968650832772">
        <ele>520</ele>
        <time>2014-12-08T10:56:05Z</time>
      </trkpt>
      <trkpt lat="43.805565303191543" lon="5.312958173453808">
        <ele>520.20001220703125</ele>
        <time>2014-12-08T10:56:06Z</time>
      </trkpt>
      <trkpt lat="43.805552646517754" lon="5.312944427132607">
        <ele>520.4000244140625</ele>
        <time>2014-12-08T10:56:07Z</time>
      </trkpt>
      <trkpt lat="43.80550847388804" lon="5.312879635021091">
        <ele>520.79998779296875</ele>
        <time>2014-12-08T10:56:11Z</time>
      </trkpt>
      <trkpt lat="43.805469749495387" lon="5.312761114910245">
        <ele>521.5999755859375</ele>
        <time>2014-12-08T10:56:17Z</time>
      </trkpt>
      <trkpt lat="43.805473269894719" lon="5.312722139060497">
        <ele>522</ele>
        <time>2014-12-08T10:56:19Z</time>
      </trkpt>
      <trkpt lat="43.805482489988208" lon="5.312630189582706">
        <ele>522.79998779296875</ele>
        <time>2014-12-08T10:56:24Z</time>
      </trkpt>
      <trkpt lat="43.805491039529443" lon="5.312576964497566">
        <ele>524</ele>
        <time>2014-12-08T10:56:27Z</time>
      </trkpt>
      <trkpt lat="43.805509060621262" lon="5.312527678906918">
        <ele>525.20001220703125</ele>
        <time>2014-12-08T10:56:30Z</time>
      </trkpt>
      <trkpt lat="43.805546192452312" lon="5.312445368617773">
        <ele>525.5999755859375</ele>
        <time>2014-12-08T10:56:35Z</time>
      </trkpt>
      <trkpt lat="43.805578630417585" lon="5.312407230958343">
        <ele>526.20001220703125</ele>
        <time>2014-12-08T10:56:38Z</time>
      </trkpt>
      <trkpt lat="43.805633699521422" lon="5.312333134934306">
        <ele>526.5999755859375</ele>
        <time>2014-12-08T10:56:43Z</time>
      </trkpt>
      <trkpt lat="43.805657839402556" lon="5.312225511297584">
        <ele>527.4000244140625</ele>
        <time>2014-12-08T10:56:48Z</time>
      </trkpt>
      <trkpt lat="43.805659180507064" lon="5.312185445800424">
        <ele>528</ele>
        <time>2014-12-08T10:56:50Z</time>
      </trkpt>
      <trkpt lat="43.805645266547799" lon="5.312120486050844">
        <ele>528.5999755859375</ele>
        <time>2014-12-08T10:56:53Z</time>
      </trkpt>
      <trkpt lat="43.805641243234277" lon="5.312099782750011">
        <ele>528.5999755859375</ele>
        <time>2014-12-08T10:56:54Z</time>
      </trkpt>
      <trkpt lat="43.805612325668335" lon="5.312019735574722">
        <ele>529.20001220703125</ele>
        <time>2014-12-08T10:56:58Z</time>
      </trkpt>
      <trkpt lat="43.80557837896049" lon="5.311942119151354">
        <ele>529.5999755859375</ele>
        <time>2014-12-08T10:57:02Z</time>
      </trkpt>
      <trkpt lat="43.805539989843965" lon="5.311881015077233">
        <ele>530.4000244140625</ele>
        <time>2014-12-08T10:57:06Z</time>
      </trkpt>
      <trkpt lat="43.805530853569508" lon="5.311862071976066">
        <ele>530.5999755859375</ele>
        <time>2014-12-08T10:57:07Z</time>
      </trkpt>
      <trkpt lat="43.805472096428275" lon="5.311748497188091">
        <ele>532.20001220703125</ele>
        <time>2014-12-08T10:57:14Z</time>
      </trkpt>
      <trkpt lat="43.805427923798561" lon="5.311672054231167">
        <ele>533.20001220703125</ele>
        <time>2014-12-08T10:57:19Z</time>
      </trkpt>
      <trkpt lat="43.805393306538463" lon="5.31160918995738">
        <ele>534</ele>
        <time>2014-12-08T10:57:23Z</time>
      </trkpt>
      <trkpt lat="43.805385679006577" lon="5.311592258512974">
        <ele>534.20001220703125</ele>
        <time>2014-12-08T10:57:24Z</time>
      </trkpt>
      <trkpt lat="43.805355252698064" lon="5.311505421996117">
        <ele>535.4000244140625</ele>
        <time>2014-12-08T10:57:29Z</time>
      </trkpt>
      <trkpt lat="43.80533211864531" lon="5.31142738647759">
        <ele>536.4000244140625</ele>
        <time>2014-12-08T10:57:33Z</time>
      </trkpt>
      <trkpt lat="43.805330861359835" lon="5.311406347900629">
        <ele>536.79998779296875</ele>
        <time>2014-12-08T10:57:34Z</time>
      </trkpt>
      <trkpt lat="43.805349301546812" lon="5.311304088681936">
        <ele>538</ele>
        <time>2014-12-08T10:57:39Z</time>
      </trkpt>
      <trkpt lat="43.805349050089717" lon="5.311285480856895">
        <ele>538.4000244140625</ele>
        <time>2014-12-08T10:57:40Z</time>
      </trkpt>
      <trkpt lat="43.805363299325109" lon="5.311209373176098">
        <ele>539.20001220703125</ele>
        <time>2014-12-08T10:57:44Z</time>
      </trkpt>
      <trkpt lat="43.805374531075358" lon="5.311158411204815">
        <ele>540.20001220703125</ele>
        <time>2014-12-08T10:57:47Z</time>
      </trkpt>
      <trkpt lat="43.805378638207912" lon="5.31114349141717">
        <ele>540.4000244140625</ele>
        <time>2014-12-08T10:57:48Z</time>
      </trkpt>
      <trkpt lat="43.805386181920767" lon="5.311112646013498">
        <ele>540.4000244140625</ele>
        <time>2014-12-08T10:57:50Z</time>
      </trkpt>
      <trkpt lat="43.805409483611584" lon="5.311047434806824">
        <ele>541.20001220703125</ele>
        <time>2014-12-08T10:57:54Z</time>
      </trkpt>
      <trkpt lat="43.805414931848645" lon="5.311014745384455">
        <ele>541.4000244140625</ele>
        <time>2014-12-08T10:57:56Z</time>
      </trkpt>
      <trkpt lat="43.805416692048311" lon="5.310997730121017">
        <ele>541.4000244140625</ele>
        <time>2014-12-08T10:57:57Z</time>
      </trkpt>
      <trkpt lat="43.805424571037292" lon="5.310941068455577">
        <ele>542.5999755859375</ele>
        <time>2014-12-08T10:58:00Z</time>
      </trkpt>
      <trkpt lat="43.805424822494388" lon="5.310910139232874">
        <ele>543</ele>
        <time>2014-12-08T10:58:02Z</time>
      </trkpt>
      <trkpt lat="43.805436473339796" lon="5.310845598578453">
        <ele>543.5999755859375</ele>
        <time>2014-12-08T10:58:06Z</time>
      </trkpt>
      <trkpt lat="43.805471258237958" lon="5.310779381543398">
        <ele>544.20001220703125</ele>
        <time>2014-12-08T10:58:10Z</time>
      </trkpt>
      <trkpt lat="43.805487854406238" lon="5.310747278854251">
        <ele>544.79998779296875</ele>
        <time>2014-12-08T10:58:12Z</time>
      </trkpt>
      <trkpt lat="43.805521717295051" lon="5.310657089576125">
        <ele>545.4000244140625</ele>
        <time>2014-12-08T10:58:17Z</time>
      </trkpt>
      <trkpt lat="43.805558932945132" lon="5.310586178675294">
        <ele>545.79998779296875</ele>
        <time>2014-12-08T10:58:21Z</time>
      </trkpt>
      <trkpt lat="43.805600674822927" lon="5.310515183955431">
        <ele>546.20001220703125</ele>
        <time>2014-12-08T10:58:25Z</time>
      </trkpt>
      <trkpt lat="43.805640153586864" lon="5.310452822595835">
        <ele>547</ele>
        <time>2014-12-08T10:58:28Z</time>
      </trkpt>
      <trkpt lat="43.805668400600553" lon="5.310413092374802">
        <ele>548.4000244140625</ele>
        <time>2014-12-08T10:58:30Z</time>
      </trkpt>
      <trkpt lat="43.805710142478347" lon="5.310348803177476">
        <ele>548</ele>
        <time>2014-12-08T10:58:33Z</time>
      </trkpt>
      <trkpt lat="43.805836541578174" lon="5.31012374907732">
        <ele>548.20001220703125</ele>
        <time>2014-12-08T10:58:43Z</time>
      </trkpt>
      <trkpt lat="43.805975178256631" lon="5.309908334165812">
        <ele>549.20001220703125</ele>
        <time>2014-12-08T10:58:52Z</time>
      </trkpt>
      <trkpt lat="43.806051034480333" lon="5.309778414666653">
        <ele>549.4000244140625</ele>
        <time>2014-12-08T10:58:57Z</time>
      </trkpt>
      <trkpt lat="43.806096464395523" lon="5.309700546786189">
        <ele>549.5999755859375</ele>
        <time>2014-12-08T10:59:00Z</time>
      </trkpt>
      <trkpt lat="43.806187156587839" lon="5.309550929814577">
        <ele>550.5999755859375</ele>
        <time>2014-12-08T10:59:06Z</time>
      </trkpt>
      <trkpt lat="43.806233676150441" lon="5.309448502957821">
        <ele>551</ele>
        <time>2014-12-08T10:59:10Z</time>
      </trkpt>
      <trkpt lat="43.806191682815552" lon="5.309294778853655">
        <ele>549.5999755859375</ele>
        <time>2014-12-08T10:59:15Z</time>
      </trkpt>
      <trkpt lat="43.806153293699026" lon="5.309244906529784">
        <ele>549.20001220703125</ele>
        <time>2014-12-08T10:59:17Z</time>
      </trkpt>
      <trkpt lat="43.80609143525362" lon="5.309179024770856">
        <ele>548.79998779296875</ele>
        <time>2014-12-08T10:59:20Z</time>
      </trkpt>
      <trkpt lat="43.806009292602539" lon="5.30909663066268">
        <ele>548.20001220703125</ele>
        <time>2014-12-08T10:59:23Z</time>
      </trkpt>
      <trkpt lat="43.805934945121408" lon="5.309018678963184">
        <ele>547.20001220703125</ele>
        <time>2014-12-08T10:59:26Z</time>
      </trkpt>
      <trkpt lat="43.805907284840941" lon="5.308993281796575">
        <ele>546.5999755859375</ele>
        <time>2014-12-08T10:59:27Z</time>
      </trkpt>
      <trkpt lat="43.805830841884017" lon="5.308937458321452">
        <ele>546.5999755859375</ele>
        <time>2014-12-08T10:59:30Z</time>
      </trkpt>
      <trkpt lat="43.805709639564157" lon="5.308851040899754">
        <ele>545.4000244140625</ele>
        <time>2014-12-08T10:59:35Z</time>
      </trkpt>
      <trkpt lat="43.805699916556478" lon="5.308817010372877">
        <ele>544.5999755859375</ele>
        <time>2014-12-08T10:59:36Z</time>
      </trkpt>
      <trkpt lat="43.805699246004224" lon="5.308780632913113">
        <ele>544.20001220703125</ele>
        <time>2014-12-08T10:59:37Z</time>
      </trkpt>
      <trkpt lat="43.805736377835274" lon="5.308686839416623">
        <ele>543</ele>
        <time>2014-12-08T10:59:40Z</time>
      </trkpt>
      <trkpt lat="43.805784992873669" lon="5.308605702593923">
        <ele>542.20001220703125</ele>
        <time>2014-12-08T10:59:42Z</time>
      </trkpt>
      <trkpt lat="43.805822711437941" lon="5.308520710095763">
        <ele>541.79998779296875</ele>
        <time>2014-12-08T10:59:44Z</time>
      </trkpt>
      <trkpt lat="43.805887587368488" lon="5.308395149186254">
        <ele>540.4000244140625</ele>
        <time>2014-12-08T10:59:47Z</time>
      </trkpt>
      <trkpt lat="43.805940141901374" lon="5.308312168344855">
        <ele>539.5999755859375</ele>
        <time>2014-12-08T10:59:49Z</time>
      </trkpt>
      <trkpt lat="43.805962353944778" lon="5.30826791189611">
        <ele>539.4000244140625</ele>
        <time>2014-12-08T10:59:50Z</time>
      </trkpt>
      <trkpt lat="43.805973334237933" lon="5.308112679049373">
        <ele>538.4000244140625</ele>
        <time>2014-12-08T10:59:53Z</time>
      </trkpt>
      <trkpt lat="43.805934274569154" lon="5.307980161160231">
        <ele>537.5999755859375</ele>
        <time>2014-12-08T10:59:55Z</time>
      </trkpt>
      <trkpt lat="43.805880881845951" lon="5.307856444269419">
        <ele>537.20001220703125</ele>
        <time>2014-12-08T10:59:57Z</time>
      </trkpt>
      <trkpt lat="43.805848443880677" lon="5.307801039889455">
        <ele>537.20001220703125</ele>
        <time>2014-12-08T10:59:58Z</time>
      </trkpt>
      <trkpt lat="43.805718692019582" lon="5.307656032964587">
        <ele>536.79998779296875</ele>
        <time>2014-12-08T11:00:02Z</time>
      </trkpt>
      <trkpt lat="43.805560190230608" lon="5.307514630258083">
        <ele>538</ele>
        <time>2014-12-08T11:00:09Z</time>
      </trkpt>
      <trkpt lat="43.805436724796891" lon="5.30740549787879">
        <ele>538.20001220703125</ele>
        <time>2014-12-08T11:00:14Z</time>
      </trkpt>
      <trkpt lat="43.805310409516096" lon="5.307158147916198">
        <ele>537.4000244140625</ele>
        <time>2014-12-08T11:00:21Z</time>
      </trkpt>
      <trkpt lat="43.805155009031296" lon="5.306937703862786">
        <ele>537.4000244140625</ele>
        <time>2014-12-08T11:00:28Z</time>
      </trkpt>
      <trkpt lat="43.804983180016279" lon="5.306761097162962">
        <ele>537.4000244140625</ele>
        <time>2014-12-08T11:00:35Z</time>
      </trkpt>
      <trkpt lat="43.804914196953177" lon="5.306611228734255">
        <ele>538.20001220703125</ele>
        <time>2014-12-08T11:00:40Z</time>
      </trkpt>
      <trkpt lat="43.804901037365198" lon="5.30658021569252">
        <ele>538.4000244140625</ele>
        <time>2014-12-08T11:00:41Z</time>
      </trkpt>
      <trkpt lat="43.804861390963197" lon="5.306435711681843">
        <ele>539.20001220703125</ele>
        <time>2014-12-08T11:00:46Z</time>
      </trkpt>
      <trkpt lat="43.804855942726135" lon="5.306415092200041">
        <ele>539.4000244140625</ele>
        <time>2014-12-08T11:00:47Z</time>
      </trkpt>
      <trkpt lat="43.804811518639326" lon="5.306229265406728">
        <ele>540.20001220703125</ele>
        <time>2014-12-08T11:00:53Z</time>
      </trkpt>
      <trkpt lat="43.804790647700429" lon="5.306139662861824">
        <ele>540.5999755859375</ele>
        <time>2014-12-08T11:00:56Z</time>
      </trkpt>
      <trkpt lat="43.804775141179562" lon="5.306062968447805">
        <ele>541</ele>
        <time>2014-12-08T11:00:59Z</time>
      </trkpt>
      <trkpt lat="43.804765418171883" lon="5.305981077253819">
        <ele>541.5999755859375</ele>
        <time>2014-12-08T11:01:14Z</time>
      </trkpt>
      <trkpt lat="43.804769441485405" lon="5.305951656773686">
        <ele>541.79998779296875</ele>
        <time>2014-12-08T11:01:15Z</time>
      </trkpt>
      <trkpt lat="43.804772207513452" lon="5.305795334279537">
        <ele>542.79998779296875</ele>
        <time>2014-12-08T11:01:20Z</time>
      </trkpt>
      <trkpt lat="43.804778242483735" lon="5.305740935727954">
        <ele>543.20001220703125</ele>
        <time>2014-12-08T11:01:22Z</time>
      </trkpt>
      <trkpt lat="43.804784612730145" lon="5.305638760328293">
        <ele>544</ele>
        <time>2014-12-08T11:01:26Z</time>
      </trkpt>
      <trkpt lat="43.804792240262032" lon="5.305615877732635">
        <ele>544.20001220703125</ele>
        <time>2014-12-08T11:01:27Z</time>
      </trkpt>
      <trkpt lat="43.804809339344501" lon="5.305542452260852">
        <ele>545.20001220703125</ele>
        <time>2014-12-08T11:01:30Z</time>
      </trkpt>
      <trkpt lat="43.804833814501762" lon="5.305487969890237">
        <ele>546</ele>
        <time>2014-12-08T11:01:33Z</time>
      </trkpt>
      <trkpt lat="43.804838676005602" lon="5.305471541360021">
        <ele>546.20001220703125</ele>
        <time>2014-12-08T11:01:34Z</time>
      </trkpt>
      <trkpt lat="43.804831216111779" lon="5.305389482527971">
        <ele>547</ele>
        <time>2014-12-08T11:01:38Z</time>
      </trkpt>
      <trkpt lat="43.804818810895085" lon="5.305345728993416">
        <ele>547.79998779296875</ele>
        <time>2014-12-08T11:01:40Z</time>
      </trkpt>
      <trkpt lat="43.8047887198627" lon="5.305267609655857">
        <ele>547.79998779296875</ele>
        <time>2014-12-08T11:01:43Z</time>
      </trkpt>
      <trkpt lat="43.804779248312116" lon="5.305240787565708">
        <ele>547.79998779296875</ele>
        <time>2014-12-08T11:01:44Z</time>
      </trkpt>
      <trkpt lat="43.804742535576224" lon="5.305041298270226">
        <ele>547.5999755859375</ele>
        <time>2014-12-08T11:01:51Z</time>
      </trkpt>
      <trkpt lat="43.804701045155525" lon="5.304874246940017">
        <ele>549</ele>
        <time>2014-12-08T11:01:57Z</time>
      </trkpt>
      <trkpt lat="43.804691573604941" lon="5.304815322160721">
        <ele>549.4000244140625</ele>
        <time>2014-12-08T11:01:59Z</time>
      </trkpt>
      <trkpt lat="43.80470079369843" lon="5.304641984403133">
        <ele>550</ele>
        <time>2014-12-08T11:02:05Z</time>
      </trkpt>
      <trkpt lat="43.804694507271051" lon="5.304614827036858">
        <ele>550</ele>
        <time>2014-12-08T11:02:06Z</time>
      </trkpt>
      <trkpt lat="43.80463482812047" lon="5.304544335231185">
        <ele>550.79998779296875</ele>
        <time>2014-12-08T11:02:10Z</time>
      </trkpt>
      <trkpt lat="43.804613286629319" lon="5.304538803175092">
        <ele>550.79998779296875</ele>
        <time>2014-12-08T11:02:11Z</time>
      </trkpt>
      <trkpt lat="43.804526953026652" lon="5.304562691599131">
        <ele>551.20001220703125</ele>
        <time>2014-12-08T11:02:15Z</time>
      </trkpt>
      <trkpt lat="43.804401392117143" lon="5.304678026586771">
        <ele>552</ele>
        <time>2014-12-08T11:02:22Z</time>
      </trkpt>
      <trkpt lat="43.804367696866393" lon="5.304715242236853">
        <ele>552.4000244140625</ele>
        <time>2014-12-08T11:02:24Z</time>
      </trkpt>
      <trkpt lat="43.80430743098259" lon="5.304810963571072">
        <ele>553.4000244140625</ele>
        <time>2014-12-08T11:02:29Z</time>
      </trkpt>
      <trkpt lat="43.804295444861054" lon="5.304831163957715">
        <ele>553.5999755859375</ele>
        <time>2014-12-08T11:02:30Z</time>
      </trkpt>
      <trkpt lat="43.804250182583928" lon="5.304881287738681">
        <ele>554.5999755859375</ele>
        <time>2014-12-08T11:02:34Z</time>
      </trkpt>
      <trkpt lat="43.80422436632216" lon="5.304901152849197">
        <ele>555.20001220703125</ele>
        <time>2014-12-08T11:02:36Z</time>
      </trkpt>
      <trkpt lat="43.804194359108806" lon="5.30492227524519">
        <ele>555.5999755859375</ele>
        <time>2014-12-08T11:02:38Z</time>
      </trkpt>
      <trkpt lat="43.804115569218993" lon="5.304963178932667">
        <ele>556.79998779296875</ele>
        <time>2014-12-08T11:02:43Z</time>
      </trkpt>
      <trkpt lat="43.804100146517158" lon="5.304968040436506">
        <ele>557</ele>
        <time>2014-12-08T11:02:44Z</time>
      </trkpt>
      <trkpt lat="43.80404457449913" lon="5.3049804456532">
        <ele>557.79998779296875</ele>
        <time>2014-12-08T11:02:48Z</time>
      </trkpt>
      <trkpt lat="43.804002581164241" lon="5.304977260529995">
        <ele>558.79998779296875</ele>
        <time>2014-12-08T11:02:51Z</time>
      </trkpt>
      <trkpt lat="43.803988080471754" lon="5.304973823949695">
        <ele>559.20001220703125</ele>
        <time>2014-12-08T11:02:52Z</time>
      </trkpt>
      <trkpt lat="43.803939549252391" lon="5.304962424561381">
        <ele>560</ele>
        <time>2014-12-08T11:02:55Z</time>
      </trkpt>
      <trkpt lat="43.80387987010181" lon="5.304929399862886">
        <ele>561.4000244140625</ele>
        <time>2014-12-08T11:02:59Z</time>
      </trkpt>
      <trkpt lat="43.803857825696468" lon="5.304900817573071">
        <ele>562.4000244140625</ele>
        <time>2014-12-08T11:03:01Z</time>
      </trkpt>
      <trkpt lat="43.803853048011661" lon="5.304882964119315">
        <ele>562.79998779296875</ele>
        <time>2014-12-08T11:03:02Z</time>
      </trkpt>
      <trkpt lat="43.803851371631026" lon="5.304814651608467">
        <ele>563.79998779296875</ele>
        <time>2014-12-08T11:03:06Z</time>
      </trkpt>
      <trkpt lat="43.803847599774599" lon="5.30474298633635">
        <ele>564.4000244140625</ele>
        <time>2014-12-08T11:03:20Z</time>
      </trkpt>
      <trkpt lat="43.803848521783948" lon="5.304723121225834">
        <ele>564.79998779296875</ele>
        <time>2014-12-08T11:03:21Z</time>
      </trkpt>
      <trkpt lat="43.803845001384616" lon="5.304705435410142">
        <ele>565</ele>
        <time>2014-12-08T11:03:22Z</time>
      </trkpt>
      <trkpt lat="43.803833518177271" lon="5.304616251960397">
        <ele>566.20001220703125</ele>
        <time>2014-12-08T11:03:27Z</time>
      </trkpt>
      <trkpt lat="43.803849695250392" lon="5.304491445422173">
        <ele>567.20001220703125</ele>
        <time>2014-12-08T11:03:34Z</time>
      </trkpt>
      <trkpt lat="43.803849527612329" lon="5.304352808743715">
        <ele>568.4000244140625</ele>
        <time>2014-12-08T11:03:41Z</time>
      </trkpt>
      <trkpt lat="43.803845420479774" lon="5.30433545820415">
        <ele>568.5999755859375</ele>
        <time>2014-12-08T11:03:42Z</time>
      </trkpt>
      <trkpt lat="43.803833099082112" lon="5.304270498454571">
        <ele>569.4000244140625</ele>
        <time>2014-12-08T11:03:46Z</time>
      </trkpt>
      <trkpt lat="43.803813233971596" lon="5.304220877587795">
        <ele>570.20001220703125</ele>
        <time>2014-12-08T11:03:49Z</time>
      </trkpt>
      <trkpt lat="43.80380854010582" lon="5.304202269762754">
        <ele>570.4000244140625</ele>
        <time>2014-12-08T11:03:50Z</time>
      </trkpt>
      <trkpt lat="43.803803510963917" lon="5.304168658331037">
        <ele>570.79998779296875</ele>
        <time>2014-12-08T11:03:52Z</time>
      </trkpt>
      <trkpt lat="43.803771827369928" lon="5.304171172901988">
        <ele>571.4000244140625</ele>
        <time>2014-12-08T11:03:55Z</time>
      </trkpt>
      <trkpt lat="43.80376067943871" lon="5.304182237014175">
        <ele>571.5999755859375</ele>
        <time>2014-12-08T11:03:56Z</time>
      </trkpt>
      <trkpt lat="43.803702006116509" lon="5.304246358573437">
        <ele>571.5999755859375</ele>
        <time>2014-12-08T11:04:01Z</time>
      </trkpt>
      <trkpt lat="43.803608883172274" lon="5.304302852600813">
        <ele>571.79998779296875</ele>
        <time>2014-12-08T11:04:08Z</time>
      </trkpt>
      <trkpt lat="43.803579043596983" lon="5.304279467090964">
        <ele>572.4000244140625</ele>
        <time>2014-12-08T11:04:10Z</time>
      </trkpt>
      <trkpt lat="43.80357057787478" lon="5.304263038560748">
        <ele>572.5999755859375</ele>
        <time>2014-12-08T11:04:11Z</time>
      </trkpt>
      <trkpt lat="43.803564626723528" lon="5.304219285026193">
        <ele>573.20001220703125</ele>
        <time>2014-12-08T11:04:13Z</time>
      </trkpt>
      <trkpt lat="43.803563117980957" lon="5.304199922829866">
        <ele>573.5999755859375</ele>
        <time>2014-12-08T11:04:14Z</time>
      </trkpt>
      <trkpt lat="43.803560519590974" lon="5.304180309176445">
        <ele>573.79998779296875</ele>
        <time>2014-12-08T11:04:15Z</time>
      </trkpt>
      <trkpt lat="43.80353344604373" lon="5.304071931168437">
        <ele>574.5999755859375</ele>
        <time>2014-12-08T11:04:20Z</time>
      </trkpt>
      <trkpt lat="43.803515508770943" lon="5.303990207612515">
        <ele>575.79998779296875</ele>
        <time>2014-12-08T11:04:25Z</time>
      </trkpt>
      <trkpt lat="43.803507126867771" lon="5.303937904536724">
        <ele>576.20001220703125</ele>
        <time>2014-12-08T11:04:28Z</time>
      </trkpt>
      <trkpt lat="43.803490195423365" lon="5.303884595632553">
        <ele>576.79998779296875</ele>
        <time>2014-12-08T11:04:31Z</time>
      </trkpt>
      <trkpt lat="43.803466977551579" lon="5.303798262029886">
        <ele>577.79998779296875</ele>
        <time>2014-12-08T11:04:36Z</time>
      </trkpt>
      <trkpt lat="43.803463289514184" lon="5.303781917318702">
        <ele>577.79998779296875</ele>
        <time>2014-12-08T11:04:37Z</time>
      </trkpt>
      <trkpt lat="43.803465887904167" lon="5.30376180075109">
        <ele>578</ele>
        <time>2014-12-08T11:04:38Z</time>
      </trkpt>
      <trkpt lat="43.803469743579626" lon="5.303692733868957">
        <ele>578.5999755859375</ele>
        <time>2014-12-08T11:04:42Z</time>
      </trkpt>
      <trkpt lat="43.803481394425035" lon="5.303655685856938">
        <ele>579</ele>
        <time>2014-12-08T11:04:44Z</time>
      </trkpt>
      <trkpt lat="43.803503103554249" lon="5.303531046956778">
        <ele>579.79998779296875</ele>
        <time>2014-12-08T11:04:50Z</time>
      </trkpt>
      <trkpt lat="43.803459433838725" lon="5.303571950644255">
        <ele>580.4000244140625</ele>
        <time>2014-12-08T11:05:06Z</time>
      </trkpt>
      <trkpt lat="43.803427666425705" lon="5.303602376952767">
        <ele>580.20001220703125</ele>
        <time>2014-12-08T11:05:08Z</time>
      </trkpt>
      <trkpt lat="43.803379470482469" lon="5.303638000041246">
        <ele>580.20001220703125</ele>
        <time>2014-12-08T11:05:10Z</time>
      </trkpt>
      <trkpt lat="43.80328232422471" lon="5.303715113550425">
        <ele>580.20001220703125</ele>
        <time>2014-12-08T11:05:14Z</time>
      </trkpt>
      <trkpt lat="43.803017288446426" lon="5.303929019719362">
        <ele>579.79998779296875</ele>
        <time>2014-12-08T11:05:23Z</time>
      </trkpt>
      <trkpt lat="43.802859792485833" lon="5.304052317515016">
        <ele>579.4000244140625</ele>
        <time>2014-12-08T11:05:29Z</time>
      </trkpt>
      <trkpt lat="43.802805561572313" lon="5.304098501801491">
        <ele>579.20001220703125</ele>
        <time>2014-12-08T11:05:31Z</time>
      </trkpt>
      <trkpt lat="43.802706403657794" lon="5.304173855111003">
        <ele>579</ele>
        <time>2014-12-08T11:05:35Z</time>
      </trkpt>
      <trkpt lat="43.802522839978337" lon="5.304349372163415">
        <ele>579.20001220703125</ele>
        <time>2014-12-08T11:05:42Z</time>
      </trkpt>
      <trkpt lat="43.80233533680439" lon="5.304430341348052">
        <ele>579</ele>
        <time>2014-12-08T11:05:48Z</time>
      </trkpt>
      <trkpt lat="43.802191168069839" lon="5.304344426840544">
        <ele>579.5999755859375</ele>
        <time>2014-12-08T11:05:53Z</time>
      </trkpt>
      <trkpt lat="43.802099972963333" lon="5.304255746304989">
        <ele>580.4000244140625</ele>
        <time>2014-12-08T11:05:57Z</time>
      </trkpt>
      <trkpt lat="43.802034677937627" lon="5.304188774898648">
        <ele>581</ele>
        <time>2014-12-08T11:06:00Z</time>
      </trkpt>
      <trkpt lat="43.801996959373355" lon="5.304145021364093">
        <ele>581.79998779296875</ele>
        <time>2014-12-08T11:06:02Z</time>
      </trkpt>
      <trkpt lat="43.801945578306913" lon="5.304068410769105">
        <ele>582.4000244140625</ele>
        <time>2014-12-08T11:06:06Z</time>
      </trkpt>
      <trkpt lat="43.801912050694227" lon="5.304037565365434">
        <ele>582.79998779296875</ele>
        <time>2014-12-08T11:06:08Z</time>
      </trkpt>
      <trkpt lat="43.801837787032127" lon="5.303986016660929">
        <ele>583.5999755859375</ele>
        <time>2014-12-08T11:06:12Z</time>
      </trkpt>
      <trkpt lat="43.801798392087221" lon="5.303974281996489">
        <ele>584</ele>
        <time>2014-12-08T11:06:14Z</time>
      </trkpt>
      <trkpt lat="43.801714824512601" lon="5.303953159600496">
        <ele>584.20001220703125</ele>
        <time>2014-12-08T11:06:18Z</time>
      </trkpt>
      <trkpt lat="43.80159898661077" lon="5.303892474621534">
        <ele>585</ele>
        <time>2014-12-08T11:06:24Z</time>
      </trkpt>
      <trkpt lat="43.801511647179723" lon="5.303812511265278">
        <ele>586.20001220703125</ele>
        <time>2014-12-08T11:06:29Z</time>
      </trkpt>
      <trkpt lat="43.801478203386068" lon="5.303781414404512">
        <ele>586.20001220703125</ele>
        <time>2014-12-08T11:06:31Z</time>
      </trkpt>
      <trkpt lat="43.801343673840165" lon="5.303614111617208">
        <ele>586.79998779296875</ele>
        <time>2014-12-08T11:06:39Z</time>
      </trkpt>
      <trkpt lat="43.8012969866395" lon="5.303555019199848">
        <ele>587.4000244140625</ele>
        <time>2014-12-08T11:06:42Z</time>
      </trkpt>
      <trkpt lat="43.801235966384411" lon="5.303426273167133">
        <ele>588</ele>
        <time>2014-12-08T11:06:47Z</time>
      </trkpt>
      <trkpt lat="43.801213670521975" lon="5.303380759432912">
        <ele>588.79998779296875</ele>
        <time>2014-12-08T11:06:49Z</time>
      </trkpt>
      <trkpt lat="43.801146363839507" lon="5.303283194079995">
        <ele>588.5999755859375</ele>
        <time>2014-12-08T11:06:54Z</time>
      </trkpt>
      <trkpt lat="43.801032118499279" lon="5.30317984521389">
        <ele>587.79998779296875</ele>
        <time>2014-12-08T11:07:00Z</time>
      </trkpt>
      <trkpt lat="43.801008397713304" lon="5.303169786930084">
        <ele>587</ele>
        <time>2014-12-08T11:07:01Z</time>
      </trkpt>
      <trkpt lat="43.800937570631504" lon="5.303136929869652">
        <ele>586</ele>
        <time>2014-12-08T11:07:04Z</time>
      </trkpt>
      <trkpt lat="43.800863977521658" lon="5.303103318437934">
        <ele>585.20001220703125</ele>
        <time>2014-12-08T11:07:07Z</time>
      </trkpt>
      <trkpt lat="43.800842016935349" lon="5.303092170506716">
        <ele>584.79998779296875</ele>
        <time>2014-12-08T11:07:08Z</time>
      </trkpt>
      <trkpt lat="43.800758449360728" lon="5.303046153858304">
        <ele>583.5999755859375</ele>
        <time>2014-12-08T11:07:11Z</time>
      </trkpt>
      <trkpt lat="43.800705475732684" lon="5.303029390051961">
        <ele>582.5999755859375</ele>
        <time>2014-12-08T11:07:13Z</time>
      </trkpt>
      <trkpt lat="43.800680581480265" lon="5.303026288747788">
        <ele>582.20001220703125</ele>
        <time>2014-12-08T11:07:14Z</time>
      </trkpt>
      <trkpt lat="43.800584860146046" lon="5.302990078926086">
        <ele>580.79998779296875</ele>
        <time>2014-12-08T11:07:18Z</time>
      </trkpt>
      <trkpt lat="43.80056407302618" lon="5.302975745871663">
        <ele>580.20001220703125</ele>
        <time>2014-12-08T11:07:19Z</time>
      </trkpt>
      <trkpt lat="43.800545046105981" lon="5.302964262664318">
        <ele>579.5999755859375</ele>
        <time>2014-12-08T11:07:20Z</time>
      </trkpt>
      <trkpt lat="43.800413450226188" lon="5.302916066721082">
        <ele>578.79998779296875</ele>
        <time>2014-12-08T11:07:26Z</time>
      </trkpt>
      <trkpt lat="43.800360895693302" lon="5.302893267944455">
        <ele>578.4000244140625</ele>
        <time>2014-12-08T11:07:28Z</time>
      </trkpt>
      <trkpt lat="43.800263665616512" lon="5.30280165374279">
        <ele>577.5999755859375</ele>
        <time>2014-12-08T11:07:32Z</time>
      </trkpt>
      <trkpt lat="43.800184624269605" lon="5.302682546898723">
        <ele>577.4000244140625</ele>
        <time>2014-12-08T11:07:36Z</time>
      </trkpt>
      <trkpt lat="43.800135338678956" lon="5.302606355398893">
        <ele>577</ele>
        <time>2014-12-08T11:07:39Z</time>
      </trkpt>
      <trkpt lat="43.800049759447575" lon="5.302477944642305">
        <ele>576.79998779296875</ele>
        <time>2014-12-08T11:07:44Z</time>
      </trkpt>
      <trkpt lat="43.80003877915442" lon="5.302415918558836">
        <ele>576.20001220703125</ele>
        <time>2014-12-08T11:07:46Z</time>
      </trkpt>
      <trkpt lat="43.800049172714353" lon="5.302268313243985">
        <ele>575</ele>
        <time>2014-12-08T11:07:50Z</time>
      </trkpt>
      <trkpt lat="43.800115892663598" lon="5.302121043205261">
        <ele>574.5999755859375</ele>
        <time>2014-12-08T11:07:55Z</time>
      </trkpt>
      <trkpt lat="43.800105080008507" lon="5.302067147567868">
        <ele>574.4000244140625</ele>
        <time>2014-12-08T11:07:57Z</time>
      </trkpt>
      <trkpt lat="43.800082867965102" lon="5.302058346569538">
        <ele>574</ele>
        <time>2014-12-08T11:07:58Z</time>
      </trkpt>
      <trkpt lat="43.800060823559761" lon="5.302059855312109">
        <ele>573.79998779296875</ele>
        <time>2014-12-08T11:07:59Z</time>
      </trkpt>
      <trkpt lat="43.800008855760098" lon="5.302107632160187">
        <ele>573.4000244140625</ele>
        <time>2014-12-08T11:08:02Z</time>
      </trkpt>
      <trkpt lat="43.799975411966443" lon="5.302146524190903">
        <ele>573</ele>
        <time>2014-12-08T11:08:04Z</time>
      </trkpt>
      <trkpt lat="43.799944231286645" lon="5.30218449421227">
        <ele>573</ele>
        <time>2014-12-08T11:08:06Z</time>
      </trkpt>
      <trkpt lat="43.799853958189487" lon="5.302278371527791">
        <ele>572.5999755859375</ele>
        <time>2014-12-08T11:08:10Z</time>
      </trkpt>
      <trkpt lat="43.799778437241912" lon="5.302376355975866">
        <ele>571.79998779296875</ele>
        <time>2014-12-08T11:08:13Z</time>
      </trkpt>
      <trkpt lat="43.799713980406523" lon="5.302455313503742">
        <ele>571</ele>
        <time>2014-12-08T11:08:16Z</time>
      </trkpt>
      <trkpt lat="43.799677519127727" lon="5.302476100623608">
        <ele>570.79998779296875</ele>
        <time>2014-12-08T11:08:18Z</time>
      </trkpt>
      <trkpt lat="43.799658492207527" lon="5.302439974620938">
        <ele>570.5999755859375</ele>
        <time>2014-12-08T11:08:20Z</time>
      </trkpt>
      <trkpt lat="43.799715992063284" lon="5.302326902747154">
        <ele>569.79998779296875</ele>
        <time>2014-12-08T11:08:24Z</time>
      </trkpt>
      <trkpt lat="43.799736443907022" lon="5.302287340164185">
        <ele>569.20001220703125</ele>
        <time>2014-12-08T11:08:25Z</time>
      </trkpt>
      <trkpt lat="43.799770642071962" lon="5.302195474505425">
        <ele>568</ele>
        <time>2014-12-08T11:08:27Z</time>
      </trkpt>
      <trkpt lat="43.799802828580141" lon="5.302115846425295">
        <ele>568</ele>
        <time>2014-12-08T11:08:29Z</time>
      </trkpt>
      <trkpt lat="43.799853539094329" lon="5.301950052380562">
        <ele>567.5999755859375</ele>
        <time>2014-12-08T11:08:34Z</time>
      </trkpt>
      <trkpt lat="43.799886396154761" lon="5.301785431802273">
        <ele>567</ele>
        <time>2014-12-08T11:08:38Z</time>
      </trkpt>
      <trkpt lat="43.799897963181138" lon="5.301709491759539">
        <ele>566.5999755859375</ele>
        <time>2014-12-08T11:08:40Z</time>
      </trkpt>
      <trkpt lat="43.799966778606176" lon="5.301425596699119">
        <ele>565.5999755859375</ele>
        <time>2014-12-08T11:08:47Z</time>
      </trkpt>
      <trkpt lat="43.800005251541734" lon="5.301348986104131">
        <ele>564.5999755859375</ele>
        <time>2014-12-08T11:08:50Z</time>
      </trkpt>
      <trkpt lat="43.800073228776455" lon="5.301322666928172">
        <ele>563.79998779296875</ele>
        <time>2014-12-08T11:08:53Z</time>
      </trkpt>
      <trkpt lat="43.800103068351746" lon="5.301324930042028">
        <ele>563.5999755859375</ele>
        <time>2014-12-08T11:08:54Z</time>
      </trkpt>
      <trkpt lat="43.800222342833877" lon="5.301367426291108">
        <ele>562.4000244140625</ele>
        <time>2014-12-08T11:08:58Z</time>
      </trkpt>
      <trkpt lat="43.800335414707661" lon="5.301399361342192">
        <ele>561</ele>
        <time>2014-12-08T11:09:02Z</time>
      </trkpt>
      <trkpt lat="43.800368523225188" lon="5.301408162340522">
        <ele>560.79998779296875</ele>
        <time>2014-12-08T11:09:03Z</time>
      </trkpt>
      <trkpt lat="43.800467932596803" lon="5.301417298614979">
        <ele>560</ele>
        <time>2014-12-08T11:09:06Z</time>
      </trkpt>
      <trkpt lat="43.800585614517331" lon="5.301432050764561">
        <ele>558.79998779296875</ele>
        <time>2014-12-08T11:09:10Z</time>
      </trkpt>
      <trkpt lat="43.800644371658564" lon="5.301452586427331">
        <ele>557.4000244140625</ele>
        <time>2014-12-08T11:09:12Z</time>
      </trkpt>
      <trkpt lat="43.800711510702968" lon="5.301457364112139">
        <ele>556</ele>
        <time>2014-12-08T11:09:14Z</time>
      </trkpt>
      <trkpt lat="43.800783259794116" lon="5.301429787650704">
        <ele>555</ele>
        <time>2014-12-08T11:09:16Z</time>
      </trkpt>
      <trkpt lat="43.800876131281257" lon="5.301312943920493">
        <ele>554.5999755859375</ele>
        <time>2014-12-08T11:09:20Z</time>
      </trkpt>
      <trkpt lat="43.801015187054873" lon="5.301248319447041">
        <ele>554</ele>
        <time>2014-12-08T11:09:25Z</time>
      </trkpt>
      <trkpt lat="43.801045529544353" lon="5.301252007484436">
        <ele>553.5999755859375</ele>
        <time>2014-12-08T11:09:26Z</time>
      </trkpt>
      <trkpt lat="43.801169665530324" lon="5.301235327497125">
        <ele>552.79998779296875</ele>
        <time>2014-12-08T11:09:30Z</time>
      </trkpt>
      <trkpt lat="43.801203779876232" lon="5.30123214237392">
        <ele>552.4000244140625</ele>
        <time>2014-12-08T11:09:31Z</time>
      </trkpt>
      <trkpt lat="43.801390863955021" lon="5.301206326112151">
        <ele>551.5999755859375</ele>
        <time>2014-12-08T11:09:36Z</time>
      </trkpt>
      <trkpt lat="43.801422044634819" lon="5.301198782399297">
        <ele>551</ele>
        <time>2014-12-08T11:09:37Z</time>
      </trkpt>
      <trkpt lat="43.801479376852512" lon="5.301175648346543">
        <ele>549.79998779296875</ele>
        <time>2014-12-08T11:09:39Z</time>
      </trkpt>
      <trkpt lat="43.801529249176383" lon="5.301159303635359">
        <ele>548.5999755859375</ele>
        <time>2014-12-08T11:09:41Z</time>
      </trkpt>
      <trkpt lat="43.801560597494245" lon="5.301163662225008">
        <ele>548.20001220703125</ele>
        <time>2014-12-08T11:09:42Z</time>
      </trkpt>
      <trkpt lat="43.801596304401755" lon="5.301165422424674">
        <ele>547.5999755859375</ele>
        <time>2014-12-08T11:09:43Z</time>
      </trkpt>
      <trkpt lat="43.801676854491234" lon="5.3011554479599">
        <ele>546.4000244140625</ele>
        <time>2014-12-08T11:09:45Z</time>
      </trkpt>
      <trkpt lat="43.801767798140645" lon="5.301149412989616">
        <ele>545.79998779296875</ele>
        <time>2014-12-08T11:09:47Z</time>
      </trkpt>
      <trkpt lat="43.801811886951327" lon="5.301145138218999">
        <ele>545.4000244140625</ele>
        <time>2014-12-08T11:09:48Z</time>
      </trkpt>
      <trkpt lat="43.801910961046815" lon="5.301129966974258">
        <ele>544.20001220703125</ele>
        <time>2014-12-08T11:09:51Z</time>
      </trkpt>
      <trkpt lat="43.801937280222774" lon="5.301129464060068">
        <ele>544</ele>
        <time>2014-12-08T11:09:52Z</time>
      </trkpt>
      <trkpt lat="43.801992097869515" lon="5.301131475716829">
        <ele>543</ele>
        <time>2014-12-08T11:09:54Z</time>
      </trkpt>
      <trkpt lat="43.802084801718593" lon="5.301181599497795">
        <ele>541.4000244140625</ele>
        <time>2014-12-08T11:09:58Z</time>
      </trkpt>
      <trkpt lat="43.802109779790044" lon="5.301203727722168">
        <ele>541</ele>
        <time>2014-12-08T11:09:59Z</time>
      </trkpt>
      <trkpt lat="43.802192090079188" lon="5.301268436014652">
        <ele>540.20001220703125</ele>
        <time>2014-12-08T11:10:02Z</time>
      </trkpt>
      <trkpt lat="43.802258223295212" lon="5.301298778504133">
        <ele>539</ele>
        <time>2014-12-08T11:10:04Z</time>
      </trkpt>
      <trkpt lat="43.802291499450803" lon="5.301299449056387">
        <ele>538.5999755859375</ele>
        <time>2014-12-08T11:10:05Z</time>
      </trkpt>
      <trkpt lat="43.802362829446793" lon="5.301308417692781">
        <ele>537.79998779296875</ele>
        <time>2014-12-08T11:10:07Z</time>
      </trkpt>
      <trkpt lat="43.802426196634769" lon="5.301305735483766">
        <ele>536.79998779296875</ele>
        <time>2014-12-08T11:10:09Z</time>
      </trkpt>
      <trkpt lat="43.802458131685853" lon="5.301298443228006">
        <ele>536.4000244140625</ele>
        <time>2014-12-08T11:10:10Z</time>
      </trkpt>
      <trkpt lat="43.802512027323246" lon="5.30127908103168">
        <ele>535.79998779296875</ele>
        <time>2014-12-08T11:10:12Z</time>
      </trkpt>
      <trkpt lat="43.802603557705879" lon="5.301205571740866">
        <ele>534.5999755859375</ele>
        <time>2014-12-08T11:10:15Z</time>
      </trkpt>
      <trkpt lat="43.802669774740934" lon="5.301099708303809">
        <ele>533.4000244140625</ele>
        <time>2014-12-08T11:10:18Z</time>
      </trkpt>
      <trkpt lat="43.802681257948279" lon="5.301031311973929">
        <ele>532.4000244140625</ele>
        <time>2014-12-08T11:10:20Z</time>
      </trkpt>
      <trkpt lat="43.802666924893856" lon="5.301003819331527">
        <ele>532</ele>
        <time>2014-12-08T11:10:21Z</time>
      </trkpt>
      <trkpt lat="43.802633481100202" lon="5.30097465030849">
        <ele>531.79998779296875</ele>
        <time>2014-12-08T11:10:23Z</time>
      </trkpt>
      <trkpt lat="43.80257673561573" lon="5.30098395422101">
        <ele>531.20001220703125</ele>
        <time>2014-12-08T11:10:25Z</time>
      </trkpt>
      <trkpt lat="43.802520660683513" lon="5.301005830988288">
        <ele>530.5999755859375</ele>
        <time>2014-12-08T11:10:27Z</time>
      </trkpt>
      <trkpt lat="43.80249073728919" lon="5.301014464348555">
        <ele>530.4000244140625</ele>
        <time>2014-12-08T11:10:28Z</time>
      </trkpt>
      <trkpt lat="43.802459640428424" lon="5.30101471580565">
        <ele>530</ele>
        <time>2014-12-08T11:10:29Z</time>
      </trkpt>
      <trkpt lat="43.802359225228429" lon="5.300969118252397">
        <ele>529.20001220703125</ele>
        <time>2014-12-08T11:10:33Z</time>
      </trkpt>
      <trkpt lat="43.802336845546961" lon="5.300950426608324">
        <ele>529</ele>
        <time>2014-12-08T11:10:34Z</time>
      </trkpt>
      <trkpt lat="43.802228718996048" lon="5.300811789929867">
        <ele>528.20001220703125</ele>
        <time>2014-12-08T11:10:39Z</time>
      </trkpt>
      <trkpt lat="43.802170213311911" lon="5.300743980333209">
        <ele>527.79998779296875</ele>
        <time>2014-12-08T11:10:41Z</time>
      </trkpt>
      <trkpt lat="43.802055800333619" lon="5.300633003935218">
        <ele>526.79998779296875</ele>
        <time>2014-12-08T11:10:45Z</time>
      </trkpt>
      <trkpt lat="43.802002742886543" lon="5.300589920952916">
        <ele>526</ele>
        <time>2014-12-08T11:10:47Z</time>
      </trkpt>
      <trkpt lat="43.801978854462504" lon="5.300572067499161">
        <ele>525.4000244140625</ele>
        <time>2014-12-08T11:10:48Z</time>
      </trkpt>
      <trkpt lat="43.801875673234463" lon="5.300527727231383">
        <ele>524.4000244140625</ele>
        <time>2014-12-08T11:10:52Z</time>
      </trkpt>
      <trkpt lat="43.801838625222445" lon="5.300517417490482">
        <ele>524.20001220703125</ele>
        <time>2014-12-08T11:10:53Z</time>
      </trkpt>
      <trkpt lat="43.801756566390395" lon="5.300495959818363">
        <ele>523.20001220703125</ele>
        <time>2014-12-08T11:10:55Z</time>
      </trkpt>
      <trkpt lat="43.801622204482555" lon="5.300469053909183">
        <ele>522.5999755859375</ele>
        <time>2014-12-08T11:10:58Z</time>
      </trkpt>
      <trkpt lat="43.801459344103932" lon="5.300433598458767">
        <ele>521.79998779296875</ele>
        <time>2014-12-08T11:11:02Z</time>
      </trkpt>
      <trkpt lat="43.801427492871881" lon="5.300425300374627">
        <ele>521.5999755859375</ele>
        <time>2014-12-08T11:11:03Z</time>
      </trkpt>
      <trkpt lat="43.801313247531652" lon="5.300394371151924">
        <ele>520.79998779296875</ele>
        <time>2014-12-08T11:11:07Z</time>
      </trkpt>
      <trkpt lat="43.801226243376732" lon="5.300359418615699">
        <ele>519.5999755859375</ele>
        <time>2014-12-08T11:11:10Z</time>
      </trkpt>
      <trkpt lat="43.801117530092597" lon="5.30032622627914">
        <ele>518.4000244140625</ele>
        <time>2014-12-08T11:11:14Z</time>
      </trkpt>
      <trkpt lat="43.80108836106956" lon="5.300322873517871">
        <ele>517.79998779296875</ele>
        <time>2014-12-08T11:11:15Z</time>
      </trkpt>
      <trkpt lat="43.801058437675238" lon="5.300316670909524">
        <ele>517</ele>
        <time>2014-12-08T11:11:16Z</time>
      </trkpt>
      <trkpt lat="43.800924411043525" lon="5.300329327583313">
        <ele>516.20001220703125</ele>
        <time>2014-12-08T11:11:20Z</time>
      </trkpt>
      <trkpt lat="43.80086263641715" lon="5.300338882952929">
        <ele>515.79998779296875</ele>
        <time>2014-12-08T11:11:22Z</time>
      </trkpt>
      <trkpt lat="43.800780577585101" lon="5.300341984257102">
        <ele>514.4000244140625</ele>
        <time>2014-12-08T11:11:25Z</time>
      </trkpt>
      <trkpt lat="43.800753252580762" lon="5.300344498828054">
        <ele>513.5999755859375</ele>
        <time>2014-12-08T11:11:26Z</time>
      </trkpt>
      <trkpt lat="43.800727184861898" lon="5.300346342846751">
        <ele>513.20001220703125</ele>
        <time>2014-12-08T11:11:27Z</time>
      </trkpt>
      <trkpt lat="43.800647472962737" lon="5.300338128581643">
        <ele>512.20001220703125</ele>
        <time>2014-12-08T11:11:30Z</time>
      </trkpt>
      <trkpt lat="43.800557283684611" lon="5.300345169380307">
        <ele>511.39999389648438</ele>
        <time>2014-12-08T11:11:33Z</time>
      </trkpt>
      <trkpt lat="43.800524510443211" lon="5.30035212635994">
        <ele>511.20001220703125</ele>
        <time>2014-12-08T11:11:34Z</time>
      </trkpt>
      <trkpt lat="43.80042820237577" lon="5.300350869074464">
        <ele>509.79998779296875</ele>
        <time>2014-12-08T11:11:37Z</time>
      </trkpt>
      <trkpt lat="43.800374809652567" lon="5.300326142460108">
        <ele>509</ele>
        <time>2014-12-08T11:11:39Z</time>
      </trkpt>
      <trkpt lat="43.800348825752735" lon="5.300307283177972">
        <ele>507.79998779296875</ele>
        <time>2014-12-08T11:11:40Z</time>
      </trkpt>
      <trkpt lat="43.800267437472939" lon="5.300265038385987">
        <ele>506.60000610351562</ele>
        <time>2014-12-08T11:11:43Z</time>
      </trkpt>
      <trkpt lat="43.800206081941724" lon="5.300202509388328">
        <ele>505.79998779296875</ele>
        <time>2014-12-08T11:11:46Z</time>
      </trkpt>
      <trkpt lat="43.800195856019855" lon="5.300169065594673">
        <ele>505.60000610351562</ele>
        <time>2014-12-08T11:11:47Z</time>
      </trkpt>
      <trkpt lat="43.800114719197154" lon="5.300020705908537">
        <ele>504</ele>
        <time>2014-12-08T11:11:51Z</time>
      </trkpt>
      <trkpt lat="43.800087897107005" lon="5.299982400611043">
        <ele>503.60000610351562</ele>
        <time>2014-12-08T11:11:52Z</time>
      </trkpt>
      <trkpt lat="43.800027128309011" lon="5.299914507195354">
        <ele>502.79998779296875</ele>
        <time>2014-12-08T11:11:55Z</time>
      </trkpt>
      <trkpt lat="43.799976920709014" lon="5.299887768924236">
        <ele>502.20001220703125</ele>
        <time>2014-12-08T11:11:57Z</time>
      </trkpt>
      <trkpt lat="43.799943225458264" lon="5.299872681498528">
        <ele>501.79998779296875</ele>
        <time>2014-12-08T11:11:58Z</time>
      </trkpt>
      <trkpt lat="43.799825292080641" lon="5.299848960712552">
        <ele>500.60000610351562</ele>
        <time>2014-12-08T11:12:01Z</time>
      </trkpt>
      <trkpt lat="43.799712806940079" lon="5.299822306260467">
        <ele>499.20001220703125</ele>
        <time>2014-12-08T11:12:04Z</time>
      </trkpt>
      <trkpt lat="43.799594873562455" lon="5.29981903731823">
        <ele>498</ele>
        <time>2014-12-08T11:12:07Z</time>
      </trkpt>
      <trkpt lat="43.799558999016881" lon="5.299828089773655">
        <ele>497.79998779296875</ele>
        <time>2014-12-08T11:12:08Z</time>
      </trkpt>
      <trkpt lat="43.79943679086864" lon="5.299854325130582">
        <ele>496.79998779296875</ele>
        <time>2014-12-08T11:12:11Z</time>
      </trkpt>
      <trkpt lat="43.799351463094354" lon="5.299878381192684">
        <ele>496.20001220703125</ele>
        <time>2014-12-08T11:12:13Z</time>
      </trkpt>
      <trkpt lat="43.799272757023573" lon="5.299922302365303">
        <ele>495.60000610351562</ele>
        <time>2014-12-08T11:12:15Z</time>
      </trkpt>
      <trkpt lat="43.799155410379171" lon="5.300012659281492">
        <ele>494.60000610351562</ele>
        <time>2014-12-08T11:12:18Z</time>
      </trkpt>
      <trkpt lat="43.799088355153799" lon="5.300079630687833">
        <ele>493.39999389648437</ele>
        <time>2014-12-08T11:12:20Z</time>
      </trkpt>
      <trkpt lat="43.799027753993869" lon="5.300135035067797">
        <ele>492.60000610351562</ele>
        <time>2014-12-08T11:12:22Z</time>
      </trkpt>
      <trkpt lat="43.799000261351466" lon="5.300157582387328">
        <ele>492.39999389648437</ele>
        <time>2014-12-08T11:12:23Z</time>
      </trkpt>
      <trkpt lat="43.798895068466663" lon="5.300253136083484">
        <ele>491</ele>
        <time>2014-12-08T11:12:27Z</time>
      </trkpt>
      <trkpt lat="43.798862798139453" lon="5.300295129418373">
        <ele>489.79998779296875</ele>
        <time>2014-12-08T11:12:29Z</time>
      </trkpt>
      <trkpt lat="43.798803621903062" lon="5.300391856580973">
        <ele>488.60000610351562</ele>
        <time>2014-12-08T11:12:34Z</time>
      </trkpt>
      <trkpt lat="43.798736734315753" lon="5.300449524074793">
        <ele>488.20001220703125</ele>
        <time>2014-12-08T11:12:38Z</time>
      </trkpt>
      <trkpt lat="43.798717288300395" lon="5.300444662570953">
        <ele>488.20001220703125</ele>
        <time>2014-12-08T11:12:39Z</time>
      </trkpt>
      <trkpt lat="43.798693651333451" lon="5.300380121916533">
        <ele>488.60000610351562</ele>
        <time>2014-12-08T11:12:43Z</time>
      </trkpt>
      <trkpt lat="43.798714438453317" lon="5.300285238772631">
        <ele>489</ele>
        <time>2014-12-08T11:12:46Z</time>
      </trkpt>
      <trkpt lat="43.798724077641964" lon="5.300185745581985">
        <ele>489.20001220703125</ele>
        <time>2014-12-08T11:12:49Z</time>
      </trkpt>
      <trkpt lat="43.798730950802565" lon="5.300094718113542">
        <ele>489.79998779296875</ele>
        <time>2014-12-08T11:12:52Z</time>
      </trkpt>
      <trkpt lat="43.798751654103398" lon="5.299970917403698">
        <ele>490.60000610351562</ele>
        <time>2014-12-08T11:12:56Z</time>
      </trkpt>
      <trkpt lat="43.798761796206236" lon="5.299944765865803">
        <ele>490.79998779296875</ele>
        <time>2014-12-08T11:12:57Z</time>
      </trkpt>
      <trkpt lat="43.798783672973514" lon="5.299831526353955">
        <ele>491.20001220703125</ele>
        <time>2014-12-08T11:13:01Z</time>
      </trkpt>
      <trkpt lat="43.798775626346469" lon="5.299804033711553">
        <ele>491.20001220703125</ele>
        <time>2014-12-08T11:13:02Z</time>
      </trkpt>
      <trkpt lat="43.798743356019258" lon="5.29969590716064">
        <ele>492</ele>
        <time>2014-12-08T11:13:06Z</time>
      </trkpt>
      <trkpt lat="43.798739416524768" lon="5.299613764509559">
        <ele>492.20001220703125</ele>
        <time>2014-12-08T11:13:09Z</time>
      </trkpt>
      <trkpt lat="43.798732459545135" lon="5.299471355974674">
        <ele>493</ele>
        <time>2014-12-08T11:13:14Z</time>
      </trkpt>
      <trkpt lat="43.798732962459326" lon="5.29944914393127">
        <ele>493.20001220703125</ele>
        <time>2014-12-08T11:13:15Z</time>
      </trkpt>
      <trkpt lat="43.798743942752481" lon="5.299267675727606">
        <ele>494.20001220703125</ele>
        <time>2014-12-08T11:13:21Z</time>
      </trkpt>
      <trkpt lat="43.79869407042861" lon="5.299108000472188">
        <ele>495</ele>
        <time>2014-12-08T11:13:27Z</time>
      </trkpt>
      <trkpt lat="43.798685688525438" lon="5.299088135361671">
        <ele>495.39999389648438</ele>
        <time>2014-12-08T11:13:28Z</time>
      </trkpt>
      <trkpt lat="43.79866917617619" lon="5.298981266096234">
        <ele>496.39999389648437</ele>
        <time>2014-12-08T11:13:33Z</time>
      </trkpt>
      <trkpt lat="43.798668589442968" lon="5.298957042396069">
        <ele>496.60000610351562</ele>
        <time>2014-12-08T11:13:34Z</time>
      </trkpt>
      <trkpt lat="43.798665991052985" lon="5.298894261941314">
        <ele>497.60000610351562</ele>
        <time>2014-12-08T11:13:37Z</time>
      </trkpt>
      <trkpt lat="43.798676803708076" lon="5.298845898360014">
        <ele>498.20001220703125</ele>
        <time>2014-12-08T11:13:40Z</time>
      </trkpt>
      <trkpt lat="43.798685520887375" lon="5.298836175352335">
        <ele>498.60000610351562</ele>
        <time>2014-12-08T11:13:41Z</time>
      </trkpt>
      <trkpt lat="43.798699015751481" lon="5.298824440687895">
        <ele>498.79998779296875</ele>
        <time>2014-12-08T11:13:42Z</time>
      </trkpt>
      <trkpt lat="43.798750312998891" lon="5.298769287765026">
        <ele>498.79998779296875</ele>
        <time>2014-12-08T11:13:46Z</time>
      </trkpt>
      <trkpt lat="43.798831533640623" lon="5.298743471503258">
        <ele>499.79998779296875</ele>
        <time>2014-12-08T11:13:51Z</time>
      </trkpt>
      <trkpt lat="43.798847878351808" lon="5.298740956932306">
        <ele>500</ele>
        <time>2014-12-08T11:13:52Z</time>
      </trkpt>
      <trkpt lat="43.799010990187526" lon="5.298692593351007">
        <ele>500.20001220703125</ele>
        <time>2014-12-08T11:14:00Z</time>
      </trkpt>
      <trkpt lat="43.799093551933765" lon="5.298625370487571">
        <ele>501.20001220703125</ele>
        <time>2014-12-08T11:14:04Z</time>
      </trkpt>
      <trkpt lat="43.799120793119073" lon="5.298597123473883">
        <ele>501.60000610351562</ele>
        <time>2014-12-08T11:14:06Z</time>
      </trkpt>
      <trkpt lat="43.799159433692694" lon="5.29856912791729">
        <ele>502.20001220703125</ele>
        <time>2014-12-08T11:14:09Z</time>
      </trkpt>
      <trkpt lat="43.799216682091355" lon="5.298524871468544">
        <ele>502.60000610351562</ele>
        <time>2014-12-08T11:14:13Z</time>
      </trkpt>
      <trkpt lat="43.799311397597194" lon="5.298489248380065">
        <ele>503.39999389648437</ele>
        <time>2014-12-08T11:14:19Z</time>
      </trkpt>
      <trkpt lat="43.799463110044599" lon="5.298483883962035">
        <ele>504.60000610351562</ele>
        <time>2014-12-08T11:14:27Z</time>
      </trkpt>
      <trkpt lat="43.799567045643926" lon="5.298483213409782">
        <ele>505.60000610351562</ele>
        <time>2014-12-08T11:14:32Z</time>
      </trkpt>
      <trkpt lat="43.799597471952438" lon="5.298478854820132">
        <ele>506.20001220703125</ele>
        <time>2014-12-08T11:14:34Z</time>
      </trkpt>
      <trkpt lat="43.799643572419882" lon="5.298464689403772">
        <ele>506.79998779296875</ele>
        <time>2014-12-08T11:14:37Z</time>
      </trkpt>
      <trkpt lat="43.799683973193169" lon="5.298423115164042">
        <ele>507.39999389648437</ele>
        <time>2014-12-08T11:14:41Z</time>
      </trkpt>
      <trkpt lat="43.799682380631566" lon="5.298284143209457">
        <ele>507.39999389648437</ele>
        <time>2014-12-08T11:14:46Z</time>
      </trkpt>
      <trkpt lat="43.799685230478644" lon="5.298184230923653">
        <ele>508</ele>
        <time>2014-12-08T11:14:50Z</time>
      </trkpt>
      <trkpt lat="43.799683218821883" lon="5.298140058293939">
        <ele>508.60000610351562</ele>
        <time>2014-12-08T11:14:52Z</time>
      </trkpt>
      <trkpt lat="43.799667293205857" lon="5.298043414950371">
        <ele>509</ele>
        <time>2014-12-08T11:14:56Z</time>
      </trkpt>
      <trkpt lat="43.799625970423222" lon="5.297969318926334">
        <ele>510</ele>
        <time>2014-12-08T11:15:00Z</time>
      </trkpt>
      <trkpt lat="43.79961809143424" lon="5.297961523756385">
        <ele>510.20001220703125</ele>
        <time>2014-12-08T11:15:01Z</time>
      </trkpt>
      <trkpt lat="43.799581378698349" lon="5.297911735251546">
        <ele>511.20001220703125</ele>
        <time>2014-12-08T11:15:05Z</time>
      </trkpt>
      <trkpt lat="43.799572829157114" lon="5.2978933788836">
        <ele>511.60000610351562</ele>
        <time>2014-12-08T11:15:06Z</time>
      </trkpt>
      <trkpt lat="43.79956092685461" lon="5.297874435782433">
        <ele>512</ele>
        <time>2014-12-08T11:15:07Z</time>
      </trkpt>
      <trkpt lat="43.799541061744094" lon="5.297831520438194">
        <ele>513</ele>
        <time>2014-12-08T11:15:09Z</time>
      </trkpt>
      <trkpt lat="43.799509713426232" lon="5.297777960076928">
        <ele>514</ele>
        <time>2014-12-08T11:15:12Z</time>
      </trkpt>
      <trkpt lat="43.79949395544827" lon="5.297747952863574">
        <ele>514.5999755859375</ele>
        <time>2014-12-08T11:15:14Z</time>
      </trkpt>
      <trkpt lat="43.799487333744764" lon="5.297728758305311">
        <ele>515</ele>
        <time>2014-12-08T11:15:15Z</time>
      </trkpt>
      <trkpt lat="43.799473755061626" lon="5.297687267884612">
        <ele>516.20001220703125</ele>
        <time>2014-12-08T11:15:17Z</time>
      </trkpt>
      <trkpt lat="43.799443915486336" lon="5.297614680603147">
        <ele>517.20001220703125</ele>
        <time>2014-12-08T11:15:21Z</time>
      </trkpt>
      <trkpt lat="43.799435701221228" lon="5.29759825207293">
        <ele>517.4000244140625</ele>
        <time>2014-12-08T11:15:22Z</time>
      </trkpt>
      <trkpt lat="43.799412567168474" lon="5.297553995624185">
        <ele>518.20001220703125</ele>
        <time>2014-12-08T11:15:25Z</time>
      </trkpt>
      <trkpt lat="43.799387756735086" lon="5.297473194077611">
        <ele>519.4000244140625</ele>
        <time>2014-12-08T11:15:30Z</time>
      </trkpt>
      <trkpt lat="43.799362108111382" lon="5.297416616231203">
        <ele>520.4000244140625</ele>
        <time>2014-12-08T11:15:34Z</time>
      </trkpt>
      <trkpt lat="43.799347272142768" lon="5.297362636774778">
        <ele>521.5999755859375</ele>
        <time>2014-12-08T11:15:38Z</time>
      </trkpt>
      <trkpt lat="43.799327742308378" lon="5.297292815521359">
        <ele>522.79998779296875</ele>
        <time>2014-12-08T11:15:42Z</time>
      </trkpt>
      <trkpt lat="43.798826923593879" lon="5.296712620183826">
        <ele>534.4000244140625</ele>
        <time>2014-12-08T11:17:30Z</time>
      </trkpt>
      <trkpt lat="43.798813680186868" lon="5.296698119491339">
        <ele>534.5999755859375</ele>
        <time>2014-12-08T11:17:31Z</time>
      </trkpt>
      <trkpt lat="43.798768166452646" lon="5.296657970175147">
        <ele>535.4000244140625</ele>
        <time>2014-12-08T11:17:35Z</time>
      </trkpt>
      <trkpt lat="43.798731537535787" lon="5.296623101457954">
        <ele>536.20001220703125</ele>
        <time>2014-12-08T11:17:38Z</time>
      </trkpt>
      <trkpt lat="43.798705637454987" lon="5.296605164185166">
        <ele>536.5999755859375</ele>
        <time>2014-12-08T11:17:40Z</time>
      </trkpt>
      <trkpt lat="43.798665907233953" lon="5.296570966020227">
        <ele>537.5999755859375</ele>
        <time>2014-12-08T11:17:43Z</time>
      </trkpt>
      <trkpt lat="43.798630870878696" lon="5.296542048454285">
        <ele>538.4000244140625</ele>
        <time>2014-12-08T11:17:46Z</time>
      </trkpt>
      <trkpt lat="43.798618633300066" lon="5.296528218314052">
        <ele>538.79998779296875</ele>
        <time>2014-12-08T11:17:47Z</time>
      </trkpt>
      <trkpt lat="43.798571107909083" lon="5.296473987400532">
        <ele>539.79998779296875</ele>
        <time>2014-12-08T11:17:51Z</time>
      </trkpt>
      <trkpt lat="43.798539508134127" lon="5.296431323513389">
        <ele>540.79998779296875</ele>
        <time>2014-12-08T11:17:54Z</time>
      </trkpt>
      <trkpt lat="43.79852743819356" lon="5.296421935781837">
        <ele>541</ele>
        <time>2014-12-08T11:17:55Z</time>
      </trkpt>
      <trkpt lat="43.798475135117769" lon="5.296376505866647">
        <ele>542.20001220703125</ele>
        <time>2014-12-08T11:17:59Z</time>
      </trkpt>
      <trkpt lat="43.798450157046318" lon="5.296344738453627">
        <ele>542.79998779296875</ele>
        <time>2014-12-08T11:18:02Z</time>
      </trkpt>
      <trkpt lat="43.798425765708089" lon="5.296324789524078">
        <ele>543.4000244140625</ele>
        <time>2014-12-08T11:18:04Z</time>
      </trkpt>
      <trkpt lat="43.798400200903416" lon="5.296297883614898">
        <ele>544.4000244140625</ele>
        <time>2014-12-08T11:18:06Z</time>
      </trkpt>
      <trkpt lat="43.798372959718108" lon="5.29626427218318">
        <ele>545</ele>
        <time>2014-12-08T11:18:09Z</time>
      </trkpt>
      <trkpt lat="43.798349993303418" lon="5.296224039047957">
        <ele>545.5999755859375</ele>
        <time>2014-12-08T11:18:12Z</time>
      </trkpt>
      <trkpt lat="43.798313699662685" lon="5.296143321320415">
        <ele>546.79998779296875</ele>
        <time>2014-12-08T11:18:17Z</time>
      </trkpt>
      <trkpt lat="43.798306072130799" lon="5.29612747952342">
        <ele>547</ele>
        <time>2014-12-08T11:18:18Z</time>
      </trkpt>
      <trkpt lat="43.798284698277712" lon="5.296077523380518">
        <ele>548</ele>
        <time>2014-12-08T11:18:21Z</time>
      </trkpt>
      <trkpt lat="43.798261480405927" lon="5.296037290245295">
        <ele>548.79998779296875</ele>
        <time>2014-12-08T11:18:24Z</time>
      </trkpt>
      <trkpt lat="43.798254439607263" lon="5.296027064323425">
        <ele>549</ele>
        <time>2014-12-08T11:18:25Z</time>
      </trkpt>
      <trkpt lat="43.798235245049" lon="5.295981215313077">
        <ele>550.4000244140625</ele>
        <time>2014-12-08T11:18:29Z</time>
      </trkpt>
      <trkpt lat="43.798213955014944" lon="5.295945256948471">
        <ele>551.20001220703125</ele>
        <time>2014-12-08T11:18:32Z</time>
      </trkpt>
      <trkpt lat="43.798185791820288" lon="5.295913657173514">
        <ele>551.5999755859375</ele>
        <time>2014-12-08T11:18:35Z</time>
      </trkpt>
      <trkpt lat="43.798159724101424" lon="5.295901419594884">
        <ele>551.79998779296875</ele>
        <time>2014-12-08T11:18:37Z</time>
      </trkpt>
      <trkpt lat="43.798131309449673" lon="5.295904269441962">
        <ele>552.20001220703125</ele>
        <time>2014-12-08T11:18:39Z</time>
      </trkpt>
      <trkpt lat="43.798084370791912" lon="5.295942658558488">
        <ele>552.4000244140625</ele>
        <time>2014-12-08T11:18:43Z</time>
      </trkpt>
      <trkpt lat="43.798064421862364" lon="5.295972833409905">
        <ele>552.79998779296875</ele>
        <time>2014-12-08T11:18:45Z</time>
      </trkpt>
      <trkpt lat="43.798056542873383" lon="5.295987501740456">
        <ele>553</ele>
        <time>2014-12-08T11:18:46Z</time>
      </trkpt>
      <trkpt lat="43.798064086586237" lon="5.296073919162154">
        <ele>553.5999755859375</ele>
        <time>2014-12-08T11:18:51Z</time>
      </trkpt>
      <trkpt lat="43.798068361356854" lon="5.296095460653305">
        <ele>553.5999755859375</ele>
        <time>2014-12-08T11:18:52Z</time>
      </trkpt>
      <trkpt lat="43.798071127384901" lon="5.29611867852509">
        <ele>554</ele>
        <time>2014-12-08T11:18:53Z</time>
      </trkpt>
      <trkpt lat="43.79811018705368" lon="5.296253459528089">
        <ele>555.20001220703125</ele>
        <time>2014-12-08T11:18:59Z</time>
      </trkpt>
      <trkpt lat="43.798131057992578" lon="5.296305175870657">
        <ele>555.79998779296875</ele>
        <time>2014-12-08T11:19:02Z</time>
      </trkpt>
      <trkpt lat="43.79814631305635" lon="5.296352114528418">
        <ele>556.4000244140625</ele>
        <time>2014-12-08T11:19:05Z</time>
      </trkpt>
      <trkpt lat="43.798165507614613" lon="5.296419002115727">
        <ele>557.4000244140625</ele>
        <time>2014-12-08T11:19:09Z</time>
      </trkpt>
      <trkpt lat="43.798193419352174" lon="5.296484716236591">
        <ele>557.79998779296875</ele>
        <time>2014-12-08T11:19:13Z</time>
      </trkpt>
      <trkpt lat="43.798215296119452" lon="5.296560237184167">
        <ele>558.5999755859375</ele>
        <time>2014-12-08T11:19:17Z</time>
      </trkpt>
      <trkpt lat="43.798230635002255" lon="5.296593429520726">
        <ele>558.20001220703125</ele>
        <time>2014-12-08T11:19:19Z</time>
      </trkpt>
      <trkpt lat="43.798285452648997" lon="5.296730054542422">
        <ele>558.79998779296875</ele>
        <time>2014-12-08T11:19:26Z</time>
      </trkpt>
      <trkpt lat="43.798342617228627" lon="5.296873133629561">
        <ele>559</ele>
        <time>2014-12-08T11:19:33Z</time>
      </trkpt>
      <trkpt lat="43.798365918919444" lon="5.296972962096334">
        <ele>559.5999755859375</ele>
        <time>2014-12-08T11:19:38Z</time>
      </trkpt>
      <trkpt lat="43.798376899212599" lon="5.297014536336064">
        <ele>560</ele>
        <time>2014-12-08T11:19:40Z</time>
      </trkpt>
      <trkpt lat="43.79838134162128" lon="5.297059798613191">
        <ele>559.79998779296875</ele>
        <time>2014-12-08T11:19:42Z</time>
      </trkpt>
      <trkpt lat="43.798376899212599" lon="5.297146048396826">
        <ele>560.5999755859375</ele>
        <time>2014-12-08T11:19:46Z</time>
      </trkpt>
      <trkpt lat="43.798376983031631" lon="5.297220898792148">
        <ele>561.20001220703125</ele>
        <time>2014-12-08T11:19:49Z</time>
      </trkpt>
      <trkpt lat="43.798379832878709" lon="5.297360876575112">
        <ele>561.20001220703125</ele>
        <time>2014-12-08T11:19:54Z</time>
      </trkpt>
      <trkpt lat="43.798345299437642" lon="5.297521641477943">
        <ele>561.20001220703125</ele>
        <time>2014-12-08T11:20:00Z</time>
      </trkpt>
      <trkpt lat="43.798331385478377" lon="5.297549217939377">
        <ele>561.20001220703125</ele>
        <time>2014-12-08T11:20:01Z</time>
      </trkpt>
      <trkpt lat="43.798278076574206" lon="5.297658937051892">
        <ele>561.5999755859375</ele>
        <time>2014-12-08T11:20:05Z</time>
      </trkpt>
      <trkpt lat="43.798241782933474" lon="5.297717861831188">
        <ele>561.5999755859375</ele>
        <time>2014-12-08T11:20:07Z</time>
      </trkpt>
      <trkpt lat="43.798063835129142" lon="5.298047605901957">
        <ele>561.4000244140625</ele>
        <time>2014-12-08T11:20:16Z</time>
      </trkpt>
      <trkpt lat="43.797974903136492" lon="5.298232845962048">
        <ele>560.5999755859375</ele>
        <time>2014-12-08T11:20:20Z</time>
      </trkpt>
      <trkpt lat="43.797933161258698" lon="5.298331752419472">
        <ele>559.79998779296875</ele>
        <time>2014-12-08T11:20:22Z</time>
      </trkpt>
      <trkpt lat="43.797882031649351" lon="5.298482375219464">
        <ele>559.4000244140625</ele>
        <time>2014-12-08T11:20:25Z</time>
      </trkpt>
      <trkpt lat="43.797830734401941" lon="5.298639452084899">
        <ele>559</ele>
        <time>2014-12-08T11:20:28Z</time>
      </trkpt>
      <trkpt lat="43.797810785472393" lon="5.298734586685896">
        <ele>558.4000244140625</ele>
        <time>2014-12-08T11:20:30Z</time>
      </trkpt>
      <trkpt lat="43.797775749117136" lon="5.298849083483219">
        <ele>557.4000244140625</ele>
        <time>2014-12-08T11:20:33Z</time>
      </trkpt>
      <trkpt lat="43.797753369435668" lon="5.298861488699913">
        <ele>557.20001220703125</ele>
        <time>2014-12-08T11:20:34Z</time>
      </trkpt>
      <trkpt lat="43.797705927863717" lon="5.298862243071199">
        <ele>556.79998779296875</ele>
        <time>2014-12-08T11:20:36Z</time>
      </trkpt>
      <trkpt lat="43.797655971720815" lon="5.298806587234139">
        <ele>556.20001220703125</ele>
        <time>2014-12-08T11:20:38Z</time>
      </trkpt>
      <trkpt lat="43.797613391652703" lon="5.298723187297583">
        <ele>555.5999755859375</ele>
        <time>2014-12-08T11:20:40Z</time>
      </trkpt>
      <trkpt lat="43.797492943704128" lon="5.298504754900932">
        <ele>554.79998779296875</ele>
        <time>2014-12-08T11:20:45Z</time>
      </trkpt>
      <trkpt lat="43.797468217089772" lon="5.298467287793756">
        <ele>554.4000244140625</ele>
        <time>2014-12-08T11:20:46Z</time>
      </trkpt>
      <trkpt lat="43.797424715012312" lon="5.298388749361038">
        <ele>553.5999755859375</ele>
        <time>2014-12-08T11:20:48Z</time>
      </trkpt>
      <trkpt lat="43.797334525734186" lon="5.298324460163713">
        <ele>553</ele>
        <time>2014-12-08T11:20:51Z</time>
      </trkpt>
      <trkpt lat="43.797293957322836" lon="5.298326807096601">
        <ele>552.5999755859375</ele>
        <time>2014-12-08T11:20:52Z</time>
      </trkpt>
      <trkpt lat="43.797254646196961" lon="5.29834340326488">
        <ele>552</ele>
        <time>2014-12-08T11:20:53Z</time>
      </trkpt>
      <trkpt lat="43.797220028936863" lon="5.298369722440839">
        <ele>552</ele>
        <time>2014-12-08T11:20:54Z</time>
      </trkpt>
      <trkpt lat="43.797165546566248" lon="5.298416828736663">
        <ele>551.79998779296875</ele>
        <time>2014-12-08T11:20:56Z</time>
      </trkpt>
      <trkpt lat="43.797098994255066" lon="5.298487739637494">
        <ele>551.4000244140625</ele>
        <time>2014-12-08T11:20:59Z</time>
      </trkpt>
      <trkpt lat="43.796912916004658" lon="5.29862193390727">
        <ele>551.5999755859375</ele>
        <time>2014-12-08T11:21:06Z</time>
      </trkpt>
      <trkpt lat="43.796696746721864" lon="5.29879535548389">
        <ele>551.5999755859375</ele>
        <time>2014-12-08T11:21:14Z</time>
      </trkpt>
      <trkpt lat="43.796625332906842" lon="5.298818992450833">
        <ele>551</ele>
        <time>2014-12-08T11:21:16Z</time>
      </trkpt>
      <trkpt lat="43.796555427834392" lon="5.2988310623914">
        <ele>550</ele>
        <time>2014-12-08T11:21:18Z</time>
      </trkpt>
      <trkpt lat="43.796521900221705" lon="5.298832235857844">
        <ele>550</ele>
        <time>2014-12-08T11:21:19Z</time>
      </trkpt>
      <trkpt lat="43.796453420072794" lon="5.298779346048832">
        <ele>549.20001220703125</ele>
        <time>2014-12-08T11:21:41Z</time>
      </trkpt>
      <trkpt lat="43.79642047919333" lon="5.298717403784394">
        <ele>548.79998779296875</ele>
        <time>2014-12-08T11:21:43Z</time>
      </trkpt>
      <trkpt lat="43.796324087306857" lon="5.298489248380065">
        <ele>547.79998779296875</ele>
        <time>2014-12-08T11:21:48Z</time>
      </trkpt>
      <trkpt lat="43.796260552480817" lon="5.298365112394095">
        <ele>546.5999755859375</ele>
        <time>2014-12-08T11:21:51Z</time>
      </trkpt>
      <trkpt lat="43.796188551932573" lon="5.298224883154035">
        <ele>545.5999755859375</ele>
        <time>2014-12-08T11:21:54Z</time>
      </trkpt>
      <trkpt lat="43.79607455804944" lon="5.298005193471909">
        <ele>544.5999755859375</ele>
        <time>2014-12-08T11:21:58Z</time>
      </trkpt>
      <trkpt lat="43.796045053750277" lon="5.297946268692613">
        <ele>544.4000244140625</ele>
        <time>2014-12-08T11:21:59Z</time>
      </trkpt>
      <trkpt lat="43.795952014625072" lon="5.297784749418497">
        <ele>543.5999755859375</ele>
        <time>2014-12-08T11:22:02Z</time>
      </trkpt>
      <trkpt lat="43.795892922207713" lon="5.297687519341707">
        <ele>542.4000244140625</ele>
        <time>2014-12-08T11:22:04Z</time>
      </trkpt>
      <trkpt lat="43.795871632173657" lon="5.297645945101976">
        <ele>542</ele>
        <time>2014-12-08T11:22:05Z</time>
      </trkpt>
      <trkpt lat="43.795822681859136" lon="5.297513175755739">
        <ele>542.5999755859375</ele>
        <time>2014-12-08T11:22:09Z</time>
      </trkpt>
      <trkpt lat="43.795700976625085" lon="5.297307902947068">
        <ele>542.79998779296875</ele>
        <time>2014-12-08T11:22:16Z</time>
      </trkpt>
      <trkpt lat="43.795657055452466" lon="5.297288205474615">
        <ele>542.4000244140625</ele>
        <time>2014-12-08T11:22:17Z</time>
      </trkpt>
      <trkpt lat="43.795548090711236" lon="5.297228861600161">
        <ele>541.79998779296875</ele>
        <time>2014-12-08T11:22:20Z</time>
      </trkpt>
      <trkpt lat="43.795491512864828" lon="5.297210672870278">
        <ele>541.4000244140625</ele>
        <time>2014-12-08T11:22:22Z</time>
      </trkpt>
      <trkpt lat="43.795364527031779" lon="5.297166332602501">
        <ele>541</ele>
        <time>2014-12-08T11:22:26Z</time>
      </trkpt>
      <trkpt lat="43.795237960293889" lon="5.297100367024541">
        <ele>540</ele>
        <time>2014-12-08T11:22:29Z</time>
      </trkpt>
      <trkpt lat="43.795142490416765" lon="5.297062480822206">
        <ele>539.5999755859375</ele>
        <time>2014-12-08T11:22:31Z</time>
      </trkpt>
      <trkpt lat="43.794996226206422" lon="5.297003472223878">
        <ele>538.79998779296875</ele>
        <time>2014-12-08T11:22:34Z</time>
      </trkpt>
      <trkpt lat="43.794820792973042" lon="5.296914791688323">
        <ele>537.79998779296875</ele>
        <time>2014-12-08T11:22:38Z</time>
      </trkpt>
      <trkpt lat="43.794742757454515" lon="5.296878162771463">
        <ele>537.20001220703125</ele>
        <time>2014-12-08T11:22:40Z</time>
      </trkpt>
      <trkpt lat="43.794655501842499" lon="5.296854358166456">
        <ele>536.79998779296875</ele>
        <time>2014-12-08T11:22:43Z</time>
      </trkpt>
      <trkpt lat="43.794633960351348" lon="5.296846814453602">
        <ele>536.79998779296875</ele>
        <time>2014-12-08T11:22:44Z</time>
      </trkpt>
      <trkpt lat="43.794580483809114" lon="5.296789398416877">
        <ele>538</ele>
        <time>2014-12-08T11:22:48Z</time>
      </trkpt>
      <trkpt lat="43.794570090249181" lon="5.296774730086327">
        <ele>538.4000244140625</ele>
        <time>2014-12-08T11:22:49Z</time>
      </trkpt>
      <trkpt lat="43.794401027262211" lon="5.296446830034256">
        <ele>546</ele>
        <time>2014-12-08T11:23:50Z</time>
      </trkpt>
      <trkpt lat="43.794368673115969" lon="5.296544060111046">
        <ele>547.20001220703125</ele>
        <time>2014-12-08T11:23:54Z</time>
      </trkpt>
      <trkpt lat="43.794365739449859" lon="5.296586137264967">
        <ele>547.4000244140625</ele>
        <time>2014-12-08T11:23:56Z</time>
      </trkpt>
      <trkpt lat="43.794348640367389" lon="5.296695940196514">
        <ele>548.4000244140625</ele>
        <time>2014-12-08T11:24:01Z</time>
      </trkpt>
      <trkpt lat="43.794333972036839" lon="5.296735418960452">
        <ele>549</ele>
        <time>2014-12-08T11:24:03Z</time>
      </trkpt>
      <trkpt lat="43.794326847419143" lon="5.296753691509366">
        <ele>549.4000244140625</ele>
        <time>2014-12-08T11:24:04Z</time>
      </trkpt>
      <trkpt lat="43.794310335069895" lon="5.296786800026894">
        <ele>550.5999755859375</ele>
        <time>2014-12-08T11:24:06Z</time>
      </trkpt>
      <trkpt lat="43.794278483837843" lon="5.296872043982148">
        <ele>552</ele>
        <time>2014-12-08T11:24:10Z</time>
      </trkpt>
      <trkpt lat="43.794263815507293" lon="5.296976733952761">
        <ele>553.20001220703125</ele>
        <time>2014-12-08T11:24:15Z</time>
      </trkpt>
      <trkpt lat="43.794265072792768" lon="5.297045214101672">
        <ele>554.20001220703125</ele>
        <time>2014-12-08T11:24:18Z</time>
      </trkpt>
      <trkpt lat="43.794258954003453" lon="5.297069773077965">
        <ele>554.4000244140625</ele>
        <time>2014-12-08T11:24:19Z</time>
      </trkpt>
      <trkpt lat="43.79425685852766" lon="5.297131966799498">
        <ele>555.5999755859375</ele>
        <time>2014-12-08T11:24:22Z</time>
      </trkpt>
      <trkpt lat="43.794257696717978" lon="5.297197094187141">
        <ele>556.4000244140625</ele>
        <time>2014-12-08T11:24:25Z</time>
      </trkpt>
      <trkpt lat="43.794257864356041" lon="5.297216959297657">
        <ele>556.79998779296875</ele>
        <time>2014-12-08T11:24:26Z</time>
      </trkpt>
      <trkpt lat="43.794258451089263" lon="5.297283176332712">
        <ele>558</ele>
        <time>2014-12-08T11:24:29Z</time>
      </trkpt>
      <trkpt lat="43.794254176318645" lon="5.297377472743392">
        <ele>559.20001220703125</ele>
        <time>2014-12-08T11:24:33Z</time>
      </trkpt>
      <trkpt lat="43.794251242652535" lon="5.297421393916011">
        <ele>560.4000244140625</ele>
        <time>2014-12-08T11:24:35Z</time>
      </trkpt>
      <trkpt lat="43.794250069186091" lon="5.29748635366559">
        <ele>561.4000244140625</ele>
        <time>2014-12-08T11:24:39Z</time>
      </trkpt>
      <trkpt lat="43.794251577928662" lon="5.297504961490631">
        <ele>561.5999755859375</ele>
        <time>2014-12-08T11:24:40Z</time>
      </trkpt>
      <trkpt lat="43.794260965660214" lon="5.297572603449225">
        <ele>562.79998779296875</ele>
        <time>2014-12-08T11:24:44Z</time>
      </trkpt>
      <trkpt lat="43.79427588544786" lon="5.297612836584449">
        <ele>563.5999755859375</ele>
        <time>2014-12-08T11:24:47Z</time>
      </trkpt>
      <trkpt lat="43.794276975095272" lon="5.297628175467253">
        <ele>563.79998779296875</ele>
        <time>2014-12-08T11:24:48Z</time>
      </trkpt>
      <trkpt lat="43.794274963438511" lon="5.297702355310321">
        <ele>565</ele>
        <time>2014-12-08T11:24:53Z</time>
      </trkpt>
      <trkpt lat="43.794273203238845" lon="5.297738648951054">
        <ele>565.5999755859375</ele>
        <time>2014-12-08T11:24:55Z</time>
      </trkpt>
      <trkpt lat="43.794275047257543" lon="5.297756250947714">
        <ele>566.4000244140625</ele>
        <time>2014-12-08T11:24:56Z</time>
      </trkpt>
      <trkpt lat="43.794274963438511" lon="5.297782234847546">
        <ele>567.4000244140625</ele>
        <time>2014-12-08T11:24:58Z</time>
      </trkpt>
      <trkpt lat="43.79426121711731" lon="5.297839818522334">
        <ele>568.4000244140625</ele>
        <time>2014-12-08T11:25:02Z</time>
      </trkpt>
      <trkpt lat="43.794254595413804" lon="5.297854822129011">
        <ele>568.79998779296875</ele>
        <time>2014-12-08T11:25:03Z</time>
      </trkpt>
      <trkpt lat="43.794250236824155" lon="5.297872005030513">
        <ele>569</ele>
        <time>2014-12-08T11:25:04Z</time>
      </trkpt>
      <trkpt lat="43.794233640655875" lon="5.29792221263051">
        <ele>569.79998779296875</ele>
        <time>2014-12-08T11:25:08Z</time>
      </trkpt>
      <trkpt lat="43.794211428612471" lon="5.297946436330676">
        <ele>570.4000244140625</ele>
        <time>2014-12-08T11:25:11Z</time>
      </trkpt>
      <trkpt lat="43.794203549623489" lon="5.297953644767404">
        <ele>570.79998779296875</ele>
        <time>2014-12-08T11:25:12Z</time>
      </trkpt>
      <trkpt lat="43.794137416407466" lon="5.297969402745366">
        <ele>572.20001220703125</ele>
        <time>2014-12-08T11:25:18Z</time>
      </trkpt>
      <trkpt lat="43.79411612637341" lon="5.297974264249206">
        <ele>572</ele>
        <time>2014-12-08T11:25:20Z</time>
      </trkpt>
      <trkpt lat="43.794036749750376" lon="5.2979417424649">
        <ele>573.20001220703125</ele>
        <time>2014-12-08T11:25:27Z</time>
      </trkpt>
      <trkpt lat="43.793958378955722" lon="5.297863287851214">
        <ele>574.20001220703125</ele>
        <time>2014-12-08T11:25:35Z</time>
      </trkpt>
      <trkpt lat="43.793902136385441" lon="5.297766895964742">
        <ele>575.4000244140625</ele>
        <time>2014-12-08T11:25:42Z</time>
      </trkpt>
      <trkpt lat="43.79384933039546" lon="5.297656673938036">
        <ele>576.20001220703125</ele>
        <time>2014-12-08T11:25:50Z</time>
      </trkpt>
      <trkpt lat="43.793837008997798" lon="5.297644017264247">
        <ele>576.5999755859375</ele>
        <time>2014-12-08T11:25:51Z</time>
      </trkpt>
      <trkpt lat="43.793786466121674" lon="5.297538656741381">
        <ele>577.20001220703125</ele>
        <time>2014-12-08T11:25:58Z</time>
      </trkpt>
      <trkpt lat="43.793760566040874" lon="5.297496663406491">
        <ele>577.79998779296875</ele>
        <time>2014-12-08T11:26:01Z</time>
      </trkpt>
      <trkpt lat="43.793713459745049" lon="5.297429105266929">
        <ele>578.79998779296875</ele>
        <time>2014-12-08T11:26:06Z</time>
      </trkpt>
      <trkpt lat="43.793695941567421" lon="5.297403540462256">
        <ele>578.79998779296875</ele>
        <time>2014-12-08T11:26:08Z</time>
      </trkpt>
      <trkpt lat="43.793653948232532" lon="5.297338077798486">
        <ele>578.79998779296875</ele>
        <time>2014-12-08T11:26:12Z</time>
      </trkpt>
      <trkpt lat="43.793645314872265" lon="5.29732164926827">
        <ele>579</ele>
        <time>2014-12-08T11:26:13Z</time>
      </trkpt>
      <trkpt lat="43.793612793087959" lon="5.297221066430211">
        <ele>580.4000244140625</ele>
        <time>2014-12-08T11:26:19Z</time>
      </trkpt>
      <trkpt lat="43.793596364557743" lon="5.297197345644236">
        <ele>580.4000244140625</ele>
        <time>2014-12-08T11:26:21Z</time>
      </trkpt>
      <trkpt lat="43.793580187484622" lon="5.297152921557427">
        <ele>580.5999755859375</ele>
        <time>2014-12-08T11:26:24Z</time>
      </trkpt>
      <trkpt lat="43.793568117544055" lon="5.297101205214858">
        <ele>581</ele>
        <time>2014-12-08T11:26:27Z</time>
      </trkpt>
      <trkpt lat="43.793560825288296" lon="5.297064911574125">
        <ele>581.5999755859375</ele>
        <time>2014-12-08T11:26:29Z</time>
      </trkpt>
      <trkpt lat="43.793543055653572" lon="5.296962903812528">
        <ele>582.4000244140625</ele>
        <time>2014-12-08T11:26:35Z</time>
      </trkpt>
      <trkpt lat="43.793538361787796" lon="5.296943373978138">
        <ele>582.5999755859375</ele>
        <time>2014-12-08T11:26:36Z</time>
      </trkpt>
      <trkpt lat="43.793528890237212" lon="5.29689509421587">
        <ele>583.20001220703125</ele>
        <time>2014-12-08T11:26:39Z</time>
      </trkpt>
      <trkpt lat="43.793518077582121" lon="5.296819237992168">
        <ele>584</ele>
        <time>2014-12-08T11:26:43Z</time>
      </trkpt>
      <trkpt lat="43.793521346524358" lon="5.296685714274645">
        <ele>585.20001220703125</ele>
        <time>2014-12-08T11:26:50Z</time>
      </trkpt>
      <trkpt lat="43.793522268533707" lon="5.296667777001858">
        <ele>585.5999755859375</ele>
        <time>2014-12-08T11:26:51Z</time>
      </trkpt>
      <trkpt lat="43.79353073425591" lon="5.296608349308372">
        <ele>586.4000244140625</ele>
        <time>2014-12-08T11:26:54Z</time>
      </trkpt>
      <trkpt lat="43.793523525819182" lon="5.29655939899385">
        <ele>586.79998779296875</ele>
        <time>2014-12-08T11:26:57Z</time>
      </trkpt>
      <trkpt lat="43.79352729767561" lon="5.296525871381164">
        <ele>587</ele>
        <time>2014-12-08T11:26:59Z</time>
      </trkpt>
      <trkpt lat="43.793526459485292" lon="5.296490751206875">
        <ele>587.5999755859375</ele>
        <time>2014-12-08T11:27:01Z</time>
      </trkpt>
      <trkpt lat="43.793520340695977" lon="5.296456720679998">
        <ele>587.79998779296875</ele>
        <time>2014-12-08T11:27:03Z</time>
      </trkpt>
      <trkpt lat="43.793518664315343" lon="5.296440292149782">
        <ele>588.20001220703125</ele>
        <time>2014-12-08T11:27:04Z</time>
      </trkpt>
      <trkpt lat="43.793522855266929" lon="5.296358652412891">
        <ele>588.79998779296875</ele>
        <time>2014-12-08T11:27:09Z</time>
      </trkpt>
      <trkpt lat="43.793523106724024" lon="5.296325879171491">
        <ele>589.20001220703125</ele>
        <time>2014-12-08T11:27:11Z</time>
      </trkpt>
      <trkpt lat="43.793536433950067" lon="5.296234013512731">
        <ele>589.79998779296875</ele>
        <time>2014-12-08T11:27:17Z</time>
      </trkpt>
      <trkpt lat="43.793538277968764" lon="5.296217165887356">
        <ele>590.5999755859375</ele>
        <time>2014-12-08T11:27:18Z</time>
      </trkpt>
      <trkpt lat="43.793529560789466" lon="5.296156145632267">
        <ele>591.20001220703125</ele>
        <time>2014-12-08T11:27:22Z</time>
      </trkpt>
      <trkpt lat="43.793524531647563" lon="5.296138543635607">
        <ele>591.20001220703125</ele>
        <time>2014-12-08T11:27:23Z</time>
      </trkpt>
      <trkpt lat="43.793517909944057" lon="5.29611038044095">
        <ele>591.4000244140625</ele>
        <time>2014-12-08T11:27:25Z</time>
      </trkpt>
      <trkpt lat="43.793518831953406" lon="5.296083306893706">
        <ele>592</ele>
        <time>2014-12-08T11:27:27Z</time>
      </trkpt>
      <trkpt lat="43.793524112552404" lon="5.296063357964158">
        <ele>592.4000244140625</ele>
        <time>2014-12-08T11:27:28Z</time>
      </trkpt>
      <trkpt lat="43.793530566617846" lon="5.296007618308067">
        <ele>592.79998779296875</ele>
        <time>2014-12-08T11:27:31Z</time>
      </trkpt>
      <trkpt lat="43.793532578274608" lon="5.295969061553478">
        <ele>594</ele>
        <time>2014-12-08T11:27:34Z</time>
      </trkpt>
      <trkpt lat="43.793554790318012" lon="5.295910220593214">
        <ele>593.4000244140625</ele>
        <time>2014-12-08T11:27:38Z</time>
      </trkpt>
      <trkpt lat="43.793613379821181" lon="5.295792790129781">
        <ele>594.20001220703125</ele>
        <time>2014-12-08T11:27:45Z</time>
      </trkpt>
      <trkpt lat="43.793665347620845" lon="5.29566471464932">
        <ele>593.5999755859375</ele>
        <time>2014-12-08T11:27:52Z</time>
      </trkpt>
      <trkpt lat="43.793715219944715" lon="5.295500848442316">
        <ele>594.5999755859375</ele>
        <time>2014-12-08T11:28:01Z</time>
      </trkpt>
      <trkpt lat="43.793739695101976" lon="5.295432535931468">
        <ele>595</ele>
        <time>2014-12-08T11:28:05Z</time>
      </trkpt>
      <trkpt lat="43.793801469728351" lon="5.295360116288066">
        <ele>596</ele>
        <time>2014-12-08T11:28:10Z</time>
      </trkpt>
      <trkpt lat="43.793816724792123" lon="5.29534368775785">
        <ele>596.20001220703125</ele>
        <time>2014-12-08T11:28:11Z</time>
      </trkpt>
      <trkpt lat="43.793920828029513" lon="5.29524302110076">
        <ele>595.79998779296875</ele>
        <time>2014-12-08T11:28:17Z</time>
      </trkpt>
      <trkpt lat="43.79406675696373" lon="5.295084603130817">
        <ele>596</ele>
        <time>2014-12-08T11:28:24Z</time>
      </trkpt>
      <trkpt lat="43.794219894334674" lon="5.294947810471058">
        <ele>596.5999755859375</ele>
        <time>2014-12-08T11:28:31Z</time>
      </trkpt>
      <trkpt lat="43.794360961765051" lon="5.294810766354203">
        <ele>596</ele>
        <time>2014-12-08T11:28:38Z</time>
      </trkpt>
      <trkpt lat="43.794470010325313" lon="5.294680846855044">
        <ele>596.5999755859375</ele>
        <time>2014-12-08T11:28:45Z</time>
      </trkpt>
      <trkpt lat="43.794605629518628" lon="5.294502563774586">
        <ele>595.79998779296875</ele>
        <time>2014-12-08T11:28:53Z</time>
      </trkpt>
      <trkpt lat="43.79464820958674" lon="5.294470796361566">
        <ele>595.20001220703125</ele>
        <time>2014-12-08T11:28:55Z</time>
      </trkpt>
      <trkpt lat="43.794755917042494" lon="5.294410027563572">
        <ele>595.79998779296875</ele>
        <time>2014-12-08T11:28:59Z</time>
      </trkpt>
      <trkpt lat="43.794959597289562" lon="5.29436644166708">
        <ele>595</ele>
        <time>2014-12-08T11:29:06Z</time>
      </trkpt>
      <trkpt lat="43.795066801831126" lon="5.294347163289785">
        <ele>594</ele>
        <time>2014-12-08T11:29:10Z</time>
      </trkpt>
      <trkpt lat="43.795122373849154" lon="5.294346660375595">
        <ele>593.79998779296875</ele>
        <time>2014-12-08T11:29:12Z</time>
      </trkpt>
      <trkpt lat="43.795287162065506" lon="5.294389827176929">
        <ele>594.79998779296875</ele>
        <time>2014-12-08T11:29:19Z</time>
      </trkpt>
      <trkpt lat="43.795304512605071" lon="5.294398795813322">
        <ele>595</ele>
        <time>2014-12-08T11:29:20Z</time>
      </trkpt>
      <trkpt lat="43.795366454869509" lon="5.294466437771916">
        <ele>596.4000244140625</ele>
        <time>2014-12-08T11:29:24Z</time>
      </trkpt>
      <trkpt lat="43.795378273352981" lon="5.294481609016657">
        <ele>596.4000244140625</ele>
        <time>2014-12-08T11:29:25Z</time>
      </trkpt>
      <trkpt lat="43.795414231717587" lon="5.294602308422327">
        <ele>597.4000244140625</ele>
        <time>2014-12-08T11:29:31Z</time>
      </trkpt>
      <trkpt lat="43.795417668297887" lon="5.2946210000664">
        <ele>597.79998779296875</ele>
        <time>2014-12-08T11:29:32Z</time>
      </trkpt>
      <trkpt lat="43.795438371598721" lon="5.294691827148199">
        <ele>598.4000244140625</ele>
        <time>2014-12-08T11:29:35Z</time>
      </trkpt>
      <trkpt lat="43.795454213395715" lon="5.294758463278413">
        <ele>599.4000244140625</ele>
        <time>2014-12-08T11:29:38Z</time>
      </trkpt>
      <trkpt lat="43.795459242537618" lon="5.294777238741517">
        <ele>599.5999755859375</ele>
        <time>2014-12-08T11:29:39Z</time>
      </trkpt>
      <trkpt lat="43.795476593077183" lon="5.294851586222649">
        <ele>600.79998779296875</ele>
        <time>2014-12-08T11:29:43Z</time>
      </trkpt>
      <trkpt lat="43.795494111254811" lon="5.294906068593264">
        <ele>601</ele>
        <time>2014-12-08T11:29:46Z</time>
      </trkpt>
      <trkpt lat="43.795512551441789" lon="5.294960467144847">
        <ele>601.79998779296875</ele>
        <time>2014-12-08T11:29:49Z</time>
      </trkpt>
      <trkpt lat="43.795525962486863" lon="5.294985445216298">
        <ele>603</ele>
        <time>2014-12-08T11:29:51Z</time>
      </trkpt>
      <trkpt lat="43.795549096539617" lon="5.295028863474727">
        <ele>603.20001220703125</ele>
        <time>2014-12-08T11:29:54Z</time>
      </trkpt>
      <trkpt lat="43.795630317181349" lon="5.295114610344172">
        <ele>604.20001220703125</ele>
        <time>2014-12-08T11:30:01Z</time>
      </trkpt>
      <trkpt lat="43.795681111514568" lon="5.29516582377255">
        <ele>605.5999755859375</ele>
        <time>2014-12-08T11:30:06Z</time>
      </trkpt>
      <trkpt lat="43.795702317729592" lon="5.295186778530479">
        <ele>605.5999755859375</ele>
        <time>2014-12-08T11:30:08Z</time>
      </trkpt>
      <trkpt lat="43.795773983001709" lon="5.295235561206937">
        <ele>606.5999755859375</ele>
        <time>2014-12-08T11:30:14Z</time>
      </trkpt>
      <trkpt lat="43.795796949416399" lon="5.295250648632646">
        <ele>607.20001220703125</ele>
        <time>2014-12-08T11:30:16Z</time>
      </trkpt>
      <trkpt lat="43.795869201421738" lon="5.295290295034647">
        <ele>607.79998779296875</ele>
        <time>2014-12-08T11:30:21Z</time>
      </trkpt>
      <trkpt lat="43.795921169221401" lon="5.295303957536817">
        <ele>608.20001220703125</ele>
        <time>2014-12-08T11:30:24Z</time>
      </trkpt>
      <trkpt lat="43.795969448983669" lon="5.295303286984563">
        <ele>609</ele>
        <time>2014-12-08T11:30:27Z</time>
      </trkpt>
      <trkpt lat="43.796024015173316" lon="5.295299431309104">
        <ele>609.4000244140625</ele>
        <time>2014-12-08T11:30:31Z</time>
      </trkpt>
      <trkpt lat="43.796093417331576" lon="5.295280320569873">
        <ele>610.20001220703125</ele>
        <time>2014-12-08T11:30:36Z</time>
      </trkpt>
      <trkpt lat="43.796119736507535" lon="5.295271016657352">
        <ele>611.20001220703125</ele>
        <time>2014-12-08T11:30:38Z</time>
      </trkpt>
      <trkpt lat="43.796147899702191" lon="5.295256935060024">
        <ele>611.4000244140625</ele>
        <time>2014-12-08T11:30:40Z</time>
      </trkpt>
      <trkpt lat="43.796208165585995" lon="5.295226341113448">
        <ele>612.5999755859375</ele>
        <time>2014-12-08T11:30:44Z</time>
      </trkpt>
      <trkpt lat="43.796238508075476" lon="5.295207649469376">
        <ele>613.5999755859375</ele>
        <time>2014-12-08T11:30:46Z</time>
      </trkpt>
      <trkpt lat="43.796268850564957" lon="5.29520002193749">
        <ele>613.79998779296875</ele>
        <time>2014-12-08T11:30:48Z</time>
      </trkpt>
      <trkpt lat="43.796339258551598" lon="5.295154340565205">
        <ele>614.79998779296875</ele>
        <time>2014-12-08T11:30:53Z</time>
      </trkpt>
      <trkpt lat="43.796414192765951" lon="5.295086028054357">
        <ele>615</ele>
        <time>2014-12-08T11:30:59Z</time>
      </trkpt>
      <trkpt lat="43.796470267698169" lon="5.29502903111279">
        <ele>616</ele>
        <time>2014-12-08T11:31:04Z</time>
      </trkpt>
      <trkpt lat="43.796490132808685" lon="5.294993240386248">
        <ele>615.5999755859375</ele>
        <time>2014-12-08T11:31:06Z</time>
      </trkpt>
      <trkpt lat="43.79657194018364" lon="5.29489760287106">
        <ele>616.20001220703125</ele>
        <time>2014-12-08T11:31:14Z</time>
      </trkpt>
      <trkpt lat="43.796592559665442" lon="5.294877989217639">
        <ele>617.20001220703125</ele>
        <time>2014-12-08T11:31:16Z</time>
      </trkpt>
      <trkpt lat="43.796657770872116" lon="5.294822081923485">
        <ele>616.5999755859375</ele>
        <time>2014-12-08T11:31:21Z</time>
      </trkpt>
      <trkpt lat="43.796686688438058" lon="5.294795427471399">
        <ele>616.4000244140625</ele>
        <time>2014-12-08T11:31:28Z</time>
      </trkpt>
      <trkpt lat="43.796702530235052" lon="5.2947764005512">
        <ele>617.20001220703125</ele>
        <time>2014-12-08T11:31:29Z</time>
      </trkpt>
      <trkpt lat="43.796716695651412" lon="5.294756451621652">
        <ele>618</ele>
        <time>2014-12-08T11:31:30Z</time>
      </trkpt>
      <trkpt lat="43.796838317066431" lon="5.294591411948204">
        <ele>616.20001220703125</ele>
        <time>2014-12-08T11:31:38Z</time>
      </trkpt>
      <trkpt lat="43.796885507181287" lon="5.294500971212983">
        <ele>617.4000244140625</ele>
        <time>2014-12-08T11:31:42Z</time>
      </trkpt>
      <trkpt lat="43.79691987298429" lon="5.294433161616325">
        <ele>617.4000244140625</ele>
        <time>2014-12-08T11:31:45Z</time>
      </trkpt>
      <trkpt lat="43.797042416408658" lon="5.294224619865418">
        <ele>618.4000244140625</ele>
        <time>2014-12-08T11:31:54Z</time>
      </trkpt>
      <trkpt lat="43.79707233980298" lon="5.294174747541547">
        <ele>617.4000244140625</ele>
        <time>2014-12-08T11:31:56Z</time>
      </trkpt>
      <trkpt lat="43.797178454697132" lon="5.293977102264762">
        <ele>617</ele>
        <time>2014-12-08T11:32:03Z</time>
      </trkpt>
      <trkpt lat="43.797217765823007" lon="5.293911723420024">
        <ele>616.4000244140625</ele>
        <time>2014-12-08T11:32:05Z</time>
      </trkpt>
      <trkpt lat="43.797314241528511" lon="5.29373561963439">
        <ele>616.4000244140625</ele>
        <time>2014-12-08T11:32:10Z</time>
      </trkpt>
      <trkpt lat="43.7974304985255" lon="5.293504530563951">
        <ele>616.79998779296875</ele>
        <time>2014-12-08T11:32:17Z</time>
      </trkpt>
      <trkpt lat="43.797509958967566" lon="5.293338652700186">
        <ele>617.20001220703125</ele>
        <time>2014-12-08T11:32:22Z</time>
      </trkpt>
      <trkpt lat="43.797523202374578" lon="5.293308142572641">
        <ele>617.4000244140625</ele>
        <time>2014-12-08T11:32:23Z</time>
      </trkpt>
      <trkpt lat="43.797553041949868" lon="5.293254917487502">
        <ele>618.4000244140625</ele>
        <time>2014-12-08T11:32:25Z</time>
      </trkpt>
      <trkpt lat="43.797610877081752" lon="5.29315173625946">
        <ele>620</ele>
        <time>2014-12-08T11:32:29Z</time>
      </trkpt>
      <trkpt lat="43.797714645043015" lon="5.292963981628418">
        <ele>620.20001220703125</ele>
        <time>2014-12-08T11:32:36Z</time>
      </trkpt>
      <trkpt lat="43.79778035916388" lon="5.292849820107222">
        <ele>621.20001220703125</ele>
        <time>2014-12-08T11:32:41Z</time>
      </trkpt>
      <trkpt lat="43.797792261466384" lon="5.292827440425754">
        <ele>621.20001220703125</ele>
        <time>2014-12-08T11:32:42Z</time>
      </trkpt>
      <trkpt lat="43.797871470451355" lon="5.292667094618082">
        <ele>621.79998779296875</ele>
        <time>2014-12-08T11:32:48Z</time>
      </trkpt>
      <trkpt lat="43.797916565090418" lon="5.292591406032443">
        <ele>622.4000244140625</ele>
        <time>2014-12-08T11:32:51Z</time>
      </trkpt>
      <trkpt lat="43.797980854287744" lon="5.292465426027775">
        <ele>622.79998779296875</ele>
        <time>2014-12-08T11:32:56Z</time>
      </trkpt>
      <trkpt lat="43.797988900914788" lon="5.292442543432117">
        <ele>623.79998779296875</ele>
        <time>2014-12-08T11:32:57Z</time>
      </trkpt>
      <trkpt lat="43.79806961864233" lon="5.292294267565012">
        <ele>624.4000244140625</ele>
        <time>2014-12-08T11:33:03Z</time>
      </trkpt>
      <trkpt lat="43.79813021980226" lon="5.292145991697907">
        <ele>624</ele>
        <time>2014-12-08T11:33:09Z</time>
      </trkpt>
      <trkpt lat="43.798134159296751" lon="5.291976844891906">
        <ele>624.20001220703125</ele>
        <time>2014-12-08T11:33:15Z</time>
      </trkpt>
      <trkpt lat="43.79813214763999" lon="5.291921524330974">
        <ele>624.79998779296875</ele>
        <time>2014-12-08T11:33:17Z</time>
      </trkpt>
      <trkpt lat="43.798125945031643" lon="5.291724381968379">
        <ele>625</ele>
        <time>2014-12-08T11:33:24Z</time>
      </trkpt>
      <trkpt lat="43.798119071871042" lon="5.291530592367053">
        <ele>625.20001220703125</ele>
        <time>2014-12-08T11:33:30Z</time>
      </trkpt>
      <trkpt lat="43.798113539814949" lon="5.291385920718312">
        <ele>625.79998779296875</ele>
        <time>2014-12-08T11:33:34Z</time>
      </trkpt>
      <trkpt lat="43.798109935596585" lon="5.291241919621825">
        <ele>625.5999755859375</ele>
        <time>2014-12-08T11:33:38Z</time>
      </trkpt>
      <trkpt lat="43.798107504844666" lon="5.290894489735365">
        <ele>625.5999755859375</ele>
        <time>2014-12-08T11:33:46Z</time>
      </trkpt>
      <trkpt lat="43.798100128769875" lon="5.290663484483957">
        <ele>625</ele>
        <time>2014-12-08T11:33:52Z</time>
      </trkpt>
      <trkpt lat="43.798111360520124" lon="5.290438598021865">
        <ele>624.79998779296875</ele>
        <time>2014-12-08T11:33:58Z</time>
      </trkpt>
      <trkpt lat="43.798114713281393" lon="5.290408004075289">
        <ele>625</ele>
        <time>2014-12-08T11:33:59Z</time>
      </trkpt>
      <trkpt lat="43.798122927546501" lon="5.290184961631894">
        <ele>624.5999755859375</ele>
        <time>2014-12-08T11:34:05Z</time>
      </trkpt>
      <trkpt lat="43.798123681917787" lon="5.289910454303026">
        <ele>625.4000244140625</ele>
        <time>2014-12-08T11:34:12Z</time>
      </trkpt>
      <trkpt lat="43.798119490966201" lon="5.289835603907704">
        <ele>625.79998779296875</ele>
        <time>2014-12-08T11:34:14Z</time>
      </trkpt>
      <trkpt lat="43.79812871105969" lon="5.289664193987846">
        <ele>626.20001220703125</ele>
        <time>2014-12-08T11:34:19Z</time>
      </trkpt>
      <trkpt lat="43.79812628030777" lon="5.289456825703383">
        <ele>626.4000244140625</ele>
        <time>2014-12-08T11:34:25Z</time>
      </trkpt>
      <trkpt lat="43.798109600320458" lon="5.289238393306732">
        <ele>627</ele>
        <time>2014-12-08T11:34:32Z</time>
      </trkpt>
      <trkpt lat="43.798107923939824" lon="5.289206206798554">
        <ele>627.20001220703125</ele>
        <time>2014-12-08T11:34:33Z</time>
      </trkpt>
      <trkpt lat="43.79809744656086" lon="5.289034713059664">
        <ele>628.20001220703125</ele>
        <time>2014-12-08T11:34:39Z</time>
      </trkpt>
      <trkpt lat="43.798091663047671" lon="5.28897880576551">
        <ele>628.5999755859375</ele>
        <time>2014-12-08T11:34:41Z</time>
      </trkpt>
      <trkpt lat="43.798082191497087" lon="5.288837654516101">
        <ele>629.20001220703125</ele>
        <time>2014-12-08T11:34:46Z</time>
      </trkpt>
      <trkpt lat="43.798077749088407" lon="5.288809156045318">
        <ele>629.20001220703125</ele>
        <time>2014-12-08T11:34:47Z</time>
      </trkpt>
      <trkpt lat="43.798059476539493" lon="5.28863824903965">
        <ele>630.20001220703125</ele>
        <time>2014-12-08T11:34:53Z</time>
      </trkpt>
      <trkpt lat="43.798048328608274" lon="5.288536325097084">
        <ele>631.20001220703125</ele>
        <time>2014-12-08T11:34:57Z</time>
      </trkpt>
      <trkpt lat="43.798049250617623" lon="5.288462480530143">
        <ele>631.79998779296875</ele>
        <time>2014-12-08T11:35:00Z</time>
      </trkpt>
      <trkpt lat="43.798052100464702" lon="5.288413111120462">
        <ele>632.5999755859375</ele>
        <time>2014-12-08T11:35:02Z</time>
      </trkpt>
      <trkpt lat="43.798050591722131" lon="5.288298362866044">
        <ele>633.4000244140625</ele>
        <time>2014-12-08T11:35:07Z</time>
      </trkpt>
      <trkpt lat="43.79804614931345" lon="5.288203814998269">
        <ele>633.5999755859375</ele>
        <time>2014-12-08T11:35:11Z</time>
      </trkpt>
      <trkpt lat="43.798046987503767" lon="5.288151176646352">
        <ele>634</ele>
        <time>2014-12-08T11:35:13Z</time>
      </trkpt>
      <trkpt lat="43.798060985282063" lon="5.287948921322823">
        <ele>634.79998779296875</ele>
        <time>2014-12-08T11:35:21Z</time>
      </trkpt>
      <trkpt lat="43.798096943646669" lon="5.287781031802297">
        <ele>635.5999755859375</ele>
        <time>2014-12-08T11:35:28Z</time>
      </trkpt>
      <trkpt lat="43.798111025243998" lon="5.287732668220997">
        <ele>635.79998779296875</ele>
        <time>2014-12-08T11:35:30Z</time>
      </trkpt>
      <trkpt lat="43.798163747414947" lon="5.287533262744546">
        <ele>635.79998779296875</ele>
        <time>2014-12-08T11:35:38Z</time>
      </trkpt>
      <trkpt lat="43.798206578940153" lon="5.28734534047544">
        <ele>636.20001220703125</ele>
        <time>2014-12-08T11:35:45Z</time>
      </trkpt>
      <trkpt lat="43.798254020512104" lon="5.287197232246399">
        <ele>637.20001220703125</ele>
        <time>2014-12-08T11:35:50Z</time>
      </trkpt>
      <trkpt lat="43.798291655257344" lon="5.287084830924869">
        <ele>636.20001220703125</ele>
        <time>2014-12-08T11:35:54Z</time>
      </trkpt>
      <trkpt lat="43.798300288617611" lon="5.287055242806673">
        <ele>636.5999755859375</ele>
        <time>2014-12-08T11:35:55Z</time>
      </trkpt>
      <trkpt lat="43.798317387700081" lon="5.286995647475123">
        <ele>637.4000244140625</ele>
        <time>2014-12-08T11:35:57Z</time>
      </trkpt>
      <trkpt lat="43.798370445147157" lon="5.286852233111858">
        <ele>637.20001220703125</ele>
        <time>2014-12-08T11:36:03Z</time>
      </trkpt>
      <trkpt lat="43.798412438482046" lon="5.286658946424723">
        <ele>637.79998779296875</ele>
        <time>2014-12-08T11:36:10Z</time>
      </trkpt>
      <trkpt lat="43.798452839255333" lon="5.286535564810038">
        <ele>638.5999755859375</ele>
        <time>2014-12-08T11:36:15Z</time>
      </trkpt>
      <trkpt lat="43.798465747386217" lon="5.286489045247436">
        <ele>638.79998779296875</ele>
        <time>2014-12-08T11:36:17Z</time>
      </trkpt>
      <trkpt lat="43.798495586961508" lon="5.286364993080497">
        <ele>639.79998779296875</ele>
        <time>2014-12-08T11:36:22Z</time>
      </trkpt>
      <trkpt lat="43.798504304140806" lon="5.286330040544272">
        <ele>639.4000244140625</ele>
        <time>2014-12-08T11:36:24Z</time>
      </trkpt>
      <trkpt lat="43.798552667722106" lon="5.286140693351626">
        <ele>640.5999755859375</ele>
        <time>2014-12-08T11:36:33Z</time>
      </trkpt>
      <trkpt lat="43.79855920560658" lon="5.286120157688856">
        <ele>640.79998779296875</ele>
        <time>2014-12-08T11:36:34Z</time>
      </trkpt>
      <trkpt lat="43.798592062667012" lon="5.285996189340949">
        <ele>641.79998779296875</ele>
        <time>2014-12-08T11:36:39Z</time>
      </trkpt>
      <trkpt lat="43.798597091808915" lon="5.285976072773337">
        <ele>642</ele>
        <time>2014-12-08T11:36:40Z</time>
      </trkpt>
      <trkpt lat="43.798651322722435" lon="5.285800388082862">
        <ele>643</ele>
        <time>2014-12-08T11:36:48Z</time>
      </trkpt>
      <trkpt lat="43.798658447340131" lon="5.285779852420092">
        <ele>643.20001220703125</ele>
        <time>2014-12-08T11:36:49Z</time>
      </trkpt>
      <trkpt lat="43.798684682697058" lon="5.285678012296557">
        <ele>644</ele>
        <time>2014-12-08T11:36:54Z</time>
      </trkpt>
      <trkpt lat="43.798700356855989" lon="5.285642221570015">
        <ele>645.20001220703125</ele>
        <time>2014-12-08T11:36:56Z</time>
      </trkpt>
      <trkpt lat="43.798704966902733" lon="5.285616824403405">
        <ele>645.5999755859375</ele>
        <time>2014-12-08T11:36:57Z</time>
      </trkpt>
      <trkpt lat="43.798733130097389" lon="5.285526551306248">
        <ele>646.4000244140625</ele>
        <time>2014-12-08T11:37:01Z</time>
      </trkpt>
      <trkpt lat="43.79875517450273" lon="5.28547533787787">
        <ele>647.20001220703125</ele>
        <time>2014-12-08T11:37:04Z</time>
      </trkpt>
      <trkpt lat="43.798759281635284" lon="5.285460334271193">
        <ele>647.4000244140625</ele>
        <time>2014-12-08T11:37:05Z</time>
      </trkpt>
      <trkpt lat="43.798795575276017" lon="5.285341227427125">
        <ele>648.5999755859375</ele>
        <time>2014-12-08T11:37:12Z</time>
      </trkpt>
      <trkpt lat="43.798848045989871" lon="5.28519781306386">
        <ele>649.79998779296875</ele>
        <time>2014-12-08T11:37:20Z</time>
      </trkpt>
      <trkpt lat="43.798861289396882" lon="5.285044508054853">
        <ele>651</ele>
        <time>2014-12-08T11:37:27Z</time>
      </trkpt>
      <trkpt lat="43.798862546682358" lon="5.285025062039495">
        <ele>651.5999755859375</ele>
        <time>2014-12-08T11:37:28Z</time>
      </trkpt>
      <trkpt lat="43.79888366907835" lon="5.284859100356698">
        <ele>651.79998779296875</ele>
        <time>2014-12-08T11:37:36Z</time>
      </trkpt>
      <trkpt lat="43.798895906656981" lon="5.284815263003111">
        <ele>652.20001220703125</ele>
        <time>2014-12-08T11:37:38Z</time>
      </trkpt>
      <trkpt lat="43.798922561109066" lon="5.284726833924651">
        <ele>653.20001220703125</ele>
        <time>2014-12-08T11:37:43Z</time>
      </trkpt>
      <trkpt lat="43.798926835879683" lon="5.284710405394435">
        <ele>653.20001220703125</ele>
        <time>2014-12-08T11:37:44Z</time>
      </trkpt>
      <trkpt lat="43.798930943012238" lon="5.284651564434171">
        <ele>653.4000244140625</ele>
        <time>2014-12-08T11:37:47Z</time>
      </trkpt>
      <trkpt lat="43.798933457583189" lon="5.284589035436511">
        <ele>653.79998779296875</ele>
        <time>2014-12-08T11:37:50Z</time>
      </trkpt>
      <trkpt lat="43.798941504210234" lon="5.284506725147367">
        <ele>654.20001220703125</ele>
        <time>2014-12-08T11:37:54Z</time>
      </trkpt>
      <trkpt lat="43.79894963465631" lon="5.284408405423164">
        <ele>654.79998779296875</ele>
        <time>2014-12-08T11:37:58Z</time>
      </trkpt>
      <trkpt lat="43.79895449616015" lon="5.28425132855773">
        <ele>655.4000244140625</ele>
        <time>2014-12-08T11:38:05Z</time>
      </trkpt>
      <trkpt lat="43.798942342400551" lon="5.28408519923687">
        <ele>656.20001220703125</ele>
        <time>2014-12-08T11:38:13Z</time>
      </trkpt>
      <trkpt lat="43.798940498381853" lon="5.284045385196805">
        <ele>656.5999755859375</ele>
        <time>2014-12-08T11:38:15Z</time>
      </trkpt>
      <trkpt lat="43.798911077901721" lon="5.283926613628864">
        <ele>656.79998779296875</ele>
        <time>2014-12-08T11:38:21Z</time>
      </trkpt>
      <trkpt lat="43.798846201971173" lon="5.283793844282627">
        <ele>657.79998779296875</ele>
        <time>2014-12-08T11:38:28Z</time>
      </trkpt>
      <trkpt lat="43.798811417073011" lon="5.283755958080292">
        <ele>658</ele>
        <time>2014-12-08T11:38:31Z</time>
      </trkpt>
      <trkpt lat="43.798788785934448" lon="5.283726621419191">
        <ele>658.4000244140625</ele>
        <time>2014-12-08T11:38:33Z</time>
      </trkpt>
      <trkpt lat="43.798776129260659" lon="5.283711617812514">
        <ele>658.79998779296875</ele>
        <time>2014-12-08T11:38:34Z</time>
      </trkpt>
      <trkpt lat="43.79874343983829" lon="5.283677000552416">
        <ele>659</ele>
        <time>2014-12-08T11:38:37Z</time>
      </trkpt>
      <trkpt lat="43.798632631078362" lon="5.283597875386477">
        <ele>659.5999755859375</ele>
        <time>2014-12-08T11:38:45Z</time>
      </trkpt>
      <trkpt lat="43.798606982454658" lon="5.283578848466277">
        <ele>659.79998779296875</ele>
        <time>2014-12-08T11:38:47Z</time>
      </trkpt>
      <trkpt lat="43.798535736277699" lon="5.283523360267282">
        <ele>660.4000244140625</ele>
        <time>2014-12-08T11:38:52Z</time>
      </trkpt>
      <trkpt lat="43.798488462343812" lon="5.283454293385148">
        <ele>661</ele>
        <time>2014-12-08T11:38:56Z</time>
      </trkpt>
      <trkpt lat="43.798469100147486" lon="5.283440044149756">
        <ele>661.20001220703125</ele>
        <time>2014-12-08T11:38:57Z</time>
      </trkpt>
      <trkpt lat="43.798441858962178" lon="5.283410120755434">
        <ele>661.5999755859375</ele>
        <time>2014-12-08T11:38:59Z</time>
      </trkpt>
      <trkpt lat="43.798421490937471" lon="5.283370474353433">
        <ele>662.20001220703125</ele>
        <time>2014-12-08T11:39:01Z</time>
      </trkpt>
      <trkpt lat="43.798431800678372" lon="5.283388663083315">
        <ele>662</ele>
        <time>2014-12-08T11:41:46Z</time>
      </trkpt>
      <trkpt lat="43.798413360491395" lon="5.283334935083985">
        <ele>662.20001220703125</ele>
        <time>2014-12-08T11:41:49Z</time>
      </trkpt>
      <trkpt lat="43.798453761264682" lon="5.283269807696343">
        <ele>663</ele>
        <time>2014-12-08T11:41:53Z</time>
      </trkpt>
      <trkpt lat="43.798471111804247" lon="5.283254384994507">
        <ele>663.20001220703125</ele>
        <time>2014-12-08T11:41:54Z</time>
      </trkpt>
      <trkpt lat="43.798572197556496" lon="5.283183306455612">
        <ele>663.5999755859375</ele>
        <time>2014-12-08T11:42:00Z</time>
      </trkpt>
      <trkpt lat="43.798631876707077" lon="5.283133266493678">
        <ele>665</ele>
        <time>2014-12-08T11:42:04Z</time>
      </trkpt>
      <trkpt lat="43.79865693859756" lon="5.283101415261626">
        <ele>666.5999755859375</ele>
        <time>2014-12-08T11:42:06Z</time>
      </trkpt>
      <trkpt lat="43.798671439290047" lon="5.28308691456914">
        <ele>666</ele>
        <time>2014-12-08T11:42:07Z</time>
      </trkpt>
      <trkpt lat="43.798781242221594" lon="5.282931262627244">
        <ele>667.20001220703125</ele>
        <time>2014-12-08T11:42:16Z</time>
      </trkpt>
      <trkpt lat="43.798828013241291" lon="5.282870074734092">
        <ele>667.79998779296875</ele>
        <time>2014-12-08T11:42:20Z</time>
      </trkpt>
      <trkpt lat="43.79884896799922" lon="5.282841911539435">
        <ele>669</ele>
        <time>2014-12-08T11:42:22Z</time>
      </trkpt>
      <trkpt lat="43.79886019974947" lon="5.282826405018568">
        <ele>669.20001220703125</ele>
        <time>2014-12-08T11:42:23Z</time>
      </trkpt>
      <trkpt lat="43.798935133963823" lon="5.28271852992475">
        <ele>670</ele>
        <time>2014-12-08T11:42:30Z</time>
      </trkpt>
      <trkpt lat="43.798961034044623" lon="5.282670082524419">
        <ele>670.79998779296875</ele>
        <time>2014-12-08T11:42:33Z</time>
      </trkpt>
      <trkpt lat="43.798970421776175" lon="5.282653318718076">
        <ele>671.20001220703125</ele>
        <time>2014-12-08T11:42:34Z</time>
      </trkpt>
      <trkpt lat="43.799006128683686" lon="5.282574109733105">
        <ele>671</ele>
        <time>2014-12-08T11:42:38Z</time>
      </trkpt>
      <trkpt lat="43.799025909975171" lon="5.282544437795878">
        <ele>671.5999755859375</ele>
        <time>2014-12-08T11:42:40Z</time>
      </trkpt>
      <trkpt lat="43.79908106289804" lon="5.282456092536449">
        <ele>672.20001220703125</ele>
        <time>2014-12-08T11:42:46Z</time>
      </trkpt>
      <trkpt lat="43.799093719571829" lon="5.282440083101392">
        <ele>672.20001220703125</ele>
        <time>2014-12-08T11:42:47Z</time>
      </trkpt>
      <trkpt lat="43.799147699028254" lon="5.282336482778192">
        <ele>673</ele>
        <time>2014-12-08T11:42:53Z</time>
      </trkpt>
      <trkpt lat="43.799158930778503" lon="5.282317120581865">
        <ele>673.20001220703125</ele>
        <time>2014-12-08T11:42:54Z</time>
      </trkpt>
      <trkpt lat="43.799219280481339" lon="5.282224165275693">
        <ele>674.20001220703125</ele>
        <time>2014-12-08T11:42:59Z</time>
      </trkpt>
      <trkpt lat="43.799230428412557" lon="5.282206647098064">
        <ele>674.4000244140625</ele>
        <time>2014-12-08T11:43:00Z</time>
      </trkpt>
      <trkpt lat="43.799279378727078" lon="5.282154763117433">
        <ele>675.79998779296875</ele>
        <time>2014-12-08T11:43:04Z</time>
      </trkpt>
      <trkpt lat="43.79931609146297" lon="5.282102460041642">
        <ele>676</ele>
        <time>2014-12-08T11:43:07Z</time>
      </trkpt>
      <trkpt lat="43.799379207193851" lon="5.281988549977541">
        <ele>676.79998779296875</ele>
        <time>2014-12-08T11:43:13Z</time>
      </trkpt>
      <trkpt lat="43.799395216628909" lon="5.281953597441316">
        <ele>677</ele>
        <time>2014-12-08T11:43:15Z</time>
      </trkpt>
      <trkpt lat="43.799461517482996" lon="5.281851505860686">
        <ele>677.79998779296875</ele>
        <time>2014-12-08T11:43:21Z</time>
      </trkpt>
      <trkpt lat="43.799483142793179" lon="5.281821414828301">
        <ele>677.79998779296875</ele>
        <time>2014-12-08T11:43:23Z</time>
      </trkpt>
      <trkpt lat="43.799540055915713" lon="5.281740026548505">
        <ele>678.79998779296875</ele>
        <time>2014-12-08T11:43:28Z</time>
      </trkpt>
      <trkpt lat="43.799572242423892" lon="5.281687891110778">
        <ele>679.20001220703125</ele>
        <time>2014-12-08T11:43:31Z</time>
      </trkpt>
      <trkpt lat="43.799622366204858" lon="5.281586134806275">
        <ele>679.5999755859375</ele>
        <time>2014-12-08T11:43:36Z</time>
      </trkpt>
      <trkpt lat="43.799670143052936" lon="5.28151597827673">
        <ele>680</ele>
        <time>2014-12-08T11:43:40Z</time>
      </trkpt>
      <trkpt lat="43.799702748656273" lon="5.281454287469387">
        <ele>680.5999755859375</ele>
        <time>2014-12-08T11:43:43Z</time>
      </trkpt>
      <trkpt lat="43.799731498584151" lon="5.281392512843013">
        <ele>681</ele>
        <time>2014-12-08T11:43:46Z</time>
      </trkpt>
      <trkpt lat="43.799781454727054" lon="5.281282206997275">
        <ele>681.5999755859375</ele>
        <time>2014-12-08T11:43:51Z</time>
      </trkpt>
      <trkpt lat="43.799793273210526" lon="5.281234430149198">
        <ele>682</ele>
        <time>2014-12-08T11:43:53Z</time>
      </trkpt>
      <trkpt lat="43.799805762246251" lon="5.281171901151538">
        <ele>682.79998779296875</ele>
        <time>2014-12-08T11:43:56Z</time>
      </trkpt>
      <trkpt lat="43.799812886863947" lon="5.281131081283093">
        <ele>683</ele>
        <time>2014-12-08T11:43:58Z</time>
      </trkpt>
      <trkpt lat="43.799829399213195" lon="5.281031839549542">
        <ele>683.79998779296875</ele>
        <time>2014-12-08T11:44:03Z</time>
      </trkpt>
      <trkpt lat="43.799832668155432" lon="5.280991522595286">
        <ele>684.20001220703125</ele>
        <time>2014-12-08T11:44:05Z</time>
      </trkpt>
      <trkpt lat="43.799837864935398" lon="5.280930418521166">
        <ele>685.4000244140625</ele>
        <time>2014-12-08T11:44:08Z</time>
      </trkpt>
      <trkpt lat="43.799839457497001" lon="5.280867051333189">
        <ele>685.5999755859375</ele>
        <time>2014-12-08T11:44:11Z</time>
      </trkpt>
      <trkpt lat="43.799827639013529" lon="5.280810557305813">
        <ele>686.4000244140625</ele>
        <time>2014-12-08T11:44:14Z</time>
      </trkpt>
      <trkpt lat="43.799829231575131" lon="5.280711567029357">
        <ele>687</ele>
        <time>2014-12-08T11:44:19Z</time>
      </trkpt>
      <trkpt lat="43.799825375899673" lon="5.280624059960246">
        <ele>687.4000244140625</ele>
        <time>2014-12-08T11:44:23Z</time>
      </trkpt>
      <trkpt lat="43.799824118614197" lon="5.280555915087462">
        <ele>688</ele>
        <time>2014-12-08T11:44:26Z</time>
      </trkpt>
      <trkpt lat="43.799816826358438" lon="5.28040437027812">
        <ele>688.4000244140625</ele>
        <time>2014-12-08T11:44:32Z</time>
      </trkpt>
      <trkpt lat="43.799814144149423" lon="5.280377464368939">
        <ele>688.79998779296875</ele>
        <time>2014-12-08T11:44:33Z</time>
      </trkpt>
      <trkpt lat="43.799805343151093" lon="5.280250478535891">
        <ele>689.79998779296875</ele>
        <time>2014-12-08T11:44:38Z</time>
      </trkpt>
      <trkpt lat="43.799808444455266" lon="5.280196918174624">
        <ele>689.5999755859375</ele>
        <time>2014-12-08T11:44:40Z</time>
      </trkpt>
      <trkpt lat="43.799803415313363" lon="5.280041769146919">
        <ele>690.79998779296875</ele>
        <time>2014-12-08T11:44:47Z</time>
      </trkpt>
      <trkpt lat="43.7998032476753" lon="5.280019054189324">
        <ele>691</ele>
        <time>2014-12-08T11:44:48Z</time>
      </trkpt>
      <trkpt lat="43.799825459718704" lon="5.279896762222052">
        <ele>691.79998779296875</ele>
        <time>2014-12-08T11:44:53Z</time>
      </trkpt>
      <trkpt lat="43.799825543537736" lon="5.279871448874474">
        <ele>692</ele>
        <time>2014-12-08T11:44:54Z</time>
      </trkpt>
      <trkpt lat="43.799833757802844" lon="5.279785534366965">
        <ele>693</ele>
        <time>2014-12-08T11:44:58Z</time>
      </trkpt>
      <trkpt lat="43.799838870763779" lon="5.279740775004029">
        <ele>693.20001220703125</ele>
        <time>2014-12-08T11:45:00Z</time>
      </trkpt>
      <trkpt lat="43.799856640398502" lon="5.279615884646773">
        <ele>694.20001220703125</ele>
        <time>2014-12-08T11:45:05Z</time>
      </trkpt>
      <trkpt lat="43.799858568236232" lon="5.27952334843576">
        <ele>695</ele>
        <time>2014-12-08T11:45:09Z</time>
      </trkpt>
      <trkpt lat="43.799861250445247" lon="5.279456125572324">
        <ele>695.4000244140625</ele>
        <time>2014-12-08T11:45:12Z</time>
      </trkpt>
      <trkpt lat="43.799873068928719" lon="5.279317740350962">
        <ele>695.79998779296875</ele>
        <time>2014-12-08T11:45:18Z</time>
      </trkpt>
      <trkpt lat="43.799884803593159" lon="5.279217576608062">
        <ele>696.4000244140625</ele>
        <time>2014-12-08T11:45:23Z</time>
      </trkpt>
      <trkpt lat="43.79990198649466" lon="5.27912512421608">
        <ele>697</ele>
        <time>2014-12-08T11:45:27Z</time>
      </trkpt>
      <trkpt lat="43.799958815798163" lon="5.278946254402399">
        <ele>697.20001220703125</ele>
        <time>2014-12-08T11:45:35Z</time>
      </trkpt>
      <trkpt lat="43.799967197701335" lon="5.278923539444804">
        <ele>697.5999755859375</ele>
        <time>2014-12-08T11:45:36Z</time>
      </trkpt>
      <trkpt lat="43.800011118873954" lon="5.278816921636462">
        <ele>698</ele>
        <time>2014-12-08T11:45:41Z</time>
      </trkpt>
      <trkpt lat="43.800043556839228" lon="5.278709046542645">
        <ele>698.5999755859375</ele>
        <time>2014-12-08T11:45:45Z</time>
      </trkpt>
      <trkpt lat="43.800082029774785" lon="5.278604691848159">
        <ele>699.20001220703125</ele>
        <time>2014-12-08T11:45:49Z</time>
      </trkpt>
      <trkpt lat="43.800161574035883" lon="5.278377290815115">
        <ele>699.20001220703125</ele>
        <time>2014-12-08T11:45:57Z</time>
      </trkpt>
      <trkpt lat="43.800241369754076" lon="5.278209485113621">
        <ele>699.5999755859375</ele>
        <time>2014-12-08T11:46:03Z</time>
      </trkpt>
      <trkpt lat="43.800261905416846" lon="5.278149470686913">
        <ele>700</ele>
        <time>2014-12-08T11:46:05Z</time>
      </trkpt>
      <trkpt lat="43.800300545990467" lon="5.278055174276233">
        <ele>700.79998779296875</ele>
        <time>2014-12-08T11:46:09Z</time>
      </trkpt>
      <trkpt lat="43.800324853509665" lon="5.277987783774734">
        <ele>701</ele>
        <time>2014-12-08T11:46:12Z</time>
      </trkpt>
      <trkpt lat="43.800352681428194" lon="5.277897091582418">
        <ele>702</ele>
        <time>2014-12-08T11:46:16Z</time>
      </trkpt>
      <trkpt lat="43.800378246232867" lon="5.277843866497278">
        <ele>702.20001220703125</ele>
        <time>2014-12-08T11:46:19Z</time>
      </trkpt>
      <trkpt lat="43.800426358357072" lon="5.277726938948035">
        <ele>703.20001220703125</ele>
        <time>2014-12-08T11:46:25Z</time>
      </trkpt>
      <trkpt lat="43.800446391105652" lon="5.277692489326">
        <ele>703.4000244140625</ele>
        <time>2014-12-08T11:46:27Z</time>
      </trkpt>
      <trkpt lat="43.800475308671594" lon="5.2776182256639">
        <ele>704.4000244140625</ele>
        <time>2014-12-08T11:46:31Z</time>
      </trkpt>
      <trkpt lat="43.800502046942711" lon="5.277532478794456">
        <ele>704.4000244140625</ele>
        <time>2014-12-08T11:46:35Z</time>
      </trkpt>
      <trkpt lat="43.800548063591123" lon="5.277442373335362">
        <ele>705.5999755859375</ele>
        <time>2014-12-08T11:46:40Z</time>
      </trkpt>
      <trkpt lat="43.800565665587783" lon="5.277400044724345">
        <ele>706</ele>
        <time>2014-12-08T11:46:42Z</time>
      </trkpt>
      <trkpt lat="43.800600618124008" lon="5.277291750535369">
        <ele>706.79998779296875</ele>
        <time>2014-12-08T11:46:47Z</time>
      </trkpt>
      <trkpt lat="43.80062316544354" lon="5.277247997000814">
        <ele>707</ele>
        <time>2014-12-08T11:46:49Z</time>
      </trkpt>
      <trkpt lat="43.80067546851933" lon="5.277097122743726">
        <ele>708</ele>
        <time>2014-12-08T11:46:56Z</time>
      </trkpt>
      <trkpt lat="43.800739925354719" lon="5.276966113597155">
        <ele>709</ele>
        <time>2014-12-08T11:47:02Z</time>
      </trkpt>
      <trkpt lat="43.800751157104969" lon="5.27694683521986">
        <ele>709.20001220703125</ele>
        <time>2014-12-08T11:47:03Z</time>
      </trkpt>
      <trkpt lat="43.800861043855548" lon="5.276827979832888">
        <ele>709.79998779296875</ele>
        <time>2014-12-08T11:47:11Z</time>
      </trkpt>
      <trkpt lat="43.800897002220154" lon="5.276798643171787">
        <ele>710</ele>
        <time>2014-12-08T11:47:13Z</time>
      </trkpt>
      <trkpt lat="43.800997082144022" lon="5.276714572682977">
        <ele>710.5999755859375</ele>
        <time>2014-12-08T11:47:19Z</time>
      </trkpt>
      <trkpt lat="43.801106801256537" lon="5.276602758094668">
        <ele>710.4000244140625</ele>
        <time>2014-12-08T11:47:26Z</time>
      </trkpt>
      <trkpt lat="43.801246527582407" lon="5.276542492210865">
        <ele>710.5999755859375</ele>
        <time>2014-12-08T11:47:32Z</time>
      </trkpt>
      <trkpt lat="43.801385750994086" lon="5.276545509696007">
        <ele>711</ele>
        <time>2014-12-08T11:47:37Z</time>
      </trkpt>
      <trkpt lat="43.801545929163694" lon="5.276521202176809">
        <ele>710.5999755859375</ele>
        <time>2014-12-08T11:47:43Z</time>
      </trkpt>
      <trkpt lat="43.801621198654175" lon="5.276504438370466">
        <ele>710</ele>
        <time>2014-12-08T11:47:47Z</time>
      </trkpt>
      <trkpt lat="43.80163804627955" lon="5.276502929627895">
        <ele>710</ele>
        <time>2014-12-08T11:47:48Z</time>
      </trkpt>
      <trkpt lat="43.801745334640145" lon="5.276507036760449">
        <ele>709.4000244140625</ele>
        <time>2014-12-08T11:47:53Z</time>
      </trkpt>
      <trkpt lat="43.801833093166351" lon="5.276452470570803">
        <ele>709.5999755859375</ele>
        <time>2014-12-08T11:47:57Z</time>
      </trkpt>
      <trkpt lat="43.80183451808989" lon="5.276317521929741">
        <ele>709.4000244140625</ele>
        <time>2014-12-08T11:48:02Z</time>
      </trkpt>
      <trkpt lat="43.801792105659842" lon="5.276270750910044">
        <ele>709.5999755859375</ele>
        <time>2014-12-08T11:48:04Z</time>
      </trkpt>
      <trkpt lat="43.801713483408093" lon="5.276168156415224">
        <ele>710.20001220703125</ele>
        <time>2014-12-08T11:48:08Z</time>
      </trkpt>
      <trkpt lat="43.80164441652596" lon="5.276101939380169">
        <ele>711.20001220703125</ele>
        <time>2014-12-08T11:48:11Z</time>
      </trkpt>
      <trkpt lat="43.801556155085564" lon="5.276013342663646">
        <ele>711.79998779296875</ele>
        <time>2014-12-08T11:48:15Z</time>
      </trkpt>
      <trkpt lat="43.801498068496585" lon="5.275943521410227">
        <ele>712.4000244140625</ele>
        <time>2014-12-08T11:48:18Z</time>
      </trkpt>
      <trkpt lat="43.801413243636489" lon="5.275849057361484">
        <ele>712.79998779296875</ele>
        <time>2014-12-08T11:48:22Z</time>
      </trkpt>
      <trkpt lat="43.801283910870552" lon="5.275700278580189">
        <ele>713.5999755859375</ele>
        <time>2014-12-08T11:48:28Z</time>
      </trkpt>
      <trkpt lat="43.801239319145679" lon="5.275651747360826">
        <ele>713.79998779296875</ele>
        <time>2014-12-08T11:48:30Z</time>
      </trkpt>
      <trkpt lat="43.801098922267556" lon="5.27550196275115">
        <ele>714.5999755859375</ele>
        <time>2014-12-08T11:48:36Z</time>
      </trkpt>
      <trkpt lat="43.801034046337008" lon="5.275421412661672">
        <ele>714.79998779296875</ele>
        <time>2014-12-08T11:48:39Z</time>
      </trkpt>
      <trkpt lat="43.800856685265899" lon="5.275222091004252">
        <ele>715.20001220703125</ele>
        <time>2014-12-08T11:48:46Z</time>
      </trkpt>
      <trkpt lat="43.800685526803136" lon="5.274975663051009">
        <ele>715.4000244140625</ele>
        <time>2014-12-08T11:48:53Z</time>
      </trkpt>
      <trkpt lat="43.800597097724676" lon="5.2748242020607">
        <ele>715.5999755859375</ele>
        <time>2014-12-08T11:48:57Z</time>
      </trkpt>
      <trkpt lat="43.800486288964748" lon="5.274649271741509">
        <ele>716.20001220703125</ele>
        <time>2014-12-08T11:49:02Z</time>
      </trkpt>
      <trkpt lat="43.800340360030532" lon="5.274374512955546">
        <ele>716.20001220703125</ele>
        <time>2014-12-08T11:49:10Z</time>
      </trkpt>
      <trkpt lat="43.800286632031202" lon="5.274216933175921">
        <ele>716.79998779296875</ele>
        <time>2014-12-08T11:49:14Z</time>
      </trkpt>
      <trkpt lat="43.80024547688663" lon="5.274103526026011">
        <ele>716.79998779296875</ele>
        <time>2014-12-08T11:49:17Z</time>
      </trkpt>
      <trkpt lat="43.80018537864089" lon="5.273816110566258">
        <ele>717</ele>
        <time>2014-12-08T11:49:24Z</time>
      </trkpt>
      <trkpt lat="43.800161154940724" lon="5.273564988747239">
        <ele>717.20001220703125</ele>
        <time>2014-12-08T11:49:30Z</time>
      </trkpt>
      <trkpt lat="43.800138523802161" lon="5.273303976282477">
        <ele>717.79998779296875</ele>
        <time>2014-12-08T11:49:36Z</time>
      </trkpt>
      <trkpt lat="43.800136428326368" lon="5.273221246898174">
        <ele>718.79998779296875</ele>
        <time>2014-12-08T11:49:38Z</time>
      </trkpt>
      <trkpt lat="43.800138104707003" lon="5.2731819357723">
        <ele>719.5999755859375</ele>
        <time>2014-12-08T11:49:39Z</time>
      </trkpt>
      <trkpt lat="43.800147660076618" lon="5.27303240261972">
        <ele>718.79998779296875</ele>
        <time>2014-12-08T11:49:43Z</time>
      </trkpt>
      <trkpt lat="43.800200549885631" lon="5.272833332419395">
        <ele>718.79998779296875</ele>
        <time>2014-12-08T11:49:49Z</time>
      </trkpt>
      <trkpt lat="43.800284201279283" lon="5.272499481216073">
        <ele>719.20001220703125</ele>
        <time>2014-12-08T11:49:58Z</time>
      </trkpt>
      <trkpt lat="43.80034807138145" lon="5.272249868139625">
        <ele>719.20001220703125</ele>
        <time>2014-12-08T11:50:05Z</time>
      </trkpt>
      <trkpt lat="43.800396434962749" lon="5.272005619481206">
        <ele>720.4000244140625</ele>
        <time>2014-12-08T11:50:12Z</time>
      </trkpt>
      <trkpt lat="43.800450498238206" lon="5.271748462691903">
        <ele>720.5999755859375</ele>
        <time>2014-12-08T11:50:19Z</time>
      </trkpt>
      <trkpt lat="43.800457119941711" lon="5.271712671965361">
        <ele>720.79998779296875</ele>
        <time>2014-12-08T11:50:20Z</time>
      </trkpt>
      <trkpt lat="43.800501879304647" lon="5.271486192941666">
        <ele>721.5999755859375</ele>
        <time>2014-12-08T11:50:26Z</time>
      </trkpt>
      <trkpt lat="43.800513697788119" lon="5.271449647843838">
        <ele>721.79998779296875</ele>
        <time>2014-12-08T11:50:27Z</time>
      </trkpt>
      <trkpt lat="43.800552086904645" lon="5.271268431097269">
        <ele>722.79998779296875</ele>
        <time>2014-12-08T11:50:32Z</time>
      </trkpt>
      <trkpt lat="43.800562312826514" lon="5.271184109151363">
        <ele>723</ele>
        <time>2014-12-08T11:50:34Z</time>
      </trkpt>
      <trkpt lat="43.800580333918333" lon="5.270920246839523">
        <ele>723.4000244140625</ele>
        <time>2014-12-08T11:50:41Z</time>
      </trkpt>
      <trkpt lat="43.800585279241204" lon="5.270844306796789">
        <ele>723.79998779296875</ele>
        <time>2014-12-08T11:50:43Z</time>
      </trkpt>
      <trkpt lat="43.800624758005142" lon="5.27065428905189">
        <ele>724.5999755859375</ele>
        <time>2014-12-08T11:50:48Z</time>
      </trkpt>
      <trkpt lat="43.800663901492953" lon="5.270480532199144">
        <ele>724.79998779296875</ele>
        <time>2014-12-08T11:50:53Z</time>
      </trkpt>
      <trkpt lat="43.800672283396125" lon="5.270442897453904">
        <ele>724.79998779296875</ele>
        <time>2014-12-08T11:50:54Z</time>
      </trkpt>
      <trkpt lat="43.800708325579762" lon="5.270204683765769">
        <ele>725.20001220703125</ele>
        <time>2014-12-08T11:51:00Z</time>
      </trkpt>
      <trkpt lat="43.800781834870577" lon="5.26988172903657">
        <ele>725.5999755859375</ele>
        <time>2014-12-08T11:51:08Z</time>
      </trkpt>
      <trkpt lat="43.800853751599789" lon="5.26952700689435">
        <ele>725.79998779296875</ele>
        <time>2014-12-08T11:51:17Z</time>
      </trkpt>
      <trkpt lat="43.800859283655882" lon="5.269481660798192">
        <ele>726</ele>
        <time>2014-12-08T11:51:18Z</time>
      </trkpt>
      <trkpt lat="43.800908150151372" lon="5.269286865368486">
        <ele>726.4000244140625</ele>
        <time>2014-12-08T11:51:23Z</time>
      </trkpt>
      <trkpt lat="43.80097889341414" lon="5.268971370533109">
        <ele>726.5999755859375</ele>
        <time>2014-12-08T11:51:30Z</time>
      </trkpt>
      <trkpt lat="43.801081571727991" lon="5.268572894856334">
        <ele>726.79998779296875</ele>
        <time>2014-12-08T11:51:38Z</time>
      </trkpt>
      <trkpt lat="43.801092132925987" lon="5.268524195998907">
        <ele>727</ele>
        <time>2014-12-08T11:51:39Z</time>
      </trkpt>
      <trkpt lat="43.801176873967052" lon="5.268117254599929">
        <ele>727.20001220703125</ele>
        <time>2014-12-08T11:51:47Z</time>
      </trkpt>
      <trkpt lat="43.801173437386751" lon="5.267824390903115">
        <ele>727</ele>
        <time>2014-12-08T11:51:52Z</time>
      </trkpt>
      <trkpt lat="43.801087271422148" lon="5.267491461709142">
        <ele>726</ele>
        <time>2014-12-08T11:51:58Z</time>
      </trkpt>
      <trkpt lat="43.801064640283585" lon="5.267436895519495">
        <ele>726</ele>
        <time>2014-12-08T11:51:59Z</time>
      </trkpt>
      <trkpt lat="43.800879651680589" lon="5.26699542067945">
        <ele>726.4000244140625</ele>
        <time>2014-12-08T11:52:08Z</time>
      </trkpt>
      <trkpt lat="43.800811422988772" lon="5.26680238544941">
        <ele>726.5999755859375</ele>
        <time>2014-12-08T11:52:12Z</time>
      </trkpt>
      <trkpt lat="43.80074143409729" lon="5.266613122075796">
        <ele>726.4000244140625</ele>
        <time>2014-12-08T11:52:16Z</time>
      </trkpt>
      <trkpt lat="43.800583267584443" lon="5.266246162354946">
        <ele>726.4000244140625</ele>
        <time>2014-12-08T11:52:23Z</time>
      </trkpt>
      <trkpt lat="43.8005630671978" lon="5.266187908127904">
        <ele>726.4000244140625</ele>
        <time>2014-12-08T11:52:24Z</time>
      </trkpt>
      <trkpt lat="43.800508417189121" lon="5.265964111313224">
        <ele>726.4000244140625</ele>
        <time>2014-12-08T11:52:27Z</time>
      </trkpt>
      <trkpt lat="43.800414204597473" lon="5.265521965920925">
        <ele>724.4000244140625</ele>
        <time>2014-12-08T11:52:32Z</time>
      </trkpt>
      <trkpt lat="43.800393166020513" lon="5.265426076948643">
        <ele>724.20001220703125</ele>
        <time>2014-12-08T11:52:33Z</time>
      </trkpt>
      <trkpt lat="43.800338348373771" lon="5.265133799985051">
        <ele>723.20001220703125</ele>
        <time>2014-12-08T11:52:36Z</time>
      </trkpt>
      <trkpt lat="43.800270203500986" lon="5.264839259907603">
        <ele>722.20001220703125</ele>
        <time>2014-12-08T11:52:39Z</time>
      </trkpt>
      <trkpt lat="43.800246147438884" lon="5.26474186219275">
        <ele>722</ele>
        <time>2014-12-08T11:52:40Z</time>
      </trkpt>
      <trkpt lat="43.800082448869944" lon="5.264142220839858">
        <ele>721</ele>
        <time>2014-12-08T11:52:46Z</time>
      </trkpt>
      <trkpt lat="43.800023775547743" lon="5.263943066820502">
        <ele>720.20001220703125</ele>
        <time>2014-12-08T11:52:48Z</time>
      </trkpt>
      <trkpt lat="43.799995444715023" lon="5.263845082372427">
        <ele>720</ele>
        <time>2014-12-08T11:52:49Z</time>
      </trkpt>
      <trkpt lat="43.799836188554764" lon="5.263357674703002">
        <ele>718.79998779296875</ele>
        <time>2014-12-08T11:52:54Z</time>
      </trkpt>
      <trkpt lat="43.799757482483983" lon="5.263146702200174">
        <ele>716.5999755859375</ele>
        <time>2014-12-08T11:52:57Z</time>
      </trkpt>
      <trkpt lat="43.79974021576345" lon="5.263105044141412">
        <ele>715.4000244140625</ele>
        <time>2014-12-08T11:52:58Z</time>
      </trkpt>
      <trkpt lat="43.799709957093" lon="5.263033211231232">
        <ele>714.20001220703125</ele>
        <time>2014-12-08T11:53:01Z</time>
      </trkpt>
      <trkpt lat="43.799689086154103" lon="5.262964814901352">
        <ele>713.4000244140625</ele>
        <time>2014-12-08T11:53:14Z</time>
      </trkpt>
      <trkpt lat="43.799676178023219" lon="5.262909661978483">
        <ele>713.4000244140625</ele>
        <time>2014-12-08T11:53:16Z</time>
      </trkpt>
      <trkpt lat="43.799630245193839" lon="5.262764906510711">
        <ele>713.4000244140625</ele>
        <time>2014-12-08T11:53:21Z</time>
      </trkpt>
      <trkpt lat="43.79960929043591" lon="5.262706484645605">
        <ele>713</ele>
        <time>2014-12-08T11:53:23Z</time>
      </trkpt>
      <trkpt lat="43.799532596021891" lon="5.262481765821576">
        <ele>712.4000244140625</ele>
        <time>2014-12-08T11:53:29Z</time>
      </trkpt>
      <trkpt lat="43.79948859103024" lon="5.262377997860313">
        <ele>712.20001220703125</ele>
        <time>2014-12-08T11:53:32Z</time>
      </trkpt>
      <trkpt lat="43.799466043710709" lon="5.262366179376841">
        <ele>712.20001220703125</ele>
        <time>2014-12-08T11:53:33Z</time>
      </trkpt>
      <trkpt lat="43.79936789162457" lon="5.26226400397718">
        <ele>711.4000244140625</ele>
        <time>2014-12-08T11:53:37Z</time>
      </trkpt>
      <trkpt lat="43.799336459487677" lon="5.262105669826269">
        <ele>710.79998779296875</ele>
        <time>2014-12-08T11:53:40Z</time>
      </trkpt>
      <trkpt lat="43.79932438954711" lon="5.26205194182694">
        <ele>710.20001220703125</ele>
        <time>2014-12-08T11:53:41Z</time>
      </trkpt>
      <trkpt lat="43.799311313778162" lon="5.262002907693386">
        <ele>709.5999755859375</ele>
        <time>2014-12-08T11:53:42Z</time>
      </trkpt>
      <trkpt lat="43.79929656162858" lon="5.26195471175015">
        <ele>709.20001220703125</ele>
        <time>2014-12-08T11:53:43Z</time>
      </trkpt>
      <trkpt lat="43.799264458939433" lon="5.261862259358168">
        <ele>708</ele>
        <time>2014-12-08T11:53:45Z</time>
      </trkpt>
      <trkpt lat="43.799255657941103" lon="5.261812135577202">
        <ele>707.5999755859375</ele>
        <time>2014-12-08T11:53:46Z</time>
      </trkpt>
      <trkpt lat="43.79922229796648" lon="5.261651454493403">
        <ele>707</ele>
        <time>2014-12-08T11:53:49Z</time>
      </trkpt>
      <trkpt lat="43.799178712069988" lon="5.261477362364531">
        <ele>706.79998779296875</ele>
        <time>2014-12-08T11:53:52Z</time>
      </trkpt>
      <trkpt lat="43.799137054011226" lon="5.261349370703101">
        <ele>705.5999755859375</ele>
        <time>2014-12-08T11:53:55Z</time>
      </trkpt>
      <trkpt lat="43.799120206385851" lon="5.261311400681734">
        <ele>705.20001220703125</ele>
        <time>2014-12-08T11:53:56Z</time>
      </trkpt>
      <trkpt lat="43.799088774248958" lon="5.261215008795261">
        <ele>704.4000244140625</ele>
        <time>2014-12-08T11:53:58Z</time>
      </trkpt>
      <trkpt lat="43.799061197787523" lon="5.261066732928157">
        <ele>703.20001220703125</ele>
        <time>2014-12-08T11:54:01Z</time>
      </trkpt>
      <trkpt lat="43.799006715416908" lon="5.260954247787595">
        <ele>702.20001220703125</ele>
        <time>2014-12-08T11:54:04Z</time>
      </trkpt>
      <trkpt lat="43.798989951610565" lon="5.260917954146862">
        <ele>701.5999755859375</ele>
        <time>2014-12-08T11:54:05Z</time>
      </trkpt>
      <trkpt lat="43.798975450918078" lon="5.260874116793275">
        <ele>701.4000244140625</ele>
        <time>2014-12-08T11:54:06Z</time>
      </trkpt>
      <trkpt lat="43.798949802294374" lon="5.260722488164902">
        <ele>701</ele>
        <time>2014-12-08T11:54:09Z</time>
      </trkpt>
      <trkpt lat="43.798939157277346" lon="5.26063640601933">
        <ele>700.4000244140625</ele>
        <time>2014-12-08T11:54:11Z</time>
      </trkpt>
      <trkpt lat="43.798936055973172" lon="5.260613858699799">
        <ele>700</ele>
        <time>2014-12-08T11:54:12Z</time>
      </trkpt>
      <trkpt lat="43.798936642706394" lon="5.260551581159234">
        <ele>701.4000244140625</ele>
        <time>2014-12-08T11:54:23Z</time>
      </trkpt>
      <trkpt lat="43.798895822837949" lon="5.260379584506154">
        <ele>700.5999755859375</ele>
        <time>2014-12-08T11:54:28Z</time>
      </trkpt>
      <trkpt lat="43.798858523368835" lon="5.260267183184624">
        <ele>700.20001220703125</ele>
        <time>2014-12-08T11:54:31Z</time>
      </trkpt>
      <trkpt lat="43.798836059868336" lon="5.260218903422356">
        <ele>699.20001220703125</ele>
        <time>2014-12-08T11:54:32Z</time>
      </trkpt>
      <trkpt lat="43.798815188929439" lon="5.26016978546977">
        <ele>698.5999755859375</ele>
        <time>2014-12-08T11:54:33Z</time>
      </trkpt>
      <trkpt lat="43.798776213079691" lon="5.259997453540564">
        <ele>698.20001220703125</ele>
        <time>2014-12-08T11:54:36Z</time>
      </trkpt>
      <trkpt lat="43.79874587059021" lon="5.259828306734562">
        <ele>699</ele>
        <time>2014-12-08T11:54:39Z</time>
      </trkpt>
      <trkpt lat="43.798721143975854" lon="5.259730741381645">
        <ele>698.4000244140625</ele>
        <time>2014-12-08T11:54:41Z</time>
      </trkpt>
      <trkpt lat="43.798690214753151" lon="5.259643737226725">
        <ele>697.4000244140625</ele>
        <time>2014-12-08T11:54:43Z</time>
      </trkpt>
      <trkpt lat="43.798618549481034" lon="5.259460927918553">
        <ele>697</ele>
        <time>2014-12-08T11:54:47Z</time>
      </trkpt>
      <trkpt lat="43.798524169251323" lon="5.259238891303539">
        <ele>696.20001220703125</ele>
        <time>2014-12-08T11:54:52Z</time>
      </trkpt>
      <trkpt lat="43.798449151217937" lon="5.259104361757636">
        <ele>695.4000244140625</ele>
        <time>2014-12-08T11:54:57Z</time>
      </trkpt>
      <trkpt lat="43.798405481502414" lon="5.25895893573761">
        <ele>695.20001220703125</ele>
        <time>2014-12-08T11:55:01Z</time>
      </trkpt>
      <trkpt lat="43.798336917534471" lon="5.258880229666829">
        <ele>694.5999755859375</ele>
        <time>2014-12-08T11:55:04Z</time>
      </trkpt>
      <trkpt lat="43.798319566994905" lon="5.25885047391057">
        <ele>694.20001220703125</ele>
        <time>2014-12-08T11:55:05Z</time>
      </trkpt>
      <trkpt lat="43.798313532024622" lon="5.258814180269837">
        <ele>693.79998779296875</ele>
        <time>2014-12-08T11:55:06Z</time>
      </trkpt>
      <trkpt lat="43.798311185091734" lon="5.258659366518259">
        <ele>693.5999755859375</ele>
        <time>2014-12-08T11:55:10Z</time>
      </trkpt>
      <trkpt lat="43.798290397971869" lon="5.258522741496563">
        <ele>693.20001220703125</ele>
        <time>2014-12-08T11:55:13Z</time>
      </trkpt>
      <trkpt lat="43.798290649428964" lon="5.258468929678202">
        <ele>692.79998779296875</ele>
        <time>2014-12-08T11:55:14Z</time>
      </trkpt>
      <trkpt lat="43.798285620287061" lon="5.258419141173363">
        <ele>692.5999755859375</ele>
        <time>2014-12-08T11:55:15Z</time>
      </trkpt>
      <trkpt lat="43.798265922814608" lon="5.258178999647498">
        <ele>691.5999755859375</ele>
        <time>2014-12-08T11:55:20Z</time>
      </trkpt>
      <trkpt lat="43.798196353018284" lon="5.257962327450514">
        <ele>690.79998779296875</ele>
        <time>2014-12-08T11:55:25Z</time>
      </trkpt>
      <trkpt lat="43.798184785991907" lon="5.257914047688246">
        <ele>690.5999755859375</ele>
        <time>2014-12-08T11:55:26Z</time>
      </trkpt>
      <trkpt lat="43.79812728613615" lon="5.25768605992198">
        <ele>689.5999755859375</ele>
        <time>2014-12-08T11:55:31Z</time>
      </trkpt>
      <trkpt lat="43.79812041297555" lon="5.257642474025488">
        <ele>689.4000244140625</ele>
        <time>2014-12-08T11:55:32Z</time>
      </trkpt>
      <trkpt lat="43.798111276701093" lon="5.257475338876247">
        <ele>689</ele>
        <time>2014-12-08T11:55:36Z</time>
      </trkpt>
      <trkpt lat="43.798164753243327" lon="5.257300324738026">
        <ele>688.5999755859375</ele>
        <time>2014-12-08T11:55:41Z</time>
      </trkpt>
      <trkpt lat="43.798169614747167" lon="5.257255733013153">
        <ele>688.4000244140625</ele>
        <time>2014-12-08T11:55:42Z</time>
      </trkpt>
      <trkpt lat="43.79816391505301" lon="5.257077114656568">
        <ele>689.79998779296875</ele>
        <time>2014-12-08T11:55:46Z</time>
      </trkpt>
      <trkpt lat="43.798159472644329" lon="5.257032020017505">
        <ele>689.5999755859375</ele>
        <time>2014-12-08T11:55:47Z</time>
      </trkpt>
      <trkpt lat="43.798108929768205" lon="5.256917271763086">
        <ele>688.20001220703125</ele>
        <time>2014-12-08T11:55:50Z</time>
      </trkpt>
      <trkpt lat="43.798071881756186" lon="5.256839822977781">
        <ele>687</ele>
        <time>2014-12-08T11:55:52Z</time>
      </trkpt>
      <trkpt lat="43.798039276152849" lon="5.256586018949747">
        <ele>686.20001220703125</ele>
        <time>2014-12-08T11:55:57Z</time>
      </trkpt>
      <trkpt lat="43.798026870936155" lon="5.25652994401753">
        <ele>686.4000244140625</ele>
        <time>2014-12-08T11:55:58Z</time>
      </trkpt>
      <trkpt lat="43.79801538772881" lon="5.256392899900675">
        <ele>686</ele>
        <time>2014-12-08T11:56:01Z</time>
      </trkpt>
      <trkpt lat="43.797992924228311" lon="5.25628175586462">
        <ele>684.5999755859375</ele>
        <time>2014-12-08T11:56:04Z</time>
      </trkpt>
      <trkpt lat="43.797994181513786" lon="5.256238840520382">
        <ele>684.4000244140625</ele>
        <time>2014-12-08T11:56:05Z</time>
      </trkpt>
      <trkpt lat="43.797983285039663" lon="5.256043206900358">
        <ele>683.20001220703125</ele>
        <time>2014-12-08T11:56:09Z</time>
      </trkpt>
      <trkpt lat="43.797978423535824" lon="5.255993418395519">
        <ele>682.5999755859375</ele>
        <time>2014-12-08T11:56:10Z</time>
      </trkpt>
      <trkpt lat="43.797967275604606" lon="5.255911108106375">
        <ele>681.79998779296875</ele>
        <time>2014-12-08T11:56:12Z</time>
      </trkpt>
      <trkpt lat="43.797969873994589" lon="5.255880430340767">
        <ele>681.4000244140625</ele>
        <time>2014-12-08T11:56:13Z</time>
      </trkpt>
      <trkpt lat="43.797977333888412" lon="5.255856206640601">
        <ele>681</ele>
        <time>2014-12-08T11:56:14Z</time>
      </trkpt>
      <trkpt lat="43.797993762418628" lon="5.255839191377163">
        <ele>680.5999755859375</ele>
        <time>2014-12-08T11:56:15Z</time>
      </trkpt>
      <trkpt lat="43.79808135330677" lon="5.255857212468982">
        <ele>679.79998779296875</ele>
        <time>2014-12-08T11:56:18Z</time>
      </trkpt>
      <trkpt lat="43.798116641119123" lon="5.255862409248948">
        <ele>679.4000244140625</ele>
        <time>2014-12-08T11:56:19Z</time>
      </trkpt>
      <trkpt lat="43.798148408532143" lon="5.255865845829248">
        <ele>679</ele>
        <time>2014-12-08T11:56:20Z</time>
      </trkpt>
      <trkpt lat="43.798209931701422" lon="5.255886297672987">
        <ele>678.4000244140625</ele>
        <time>2014-12-08T11:56:22Z</time>
      </trkpt>
      <trkpt lat="43.798240777105093" lon="5.255903983488679">
        <ele>678</ele>
        <time>2014-12-08T11:56:23Z</time>
      </trkpt>
      <trkpt lat="43.798309173434973" lon="5.255933320149779">
        <ele>677.20001220703125</ele>
        <time>2014-12-08T11:56:25Z</time>
      </trkpt>
      <trkpt lat="43.798388550058007" lon="5.255963243544102">
        <ele>675.79998779296875</ele>
        <time>2014-12-08T11:56:27Z</time>
      </trkpt>
      <trkpt lat="43.798428783193231" lon="5.255979169160128">
        <ele>675.20001220703125</ele>
        <time>2014-12-08T11:56:28Z</time>
      </trkpt>
      <trkpt lat="43.798538167029619" lon="5.256029544398189">
        <ele>674.5999755859375</ele>
        <time>2014-12-08T11:56:31Z</time>
      </trkpt>
      <trkpt lat="43.798627182841301" lon="5.256108166649938">
        <ele>674.4000244140625</ele>
        <time>2014-12-08T11:56:34Z</time>
      </trkpt>
      <trkpt lat="43.798767914995551" lon="5.256206234917045">
        <ele>673.5999755859375</ele>
        <time>2014-12-08T11:56:38Z</time>
      </trkpt>
      <trkpt lat="43.798843100667" lon="5.25624755769968">
        <ele>672.4000244140625</ele>
        <time>2014-12-08T11:56:40Z</time>
      </trkpt>
      <trkpt lat="43.798904875293374" lon="5.256253173574805">
        <ele>671.5999755859375</ele>
        <time>2014-12-08T11:56:42Z</time>
      </trkpt>
      <trkpt lat="43.798955837264657" lon="5.256232554093003">
        <ele>671.5999755859375</ele>
        <time>2014-12-08T11:56:44Z</time>
      </trkpt>
      <trkpt lat="43.798974445089698" lon="5.256207743659616">
        <ele>671.4000244140625</ele>
        <time>2014-12-08T11:56:45Z</time>
      </trkpt>
      <trkpt lat="43.799005458131433" lon="5.256105735898018">
        <ele>670.79998779296875</ele>
        <time>2014-12-08T11:56:48Z</time>
      </trkpt>
      <trkpt lat="43.799007805064321" lon="5.256035663187504">
        <ele>670.20001220703125</ele>
        <time>2014-12-08T11:56:50Z</time>
      </trkpt>
      <trkpt lat="43.799004452303052" lon="5.255925860255957">
        <ele>668.79998779296875</ele>
        <time>2014-12-08T11:56:53Z</time>
      </trkpt>
      <trkpt lat="43.798996154218912" lon="5.255878334864974">
        <ele>668.4000244140625</ele>
        <time>2014-12-08T11:56:54Z</time>
      </trkpt>
      <trkpt lat="43.798977797850966" lon="5.255784709006548">
        <ele>667.4000244140625</ele>
        <time>2014-12-08T11:56:56Z</time>
      </trkpt>
      <trkpt lat="43.798946952447295" lon="5.25564112700522">
        <ele>666.4000244140625</ele>
        <time>2014-12-08T11:56:59Z</time>
      </trkpt>
      <trkpt lat="43.798934882506728" lon="5.255586057901382">
        <ele>666</ele>
        <time>2014-12-08T11:57:00Z</time>
      </trkpt>
      <trkpt lat="43.798903785645962" lon="5.255467537790537">
        <ele>665.4000244140625</ele>
        <time>2014-12-08T11:57:02Z</time>
      </trkpt>
      <trkpt lat="43.798875957727432" lon="5.255339881405234">
        <ele>664.5999755859375</ele>
        <time>2014-12-08T11:57:05Z</time>
      </trkpt>
      <trkpt lat="43.798887692391872" lon="5.255142319947481">
        <ele>664.5999755859375</ele>
        <time>2014-12-08T11:57:10Z</time>
      </trkpt>
      <trkpt lat="43.798895571380854" lon="5.255067637190223">
        <ele>664.4000244140625</ele>
        <time>2014-12-08T11:57:12Z</time>
      </trkpt>
      <trkpt lat="43.798884423449636" lon="5.254909219220281">
        <ele>663.4000244140625</ele>
        <time>2014-12-08T11:57:16Z</time>
      </trkpt>
      <trkpt lat="43.798880986869335" lon="5.254855323582888">
        <ele>663</ele>
        <time>2014-12-08T11:57:18Z</time>
      </trkpt>
      <trkpt lat="43.798885010182858" lon="5.254843505099416">
        <ele>662.5999755859375</ele>
        <time>2014-12-08T11:57:19Z</time>
      </trkpt>
      <trkpt lat="43.798870425671339" lon="5.254784496501088">
        <ele>662</ele>
        <time>2014-12-08T11:58:21Z</time>
      </trkpt>
      <trkpt lat="43.798853661864996" lon="5.254714591428638">
        <ele>661.79998779296875</ele>
        <time>2014-12-08T11:58:23Z</time>
      </trkpt>
      <trkpt lat="43.798833545297384" lon="5.254536392167211">
        <ele>661</ele>
        <time>2014-12-08T11:58:28Z</time>
      </trkpt>
      <trkpt lat="43.798820804804564" lon="5.254467325285077">
        <ele>660.79998779296875</ele>
        <time>2014-12-08T11:58:30Z</time>
      </trkpt>
      <trkpt lat="43.79880890250206" lon="5.254346122965217">
        <ele>661</ele>
        <time>2014-12-08T11:58:33Z</time>
      </trkpt>
      <trkpt lat="43.798778895288706" lon="5.25409122928977">
        <ele>661.79998779296875</ele>
        <time>2014-12-08T11:58:39Z</time>
      </trkpt>
      <trkpt lat="43.798775039613247" lon="5.253991736099124">
        <ele>661.79998779296875</ele>
        <time>2014-12-08T11:58:42Z</time>
      </trkpt>
      <trkpt lat="43.798777805641294" lon="5.25393339805305">
        <ele>662</ele>
        <time>2014-12-08T11:58:44Z</time>
      </trkpt>
      <trkpt lat="43.798774871975183" lon="5.25387086905539">
        <ele>661.79998779296875</ele>
        <time>2014-12-08T11:58:47Z</time>
      </trkpt>
      <trkpt lat="43.798774452880025" lon="5.253841280937195">
        <ele>661.5999755859375</ele>
        <time>2014-12-08T11:58:49Z</time>
      </trkpt>
      <trkpt lat="43.798732124269009" lon="5.253714043647051">
        <ele>661.20001220703125</ele>
        <time>2014-12-08T11:58:54Z</time>
      </trkpt>
      <trkpt lat="43.798702284693718" lon="5.253592086955905">
        <ele>660.4000244140625</ele>
        <time>2014-12-08T11:58:57Z</time>
      </trkpt>
      <trkpt lat="43.798671355471015" lon="5.253512961789966">
        <ele>660</ele>
        <time>2014-12-08T11:58:59Z</time>
      </trkpt>
      <trkpt lat="43.798595499247313" lon="5.253274831920862">
        <ele>660</ele>
        <time>2014-12-08T11:59:04Z</time>
      </trkpt>
      <trkpt lat="43.798562055453658" lon="5.253186654299498">
        <ele>659.4000244140625</ele>
        <time>2014-12-08T11:59:06Z</time>
      </trkpt>
      <trkpt lat="43.798506986349821" lon="5.253080790862441">
        <ele>658.5999755859375</ele>
        <time>2014-12-08T11:59:09Z</time>
      </trkpt>
      <trkpt lat="43.798435153439641" lon="5.252867890521884">
        <ele>658.79998779296875</ele>
        <time>2014-12-08T11:59:15Z</time>
      </trkpt>
      <trkpt lat="43.79837354645133" lon="5.252749370411038">
        <ele>659.4000244140625</ele>
        <time>2014-12-08T11:59:20Z</time>
      </trkpt>
      <trkpt lat="43.79828997887671" lon="5.252593299373984">
        <ele>660.4000244140625</ele>
        <time>2014-12-08T11:59:26Z</time>
      </trkpt>
      <trkpt lat="43.798191407695413" lon="5.252474779263139">
        <ele>660.79998779296875</ele>
        <time>2014-12-08T11:59:31Z</time>
      </trkpt>
      <trkpt lat="43.798139691352844" lon="5.252351481467485">
        <ele>661.5999755859375</ele>
        <time>2014-12-08T11:59:35Z</time>
      </trkpt>
      <trkpt lat="43.798130135983229" lon="5.252326251938939">
        <ele>661.79998779296875</ele>
        <time>2014-12-08T11:59:36Z</time>
      </trkpt>
      <trkpt lat="43.79808428697288" lon="5.252255843952298">
        <ele>662.5999755859375</ele>
        <time>2014-12-08T11:59:39Z</time>
      </trkpt>
      <trkpt lat="43.798030642792583" lon="5.252173114567995">
        <ele>663.20001220703125</ele>
        <time>2014-12-08T11:59:42Z</time>
      </trkpt>
      <trkpt lat="43.797983871772885" lon="5.252102790400386">
        <ele>663.79998779296875</ele>
        <time>2014-12-08T11:59:45Z</time>
      </trkpt>
      <trkpt lat="43.797922348603606" lon="5.252022659406066">
        <ele>663.79998779296875</ele>
        <time>2014-12-08T11:59:48Z</time>
      </trkpt>
      <trkpt lat="43.797820927575231" lon="5.251893075183034">
        <ele>664.4000244140625</ele>
        <time>2014-12-08T11:59:53Z</time>
      </trkpt>
      <trkpt lat="43.797783544287086" lon="5.251853680238128">
        <ele>664.79998779296875</ele>
        <time>2014-12-08T11:59:55Z</time>
      </trkpt>
      <trkpt lat="43.797728139907122" lon="5.251765083521605">
        <ele>665</ele>
        <time>2014-12-08T11:59:59Z</time>
      </trkpt>
      <trkpt lat="43.797707268968225" lon="5.251734657213092">
        <ele>665.79998779296875</ele>
        <time>2014-12-08T12:00:15Z</time>
      </trkpt>
      <trkpt lat="43.797690588980913" lon="5.251712612807751">
        <ele>665.79998779296875</ele>
        <time>2014-12-08T12:00:16Z</time>
      </trkpt>
      <trkpt lat="43.797657648101449" lon="5.251666596159339">
        <ele>665.5999755859375</ele>
        <time>2014-12-08T12:00:18Z</time>
      </trkpt>
      <trkpt lat="43.797633843496442" lon="5.251628374680877">
        <ele>665.5999755859375</ele>
        <time>2014-12-08T12:00:20Z</time>
      </trkpt>
      <trkpt lat="43.797625293955207" lon="5.251597696915269">
        <ele>665.79998779296875</ele>
        <time>2014-12-08T12:00:21Z</time>
      </trkpt>
      <trkpt lat="43.797611044719815" lon="5.251500215381384">
        <ele>666</ele>
        <time>2014-12-08T12:00:25Z</time>
      </trkpt>
      <trkpt lat="43.797603501006961" lon="5.251486469060183">
        <ele>666</ele>
        <time>2014-12-08T12:00:26Z</time>
      </trkpt>
      <trkpt lat="43.797575840726495" lon="5.251353951171041">
        <ele>665.5999755859375</ele>
        <time>2014-12-08T12:00:30Z</time>
      </trkpt>
      <trkpt lat="43.797570643946528" lon="5.251108361408114">
        <ele>665</ele>
        <time>2014-12-08T12:00:36Z</time>
      </trkpt>
      <trkpt lat="43.797555137425661" lon="5.251040970906615">
        <ele>664.5999755859375</ele>
        <time>2014-12-08T12:00:38Z</time>
      </trkpt>
      <trkpt lat="43.797555305063725" lon="5.251012723892927">
        <ele>664.4000244140625</ele>
        <time>2014-12-08T12:00:39Z</time>
      </trkpt>
      <trkpt lat="43.797560250386596" lon="5.250988081097603">
        <ele>664.20001220703125</ele>
        <time>2014-12-08T12:00:40Z</time>
      </trkpt>
      <trkpt lat="43.797557568177581" lon="5.250862771645188">
        <ele>664.4000244140625</ele>
        <time>2014-12-08T12:00:44Z</time>
      </trkpt>
      <trkpt lat="43.797529572620988" lon="5.25071038864553">
        <ele>664.4000244140625</ele>
        <time>2014-12-08T12:00:49Z</time>
      </trkpt>
      <trkpt lat="43.797469055280089" lon="5.250568650662899">
        <ele>664</ele>
        <time>2014-12-08T12:00:54Z</time>
      </trkpt>
      <trkpt lat="43.797435276210308" lon="5.250528333708644">
        <ele>663.4000244140625</ele>
        <time>2014-12-08T12:00:56Z</time>
      </trkpt>
      <trkpt lat="43.797408621758223" lon="5.250439066439867">
        <ele>664.20001220703125</ele>
        <time>2014-12-08T12:00:59Z</time>
      </trkpt>
      <trkpt lat="43.797394875437021" lon="5.250402186065912">
        <ele>664.5999755859375</ele>
        <time>2014-12-08T12:01:00Z</time>
      </trkpt>
      <trkpt lat="43.797324132174253" lon="5.250283246859908">
        <ele>664.79998779296875</ele>
        <time>2014-12-08T12:01:04Z</time>
      </trkpt>
      <trkpt lat="43.797290101647377" lon="5.250201188027859">
        <ele>664.79998779296875</ele>
        <time>2014-12-08T12:01:07Z</time>
      </trkpt>
      <trkpt lat="43.797266129404306" lon="5.250136479735375">
        <ele>665.20001220703125</ele>
        <time>2014-12-08T12:01:09Z</time>
      </trkpt>
      <trkpt lat="43.797237211838365" lon="5.250018211081624">
        <ele>665</ele>
        <time>2014-12-08T12:01:12Z</time>
      </trkpt>
      <trkpt lat="43.797223884612322" lon="5.249939588829875">
        <ele>665</ele>
        <time>2014-12-08T12:01:14Z</time>
      </trkpt>
      <trkpt lat="43.797200415283442" lon="5.249816961586475">
        <ele>664.79998779296875</ele>
        <time>2014-12-08T12:01:18Z</time>
      </trkpt>
      <trkpt lat="43.797184992581606" lon="5.249789385125041">
        <ele>664.5999755859375</ele>
        <time>2014-12-08T12:01:19Z</time>
      </trkpt>
      <trkpt lat="43.797196140512824" lon="5.249727610498667">
        <ele>664.79998779296875</ele>
        <time>2014-12-08T12:01:22Z</time>
      </trkpt>
      <trkpt lat="43.797174263745546" lon="5.249635661020875">
        <ele>665.5999755859375</ele>
        <time>2014-12-08T12:01:26Z</time>
      </trkpt>
      <trkpt lat="43.797165295109153" lon="5.24960364215076">
        <ele>665.5999755859375</ele>
        <time>2014-12-08T12:01:27Z</time>
      </trkpt>
      <trkpt lat="43.797177029773593" lon="5.249501885846257">
        <ele>665.5999755859375</ele>
        <time>2014-12-08T12:01:31Z</time>
      </trkpt>
      <trkpt lat="43.797165043652058" lon="5.249411780387163">
        <ele>665.4000244140625</ele>
        <time>2014-12-08T12:01:33Z</time>
      </trkpt>
      <trkpt lat="43.797141825780272" lon="5.249336427077651">
        <ele>665.20001220703125</ele>
        <time>2014-12-08T12:01:35Z</time>
      </trkpt>
      <trkpt lat="43.797050379216671" lon="5.249215979129076">
        <ele>665.20001220703125</ele>
        <time>2014-12-08T12:01:40Z</time>
      </trkpt>
      <trkpt lat="43.796886764466763" lon="5.249090418219566">
        <ele>666.79998779296875</ele>
        <time>2014-12-08T12:01:47Z</time>
      </trkpt>
      <trkpt lat="43.79681283608079" lon="5.248968964442611">
        <ele>667.79998779296875</ele>
        <time>2014-12-08T12:01:51Z</time>
      </trkpt>
      <trkpt lat="43.796763382852077" lon="5.248858826234937">
        <ele>668.79998779296875</ele>
        <time>2014-12-08T12:01:55Z</time>
      </trkpt>
      <trkpt lat="43.796746535226703" lon="5.248844074085355">
        <ele>668.79998779296875</ele>
        <time>2014-12-08T12:01:56Z</time>
      </trkpt>
      <trkpt lat="43.796701692044735" lon="5.24874466471374">
        <ele>668.79998779296875</ele>
        <time>2014-12-08T12:02:01Z</time>
      </trkpt>
      <trkpt lat="43.796683503314853" lon="5.248728655278683">
        <ele>668.79998779296875</ele>
        <time>2014-12-08T12:02:02Z</time>
      </trkpt>
      <trkpt lat="43.796642012894154" lon="5.248657576739788">
        <ele>668.4000244140625</ele>
        <time>2014-12-08T12:02:05Z</time>
      </trkpt>
      <trkpt lat="43.796573197469115" lon="5.248557077720761">
        <ele>668.5999755859375</ele>
        <time>2014-12-08T12:02:09Z</time>
      </trkpt>
      <trkpt lat="43.796563390642405" lon="5.248522963374853">
        <ele>669</ele>
        <time>2014-12-08T12:02:10Z</time>
      </trkpt>
      <trkpt lat="43.796533131971955" lon="5.248437551781535">
        <ele>669.4000244140625</ele>
        <time>2014-12-08T12:02:13Z</time>
      </trkpt>
      <trkpt lat="43.796521816402674" lon="5.248379381373525">
        <ele>669.5999755859375</ele>
        <time>2014-12-08T12:02:15Z</time>
      </trkpt>
      <trkpt lat="43.79648108035326" lon="5.248192800208926">
        <ele>669.5999755859375</ele>
        <time>2014-12-08T12:02:20Z</time>
      </trkpt>
      <trkpt lat="43.796433974057436" lon="5.248080063611269">
        <ele>668.5999755859375</ele>
        <time>2014-12-08T12:02:25Z</time>
      </trkpt>
      <trkpt lat="43.796417629346251" lon="5.248002447187901">
        <ele>668.4000244140625</ele>
        <time>2014-12-08T12:02:30Z</time>
      </trkpt>
      <trkpt lat="43.796352166682482" lon="5.247865067794919">
        <ele>668.4000244140625</ele>
        <time>2014-12-08T12:02:36Z</time>
      </trkpt>
      <trkpt lat="43.796299695968628" lon="5.247689886018634">
        <ele>668.79998779296875</ele>
        <time>2014-12-08T12:02:42Z</time>
      </trkpt>
      <trkpt lat="43.796297768130898" lon="5.247538676485419">
        <ele>669</ele>
        <time>2014-12-08T12:02:47Z</time>
      </trkpt>
      <trkpt lat="43.796270443126559" lon="5.247216392308474">
        <ele>668.5999755859375</ele>
        <time>2014-12-08T12:02:53Z</time>
      </trkpt>
      <trkpt lat="43.796255020424724" lon="5.247084880247712">
        <ele>668</ele>
        <time>2014-12-08T12:02:55Z</time>
      </trkpt>
      <trkpt lat="43.796240352094173" lon="5.247023524716497">
        <ele>667.5999755859375</ele>
        <time>2014-12-08T12:02:56Z</time>
      </trkpt>
      <trkpt lat="43.796232137829065" lon="5.246916906908155">
        <ele>666.4000244140625</ele>
        <time>2014-12-08T12:02:58Z</time>
      </trkpt>
      <trkpt lat="43.79623088054359" lon="5.246836021542549">
        <ele>666.20001220703125</ele>
        <time>2014-12-08T12:03:16Z</time>
      </trkpt>
      <trkpt lat="43.796218642964959" lon="5.246663941070437">
        <ele>666.4000244140625</ele>
        <time>2014-12-08T12:03:20Z</time>
      </trkpt>
      <trkpt lat="43.796210093423724" lon="5.246588503941894">
        <ele>665.4000244140625</ele>
        <time>2014-12-08T12:03:22Z</time>
      </trkpt>
      <trkpt lat="43.796182433143258" lon="5.246469061821699">
        <ele>665</ele>
        <time>2014-12-08T12:03:25Z</time>
      </trkpt>
      <trkpt lat="43.796146307140589" lon="5.246394546702504">
        <ele>664.79998779296875</ele>
        <time>2014-12-08T12:03:28Z</time>
      </trkpt>
      <trkpt lat="43.796126609668136" lon="5.246368227526546">
        <ele>664.5999755859375</ele>
        <time>2014-12-08T12:03:29Z</time>
      </trkpt>
      <trkpt lat="43.796073887497187" lon="5.246282229200006">
        <ele>664.5999755859375</ele>
        <time>2014-12-08T12:03:32Z</time>
      </trkpt>
      <trkpt lat="43.796065924689174" lon="5.246246438473463">
        <ele>664.4000244140625</ele>
        <time>2014-12-08T12:03:33Z</time>
      </trkpt>
      <trkpt lat="43.79606525413692" lon="5.246208552271128">
        <ele>664.4000244140625</ele>
        <time>2014-12-08T12:03:34Z</time>
      </trkpt>
      <trkpt lat="43.796065673232079" lon="5.246174018830061">
        <ele>664.20001220703125</ele>
        <time>2014-12-08T12:03:35Z</time>
      </trkpt>
      <trkpt lat="43.796040695160627" lon="5.246055833995342">
        <ele>664</ele>
        <time>2014-12-08T12:03:38Z</time>
      </trkpt>
      <trkpt lat="43.796030804514885" lon="5.246003279462457">
        <ele>664</ele>
        <time>2014-12-08T12:03:39Z</time>
      </trkpt>
      <trkpt lat="43.796021165326238" lon="5.245810579508543">
        <ele>663.79998779296875</ele>
        <time>2014-12-08T12:03:43Z</time>
      </trkpt>
      <trkpt lat="43.795945644378662" lon="5.245640426874161">
        <ele>663.5999755859375</ele>
        <time>2014-12-08T12:03:47Z</time>
      </trkpt>
      <trkpt lat="43.795829974114895" lon="5.245427526533604">
        <ele>663.79998779296875</ele>
        <time>2014-12-08T12:03:52Z</time>
      </trkpt>
      <trkpt lat="43.795715728774667" lon="5.245223678648472">
        <ele>664.79998779296875</ele>
        <time>2014-12-08T12:03:58Z</time>
      </trkpt>
      <trkpt lat="43.795694690197706" lon="5.245007509365678">
        <ele>665.20001220703125</ele>
        <time>2014-12-08T12:04:03Z</time>
      </trkpt>
      <trkpt lat="43.795642722398043" lon="5.244830651208758">
        <ele>664.79998779296875</ele>
        <time>2014-12-08T12:04:08Z</time>
      </trkpt>
      <trkpt lat="43.79564112983644" lon="5.244769044220448">
        <ele>665.5999755859375</ele>
        <time>2014-12-08T12:04:10Z</time>
      </trkpt>
      <trkpt lat="43.795623695477843" lon="5.244694445282221">
        <ele>666.5999755859375</ele>
        <time>2014-12-08T12:04:13Z</time>
      </trkpt>
      <trkpt lat="43.795662000775337" lon="5.243851225823164">
        <ele>683.5999755859375</ele>
        <time>2014-12-08T12:06:19Z</time>
      </trkpt>
      <trkpt lat="43.795658648014069" lon="5.243831025436521">
        <ele>683.5999755859375</ele>
        <time>2014-12-08T12:06:20Z</time>
      </trkpt>
      <trkpt lat="43.795598801225424" lon="5.24370982311666">
        <ele>684</ele>
        <time>2014-12-08T12:06:25Z</time>
      </trkpt>
      <trkpt lat="43.795593185350299" lon="5.243687778711319">
        <ele>683.79998779296875</ele>
        <time>2014-12-08T12:06:26Z</time>
      </trkpt>
      <trkpt lat="43.795599890872836" lon="5.243609743192792">
        <ele>684</ele>
        <time>2014-12-08T12:06:29Z</time>
      </trkpt>
      <trkpt lat="43.795605674386024" lon="5.243554338812828">
        <ele>684.20001220703125</ele>
        <time>2014-12-08T12:06:31Z</time>
      </trkpt>
      <trkpt lat="43.795612044632435" lon="5.243487032130361">
        <ele>685.20001220703125</ele>
        <time>2014-12-08T12:06:34Z</time>
      </trkpt>
      <trkpt lat="43.795613050460815" lon="5.243417378515005">
        <ele>684.79998779296875</ele>
        <time>2014-12-08T12:06:37Z</time>
      </trkpt>
      <trkpt lat="43.795625874772668" lon="5.243393825367093">
        <ele>684.79998779296875</ele>
        <time>2014-12-08T12:06:38Z</time>
      </trkpt>
      <trkpt lat="43.795648589730263" lon="5.243332805112004">
        <ele>685</ele>
        <time>2014-12-08T12:06:41Z</time>
      </trkpt>
      <trkpt lat="43.795644817873836" lon="5.24330866523087">
        <ele>684.79998779296875</ele>
        <time>2014-12-08T12:06:42Z</time>
      </trkpt>
      <trkpt lat="43.795644817873836" lon="5.243222247809172">
        <ele>684.5999755859375</ele>
        <time>2014-12-08T12:06:45Z</time>
      </trkpt>
      <trkpt lat="43.795653786510229" lon="5.243120575323701">
        <ele>684.5999755859375</ele>
        <time>2014-12-08T12:06:48Z</time>
      </trkpt>
      <trkpt lat="43.795693349093199" lon="5.242963414639235">
        <ele>684.79998779296875</ele>
        <time>2014-12-08T12:06:53Z</time>
      </trkpt>
      <trkpt lat="43.795759063214064" lon="5.242864089086652">
        <ele>685.20001220703125</ele>
        <time>2014-12-08T12:06:58Z</time>
      </trkpt>
      <trkpt lat="43.79581899382174" lon="5.242839949205518">
        <ele>685.4000244140625</ele>
        <time>2014-12-08T12:07:02Z</time>
      </trkpt>
      <trkpt lat="43.795834500342607" lon="5.242825113236904">
        <ele>685.5999755859375</ele>
        <time>2014-12-08T12:07:03Z</time>
      </trkpt>
      <trkpt lat="43.795861573889852" lon="5.242777587845922">
        <ele>685.79998779296875</ele>
        <time>2014-12-08T12:07:10Z</time>
      </trkpt>
      <trkpt lat="43.795896107330918" lon="5.242688823491335">
        <ele>685.5999755859375</ele>
        <time>2014-12-08T12:07:18Z</time>
      </trkpt>
      <trkpt lat="43.795903483405709" lon="5.242674490436912">
        <ele>685.5999755859375</ele>
        <time>2014-12-08T12:07:19Z</time>
      </trkpt>
      <trkpt lat="43.795933071523905" lon="5.242640040814877">
        <ele>686.20001220703125</ele>
        <time>2014-12-08T12:07:22Z</time>
      </trkpt>
      <trkpt lat="43.795963749289513" lon="5.242596874013543">
        <ele>686</ele>
        <time>2014-12-08T12:07:26Z</time>
      </trkpt>
      <trkpt lat="43.795992247760296" lon="5.242557814344764">
        <ele>686</ele>
        <time>2014-12-08T12:07:30Z</time>
      </trkpt>
      <trkpt lat="43.796002892777324" lon="5.242529064416885">
        <ele>686.20001220703125</ele>
        <time>2014-12-08T12:07:32Z</time>
      </trkpt>
      <trkpt lat="43.796042622998357" lon="5.242476174607873">
        <ele>686.4000244140625</ele>
        <time>2014-12-08T12:07:37Z</time>
      </trkpt>
      <trkpt lat="43.796054860576987" lon="5.242469720542431">
        <ele>686.4000244140625</ele>
        <time>2014-12-08T12:07:38Z</time>
      </trkpt>
      <trkpt lat="43.79609408788383" lon="5.242418590933085">
        <ele>686.20001220703125</ele>
        <time>2014-12-08T12:07:43Z</time>
      </trkpt>
      <trkpt lat="43.796103978529572" lon="5.242397049441934">
        <ele>686.4000244140625</ele>
        <time>2014-12-08T12:07:45Z</time>
      </trkpt>
      <trkpt lat="43.796124681830406" lon="5.242307614535093">
        <ele>686</ele>
        <time>2014-12-08T12:07:51Z</time>
      </trkpt>
      <trkpt lat="43.796133985742927" lon="5.242299987003207">
        <ele>686</ele>
        <time>2014-12-08T12:07:52Z</time>
      </trkpt>
      <trkpt lat="43.796182768419385" lon="5.242286575958133">
        <ele>686.79998779296875</ele>
        <time>2014-12-08T12:07:56Z</time>
      </trkpt>
      <trkpt lat="43.796254601329565" lon="5.24225858040154">
        <ele>686.20001220703125</ele>
        <time>2014-12-08T12:08:03Z</time>
      </trkpt>
      <trkpt lat="43.796260971575975" lon="5.2422537188977">
        <ele>686.20001220703125</ele>
        <time>2014-12-08T12:08:04Z</time>
      </trkpt>
      <trkpt lat="43.796296343207359" lon="5.242232093587518">
        <ele>686</ele>
        <time>2014-12-08T12:08:08Z</time>
      </trkpt>
      <trkpt lat="43.796352334320545" lon="5.24219655431807">
        <ele>686.4000244140625</ele>
        <time>2014-12-08T12:08:14Z</time>
      </trkpt>
      <trkpt lat="43.796424753963947" lon="5.242186579853296">
        <ele>686.20001220703125</ele>
        <time>2014-12-08T12:08:28Z</time>
      </trkpt>
      <trkpt lat="43.79645274952054" lon="5.242172917351127">
        <ele>686.4000244140625</ele>
        <time>2014-12-08T12:08:30Z</time>
      </trkpt>
      <trkpt lat="43.796483008190989" lon="5.242122123017907">
        <ele>686.4000244140625</ele>
        <time>2014-12-08T12:08:33Z</time>
      </trkpt>
      <trkpt lat="43.796481750905514" lon="5.242074346169829">
        <ele>686</ele>
        <time>2014-12-08T12:08:35Z</time>
      </trkpt>
      <trkpt lat="43.79649767652154" lon="5.241891201585531">
        <ele>685.79998779296875</ele>
        <time>2014-12-08T12:08:41Z</time>
      </trkpt>
      <trkpt lat="43.796471608802676" lon="5.24166002869606">
        <ele>685</ele>
        <time>2014-12-08T12:08:48Z</time>
      </trkpt>
      <trkpt lat="43.796448977664113" lon="5.241442853584886">
        <ele>686</ele>
        <time>2014-12-08T12:08:55Z</time>
      </trkpt>
      <trkpt lat="43.796566994860768" lon="5.241371942684054">
        <ele>686.20001220703125</ele>
        <time>2014-12-08T12:12:21Z</time>
      </trkpt>
      <trkpt lat="43.796611921861768" lon="5.241411589086056">
        <ele>685.79998779296875</ele>
        <time>2014-12-08T12:12:23Z</time>
      </trkpt>
      <trkpt lat="43.796636732295156" lon="5.241430113092065">
        <ele>685.79998779296875</ele>
        <time>2014-12-08T12:12:24Z</time>
      </trkpt>
      <trkpt lat="43.796689370647073" lon="5.241447044536471">
        <ele>685.79998779296875</ele>
        <time>2014-12-08T12:12:26Z</time>
      </trkpt>
      <trkpt lat="43.796872431412339" lon="5.241446541622281">
        <ele>684.5999755859375</ele>
        <time>2014-12-08T12:12:33Z</time>
      </trkpt>
      <trkpt lat="43.796956585720181" lon="5.241287034004927">
        <ele>683.79998779296875</ele>
        <time>2014-12-08T12:12:38Z</time>
      </trkpt>
      <trkpt lat="43.797005284577608" lon="5.241191564127803">
        <ele>683.4000244140625</ele>
        <time>2014-12-08T12:12:41Z</time>
      </trkpt>
      <trkpt lat="43.797065215185285" lon="5.24109517224133">
        <ele>684</ele>
        <time>2014-12-08T12:12:44Z</time>
      </trkpt>
      <trkpt lat="43.79712606780231" lon="5.241015376523137">
        <ele>682.20001220703125</ele>
        <time>2014-12-08T12:12:47Z</time>
      </trkpt>
      <trkpt lat="43.797182226553559" lon="5.24093683809042">
        <ele>683</ele>
        <time>2014-12-08T12:12:50Z</time>
      </trkpt>
      <trkpt lat="43.797328239306808" lon="5.240784035995603">
        <ele>682</ele>
        <time>2014-12-08T12:12:56Z</time>
      </trkpt>
      <trkpt lat="43.797454722225666" lon="5.240700719878078">
        <ele>681.5999755859375</ele>
        <time>2014-12-08T12:13:02Z</time>
      </trkpt>
      <trkpt lat="43.797472827136517" lon="5.240680016577244">
        <ele>681.20001220703125</ele>
        <time>2014-12-08T12:13:03Z</time>
      </trkpt>
      <trkpt lat="43.797490764409304" lon="5.240676160901785">
        <ele>681</ele>
        <time>2014-12-08T12:13:04Z</time>
      </trkpt>
      <trkpt lat="43.797549437731504" lon="5.240650093182921">
        <ele>680.5999755859375</ele>
        <time>2014-12-08T12:13:06Z</time>
      </trkpt>
      <trkpt lat="43.797615990042686" lon="5.240619331598282">
        <ele>680</ele>
        <time>2014-12-08T12:13:08Z</time>
      </trkpt>
      <trkpt lat="43.79775102250278" lon="5.240557054057717">
        <ele>679.5999755859375</ele>
        <time>2014-12-08T12:13:13Z</time>
      </trkpt>
      <trkpt lat="43.797894436866045" lon="5.240484634414315">
        <ele>679</ele>
        <time>2014-12-08T12:13:20Z</time>
      </trkpt>
      <trkpt lat="43.797906171530485" lon="5.240476001054049">
        <ele>678.79998779296875</ele>
        <time>2014-12-08T12:13:21Z</time>
      </trkpt>
      <trkpt lat="43.797927377745509" lon="5.240476755425334">
        <ele>678.79998779296875</ele>
        <time>2014-12-08T12:13:22Z</time>
      </trkpt>
      <trkpt lat="43.797984039410949" lon="5.240460997447372">
        <ele>677.79998779296875</ele>
        <time>2014-12-08T12:13:25Z</time>
      </trkpt>
      <trkpt lat="43.797999545931816" lon="5.240449933335185">
        <ele>677.4000244140625</ele>
        <time>2014-12-08T12:13:26Z</time>
      </trkpt>
      <trkpt lat="43.798122508451343" lon="5.240352284163237">
        <ele>677</ele>
        <time>2014-12-08T12:13:31Z</time>
      </trkpt>
      <trkpt lat="43.798254523426294" lon="5.240274919196963">
        <ele>677</ele>
        <time>2014-12-08T12:13:36Z</time>
      </trkpt>
      <trkpt lat="43.798375055193901" lon="5.240172324702144">
        <ele>676.20001220703125</ele>
        <time>2014-12-08T12:13:41Z</time>
      </trkpt>
      <trkpt lat="43.798403218388557" lon="5.24015505798161">
        <ele>676</ele>
        <time>2014-12-08T12:13:42Z</time>
      </trkpt>
      <trkpt lat="43.798469183966517" lon="5.240103760734201">
        <ele>675.20001220703125</ele>
        <time>2014-12-08T12:13:45Z</time>
      </trkpt>
      <trkpt lat="43.798529030755162" lon="5.240057660266757">
        <ele>675.79998779296875</ele>
        <time>2014-12-08T12:13:48Z</time>
      </trkpt>
      <trkpt lat="43.798642354086041" lon="5.239978535100818">
        <ele>674.5999755859375</ele>
        <time>2014-12-08T12:13:53Z</time>
      </trkpt>
      <trkpt lat="43.798702703788877" lon="5.239939307793975">
        <ele>674</ele>
        <time>2014-12-08T12:13:56Z</time>
      </trkpt>
      <trkpt lat="43.798771016299725" lon="5.239898404106498">
        <ele>673.4000244140625</ele>
        <time>2014-12-08T12:13:59Z</time>
      </trkpt>
      <trkpt lat="43.798843771219254" lon="5.2398413233459">
        <ele>673</ele>
        <time>2014-12-08T12:14:02Z</time>
      </trkpt>
      <trkpt lat="43.798893811181188" lon="5.239814165979624">
        <ele>672.79998779296875</ele>
        <time>2014-12-08T12:14:04Z</time>
      </trkpt>
      <trkpt lat="43.798976959660649" lon="5.23972162976861">
        <ele>672</ele>
        <time>2014-12-08T12:14:08Z</time>
      </trkpt>
      <trkpt lat="43.799010487273335" lon="5.239664213731885">
        <ele>671.5999755859375</ele>
        <time>2014-12-08T12:14:10Z</time>
      </trkpt>
      <trkpt lat="43.799044517800212" lon="5.239595817402005">
        <ele>670.79998779296875</ele>
        <time>2014-12-08T12:14:12Z</time>
      </trkpt>
      <trkpt lat="43.799062538892031" lon="5.239478722214699">
        <ele>669.5999755859375</ele>
        <time>2014-12-08T12:14:15Z</time>
      </trkpt>
      <trkpt lat="43.798993220552802" lon="5.239340420812368">
        <ele>669</ele>
        <time>2014-12-08T12:14:19Z</time>
      </trkpt>
      <trkpt lat="43.798972181975842" lon="5.239319298416376">
        <ele>668.5999755859375</ele>
        <time>2014-12-08T12:14:20Z</time>
      </trkpt>
      <trkpt lat="43.798901857808232" lon="5.239196754992008">
        <ele>667.4000244140625</ele>
        <time>2014-12-08T12:14:24Z</time>
      </trkpt>
      <trkpt lat="43.798892637714744" lon="5.239165825769305">
        <ele>667.20001220703125</ele>
        <time>2014-12-08T12:14:25Z</time>
      </trkpt>
      <trkpt lat="43.798891631886363" lon="5.239098183810711">
        <ele>666.4000244140625</ele>
        <time>2014-12-08T12:14:27Z</time>
      </trkpt>
      <trkpt lat="43.798920633271337" lon="5.239003635942936">
        <ele>665.79998779296875</ele>
        <time>2014-12-08T12:14:30Z</time>
      </trkpt>
      <trkpt lat="43.798953155055642" lon="5.238969521597028">
        <ele>665.20001220703125</ele>
        <time>2014-12-08T12:14:32Z</time>
      </trkpt>
      <trkpt lat="43.799004033207893" lon="5.238934401422739">
        <ele>664.20001220703125</ele>
        <time>2014-12-08T12:14:34Z</time>
      </trkpt>
      <trkpt lat="43.79902976565063" lon="5.238918727263808">
        <ele>664</ele>
        <time>2014-12-08T12:14:35Z</time>
      </trkpt>
      <trkpt lat="43.799069076776505" lon="5.238904226571322">
        <ele>663</ele>
        <time>2014-12-08T12:14:37Z</time>
      </trkpt>
      <trkpt lat="43.799110483378172" lon="5.238874386996031">
        <ele>661.5999755859375</ele>
        <time>2014-12-08T12:14:39Z</time>
      </trkpt>
      <trkpt lat="43.799131186679006" lon="5.238870950415731">
        <ele>661</ele>
        <time>2014-12-08T12:14:40Z</time>
      </trkpt>
      <trkpt lat="43.79914753139019" lon="5.238872710615397">
        <ele>660.4000244140625</ele>
        <time>2014-12-08T12:14:41Z</time>
      </trkpt>
      <trkpt lat="43.799170665442944" lon="5.23885820992291">
        <ele>659.20001220703125</ele>
        <time>2014-12-08T12:14:54Z</time>
      </trkpt>
      <trkpt lat="43.799253981560469" lon="5.238831890746951">
        <ele>657.79998779296875</ele>
        <time>2014-12-08T12:14:58Z</time>
      </trkpt>
      <trkpt lat="43.799273762851954" lon="5.238834489136934">
        <ele>656.5999755859375</ele>
        <time>2014-12-08T12:14:59Z</time>
      </trkpt>
      <trkpt lat="43.799354145303369" lon="5.23882401175797">
        <ele>655.4000244140625</ele>
        <time>2014-12-08T12:15:02Z</time>
      </trkpt>
      <trkpt lat="43.799422541633248" lon="5.238809511065483">
        <ele>654.5999755859375</ele>
        <time>2014-12-08T12:15:04Z</time>
      </trkpt>
      <trkpt lat="43.799460763111711" lon="5.238811103627086">
        <ele>653.79998779296875</ele>
        <time>2014-12-08T12:15:05Z</time>
      </trkpt>
      <trkpt lat="43.799535278230906" lon="5.238804230466485">
        <ele>652.5999755859375</ele>
        <time>2014-12-08T12:15:07Z</time>
      </trkpt>
      <trkpt lat="43.799606021493673" lon="5.238804733380675">
        <ele>651.20001220703125</ele>
        <time>2014-12-08T12:15:09Z</time>
      </trkpt>
      <trkpt lat="43.799611805006862" lon="5.238809762522578">
        <ele>650.20001220703125</ele>
        <time>2014-12-08T12:15:10Z</time>
      </trkpt>
      <trkpt lat="43.799648517742753" lon="5.238798949867487">
        <ele>649.5999755859375</ele>
        <time>2014-12-08T12:15:47Z</time>
      </trkpt>
      <trkpt lat="43.799684979021549" lon="5.238788891583681">
        <ele>649</ele>
        <time>2014-12-08T12:15:49Z</time>
      </trkpt>
      <trkpt lat="43.799737365916371" lon="5.238761650398374">
        <ele>647.5999755859375</ele>
        <time>2014-12-08T12:15:52Z</time>
      </trkpt>
      <trkpt lat="43.79976611584425" lon="5.238735917955637">
        <ele>646.4000244140625</ele>
        <time>2014-12-08T12:15:54Z</time>
      </trkpt>
      <trkpt lat="43.799796709790826" lon="5.238730553537607">
        <ele>645.5999755859375</ele>
        <time>2014-12-08T12:15:56Z</time>
      </trkpt>
      <trkpt lat="43.799811881035566" lon="5.238727033138275">
        <ele>645.20001220703125</ele>
        <time>2014-12-08T12:15:57Z</time>
      </trkpt>
      <trkpt lat="43.799850018694997" lon="5.238714963197708">
        <ele>643.79998779296875</ele>
        <time>2014-12-08T12:15:59Z</time>
      </trkpt>
      <trkpt lat="43.799898466095328" lon="5.238696606829763">
        <ele>641.79998779296875</ele>
        <time>2014-12-08T12:16:01Z</time>
      </trkpt>
      <trkpt lat="43.799957642331719" lon="5.238691493868828">
        <ele>640.20001220703125</ele>
        <time>2014-12-08T12:16:03Z</time>
      </trkpt>
      <trkpt lat="43.800036096945405" lon="5.238687302917242">
        <ele>639</ele>
        <time>2014-12-08T12:16:05Z</time>
      </trkpt>
      <trkpt lat="43.800117485225201" lon="5.238690990954638">
        <ele>638</ele>
        <time>2014-12-08T12:16:07Z</time>
      </trkpt>
      <trkpt lat="43.800145899876952" lon="5.238687554374337">
        <ele>637.79998779296875</ele>
        <time>2014-12-08T12:16:08Z</time>
      </trkpt>
      <trkpt lat="43.800195939838886" lon="5.238668862730265">
        <ele>636.79998779296875</ele>
        <time>2014-12-08T12:16:10Z</time>
      </trkpt>
      <trkpt lat="43.800215637311339" lon="5.238655367866159">
        <ele>635.4000244140625</ele>
        <time>2014-12-08T12:16:11Z</time>
      </trkpt>
      <trkpt lat="43.800250757485628" lon="5.238647824153304">
        <ele>634.5999755859375</ele>
        <time>2014-12-08T12:16:13Z</time>
      </trkpt>
      <trkpt lat="43.800269030034542" lon="5.238633574917913">
        <ele>634</ele>
        <time>2014-12-08T12:16:14Z</time>
      </trkpt>
      <trkpt lat="43.80032510496676" lon="5.238575404509902">
        <ele>632.79998779296875</ele>
        <time>2014-12-08T12:16:17Z</time>
      </trkpt>
      <trkpt lat="43.800346897915006" lon="5.238567190244794">
        <ele>632.20001220703125</ele>
        <time>2014-12-08T12:16:18Z</time>
      </trkpt>
      <trkpt lat="43.800372630357742" lon="5.238556293770671">
        <ele>631.5999755859375</ele>
        <time>2014-12-08T12:16:19Z</time>
      </trkpt>
      <trkpt lat="43.800423424690962" lon="5.238525867462158">
        <ele>630.4000244140625</ele>
        <time>2014-12-08T12:16:21Z</time>
      </trkpt>
      <trkpt lat="43.800438093021512" lon="5.238479180261493">
        <ele>629.20001220703125</ele>
        <time>2014-12-08T12:16:23Z</time>
      </trkpt>
      <trkpt lat="43.80043163895607" lon="5.238422602415085">
        <ele>627.79998779296875</ele>
        <time>2014-12-08T12:16:25Z</time>
      </trkpt>
      <trkpt lat="43.800416467711329" lon="5.238375496119261">
        <ele>626.4000244140625</ele>
        <time>2014-12-08T12:16:27Z</time>
      </trkpt>
      <trkpt lat="43.800405068323016" lon="5.238356469199061">
        <ele>625.79998779296875</ele>
        <time>2014-12-08T12:16:28Z</time>
      </trkpt>
      <trkpt lat="43.800390148535371" lon="5.238336101174355">
        <ele>625</ele>
        <time>2014-12-08T12:16:29Z</time>
      </trkpt>
      <trkpt lat="43.800371121615171" lon="5.238309111446142">
        <ele>624.4000244140625</ele>
        <time>2014-12-08T12:16:30Z</time>
      </trkpt>
      <trkpt lat="43.800355950370431" lon="5.23829972371459">
        <ele>624</ele>
        <time>2014-12-08T12:16:31Z</time>
      </trkpt>
      <trkpt lat="43.800330888479948" lon="5.238290000706911">
        <ele>623.20001220703125</ele>
        <time>2014-12-08T12:16:32Z</time>
      </trkpt>
      <trkpt lat="43.800302892923355" lon="5.238277511671186">
        <ele>622.79998779296875</ele>
        <time>2014-12-08T12:16:33Z</time>
      </trkpt>
      <trkpt lat="43.800211697816849" lon="5.238279439508915">
        <ele>622.5999755859375</ele>
        <time>2014-12-08T12:16:37Z</time>
      </trkpt>
      <trkpt lat="43.800072642043233" lon="5.23825571872294">
        <ele>623.5999755859375</ele>
        <time>2014-12-08T12:16:43Z</time>
      </trkpt>
      <trkpt lat="43.79999334923923" lon="5.238230656832457">
        <ele>623.79998779296875</ele>
        <time>2014-12-08T12:16:46Z</time>
      </trkpt>
      <trkpt lat="43.799933502450585" lon="5.238187573850155">
        <ele>623.4000244140625</ele>
        <time>2014-12-08T12:16:49Z</time>
      </trkpt>
      <trkpt lat="43.799881534650922" lon="5.238135438412428">
        <ele>622.79998779296875</ele>
        <time>2014-12-08T12:16:52Z</time>
      </trkpt>
      <trkpt lat="43.799864184111357" lon="5.238057067617774">
        <ele>621.79998779296875</ele>
        <time>2014-12-08T12:16:55Z</time>
      </trkpt>
      <trkpt lat="43.799851695075631" lon="5.238026389852166">
        <ele>621.5999755859375</ele>
        <time>2014-12-08T12:16:56Z</time>
      </trkpt>
      <trkpt lat="43.799832835793495" lon="5.23795816116035">
        <ele>620.20001220703125</ele>
        <time>2014-12-08T12:16:58Z</time>
      </trkpt>
      <trkpt lat="43.799822945147753" lon="5.237922621890903">
        <ele>618.4000244140625</ele>
        <time>2014-12-08T12:16:59Z</time>
      </trkpt>
      <trkpt lat="43.799796625971794" lon="5.237867888063192">
        <ele>617.20001220703125</ele>
        <time>2014-12-08T12:17:01Z</time>
      </trkpt>
      <trkpt lat="43.799790255725384" lon="5.237827822566032">
        <ele>616.79998779296875</ele>
        <time>2014-12-08T12:17:02Z</time>
      </trkpt>
      <trkpt lat="43.799793692305684" lon="5.237762862816453">
        <ele>616.4000244140625</ele>
        <time>2014-12-08T12:17:05Z</time>
      </trkpt>
      <trkpt lat="43.799801068380475" lon="5.237750373780727">
        <ele>616</ele>
        <time>2014-12-08T12:17:06Z</time>
      </trkpt>
      <trkpt lat="43.799822609871626" lon="5.237746769562364">
        <ele>615</ele>
        <time>2014-12-08T12:17:08Z</time>
      </trkpt>
      <trkpt lat="43.799847001209855" lon="5.237739058211446">
        <ele>614.4000244140625</ele>
        <time>2014-12-08T12:17:09Z</time>
      </trkpt>
      <trkpt lat="43.799885138869286" lon="5.237741153687239">
        <ele>613.5999755859375</ele>
        <time>2014-12-08T12:17:10Z</time>
      </trkpt>
      <trkpt lat="43.799937609583139" lon="5.23774609901011">
        <ele>612.4000244140625</ele>
        <time>2014-12-08T12:17:12Z</time>
      </trkpt>
      <trkpt lat="43.799986559897661" lon="5.237736962735653">
        <ele>611.20001220703125</ele>
        <time>2014-12-08T12:17:14Z</time>
      </trkpt>
      <trkpt lat="43.800032576546073" lon="5.237749954685569">
        <ele>610</ele>
        <time>2014-12-08T12:17:16Z</time>
      </trkpt>
      <trkpt lat="43.800054872408509" lon="5.237756073474884">
        <ele>609.4000244140625</ele>
        <time>2014-12-08T12:17:17Z</time>
      </trkpt>
      <trkpt lat="43.80007884465158" lon="5.237757917493582">
        <ele>608.79998779296875</ele>
        <time>2014-12-08T12:17:18Z</time>
      </trkpt>
      <trkpt lat="43.800141792744398" lon="5.237764371559024">
        <ele>607.79998779296875</ele>
        <time>2014-12-08T12:17:20Z</time>
      </trkpt>
      <trkpt lat="43.800172721967101" lon="5.237762276083231">
        <ele>607.20001220703125</ele>
        <time>2014-12-08T12:17:21Z</time>
      </trkpt>
      <trkpt lat="43.800198454409838" lon="5.23776076734066">
        <ele>606.4000244140625</ele>
        <time>2014-12-08T12:17:22Z</time>
      </trkpt>
      <trkpt lat="43.800219660624862" lon="5.237759426236153">
        <ele>605.20001220703125</ele>
        <time>2014-12-08T12:17:23Z</time>
      </trkpt>
      <trkpt lat="43.800260061398149" lon="5.237749703228474">
        <ele>604</ele>
        <time>2014-12-08T12:17:25Z</time>
      </trkpt>
      <trkpt lat="43.800313454121351" lon="5.237724054604769">
        <ele>602.79998779296875</ele>
        <time>2014-12-08T12:17:27Z</time>
      </trkpt>
      <trkpt lat="43.800363661721349" lon="5.237685078755021">
        <ele>601.5999755859375</ele>
        <time>2014-12-08T12:17:29Z</time>
      </trkpt>
      <trkpt lat="43.80041403695941" lon="5.237653478980064">
        <ele>600.20001220703125</ele>
        <time>2014-12-08T12:17:31Z</time>
      </trkpt>
      <trkpt lat="43.800467513501644" lon="5.237625315785408">
        <ele>599</ele>
        <time>2014-12-08T12:17:33Z</time>
      </trkpt>
      <trkpt lat="43.800505148246884" lon="5.237608132883906">
        <ele>597.5999755859375</ele>
        <time>2014-12-08T12:17:35Z</time>
      </trkpt>
      <trkpt lat="43.800521828234196" lon="5.237604109570384">
        <ele>596.79998779296875</ele>
        <time>2014-12-08T12:17:36Z</time>
      </trkpt>
      <trkpt lat="43.800537837669253" lon="5.237603355199099">
        <ele>596</ele>
        <time>2014-12-08T12:17:37Z</time>
      </trkpt>
      <trkpt lat="43.801080314442515" lon="5.237580556422472">
        <ele>579.4000244140625</ele>
        <time>2014-12-08T12:18:44Z</time>
      </trkpt>
      <trkpt lat="43.801100682467222" lon="5.237572174519301">
        <ele>579.20001220703125</ele>
        <time>2014-12-08T12:18:45Z</time>
      </trkpt>
      <trkpt lat="43.80113136023283" lon="5.237560356035829">
        <ele>578.20001220703125</ele>
        <time>2014-12-08T12:18:47Z</time>
      </trkpt>
      <trkpt lat="43.801172431558371" lon="5.237537389621139">
        <ele>576.79998779296875</ele>
        <time>2014-12-08T12:18:50Z</time>
      </trkpt>
      <trkpt lat="43.801204282790422" lon="5.23752624168992">
        <ele>576</ele>
        <time>2014-12-08T12:18:52Z</time>
      </trkpt>
      <trkpt lat="43.801221465691924" lon="5.237522386014462">
        <ele>575.79998779296875</ele>
        <time>2014-12-08T12:18:53Z</time>
      </trkpt>
      <trkpt lat="43.801274606958032" lon="5.237502437084913">
        <ele>574.4000244140625</ele>
        <time>2014-12-08T12:18:56Z</time>
      </trkpt>
      <trkpt lat="43.801326155662537" lon="5.237452648580074">
        <ele>572.4000244140625</ele>
        <time>2014-12-08T12:18:59Z</time>
      </trkpt>
      <trkpt lat="43.801372926682234" lon="5.237402189522982">
        <ele>571.20001220703125</ele>
        <time>2014-12-08T12:19:01Z</time>
      </trkpt>
      <trkpt lat="43.801411567255855" lon="5.237374361604452">
        <ele>570</ele>
        <time>2014-12-08T12:19:03Z</time>
      </trkpt>
      <trkpt lat="43.801425145938993" lon="5.237377295270562">
        <ele>569.5999755859375</ele>
        <time>2014-12-08T12:19:04Z</time>
      </trkpt>
      <trkpt lat="43.801461774855852" lon="5.2373908739537">
        <ele>568.5999755859375</ele>
        <time>2014-12-08T12:19:06Z</time>
      </trkpt>
      <trkpt lat="43.801515083760023" lon="5.237431107088924">
        <ele>566.79998779296875</ele>
        <time>2014-12-08T12:19:09Z</time>
      </trkpt>
      <trkpt lat="43.801551712676883" lon="5.237471340224147">
        <ele>565.5999755859375</ele>
        <time>2014-12-08T12:19:11Z</time>
      </trkpt>
      <trkpt lat="43.801591191440821" lon="5.237521296367049">
        <ele>564.5999755859375</ele>
        <time>2014-12-08T12:19:13Z</time>
      </trkpt>
      <trkpt lat="43.801614576950669" lon="5.237574018537998">
        <ele>563.4000244140625</ele>
        <time>2014-12-08T12:19:15Z</time>
      </trkpt>
      <trkpt lat="43.80163611844182" lon="5.23761366494">
        <ele>562.4000244140625</ele>
        <time>2014-12-08T12:19:17Z</time>
      </trkpt>
      <trkpt lat="43.801648439839482" lon="5.237625483423472">
        <ele>562</ele>
        <time>2014-12-08T12:19:18Z</time>
      </trkpt>
      <trkpt lat="43.8016751781106" lon="5.237652054056525">
        <ele>560.79998779296875</ele>
        <time>2014-12-08T12:19:20Z</time>
      </trkpt>
      <trkpt lat="43.801715327426791" lon="5.237684994935989">
        <ele>559.79998779296875</ele>
        <time>2014-12-08T12:19:22Z</time>
      </trkpt>
      <trkpt lat="43.801729409024119" lon="5.23770846426487">
        <ele>558.79998779296875</ele>
        <time>2014-12-08T12:19:23Z</time>
      </trkpt>
      <trkpt lat="43.801797889173031" lon="5.23777786642313">
        <ele>557.79998779296875</ele>
        <time>2014-12-08T12:19:27Z</time>
      </trkpt>
      <trkpt lat="43.801835859194398" lon="5.237821536138654">
        <ele>557</ele>
        <time>2014-12-08T12:19:29Z</time>
      </trkpt>
      <trkpt lat="43.801852958276868" lon="5.23784869350493">
        <ele>556.5999755859375</ele>
        <time>2014-12-08T12:19:30Z</time>
      </trkpt>
      <trkpt lat="43.801935687661171" lon="5.237953718751669">
        <ele>555.5999755859375</ele>
        <time>2014-12-08T12:19:34Z</time>
      </trkpt>
      <trkpt lat="43.801999809220433" lon="5.238002669066191">
        <ele>554.20001220703125</ele>
        <time>2014-12-08T12:19:37Z</time>
      </trkpt>
      <trkpt lat="43.802029648795724" lon="5.238024378195405">
        <ele>553.4000244140625</ele>
        <time>2014-12-08T12:19:39Z</time>
      </trkpt>
      <trkpt lat="43.802044820040464" lon="5.238023540005088">
        <ele>552.79998779296875</ele>
        <time>2014-12-08T12:19:40Z</time>
      </trkpt>
      <trkpt lat="43.802074240520597" lon="5.23801825940609">
        <ele>551.5999755859375</ele>
        <time>2014-12-08T12:19:42Z</time>
      </trkpt>
      <trkpt lat="43.802135344594717" lon="5.238012224435806">
        <ele>550.4000244140625</ele>
        <time>2014-12-08T12:19:45Z</time>
      </trkpt>
      <trkpt lat="43.802184378728271" lon="5.238015493378043">
        <ele>548.79998779296875</ele>
        <time>2014-12-08T12:19:47Z</time>
      </trkpt>
      <trkpt lat="43.802249087020755" lon="5.238025970757008">
        <ele>547.4000244140625</ele>
        <time>2014-12-08T12:19:49Z</time>
      </trkpt>
      <trkpt lat="43.802306754514575" lon="5.238025467842817">
        <ele>545.79998779296875</ele>
        <time>2014-12-08T12:19:51Z</time>
      </trkpt>
      <trkpt lat="43.802365763112903" lon="5.238043405115604">
        <ele>544.5999755859375</ele>
        <time>2014-12-08T12:19:53Z</time>
      </trkpt>
      <trkpt lat="43.802414378151298" lon="5.238054301589727">
        <ele>543.4000244140625</ele>
        <time>2014-12-08T12:19:55Z</time>
      </trkpt>
      <trkpt lat="43.802465591579676" lon="5.2380695566535">
        <ele>542.4000244140625</ele>
        <time>2014-12-08T12:19:57Z</time>
      </trkpt>
      <trkpt lat="43.802484115585685" lon="5.238082380965352">
        <ele>542</ele>
        <time>2014-12-08T12:19:58Z</time>
      </trkpt>
      <trkpt lat="43.802566425874829" lon="5.238128900527954">
        <ele>540.4000244140625</ele>
        <time>2014-12-08T12:20:01Z</time>
      </trkpt>
      <trkpt lat="43.802620740607381" lon="5.238139880821109">
        <ele>539.5999755859375</ele>
        <time>2014-12-08T12:20:03Z</time>
      </trkpt>
      <trkpt lat="43.802638677880168" lon="5.238155471161008">
        <ele>539</ele>
        <time>2014-12-08T12:20:04Z</time>
      </trkpt>
      <trkpt lat="43.802709756419063" lon="5.238232417032123">
        <ele>537.79998779296875</ele>
        <time>2014-12-08T12:20:07Z</time>
      </trkpt>
      <trkpt lat="43.80274286493659" lon="5.238258484750986">
        <ele>537.20001220703125</ele>
        <time>2014-12-08T12:20:08Z</time>
      </trkpt>
      <trkpt lat="43.802770944312215" lon="5.238284887745976">
        <ele>536.5999755859375</ele>
        <time>2014-12-08T12:20:09Z</time>
      </trkpt>
      <trkpt lat="43.802807657048106" lon="5.238318331539631">
        <ele>534.20001220703125</ele>
        <time>2014-12-08T12:20:11Z</time>
      </trkpt>
      <trkpt lat="43.802850488573313" lon="5.238345991820097">
        <ele>533.20001220703125</ele>
        <time>2014-12-08T12:20:13Z</time>
      </trkpt>
      <trkpt lat="43.802871694788337" lon="5.238358061760664">
        <ele>532.79998779296875</ele>
        <time>2014-12-08T12:20:14Z</time>
      </trkpt>
      <trkpt lat="43.802916621789336" lon="5.23839402012527">
        <ele>531.79998779296875</ele>
        <time>2014-12-08T12:20:16Z</time>
      </trkpt>
      <trkpt lat="43.802958950400352" lon="5.238422183319926">
        <ele>530.79998779296875</ele>
        <time>2014-12-08T12:20:18Z</time>
      </trkpt>
      <trkpt lat="43.802979066967964" lon="5.238438695669174">
        <ele>530.20001220703125</ele>
        <time>2014-12-08T12:20:19Z</time>
      </trkpt>
      <trkpt lat="43.803017539903522" lon="5.238456968218088">
        <ele>529.20001220703125</ele>
        <time>2014-12-08T12:20:21Z</time>
      </trkpt>
      <trkpt lat="43.803039416670799" lon="5.238479264080524">
        <ele>528</ele>
        <time>2014-12-08T12:20:23Z</time>
      </trkpt>
      <trkpt lat="43.803051486611366" lon="5.238497285172343">
        <ele>527.4000244140625</ele>
        <time>2014-12-08T12:20:24Z</time>
      </trkpt>
      <trkpt lat="43.803063975647092" lon="5.238519161939621">
        <ele>527</ele>
        <time>2014-12-08T12:20:25Z</time>
      </trkpt>
      <trkpt lat="43.803079733625054" lon="5.238543972373009">
        <ele>526.5999755859375</ele>
        <time>2014-12-08T12:20:26Z</time>
      </trkpt>
      <trkpt lat="43.803139748051763" lon="5.23860071785748">
        <ele>525.4000244140625</ele>
        <time>2014-12-08T12:20:29Z</time>
      </trkpt>
      <trkpt lat="43.80316698923707" lon="5.238637765869498">
        <ele>524</ele>
        <time>2014-12-08T12:20:31Z</time>
      </trkpt>
      <trkpt lat="43.803183417767286" lon="5.238663665950298">
        <ele>523.4000244140625</ele>
        <time>2014-12-08T12:20:32Z</time>
      </trkpt>
      <trkpt lat="43.803209904581308" lon="5.238695265725255">
        <ele>522.5999755859375</ele>
        <time>2014-12-08T12:20:33Z</time>
      </trkpt>
      <trkpt lat="43.803249886259437" lon="5.238741533830762">
        <ele>521</ele>
        <time>2014-12-08T12:20:35Z</time>
      </trkpt>
      <trkpt lat="43.803287856280804" lon="5.238768104463816">
        <ele>519.79998779296875</ele>
        <time>2014-12-08T12:20:37Z</time>
      </trkpt>
      <trkpt lat="43.803306799381971" lon="5.238782856613398">
        <ele>519</ele>
        <time>2014-12-08T12:20:38Z</time>
      </trkpt>
      <trkpt lat="43.803321719169617" lon="5.238797357305884">
        <ele>518.5999755859375</ele>
        <time>2014-12-08T12:20:39Z</time>
      </trkpt>
      <trkpt lat="43.80336144939065" lon="5.238846391439438">
        <ele>517.4000244140625</ele>
        <time>2014-12-08T12:20:41Z</time>
      </trkpt>
      <trkpt lat="43.803394474089146" lon="5.238884529098868">
        <ele>516.20001220703125</ele>
        <time>2014-12-08T12:20:43Z</time>
      </trkpt>
      <trkpt lat="43.80340838804841" lon="5.238895928487182">
        <ele>515.79998779296875</ele>
        <time>2014-12-08T12:20:44Z</time>
      </trkpt>
      <trkpt lat="43.803493045270443" lon="5.238946806639433">
        <ele>513.79998779296875</ele>
        <time>2014-12-08T12:20:50Z</time>
      </trkpt>
      <trkpt lat="43.803551802411675" lon="5.239018304273486">
        <ele>512.20001220703125</ele>
        <time>2014-12-08T12:20:53Z</time>
      </trkpt>
      <trkpt lat="43.803604859858751" lon="5.239073038101196">
        <ele>511</ele>
        <time>2014-12-08T12:20:55Z</time>
      </trkpt>
      <trkpt lat="43.803679039701819" lon="5.23913917131722">
        <ele>509.79998779296875</ele>
        <time>2014-12-08T12:20:58Z</time>
      </trkpt>
      <trkpt lat="43.803727570921183" lon="5.239179907366633">
        <ele>508.20001220703125</ele>
        <time>2014-12-08T12:21:00Z</time>
      </trkpt>
      <trkpt lat="43.803785154595971" lon="5.239210333675146">
        <ele>507</ele>
        <time>2014-12-08T12:21:02Z</time>
      </trkpt>
      <trkpt lat="43.803849527612329" lon="5.239229276776314">
        <ele>506</ele>
        <time>2014-12-08T12:21:04Z</time>
      </trkpt>
      <trkpt lat="43.803911302238703" lon="5.239235395565629">
        <ele>504.79998779296875</ele>
        <time>2014-12-08T12:21:06Z</time>
      </trkpt>
      <trkpt lat="43.803943237289786" lon="5.239241346716881">
        <ele>504.20001220703125</ele>
        <time>2014-12-08T12:21:07Z</time>
      </trkpt>
      <trkpt lat="43.803967628628016" lon="5.239242017269135">
        <ele>503.60000610351562</ele>
        <time>2014-12-08T12:21:08Z</time>
      </trkpt>
      <trkpt lat="43.804031079635024" lon="5.23926037363708">
        <ele>502.60000610351562</ele>
        <time>2014-12-08T12:21:10Z</time>
      </trkpt>
      <trkpt lat="43.804091345518827" lon="5.239273030310869">
        <ele>501.39999389648438</ele>
        <time>2014-12-08T12:21:12Z</time>
      </trkpt>
      <trkpt lat="43.804118670523167" lon="5.23927990347147">
        <ele>500.79998779296875</ele>
        <time>2014-12-08T12:21:13Z</time>
      </trkpt>
      <trkpt lat="43.804152114316821" lon="5.239302702248097">
        <ele>500.39999389648438</ele>
        <time>2014-12-08T12:21:14Z</time>
      </trkpt>
      <trkpt lat="43.804190922528505" lon="5.239335391670466">
        <ele>500</ele>
        <time>2014-12-08T12:21:15Z</time>
      </trkpt>
      <trkpt lat="43.804254038259387" lon="5.239396998658776">
        <ele>499</ele>
        <time>2014-12-08T12:21:17Z</time>
      </trkpt>
      <trkpt lat="43.804283458739519" lon="5.23942600004375">
        <ele>498.39999389648438</ele>
        <time>2014-12-08T12:21:18Z</time>
      </trkpt>
      <trkpt lat="43.804310783743858" lon="5.23945139721036">
        <ele>498</ele>
        <time>2014-12-08T12:21:19Z</time>
      </trkpt>
      <trkpt lat="43.804357890039682" lon="5.239500012248755">
        <ele>496.60000610351562</ele>
        <time>2014-12-08T12:21:21Z</time>
      </trkpt>
      <trkpt lat="43.804402900859714" lon="5.239537982270122">
        <ele>495.20001220703125</ele>
        <time>2014-12-08T12:21:23Z</time>
      </trkpt>
      <trkpt lat="43.804431399330497" lon="5.239563966169953">
        <ele>494.60000610351562</ele>
        <time>2014-12-08T12:21:24Z</time>
      </trkpt>
      <trkpt lat="43.804470961913466" lon="5.239615263417363">
        <ele>494</ele>
        <time>2014-12-08T12:21:26Z</time>
      </trkpt>
      <trkpt lat="43.804522510617971" lon="5.239759013056755">
        <ele>492.60000610351562</ele>
        <time>2014-12-08T12:21:29Z</time>
      </trkpt>
      <trkpt lat="43.804555116221309" lon="5.239870743826032">
        <ele>491.20001220703125</ele>
        <time>2014-12-08T12:21:31Z</time>
      </trkpt>
      <trkpt lat="43.80459233187139" lon="5.239967051893473">
        <ele>490</ele>
        <time>2014-12-08T12:21:33Z</time>
      </trkpt>
      <trkpt lat="43.80463725887239" lon="5.240032598376274">
        <ele>489.60000610351562</ele>
        <time>2014-12-08T12:21:34Z</time>
      </trkpt>
      <trkpt lat="43.804677994921803" lon="5.240070065483451">
        <ele>489.20001220703125</ele>
        <time>2014-12-08T12:21:35Z</time>
      </trkpt>
      <trkpt lat="43.804713618010283" lon="5.240112897008658">
        <ele>488.79998779296875</ele>
        <time>2014-12-08T12:21:36Z</time>
      </trkpt>
      <trkpt lat="43.804806154221296" lon="5.240219430997968">
        <ele>487</ele>
        <time>2014-12-08T12:21:39Z</time>
      </trkpt>
      <trkpt lat="43.80486206151545" lon="5.240286905318499">
        <ele>486</ele>
        <time>2014-12-08T12:21:41Z</time>
      </trkpt>
      <trkpt lat="43.804902378469706" lon="5.240353373810649">
        <ele>484.79998779296875</ele>
        <time>2014-12-08T12:21:43Z</time>
      </trkpt>
      <trkpt lat="43.804937498643994" lon="5.240429732948542">
        <ele>483.20001220703125</ele>
        <time>2014-12-08T12:21:45Z</time>
      </trkpt>
      <trkpt lat="43.80495292134583" lon="5.240462841466069">
        <ele>482.20001220703125</ele>
        <time>2014-12-08T12:21:46Z</time>
      </trkpt>
      <trkpt lat="43.804955687373877" lon="5.24048681370914">
        <ele>481</ele>
        <time>2014-12-08T12:21:47Z</time>
      </trkpt>
      <trkpt lat="43.804967422038317" lon="5.240549929440022">
        <ele>479.79998779296875</ele>
        <time>2014-12-08T12:21:49Z</time>
      </trkpt>
      <trkpt lat="43.804971864446998" lon="5.240595610812306">
        <ele>479.20001220703125</ele>
        <time>2014-12-08T12:21:50Z</time>
      </trkpt>
      <trkpt lat="43.804976558312774" lon="5.240639615803957">
        <ele>478.60000610351562</ele>
        <time>2014-12-08T12:21:51Z</time>
      </trkpt>
      <trkpt lat="43.804994327947497" lon="5.240727793425322">
        <ele>477</ele>
        <time>2014-12-08T12:21:53Z</time>
      </trkpt>
      <trkpt lat="43.8050218205899" lon="5.240833405405283">
        <ele>476</ele>
        <time>2014-12-08T12:21:55Z</time>
      </trkpt>
      <trkpt lat="43.805029699578881" lon="5.240881433710456">
        <ele>475.20001220703125</ele>
        <time>2014-12-08T12:21:56Z</time>
      </trkpt>
      <trkpt lat="43.805041098967195" lon="5.240928875282407">
        <ele>474.39999389648437</ele>
        <time>2014-12-08T12:21:57Z</time>
      </trkpt>
      <trkpt lat="43.805056605488062" lon="5.24098226800561">
        <ele>473.39999389648437</ele>
        <time>2014-12-08T12:21:58Z</time>
      </trkpt>
      <trkpt lat="43.805096419528127" lon="5.241064075380564">
        <ele>471.60000610351562</ele>
        <time>2014-12-08T12:22:00Z</time>
      </trkpt>
      <trkpt lat="43.805128186941147" lon="5.241119312122464">
        <ele>470</ele>
        <time>2014-12-08T12:22:02Z</time>
      </trkpt>
      <trkpt lat="43.805174203589559" lon="5.241089221090078">
        <ele>468.79998779296875</ele>
        <time>2014-12-08T12:22:04Z</time>
      </trkpt>
      <trkpt lat="43.805190464481711" lon="5.241075223311782">
        <ele>468.20001220703125</ele>
        <time>2014-12-08T12:22:05Z</time>
      </trkpt>
      <trkpt lat="43.805205719545484" lon="5.241035996004939">
        <ele>467.39999389648437</ele>
        <time>2014-12-08T12:22:07Z</time>
      </trkpt>
      <trkpt lat="43.805194068700075" lon="5.240970533341169">
        <ele>466.79998779296875</ele>
        <time>2014-12-08T12:22:09Z</time>
      </trkpt>
      <trkpt lat="43.80518845282495" lon="5.2409378439188">
        <ele>466.39999389648437</ele>
        <time>2014-12-08T12:22:10Z</time>
      </trkpt>
      <trkpt lat="43.805189626291394" lon="5.24089970625937">
        <ele>465.20001220703125</ele>
        <time>2014-12-08T12:22:11Z</time>
      </trkpt>
      <trkpt lat="43.805182669311762" lon="5.240811863914132">
        <ele>463.79998779296875</ele>
        <time>2014-12-08T12:22:13Z</time>
      </trkpt>
      <trkpt lat="43.805185435339808" lon="5.240775737911463">
        <ele>463.20001220703125</ele>
        <time>2014-12-08T12:22:14Z</time>
      </trkpt>
      <trkpt lat="43.805188117548823" lon="5.240706168115139">
        <ele>462.39999389648437</ele>
        <time>2014-12-08T12:22:16Z</time>
      </trkpt>
      <trkpt lat="43.805205719545484" lon="5.240690493956208">
        <ele>462.20001220703125</ele>
        <time>2014-12-08T12:22:17Z</time>
      </trkpt>
      <trkpt lat="43.805256932973862" lon="5.240643471479416">
        <ele>461.20001220703125</ele>
        <time>2014-12-08T12:22:20Z</time>
      </trkpt>
      <trkpt lat="43.805299764499068" lon="5.24059041403234">
        <ele>460</ele>
        <time>2014-12-08T12:22:23Z</time>
      </trkpt>
      <trkpt lat="43.805356090888381" lon="5.240533836185932">
        <ele>458.39999389648438</ele>
        <time>2014-12-08T12:22:26Z</time>
      </trkpt>
      <trkpt lat="43.80536874756217" lon="5.240514641627669">
        <ele>457.79998779296875</ele>
        <time>2014-12-08T12:22:27Z</time>
      </trkpt>
      <trkpt lat="43.805397497490048" lon="5.240498464554548">
        <ele>457</ele>
        <time>2014-12-08T12:22:28Z</time>
      </trkpt>
      <trkpt lat="43.805482657626271" lon="5.240427553653717">
        <ele>455.60000610351562</ele>
        <time>2014-12-08T12:22:31Z</time>
      </trkpt>
      <trkpt lat="43.805515682324767" lon="5.240402491763234">
        <ele>454.79998779296875</ele>
        <time>2014-12-08T12:22:32Z</time>
      </trkpt>
      <trkpt lat="43.805552646517754" lon="5.240367287769914">
        <ele>454.20001220703125</ele>
        <time>2014-12-08T12:22:33Z</time>
      </trkpt>
      <trkpt lat="43.805614588782191" lon="5.240312637761235">
        <ele>452.20001220703125</ele>
        <time>2014-12-08T12:22:35Z</time>
      </trkpt>
      <trkpt lat="43.805661275982857" lon="5.240230830386281">
        <ele>451.20001220703125</ele>
        <time>2014-12-08T12:22:37Z</time>
      </trkpt>
      <trkpt lat="43.805703772231936" lon="5.240146173164249">
        <ele>450</ele>
        <time>2014-12-08T12:22:39Z</time>
      </trkpt>
      <trkpt lat="43.805735455825925" lon="5.240059001371265">
        <ele>448.79998779296875</ele>
        <time>2014-12-08T12:22:41Z</time>
      </trkpt>
      <trkpt lat="43.805764960125089" lon="5.239996388554573">
        <ele>447.60000610351562</ele>
        <time>2014-12-08T12:22:43Z</time>
      </trkpt>
      <trkpt lat="43.805798403918743" lon="5.239925729110837">
        <ele>446.39999389648437</ele>
        <time>2014-12-08T12:22:45Z</time>
      </trkpt>
      <trkpt lat="43.805832350626588" lon="5.239874431863427">
        <ele>445.20001220703125</ele>
        <time>2014-12-08T12:22:47Z</time>
      </trkpt>
      <trkpt lat="43.805868225172162" lon="5.239820703864098">
        <ele>444.20001220703125</ele>
        <time>2014-12-08T12:22:49Z</time>
      </trkpt>
      <trkpt lat="43.805911894887686" lon="5.239784074947238">
        <ele>442.79998779296875</ele>
        <time>2014-12-08T12:22:51Z</time>
      </trkpt>
      <trkpt lat="43.806004012003541" lon="5.239738393574953">
        <ele>441.79998779296875</ele>
        <time>2014-12-08T12:22:54Z</time>
      </trkpt>
      <trkpt lat="43.80610610358417" lon="5.239701010286808">
        <ele>440.60000610351562</ele>
        <time>2014-12-08T12:22:57Z</time>
      </trkpt>
      <trkpt lat="43.806156646460295" lon="5.239693550392985">
        <ele>439.20001220703125</ele>
        <time>2014-12-08T12:22:59Z</time>
      </trkpt>
      <trkpt lat="43.80618866533041" lon="5.239689191803336">
        <ele>438.79998779296875</ele>
        <time>2014-12-08T12:23:00Z</time>
      </trkpt>
      <trkpt lat="43.806220768019557" lon="5.239689694717526">
        <ele>438</ele>
        <time>2014-12-08T12:23:01Z</time>
      </trkpt>
      <trkpt lat="43.806286482140422" lon="5.239696148782969">
        <ele>437</ele>
        <time>2014-12-08T12:23:03Z</time>
      </trkpt>
      <trkpt lat="43.806337527930737" lon="5.239698328077793">
        <ele>436</ele>
        <time>2014-12-08T12:23:05Z</time>
      </trkpt>
      <trkpt lat="43.8063635956496" lon="5.239693466573954">
        <ele>435.39999389648437</ele>
        <time>2014-12-08T12:23:06Z</time>
      </trkpt>
      <trkpt lat="43.80642319098115" lon="5.239709308370948">
        <ele>434.60000610351562</ele>
        <time>2014-12-08T12:23:08Z</time>
      </trkpt>
      <trkpt lat="43.806525785475969" lon="5.239728419110179">
        <ele>433.39999389648437</ele>
        <time>2014-12-08T12:23:11Z</time>
      </trkpt>
      <trkpt lat="43.806586638092995" lon="5.239722803235054">
        <ele>432.39999389648437</ele>
        <time>2014-12-08T12:23:13Z</time>
      </trkpt>
      <trkpt lat="43.806642880663276" lon="5.239707715809345">
        <ele>431</ele>
        <time>2014-12-08T12:23:15Z</time>
      </trkpt>
      <trkpt lat="43.806702811270952" lon="5.239703776314855">
        <ele>429.60000610351562</ele>
        <time>2014-12-08T12:23:17Z</time>
      </trkpt>
      <trkpt lat="43.806767435744405" lon="5.239717857912183">
        <ele>428.20001220703125</ele>
        <time>2014-12-08T12:23:19Z</time>
      </trkpt>
      <trkpt lat="43.806836921721697" lon="5.239738645032048">
        <ele>426.60000610351562</ele>
        <time>2014-12-08T12:23:21Z</time>
      </trkpt>
      <trkpt lat="43.806876232847571" lon="5.239728586748242">
        <ele>426.20001220703125</ele>
        <time>2014-12-08T12:23:22Z</time>
      </trkpt>
      <trkpt lat="43.806904815137386" lon="5.23971576243639">
        <ele>425.39999389648437</ele>
        <time>2014-12-08T12:23:23Z</time>
      </trkpt>
      <trkpt lat="43.806977905333042" lon="5.23968206718564">
        <ele>424.20001220703125</ele>
        <time>2014-12-08T12:23:26Z</time>
      </trkpt>
      <trkpt lat="43.807003805413842" lon="5.239662872627378">
        <ele>423.79998779296875</ele>
        <time>2014-12-08T12:23:27Z</time>
      </trkpt>
      <trkpt lat="43.807096341624856" lon="5.239597661420703">
        <ele>422.60000610351562</ele>
        <time>2014-12-08T12:23:30Z</time>
      </trkpt>
      <trkpt lat="43.807148477062583" lon="5.239546950906515">
        <ele>421.60000610351562</ele>
        <time>2014-12-08T12:23:32Z</time>
      </trkpt>
      <trkpt lat="43.807175382971764" lon="5.239512166008353">
        <ele>421.39999389648437</ele>
        <time>2014-12-08T12:23:33Z</time>
      </trkpt>
      <trkpt lat="43.807223998010159" lon="5.239452570676804">
        <ele>420.39999389648437</ele>
        <time>2014-12-08T12:23:35Z</time>
      </trkpt>
      <trkpt lat="43.807295495644212" lon="5.239385012537241">
        <ele>419.20001220703125</ele>
        <time>2014-12-08T12:23:38Z</time>
      </trkpt>
      <trkpt lat="43.807355845347047" lon="5.239357268437743">
        <ele>418.20001220703125</ele>
        <time>2014-12-08T12:23:41Z</time>
      </trkpt>
      <trkpt lat="43.807397335767746" lon="5.23933463729918">
        <ele>417.20001220703125</ele>
        <time>2014-12-08T12:23:43Z</time>
      </trkpt>
      <trkpt lat="43.807423990219831" lon="5.239315358921886">
        <ele>416.79998779296875</ele>
        <time>2014-12-08T12:23:44Z</time>
      </trkpt>
      <trkpt lat="43.807529350742698" lon="5.239184014499188">
        <ele>415.60000610351562</ele>
        <time>2014-12-08T12:23:48Z</time>
      </trkpt>
      <trkpt lat="43.807682320475578" lon="5.239040767773986">
        <ele>414.39999389648437</ele>
        <time>2014-12-08T12:23:53Z</time>
      </trkpt>
      <trkpt lat="43.807743592187762" lon="5.238971030339599">
        <ele>412.79998779296875</ele>
        <time>2014-12-08T12:23:56Z</time>
      </trkpt>
      <trkpt lat="43.807793129235506" lon="5.238925768062472">
        <ele>411.39999389648437</ele>
        <time>2014-12-08T12:23:58Z</time>
      </trkpt>
      <trkpt lat="43.807838726788759" lon="5.238892324268818">
        <ele>410.39999389648438</ele>
        <time>2014-12-08T12:24:00Z</time>
      </trkpt>
      <trkpt lat="43.807877954095602" lon="5.238856533542275">
        <ele>409.20001220703125</ele>
        <time>2014-12-08T12:24:10Z</time>
      </trkpt>
      <trkpt lat="43.807967221364379" lon="5.238758297637105">
        <ele>408</ele>
        <time>2014-12-08T12:24:14Z</time>
      </trkpt>
      <trkpt lat="43.808039054274559" lon="5.238721752539277">
        <ele>406.79998779296875</ele>
        <time>2014-12-08T12:24:17Z</time>
      </trkpt>
      <trkpt lat="43.808090602979064" lon="5.238704401999712">
        <ele>405.79998779296875</ele>
        <time>2014-12-08T12:24:19Z</time>
      </trkpt>
      <trkpt lat="43.808114407584071" lon="5.238704821094871">
        <ele>405.39999389648437</ele>
        <time>2014-12-08T12:24:20Z</time>
      </trkpt>
      <trkpt lat="43.808165453374386" lon="5.238713035359979">
        <ele>404.39999389648438</ele>
        <time>2014-12-08T12:24:22Z</time>
      </trkpt>
      <trkpt lat="43.808219684287906" lon="5.238693589344621">
        <ele>403.39999389648437</ele>
        <time>2014-12-08T12:24:24Z</time>
      </trkpt>
      <trkpt lat="43.808239549398422" lon="5.238680765032768">
        <ele>403</ele>
        <time>2014-12-08T12:24:25Z</time>
      </trkpt>
      <trkpt lat="43.808266036212444" lon="5.238669449463487">
        <ele>402</ele>
        <time>2014-12-08T12:24:27Z</time>
      </trkpt>
      <trkpt lat="43.808457143604755" lon="5.238498039543629">
        <ele>395.60000610351562</ele>
        <time>2014-12-08T12:25:00Z</time>
      </trkpt>
      <trkpt lat="43.808493688702583" lon="5.238455040380359">
        <ele>394.60000610351562</ele>
        <time>2014-12-08T12:25:08Z</time>
      </trkpt>
      <trkpt lat="43.80857708863914" lon="5.238346746191382">
        <ele>393.39999389648438</ele>
        <time>2014-12-08T12:25:12Z</time>
      </trkpt>
      <trkpt lat="43.808601312339306" lon="5.238328892737627">
        <ele>393</ele>
        <time>2014-12-08T12:25:13Z</time>
      </trkpt>
      <trkpt lat="43.8086171541363" lon="5.238309698179364">
        <ele>392.39999389648437</ele>
        <time>2014-12-08T12:25:14Z</time>
      </trkpt>
      <trkpt lat="43.80865428596735" lon="5.238307183608413">
        <ele>391.39999389648437</ele>
        <time>2014-12-08T12:25:16Z</time>
      </trkpt>
      <trkpt lat="43.808668116107583" lon="5.238316571339965">
        <ele>391</ele>
        <time>2014-12-08T12:25:17Z</time>
      </trkpt>
      <trkpt lat="43.808701308444142" lon="5.238324785605073">
        <ele>390.39999389648438</ele>
        <time>2014-12-08T12:25:19Z</time>
      </trkpt>
      <trkpt lat="43.808817565441132" lon="5.238296538591385">
        <ele>388.39999389648437</ele>
        <time>2014-12-08T12:25:23Z</time>
      </trkpt>
      <trkpt lat="43.808889985084534" lon="5.238284468650818">
        <ele>386.79998779296875</ele>
        <time>2014-12-08T12:25:25Z</time>
      </trkpt>
      <trkpt lat="43.808985287323594" lon="5.23830316029489">
        <ele>385.20001220703125</ele>
        <time>2014-12-08T12:25:28Z</time>
      </trkpt>
      <trkpt lat="43.809011690318584" lon="5.238312464207411">
        <ele>384.60000610351562</ele>
        <time>2014-12-08T12:25:29Z</time>
      </trkpt>
      <trkpt lat="43.809034656733274" lon="5.23832025937736">
        <ele>384.20001220703125</ele>
        <time>2014-12-08T12:25:30Z</time>
      </trkpt>
      <trkpt lat="43.809122331440449" lon="5.238343980163336">
        <ele>383</ele>
        <time>2014-12-08T12:25:33Z</time>
      </trkpt>
      <trkpt lat="43.80922551266849" lon="5.238401228561997">
        <ele>381.79998779296875</ele>
        <time>2014-12-08T12:25:36Z</time>
      </trkpt>
      <trkpt lat="43.809255436062813" lon="5.238421596586704">
        <ele>381.39999389648437</ele>
        <time>2014-12-08T12:25:37Z</time>
      </trkpt>
      <trkpt lat="43.809297261759639" lon="5.238463087007403">
        <ele>380.39999389648437</ele>
        <time>2014-12-08T12:25:39Z</time>
      </trkpt>
      <trkpt lat="43.809385020285845" lon="5.238535171374679">
        <ele>377.79998779296875</ele>
        <time>2014-12-08T12:25:48Z</time>
      </trkpt>
      <trkpt lat="43.809510748833418" lon="5.238597532734275">
        <ele>376.20001220703125</ele>
        <time>2014-12-08T12:25:51Z</time>
      </trkpt>
      <trkpt lat="43.809572942554951" lon="5.238641705363989">
        <ele>375.20001220703125</ele>
        <time>2014-12-08T12:25:53Z</time>
      </trkpt>
      <trkpt lat="43.809690456837416" lon="5.238715801388025">
        <ele>374</ele>
        <time>2014-12-08T12:25:56Z</time>
      </trkpt>
      <trkpt lat="43.809725577011704" lon="5.238731978461146">
        <ele>373.60000610351562</ele>
        <time>2014-12-08T12:25:57Z</time>
      </trkpt>
      <trkpt lat="43.809790536761284" lon="5.238762320950627">
        <ele>372.60000610351562</ele>
        <time>2014-12-08T12:25:59Z</time>
      </trkpt>
      <trkpt lat="43.809889946132898" lon="5.238806242123246">
        <ele>371.20001220703125</ele>
        <time>2014-12-08T12:26:02Z</time>
      </trkpt>
      <trkpt lat="43.809974938631058" lon="5.23885234259069">
        <ele>370</ele>
        <time>2014-12-08T12:26:05Z</time>
      </trkpt>
      <trkpt lat="43.810047693550587" lon="5.238879835233092">
        <ele>369.20001220703125</ele>
        <time>2014-12-08T12:26:07Z</time>
      </trkpt>
      <trkpt lat="43.810084406286478" lon="5.238897772505879">
        <ele>368.79998779296875</ele>
        <time>2014-12-08T12:26:08Z</time>
      </trkpt>
      <trkpt lat="43.810197729617357" lon="5.238937921822071">
        <ele>367.20001220703125</ele>
        <time>2014-12-08T12:26:11Z</time>
      </trkpt>
      <trkpt lat="43.810290182009339" lon="5.238967090845108">
        <ele>366.20001220703125</ele>
        <time>2014-12-08T12:26:14Z</time>
      </trkpt>
      <trkpt lat="43.810367630794644" lon="5.239001289010048">
        <ele>364.79998779296875</ele>
        <time>2014-12-08T12:26:17Z</time>
      </trkpt>
      <trkpt lat="43.810402834787965" lon="5.239058202132583">
        <ele>364.20001220703125</ele>
        <time>2014-12-08T12:26:19Z</time>
      </trkpt>
      <trkpt lat="43.810420269146562" lon="5.239082258194685">
        <ele>363.79998779296875</ele>
        <time>2014-12-08T12:26:20Z</time>
      </trkpt>
      <trkpt lat="43.810489922761917" lon="5.23915383964777">
        <ele>362.60000610351562</ele>
        <time>2014-12-08T12:26:23Z</time>
      </trkpt>
      <trkpt lat="43.810548931360245" lon="5.239185690879822">
        <ele>361.39999389648437</ele>
        <time>2014-12-08T12:26:25Z</time>
      </trkpt>
      <trkpt lat="43.810633504763246" lon="5.239225924015045">
        <ele>360.20001220703125</ele>
        <time>2014-12-08T12:26:28Z</time>
      </trkpt>
      <trkpt lat="43.810734255239367" lon="5.239273952320218">
        <ele>358.60000610351562</ele>
        <time>2014-12-08T12:26:31Z</time>
      </trkpt>
      <trkpt lat="43.810756048187613" lon="5.23928577080369">
        <ele>358</ele>
        <time>2014-12-08T12:26:32Z</time>
      </trkpt>
      <trkpt lat="43.810802735388279" lon="5.239309743046761">
        <ele>357.60000610351562</ele>
        <time>2014-12-08T12:26:33Z</time>
      </trkpt>
      <trkpt lat="43.810854200273752" lon="5.239343773573637">
        <ele>356.39999389648438</ele>
        <time>2014-12-08T12:26:35Z</time>
      </trkpt>
      <trkpt lat="43.810937264934182" lon="5.239403285086155">
        <ele>355.20001220703125</ele>
        <time>2014-12-08T12:26:38Z</time>
      </trkpt>
      <trkpt lat="43.810966098681092" lon="5.239424407482147">
        <ele>354.79998779296875</ele>
        <time>2014-12-08T12:26:39Z</time>
      </trkpt>
      <trkpt lat="43.811015887185931" lon="5.239456007257104">
        <ele>354</ele>
        <time>2014-12-08T12:26:41Z</time>
      </trkpt>
      <trkpt lat="43.811098113656044" lon="5.239496827125549">
        <ele>352.79998779296875</ele>
        <time>2014-12-08T12:26:44Z</time>
      </trkpt>
      <trkpt lat="43.811158463358879" lon="5.239522811025381">
        <ele>352.39999389648437</ele>
        <time>2014-12-08T12:26:46Z</time>
      </trkpt>
      <trkpt lat="43.811226943507791" lon="5.239524487406015">
        <ele>351.79998779296875</ele>
        <time>2014-12-08T12:26:48Z</time>
      </trkpt>
      <trkpt lat="43.811309337615967" lon="5.239479476585984">
        <ele>351.60000610351562</ele>
        <time>2014-12-08T12:26:50Z</time>
      </trkpt>
      <trkpt lat="43.811482088640332" lon="5.239357938989997">
        <ele>350.79998779296875</ele>
        <time>2014-12-08T12:26:54Z</time>
      </trkpt>
      <trkpt lat="43.811522405594587" lon="5.239345198497176">
        <ele>350.39999389648438</ele>
        <time>2014-12-08T12:26:55Z</time>
      </trkpt>
      <trkpt lat="43.811582503840327" lon="5.239347042515874">
        <ele>349</ele>
        <time>2014-12-08T12:26:57Z</time>
      </trkpt>
      <trkpt lat="43.811646541580558" lon="5.23933807387948">
        <ele>347.39999389648437</ele>
        <time>2014-12-08T12:26:59Z</time>
      </trkpt>
      <trkpt lat="43.811674620956182" lon="5.239364393055439">
        <ele>347</ele>
        <time>2014-12-08T12:27:00Z</time>
      </trkpt>
      <trkpt lat="43.811704125255346" lon="5.239382078871131">
        <ele>346.39999389648437</ele>
        <time>2014-12-08T12:27:01Z</time>
      </trkpt>
      <trkpt lat="43.811731869354844" lon="5.23939473554492">
        <ele>346</ele>
        <time>2014-12-08T12:27:02Z</time>
      </trkpt>
      <trkpt lat="43.811818370595574" lon="5.23940403945744">
        <ele>344.79998779296875</ele>
        <time>2014-12-08T12:27:05Z</time>
      </trkpt>
      <trkpt lat="43.811882911249995" lon="5.2394182048738">
        <ele>343.79998779296875</ele>
        <time>2014-12-08T12:27:07Z</time>
      </trkpt>
      <trkpt lat="43.811949379742146" lon="5.239435052499175">
        <ele>342.20001220703125</ele>
        <time>2014-12-08T12:27:09Z</time>
      </trkpt>
      <trkpt lat="43.812051471322775" lon="5.239455923438072">
        <ele>341.20001220703125</ele>
        <time>2014-12-08T12:27:12Z</time>
      </trkpt>
      <trkpt lat="43.812114922329783" lon="5.239428011700511">
        <ele>340.60000610351562</ele>
        <time>2014-12-08T12:27:14Z</time>
      </trkpt>
      <trkpt lat="43.812141912057996" lon="5.239418707787991">
        <ele>340</ele>
        <time>2014-12-08T12:27:15Z</time>
      </trkpt>
      <trkpt lat="43.812191784381866" lon="5.239410074427724">
        <ele>338.60000610351562</ele>
        <time>2014-12-08T12:27:17Z</time>
      </trkpt>
      <trkpt lat="43.812220869585872" lon="5.23940403945744">
        <ele>338</ele>
        <time>2014-12-08T12:27:18Z</time>
      </trkpt>
      <trkpt lat="43.812250038608909" lon="5.239401692524552">
        <ele>337.39999389648437</ele>
        <time>2014-12-08T12:27:19Z</time>
      </trkpt>
      <trkpt lat="43.812336456030607" lon="5.239416109398007">
        <ele>336</ele>
        <time>2014-12-08T12:27:22Z</time>
      </trkpt>
      <trkpt lat="43.812386663630605" lon="5.239430107176304">
        <ele>335.20001220703125</ele>
        <time>2014-12-08T12:27:23Z</time>
      </trkpt>
      <trkpt lat="43.812417006120086" lon="5.239439494907856">
        <ele>334.79998779296875</ele>
        <time>2014-12-08T12:27:24Z</time>
      </trkpt>
      <trkpt lat="43.812492610886693" lon="5.23946019820869">
        <ele>333.60000610351562</ele>
        <time>2014-12-08T12:27:26Z</time>
      </trkpt>
      <trkpt lat="43.812577687203884" lon="5.239476710557938">
        <ele>332.20001220703125</ele>
        <time>2014-12-08T12:27:28Z</time>
      </trkpt>
      <trkpt lat="43.812647424638271" lon="5.239501772448421">
        <ele>331</ele>
        <time>2014-12-08T12:27:30Z</time>
      </trkpt>
      <trkpt lat="43.812687071040273" lon="5.239510824903846">
        <ele>330.60000610351562</ele>
        <time>2014-12-08T12:27:31Z</time>
      </trkpt>
      <trkpt lat="43.812749348580837" lon="5.239498754963279">
        <ele>329.60000610351562</ele>
        <time>2014-12-08T12:27:33Z</time>
      </trkpt>
      <trkpt lat="43.81281103938818" lon="5.239476375281811">
        <ele>328.20001220703125</ele>
        <time>2014-12-08T12:27:35Z</time>
      </trkpt>
      <trkpt lat="43.81284230388701" lon="5.23946606554091">
        <ele>327.79998779296875</ele>
        <time>2014-12-08T12:27:36Z</time>
      </trkpt>
      <trkpt lat="43.812929727137089" lon="5.239417785778642">
        <ele>326.79998779296875</ele>
        <time>2014-12-08T12:27:38Z</time>
      </trkpt>
      <trkpt lat="43.813021257519722" lon="5.239379648119211">
        <ele>325.79998779296875</ele>
        <time>2014-12-08T12:27:40Z</time>
      </trkpt>
      <trkpt lat="43.813165845349431" lon="5.239294320344925">
        <ele>324.39999389648437</ele>
        <time>2014-12-08T12:27:44Z</time>
      </trkpt>
      <trkpt lat="43.813214795663953" lon="5.23921687155962">
        <ele>323.60000610351562</ele>
        <time>2014-12-08T12:27:46Z</time>
      </trkpt>
      <trkpt lat="43.81324203684926" lon="5.23918460123241">
        <ele>323.20001220703125</ele>
        <time>2014-12-08T12:27:47Z</time>
      </trkpt>
      <trkpt lat="43.813264751806855" lon="5.239155767485499">
        <ele>322.20001220703125</ele>
        <time>2014-12-08T12:27:48Z</time>
      </trkpt>
      <trkpt lat="43.813358629122376" lon="5.23908787406981">
        <ele>321.60000610351562</ele>
        <time>2014-12-08T12:27:51Z</time>
      </trkpt>
      <trkpt lat="43.813454601913691" lon="5.23904780857265">
        <ele>320.79998779296875</ele>
        <time>2014-12-08T12:27:53Z</time>
      </trkpt>
      <trkpt lat="43.813535738736391" lon="5.239014700055122">
        <ele>319.39999389648438</ele>
        <time>2014-12-08T12:27:55Z</time>
      </trkpt>
      <trkpt lat="43.813562393188477" lon="5.238995421677828">
        <ele>318.79998779296875</ele>
        <time>2014-12-08T12:27:56Z</time>
      </trkpt>
      <trkpt lat="43.813588377088308" lon="5.238986788317561">
        <ele>318.20001220703125</ele>
        <time>2014-12-08T12:27:57Z</time>
      </trkpt>
      <trkpt lat="43.813632214441895" lon="5.238959463313222">
        <ele>317</ele>
        <time>2014-12-08T12:27:59Z</time>
      </trkpt>
      <trkpt lat="43.813698096200824" lon="5.238944543525577">
        <ele>316.39999389648438</ele>
        <time>2014-12-08T12:28:01Z</time>
      </trkpt>
      <trkpt lat="43.81383815780282" lon="5.238977400586009">
        <ele>315.79998779296875</ele>
        <time>2014-12-08T12:28:04Z</time>
      </trkpt>
      <trkpt lat="43.813883168622851" lon="5.238990979269147">
        <ele>315.60000610351562</ele>
        <time>2014-12-08T12:28:05Z</time>
      </trkpt>
      <trkpt lat="43.814037814736366" lon="5.239007575437427">
        <ele>314.39999389648437</ele>
        <time>2014-12-08T12:28:09Z</time>
      </trkpt>
      <trkpt lat="43.814099505543709" lon="5.239005731418729">
        <ele>312.79998779296875</ele>
        <time>2014-12-08T12:28:11Z</time>
      </trkpt>
      <trkpt lat="43.814168572425842" lon="5.238981256261468">
        <ele>311.79998779296875</ele>
        <time>2014-12-08T12:28:13Z</time>
      </trkpt>
      <trkpt lat="43.814249206334352" lon="5.238938173279166">
        <ele>310.79998779296875</ele>
        <time>2014-12-08T12:28:15Z</time>
      </trkpt>
      <trkpt lat="43.814298994839191" lon="5.238910764455795">
        <ele>310.39999389648437</ele>
        <time>2014-12-08T12:28:16Z</time>
      </trkpt>
      <trkpt lat="43.814341155812144" lon="5.238885702565312">
        <ele>309.60000610351562</ele>
        <time>2014-12-08T12:28:17Z</time>
      </trkpt>
      <trkpt lat="43.814380802214146" lon="5.238856868818402">
        <ele>309</ele>
        <time>2014-12-08T12:28:18Z</time>
      </trkpt>
      <trkpt lat="43.8144176825881" lon="5.238825939595699">
        <ele>308.20001220703125</ele>
        <time>2014-12-08T12:28:19Z</time>
      </trkpt>
      <trkpt lat="43.814487000927329" lon="5.238774223253131">
        <ele>307</ele>
        <time>2014-12-08T12:28:21Z</time>
      </trkpt>
      <trkpt lat="43.814520444720984" lon="5.238751256838441">
        <ele>306.60000610351562</ele>
        <time>2014-12-08T12:28:22Z</time>
      </trkpt>
      <trkpt lat="43.814590014517307" lon="5.238710520789027">
        <ele>305.79998779296875</ele>
        <time>2014-12-08T12:28:24Z</time>
      </trkpt>
      <trkpt lat="43.814683640375733" lon="5.238641621544957">
        <ele>304.60000610351562</ele>
        <time>2014-12-08T12:28:27Z</time>
      </trkpt>
      <trkpt lat="43.814716916531324" lon="5.238627875223756">
        <ele>304.20001220703125</ele>
        <time>2014-12-08T12:28:28Z</time>
      </trkpt>
      <trkpt lat="43.814829150214791" lon="5.238583283498883">
        <ele>303.39999389648437</ele>
        <time>2014-12-08T12:28:31Z</time>
      </trkpt>
      <trkpt lat="43.814929397776723" lon="5.238531902432442">
        <ele>302.39999389648438</ele>
        <time>2014-12-08T12:28:34Z</time>
      </trkpt>
      <trkpt lat="43.814965691417456" lon="5.238512204959989">
        <ele>301.79998779296875</ele>
        <time>2014-12-08T12:28:35Z</time>
      </trkpt>
      <trkpt lat="43.815000811591744" lon="5.238489490002394">
        <ele>300.79998779296875</ele>
        <time>2014-12-08T12:28:36Z</time>
      </trkpt>
      <trkpt lat="43.815104831010103" lon="5.238418830558658">
        <ele>299.60000610351562</ele>
        <time>2014-12-08T12:28:39Z</time>
      </trkpt>
      <trkpt lat="43.815141124650836" lon="5.238399971276522">
        <ele>299.39999389648438</ele>
        <time>2014-12-08T12:28:40Z</time>
      </trkpt>
      <trkpt lat="43.81521312519908" lon="5.238372646272183">
        <ele>298.60000610351562</ele>
        <time>2014-12-08T12:28:42Z</time>
      </trkpt>
      <trkpt lat="43.815412279218435" lon="5.238376669585705">
        <ele>297.20001220703125</ele>
        <time>2014-12-08T12:28:47Z</time>
      </trkpt>
      <trkpt lat="43.815488638356328" lon="5.238391337916255">
        <ele>295.79998779296875</ele>
        <time>2014-12-08T12:28:49Z</time>
      </trkpt>
      <trkpt lat="43.815604392439127" lon="5.238447831943631">
        <ele>294.60000610351562</ele>
        <time>2014-12-08T12:28:52Z</time>
      </trkpt>
      <trkpt lat="43.815743867307901" lon="5.238572219386697">
        <ele>293.39999389648437</ele>
        <time>2014-12-08T12:28:56Z</time>
      </trkpt>
      <trkpt lat="43.815851490944624" lon="5.238664587959647">
        <ele>292.39999389648437</ele>
        <time>2014-12-08T12:28:59Z</time>
      </trkpt>
      <trkpt lat="43.815971771255136" lon="5.238744970411062">
        <ele>291.20001220703125</ele>
        <time>2014-12-08T12:29:02Z</time>
      </trkpt>
      <trkpt lat="43.816152568906546" lon="5.238848403096199">
        <ele>290.39999389648437</ele>
        <time>2014-12-08T12:29:07Z</time>
      </trkpt>
      <trkpt lat="43.816269664093852" lon="5.23895057849586">
        <ele>290.20001220703125</ele>
        <time>2014-12-08T12:29:11Z</time>
      </trkpt>
      <trkpt lat="43.816386088728905" lon="5.239053340628743">
        <ele>289.20001220703125</ele>
        <time>2014-12-08T12:29:14Z</time>
      </trkpt>
      <trkpt lat="43.816430093720555" lon="5.239091059193015">
        <ele>289.20001220703125</ele>
        <time>2014-12-08T12:29:15Z</time>
      </trkpt>
      <trkpt lat="43.816534448415041" lon="5.239155180752277">
        <ele>289</ele>
        <time>2014-12-08T12:29:17Z</time>
      </trkpt>
      <trkpt lat="43.816656824201345" lon="5.239247968420386">
        <ele>288.79998779296875</ele>
        <time>2014-12-08T12:29:20Z</time>
      </trkpt>
      <trkpt lat="43.816774757578969" lon="5.239310078322887">
        <ele>289</ele>
        <time>2014-12-08T12:29:25Z</time>
      </trkpt>
      <trkpt lat="43.816864779219031" lon="5.239436142146587">
        <ele>289.20001220703125</ele>
        <time>2014-12-08T12:31:11Z</time>
      </trkpt>
      <trkpt lat="43.816879279911518" lon="5.239602187648416">
        <ele>289.20001220703125</ele>
        <time>2014-12-08T12:31:16Z</time>
      </trkpt>
      <trkpt lat="43.816883973777294" lon="5.239636218175292">
        <ele>289</ele>
        <time>2014-12-08T12:31:17Z</time>
      </trkpt>
      <trkpt lat="43.816941389814019" lon="5.239849453791976">
        <ele>289.39999389648437</ele>
        <time>2014-12-08T12:31:22Z</time>
      </trkpt>
      <trkpt lat="43.816994028165936" lon="5.240009212866426">
        <ele>290.20001220703125</ele>
        <time>2014-12-08T12:31:25Z</time>
      </trkpt>
      <trkpt lat="43.817062759771943" lon="5.240219766274095">
        <ele>290</ele>
        <time>2014-12-08T12:31:29Z</time>
      </trkpt>
      <trkpt lat="43.817144567146897" lon="5.24065587669611">
        <ele>290.39999389648437</ele>
        <time>2014-12-08T12:31:37Z</time>
      </trkpt>
      <trkpt lat="43.817189829424024" lon="5.240902891382575">
        <ele>291.39999389648437</ele>
        <time>2014-12-08T12:31:42Z</time>
      </trkpt>
      <trkpt lat="43.817232074216008" lon="5.241043036803603">
        <ele>291.79998779296875</ele>
        <time>2014-12-08T12:31:45Z</time>
      </trkpt>
      <trkpt lat="43.817380182445049" lon="5.241535054519773">
        <ele>292.20001220703125</ele>
        <time>2014-12-08T12:31:56Z</time>
      </trkpt>
      <trkpt lat="43.817396443337202" lon="5.241727838292718">
        <ele>292.39999389648437</ele>
        <time>2014-12-08T12:32:00Z</time>
      </trkpt>
      <trkpt lat="43.817393006756902" lon="5.241864211857319">
        <ele>292.39999389648437</ele>
        <time>2014-12-08T12:32:03Z</time>
      </trkpt>
      <trkpt lat="43.81740365177393" lon="5.242134444415569">
        <ele>292.39999389648437</ele>
        <time>2014-12-08T12:32:08Z</time>
      </trkpt>
      <trkpt lat="43.817423768341541" lon="5.242357905954123">
        <ele>292</ele>
        <time>2014-12-08T12:32:12Z</time>
      </trkpt>
      <trkpt lat="43.817426031455398" lon="5.242494782432914">
        <ele>291.79998779296875</ele>
        <time>2014-12-08T12:32:14Z</time>
      </trkpt>
      <trkpt lat="43.817415470257401" lon="5.242961151525378">
        <ele>291.60000610351562</ele>
        <time>2014-12-08T12:32:20Z</time>
      </trkpt>
      <trkpt lat="43.817406920716166" lon="5.243404470384121">
        <ele>291.39999389648437</ele>
        <time>2014-12-08T12:32:25Z</time>
      </trkpt>
      <trkpt lat="43.81740465760231" lon="5.243586441501975">
        <ele>291</ele>
        <time>2014-12-08T12:32:27Z</time>
      </trkpt>
      <trkpt lat="43.817395772784948" lon="5.243930853903294">
        <ele>290.20001220703125</ele>
        <time>2014-12-08T12:32:31Z</time>
      </trkpt>
      <trkpt lat="43.817379008978605" lon="5.244242157787085">
        <ele>289.39999389648437</ele>
        <time>2014-12-08T12:32:35Z</time>
      </trkpt>
      <trkpt lat="43.817374147474766" lon="5.244317259639502">
        <ele>289</ele>
        <time>2014-12-08T12:32:36Z</time>
      </trkpt>
      <trkpt lat="43.817354701459408" lon="5.244697043672204">
        <ele>288</ele>
        <time>2014-12-08T12:32:41Z</time>
      </trkpt>
      <trkpt lat="43.817359646782279" lon="5.244775246828795">
        <ele>288</ele>
        <time>2014-12-08T12:32:42Z</time>
      </trkpt>
      <trkpt lat="43.81736995652318" lon="5.244851438328624">
        <ele>287.79998779296875</ele>
        <time>2014-12-08T12:32:43Z</time>
      </trkpt>
      <trkpt lat="43.817438436672091" lon="5.245328871533275">
        <ele>288.39999389648437</ele>
        <time>2014-12-08T12:32:49Z</time>
      </trkpt>
      <trkpt lat="43.817508090287447" lon="5.245848130434752">
        <ele>288.60000610351562</ele>
        <time>2014-12-08T12:32:56Z</time>
      </trkpt>
      <trkpt lat="43.817543294280767" lon="5.246316427364945">
        <ele>288.79998779296875</ele>
        <time>2014-12-08T12:33:03Z</time>
      </trkpt>
      <trkpt lat="43.817545725032687" lon="5.246380800381303">
        <ele>288.79998779296875</ele>
        <time>2014-12-08T12:33:04Z</time>
      </trkpt>
      <trkpt lat="43.817543042823672" lon="5.246743150055409">
        <ele>289.20001220703125</ele>
        <time>2014-12-08T12:33:10Z</time>
      </trkpt>
      <trkpt lat="43.81754195317626" lon="5.246799057349563">
        <ele>289.60000610351562</ele>
        <time>2014-12-08T12:33:11Z</time>
      </trkpt>
      <trkpt lat="43.817528123036027" lon="5.247011035680771">
        <ele>290.60000610351562</ele>
        <time>2014-12-08T12:33:15Z</time>
      </trkpt>
      <trkpt lat="43.817521333694458" lon="5.247154282405973">
        <ele>291.20001220703125</ele>
        <time>2014-12-08T12:33:18Z</time>
      </trkpt>
      <trkpt lat="43.817521249875426" lon="5.247242627665401">
        <ele>291.60000610351562</ele>
        <time>2014-12-08T12:33:20Z</time>
      </trkpt>
      <trkpt lat="43.817532816901803" lon="5.247438680380583">
        <ele>292.39999389648437</ele>
        <time>2014-12-08T12:33:25Z</time>
      </trkpt>
      <trkpt lat="43.81753415800631" lon="5.247512357309461">
        <ele>292.79998779296875</ele>
        <time>2014-12-08T12:33:27Z</time>
      </trkpt>
      <trkpt lat="43.81752141751349" lon="5.247686617076397">
        <ele>293.60000610351562</ele>
        <time>2014-12-08T12:33:32Z</time>
      </trkpt>
      <trkpt lat="43.817522590979934" lon="5.247762389481068">
        <ele>293.79998779296875</ele>
        <time>2014-12-08T12:33:34Z</time>
      </trkpt>
      <trkpt lat="43.817536504939198" lon="5.24806103669107">
        <ele>294.20001220703125</ele>
        <time>2014-12-08T12:33:41Z</time>
      </trkpt>
      <trkpt lat="43.817523512989283" lon="5.248395893722773">
        <ele>294.79998779296875</ele>
        <time>2014-12-08T12:33:48Z</time>
      </trkpt>
      <trkpt lat="43.817514628171921" lon="5.248483987525106">
        <ele>295</ele>
        <time>2014-12-08T12:33:50Z</time>
      </trkpt>
      <trkpt lat="43.817503396421671" lon="5.24861709214747">
        <ele>296.20001220703125</ele>
        <time>2014-12-08T12:33:54Z</time>
      </trkpt>
      <trkpt lat="43.817488308995962" lon="5.2487553935498">
        <ele>297.20001220703125</ele>
        <time>2014-12-08T12:33:59Z</time>
      </trkpt>
      <trkpt lat="43.81748428568244" lon="5.248845079913735">
        <ele>297.60000610351562</ele>
        <time>2014-12-08T12:34:02Z</time>
      </trkpt>
      <trkpt lat="43.8174759875983" lon="5.248961839824915">
        <ele>298.39999389648437</ele>
        <time>2014-12-08T12:34:06Z</time>
      </trkpt>
      <trkpt lat="43.817465091124177" lon="5.249058231711388">
        <ele>299.20001220703125</ele>
        <time>2014-12-08T12:34:10Z</time>
      </trkpt>
      <trkpt lat="43.817461906000972" lon="5.249111875891686">
        <ele>299.79998779296875</ele>
        <time>2014-12-08T12:34:12Z</time>
      </trkpt>
      <trkpt lat="43.817453691735864" lon="5.249224277213216">
        <ele>300.79998779296875</ele>
        <time>2014-12-08T12:34:17Z</time>
      </trkpt>
      <trkpt lat="43.817440867424011" lon="5.249348413199186">
        <ele>302</ele>
        <time>2014-12-08T12:34:23Z</time>
      </trkpt>
      <trkpt lat="43.817441202700138" lon="5.24937255308032">
        <ele>302.20001220703125</ele>
        <time>2014-12-08T12:34:24Z</time>
      </trkpt>
      <trkpt lat="43.817436089739203" lon="5.249460227787495">
        <ele>303.20001220703125</ele>
        <time>2014-12-08T12:34:29Z</time>
      </trkpt>
      <trkpt lat="43.817435335367918" lon="5.249501131474972">
        <ele>303.60000610351562</ele>
        <time>2014-12-08T12:34:31Z</time>
      </trkpt>
      <trkpt lat="43.817435838282108" lon="5.24959048256278">
        <ele>304.39999389648437</ele>
        <time>2014-12-08T12:34:35Z</time>
      </trkpt>
      <trkpt lat="43.817431898787618" lon="5.249626524746418">
        <ele>304.79998779296875</ele>
        <time>2014-12-08T12:34:37Z</time>
      </trkpt>
      <trkpt lat="43.817428881302476" lon="5.249657621607184">
        <ele>305.20001220703125</ele>
        <time>2014-12-08T12:34:39Z</time>
      </trkpt>
      <trkpt lat="43.817425696179271" lon="5.249689808115363">
        <ele>305.39999389648437</ele>
        <time>2014-12-08T12:34:41Z</time>
      </trkpt>
      <trkpt lat="43.817416559904814" lon="5.249783853068948">
        <ele>306.79998779296875</ele>
        <time>2014-12-08T12:34:46Z</time>
      </trkpt>
      <trkpt lat="43.817415470257401" lon="5.249803885817528">
        <ele>307</ele>
        <time>2014-12-08T12:34:47Z</time>
      </trkpt>
      <trkpt lat="43.817411363124847" lon="5.24983967654407">
        <ele>307.79998779296875</ele>
        <time>2014-12-08T12:34:49Z</time>
      </trkpt>
      <trkpt lat="43.817396191880107" lon="5.249940259382129">
        <ele>308.79998779296875</ele>
        <time>2014-12-08T12:34:55Z</time>
      </trkpt>
      <trkpt lat="43.817388815805316" lon="5.250016283243895">
        <ele>309.79998779296875</ele>
        <time>2014-12-08T12:34:59Z</time>
      </trkpt>
      <trkpt lat="43.817389402538538" lon="5.250035477802157">
        <ele>310.39999389648437</ele>
        <time>2014-12-08T12:35:00Z</time>
      </trkpt>
      <trkpt lat="43.81738705560565" lon="5.250070262700319">
        <ele>310.79998779296875</ele>
        <time>2014-12-08T12:35:02Z</time>
      </trkpt>
      <trkpt lat="43.817375488579273" lon="5.250123906880617">
        <ele>311.39999389648437</ele>
        <time>2014-12-08T12:35:05Z</time>
      </trkpt>
      <trkpt lat="43.817374985665083" lon="5.250216610729694">
        <ele>312.20001220703125</ele>
        <time>2014-12-08T12:35:10Z</time>
      </trkpt>
      <trkpt lat="43.817379847168922" lon="5.250249467790127">
        <ele>312.79998779296875</ele>
        <time>2014-12-08T12:35:32Z</time>
      </trkpt>
      <trkpt lat="43.817380266264081" lon="5.250266483053565">
        <ele>312.79998779296875</ele>
        <time>2014-12-08T12:35:33Z</time>
      </trkpt>
      <trkpt lat="43.81736702285707" lon="5.250365138053894">
        <ele>313.60000610351562</ele>
        <time>2014-12-08T12:35:37Z</time>
      </trkpt>
      <trkpt lat="43.817358054220676" lon="5.25041819550097">
        <ele>314.20001220703125</ele>
        <time>2014-12-08T12:35:39Z</time>
      </trkpt>
      <trkpt lat="43.817347744479775" lon="5.250461027026177">
        <ele>314.79998779296875</ele>
        <time>2014-12-08T12:35:41Z</time>
      </trkpt>
      <trkpt lat="43.817334417253733" lon="5.250514755025506">
        <ele>315.20001220703125</ele>
        <time>2014-12-08T12:35:44Z</time>
      </trkpt>
      <trkpt lat="43.817336596548557" lon="5.250536547973752">
        <ele>315.20001220703125</ele>
        <time>2014-12-08T12:35:45Z</time>
      </trkpt>
      <trkpt lat="43.817329639568925" lon="5.250605782493949">
        <ele>315.60000610351562</ele>
        <time>2014-12-08T12:35:48Z</time>
      </trkpt>
      <trkpt lat="43.817316479980946" lon="5.250682979822159">
        <ele>315.60000610351562</ele>
        <time>2014-12-08T12:35:51Z</time>
      </trkpt>
      <trkpt lat="43.817292843014002" lon="5.250920942053199">
        <ele>315.60000610351562</ele>
        <time>2014-12-08T12:35:57Z</time>
      </trkpt>
      <trkpt lat="43.817287730053067" lon="5.251247668638825">
        <ele>315.39999389648437</ele>
        <time>2014-12-08T12:36:02Z</time>
      </trkpt>
      <trkpt lat="43.817283706739545" lon="5.251318328082562">
        <ele>315.39999389648437</ele>
        <time>2014-12-08T12:36:03Z</time>
      </trkpt>
      <trkpt lat="43.817272977903485" lon="5.251593254506588">
        <ele>315.60000610351562</ele>
        <time>2014-12-08T12:36:07Z</time>
      </trkpt>
      <trkpt lat="43.817272307351232" lon="5.251656956970692">
        <ele>315.79998779296875</ele>
        <time>2014-12-08T12:36:08Z</time>
      </trkpt>
      <trkpt lat="43.817271804437041" lon="5.251902127638459">
        <ele>316.20001220703125</ele>
        <time>2014-12-08T12:36:12Z</time>
      </trkpt>
      <trkpt lat="43.817248502746224" lon="5.25229012593627">
        <ele>315.79998779296875</ele>
        <time>2014-12-08T12:36:19Z</time>
      </trkpt>
      <trkpt lat="43.817249508574605" lon="5.252764206379652">
        <ele>315</ele>
        <time>2014-12-08T12:36:26Z</time>
      </trkpt>
      <trkpt lat="43.817277923226357" lon="5.253018094226718">
        <ele>316</ele>
        <time>2014-12-08T12:36:31Z</time>
      </trkpt>
      <trkpt lat="43.817314887419343" lon="5.253177518025041">
        <ele>316.79998779296875</ele>
        <time>2014-12-08T12:36:35Z</time>
      </trkpt>
      <trkpt lat="43.817330896854401" lon="5.253345407545567">
        <ele>317.20001220703125</ele>
        <time>2014-12-08T12:36:39Z</time>
      </trkpt>
      <trkpt lat="43.817336848005652" lon="5.253583788871765">
        <ele>318</ele>
        <time>2014-12-08T12:36:44Z</time>
      </trkpt>
      <trkpt lat="43.817341458052397" lon="5.253635589033365">
        <ele>318</ele>
        <time>2014-12-08T12:36:45Z</time>
      </trkpt>
      <trkpt lat="43.817374147474766" lon="5.254042278975248">
        <ele>318.20001220703125</ele>
        <time>2014-12-08T12:36:53Z</time>
      </trkpt>
      <trkpt lat="43.817358305677772" lon="5.254357270896435">
        <ele>318.79998779296875</ele>
        <time>2014-12-08T12:37:00Z</time>
      </trkpt>
      <trkpt lat="43.81729518994689" lon="5.254677962511778">
        <ele>319</ele>
        <time>2014-12-08T12:37:06Z</time>
      </trkpt>
      <trkpt lat="43.817264679819345" lon="5.254789693281055">
        <ele>319</ele>
        <time>2014-12-08T12:37:08Z</time>
      </trkpt>
      <trkpt lat="43.817229978740215" lon="5.254896143451333">
        <ele>319</ele>
        <time>2014-12-08T12:37:10Z</time>
      </trkpt>
      <trkpt lat="43.817219752818346" lon="5.254957163706422">
        <ele>319.20001220703125</ele>
        <time>2014-12-08T12:37:11Z</time>
      </trkpt>
      <trkpt lat="43.817194271832705" lon="5.255198227241635">
        <ele>320.20001220703125</ele>
        <time>2014-12-08T12:37:16Z</time>
      </trkpt>
      <trkpt lat="43.817235510796309" lon="5.255393274128437">
        <ele>320.20001220703125</ele>
        <time>2014-12-08T12:37:21Z</time>
      </trkpt>
      <trkpt lat="43.817231906577945" lon="5.255601899698377">
        <ele>319.79998779296875</ele>
        <time>2014-12-08T12:37:25Z</time>
      </trkpt>
      <trkpt lat="43.817192511633039" lon="5.255759982392192">
        <ele>320.60000610351562</ele>
        <time>2014-12-08T12:37:30Z</time>
      </trkpt>
      <trkpt lat="43.817185889929533" lon="5.255868528038263">
        <ele>321.20001220703125</ele>
        <time>2014-12-08T12:37:34Z</time>
      </trkpt>
      <trkpt lat="43.817179435864091" lon="5.25591135956347">
        <ele>321.20001220703125</ele>
        <time>2014-12-08T12:37:35Z</time>
      </trkpt>
      <trkpt lat="43.817163677886128" lon="5.256147477775812">
        <ele>321.39999389648437</ele>
        <time>2014-12-08T12:37:40Z</time>
      </trkpt>
      <trkpt lat="43.817178597673774" lon="5.256362725049257">
        <ele>322.39999389648438</ele>
        <time>2014-12-08T12:37:45Z</time>
      </trkpt>
      <trkpt lat="43.817189494147897" lon="5.256480658426881">
        <ele>323.20001220703125</ele>
        <time>2014-12-08T12:37:48Z</time>
      </trkpt>
      <trkpt lat="43.81719552911818" lon="5.256556263193488">
        <ele>323.39999389648437</ele>
        <time>2014-12-08T12:37:50Z</time>
      </trkpt>
      <trkpt lat="43.817201731726527" lon="5.256706215441227">
        <ele>324.39999389648437</ele>
        <time>2014-12-08T12:37:54Z</time>
      </trkpt>
      <trkpt lat="43.817201061174273" lon="5.256744688376784">
        <ele>324.60000610351562</ele>
        <time>2014-12-08T12:37:55Z</time>
      </trkpt>
      <trkpt lat="43.817164516076446" lon="5.256924144923687">
        <ele>325.79998779296875</ele>
        <time>2014-12-08T12:38:00Z</time>
      </trkpt>
      <trkpt lat="43.8171202596277" lon="5.257180882617831">
        <ele>326.20001220703125</ele>
        <time>2014-12-08T12:38:07Z</time>
      </trkpt>
      <trkpt lat="43.81710022687912" lon="5.257485564798117">
        <ele>326.60000610351562</ele>
        <time>2014-12-08T12:38:14Z</time>
      </trkpt>
      <trkpt lat="43.817040212452412" lon="5.257715480402112">
        <ele>326.39999389648437</ele>
        <time>2014-12-08T12:38:19Z</time>
      </trkpt>
      <trkpt lat="43.816961338743567" lon="5.25799342431128">
        <ele>326.20001220703125</ele>
        <time>2014-12-08T12:38:25Z</time>
      </trkpt>
      <trkpt lat="43.816894115880132" lon="5.258382512256503">
        <ele>326.60000610351562</ele>
        <time>2014-12-08T12:38:33Z</time>
      </trkpt>
      <trkpt lat="43.816888751462102" lon="5.258504888042808">
        <ele>327.20001220703125</ele>
        <time>2014-12-08T12:38:36Z</time>
      </trkpt>
      <trkpt lat="43.816884476691484" lon="5.258566495031118">
        <ele>327.60000610351562</ele>
        <time>2014-12-08T12:38:38Z</time>
      </trkpt>
      <trkpt lat="43.816875340417027" lon="5.258704712614417">
        <ele>328.39999389648437</ele>
        <time>2014-12-08T12:38:42Z</time>
      </trkpt>
      <trkpt lat="43.816872658208013" lon="5.2588558383286">
        <ele>328.60000610351562</ele>
        <time>2014-12-08T12:38:46Z</time>
      </trkpt>
      <trkpt lat="43.816876346245408" lon="5.25899950414896">
        <ele>329.39999389648437</ele>
        <time>2014-12-08T12:38:52Z</time>
      </trkpt>
      <trkpt lat="43.816862432286143" lon="5.259157000109553">
        <ele>329.79998779296875</ele>
        <time>2014-12-08T12:38:57Z</time>
      </trkpt>
      <trkpt lat="43.816828485578299" lon="5.259380042552948">
        <ele>330.39999389648438</ele>
        <time>2014-12-08T12:39:02Z</time>
      </trkpt>
      <trkpt lat="43.816821947693825" lon="5.259438464418054">
        <ele>330.39999389648438</ele>
        <time>2014-12-08T12:39:03Z</time>
      </trkpt>
      <trkpt lat="43.816796969622374" lon="5.259886058047414">
        <ele>331.20001220703125</ele>
        <time>2014-12-08T12:39:11Z</time>
      </trkpt>
      <trkpt lat="43.81677576340735" lon="5.260013211518526">
        <ele>331.60000610351562</ele>
        <time>2014-12-08T12:39:14Z</time>
      </trkpt>
      <trkpt lat="43.816754641011357" lon="5.260131228715181">
        <ele>332.20001220703125</ele>
        <time>2014-12-08T12:39:17Z</time>
      </trkpt>
      <trkpt lat="43.816725891083479" lon="5.260215969756246">
        <ele>332.79998779296875</ele>
        <time>2014-12-08T12:39:20Z</time>
      </trkpt>
      <trkpt lat="43.816700158640742" lon="5.260296016931534">
        <ele>333.60000610351562</ele>
        <time>2014-12-08T12:39:23Z</time>
      </trkpt>
      <trkpt lat="43.816682975739241" lon="5.260343458503485">
        <ele>334.20001220703125</ele>
        <time>2014-12-08T12:39:25Z</time>
      </trkpt>
      <trkpt lat="43.816631343215704" lon="5.260481843724847">
        <ele>335</ele>
        <time>2014-12-08T12:39:31Z</time>
      </trkpt>
      <trkpt lat="43.816606951877475" lon="5.260534398257732">
        <ele>335.20001220703125</ele>
        <time>2014-12-08T12:39:33Z</time>
      </trkpt>
      <trkpt lat="43.816534616053104" lon="5.260667251423001">
        <ele>335.60000610351562</ele>
        <time>2014-12-08T12:39:38Z</time>
      </trkpt>
      <trkpt lat="43.816465968266129" lon="5.260786106809974">
        <ele>336.39999389648438</ele>
        <time>2014-12-08T12:39:43Z</time>
      </trkpt>
      <trkpt lat="43.81645473651588" lon="5.260810414329171">
        <ele>336.60000610351562</ele>
        <time>2014-12-08T12:39:44Z</time>
      </trkpt>
      <trkpt lat="43.816407881677151" lon="5.260901693254709">
        <ele>337.60000610351562</ele>
        <time>2014-12-08T12:39:49Z</time>
      </trkpt>
      <trkpt lat="43.816384663805366" lon="5.260937064886093">
        <ele>337.79998779296875</ele>
        <time>2014-12-08T12:39:51Z</time>
      </trkpt>
      <trkpt lat="43.816274525597692" lon="5.261099841445684">
        <ele>337.79998779296875</ele>
        <time>2014-12-08T12:39:56Z</time>
      </trkpt>
      <trkpt lat="43.816250301897526" lon="5.261157341301441">
        <ele>337.79998779296875</ele>
        <time>2014-12-08T12:39:57Z</time>
      </trkpt>
      <trkpt lat="43.816238399595022" lon="5.261344006285071">
        <ele>337.39999389648437</ele>
        <time>2014-12-08T12:40:00Z</time>
      </trkpt>
      <trkpt lat="43.816267400979996" lon="5.261460263282061">
        <ele>337.20001220703125</ele>
        <time>2014-12-08T12:40:02Z</time>
      </trkpt>
      <trkpt lat="43.816323559731245" lon="5.261732339859009">
        <ele>337.39999389648437</ele>
        <time>2014-12-08T12:40:07Z</time>
      </trkpt>
      <trkpt lat="43.816358093172312" lon="5.262077422812581">
        <ele>338.20001220703125</ele>
        <time>2014-12-08T12:40:14Z</time>
      </trkpt>
      <trkpt lat="43.816367564722896" lon="5.262278001755476">
        <ele>338.60000610351562</ele>
        <time>2014-12-08T12:40:19Z</time>
      </trkpt>
      <trkpt lat="43.816357087343931" lon="5.262375483289361">
        <ele>339.20001220703125</ele>
        <time>2014-12-08T12:40:22Z</time>
      </trkpt>
      <trkpt lat="43.816348118707538" lon="5.26246827095747">
        <ele>339.60000610351562</ele>
        <time>2014-12-08T12:40:25Z</time>
      </trkpt>
      <trkpt lat="43.816340239718556" lon="5.262568602338433">
        <ele>340.20001220703125</ele>
        <time>2014-12-08T12:40:28Z</time>
      </trkpt>
      <trkpt lat="43.816335126757622" lon="5.26263683103025">
        <ele>340.60000610351562</ele>
        <time>2014-12-08T12:40:30Z</time>
      </trkpt>
      <trkpt lat="43.816330349072814" lon="5.262765493243933">
        <ele>341.79998779296875</ele>
        <time>2014-12-08T12:40:34Z</time>
      </trkpt>
      <trkpt lat="43.816330097615719" lon="5.262793069705367">
        <ele>342</ele>
        <time>2014-12-08T12:40:35Z</time>
      </trkpt>
      <trkpt lat="43.816315094009042" lon="5.263006137683988">
        <ele>342.60000610351562</ele>
        <time>2014-12-08T12:40:41Z</time>
      </trkpt>
      <trkpt lat="43.816281147301197" lon="5.263280896469951">
        <ele>342.60000610351562</ele>
        <time>2014-12-08T12:40:47Z</time>
      </trkpt>
      <trkpt lat="43.816223395988345" lon="5.263593206182122">
        <ele>342.20001220703125</ele>
        <time>2014-12-08T12:40:52Z</time>
      </trkpt>
      <trkpt lat="43.816210320219398" lon="5.263681299984455">
        <ele>342</ele>
        <time>2014-12-08T12:40:53Z</time>
      </trkpt>
      <trkpt lat="43.816209146752954" lon="5.263885231688619">
        <ele>341.79998779296875</ele>
        <time>2014-12-08T12:40:55Z</time>
      </trkpt>
      <trkpt lat="43.816226748749614" lon="5.264199888333678">
        <ele>340.39999389648437</ele>
        <time>2014-12-08T12:40:58Z</time>
      </trkpt>
      <trkpt lat="43.816252648830414" lon="5.264402646571398">
        <ele>339.20001220703125</ele>
        <time>2014-12-08T12:41:00Z</time>
      </trkpt>
      <trkpt lat="43.816267903894186" lon="5.264504570513964">
        <ele>338.39999389648437</ele>
        <time>2014-12-08T12:41:01Z</time>
      </trkpt>
      <trkpt lat="43.816309394314885" lon="5.264714704826474">
        <ele>338</ele>
        <time>2014-12-08T12:41:03Z</time>
      </trkpt>
      <trkpt lat="43.816398326307535" lon="5.265143774449825">
        <ele>336.79998779296875</ele>
        <time>2014-12-08T12:41:07Z</time>
      </trkpt>
      <trkpt lat="43.816419029608369" lon="5.265245279297233">
        <ele>336.60000610351562</ele>
        <time>2014-12-08T12:41:08Z</time>
      </trkpt>
      <trkpt lat="43.816459765657783" lon="5.265432363376021">
        <ele>335.60000610351562</ele>
        <time>2014-12-08T12:41:10Z</time>
      </trkpt>
      <trkpt lat="43.816537046805024" lon="5.265780547633767">
        <ele>334.60000610351562</ele>
        <time>2014-12-08T12:41:14Z</time>
      </trkpt>
      <trkpt lat="43.816559929400682" lon="5.26593754068017">
        <ele>333.39999389648438</ele>
        <time>2014-12-08T12:41:16Z</time>
      </trkpt>
      <trkpt lat="43.816574010998011" lon="5.266247168183327">
        <ele>333</ele>
        <time>2014-12-08T12:41:20Z</time>
      </trkpt>
      <trkpt lat="43.816593876108527" lon="5.266950409859419">
        <ele>332.60000610351562</ele>
        <time>2014-12-08T12:41:29Z</time>
      </trkpt>
      <trkpt lat="43.816602090373635" lon="5.267021656036377">
        <ele>332.60000610351562</ele>
        <time>2014-12-08T12:41:30Z</time>
      </trkpt>
      <trkpt lat="43.816655483096838" lon="5.267129363492131">
        <ele>332.39999389648437</ele>
        <time>2014-12-08T12:41:32Z</time>
      </trkpt>
      <trkpt lat="43.816795712336898" lon="5.26722508482635">
        <ele>332.39999389648437</ele>
        <time>2014-12-08T12:41:35Z</time>
      </trkpt>
      <trkpt lat="43.816934516653419" lon="5.267295995727181">
        <ele>331.20001220703125</ele>
        <time>2014-12-08T12:41:38Z</time>
      </trkpt>
      <trkpt lat="43.817052533850074" lon="5.267328517511487">
        <ele>330.60000610351562</ele>
        <time>2014-12-08T12:41:41Z</time>
      </trkpt>
      <trkpt lat="43.817099640145898" lon="5.267355423420668">
        <ele>330.20001220703125</ele>
        <time>2014-12-08T12:41:43Z</time>
      </trkpt>
      <trkpt lat="43.817119169980288" lon="5.267426669597626">
        <ele>330.20001220703125</ele>
        <time>2014-12-08T12:41:45Z</time>
      </trkpt>
      <trkpt lat="43.817139118909836" lon="5.267551392316818">
        <ele>330.60000610351562</ele>
        <time>2014-12-08T12:41:48Z</time>
      </trkpt>
      <trkpt lat="43.817169461399317" lon="5.267734285444021">
        <ele>331.20001220703125</ele>
        <time>2014-12-08T12:41:52Z</time>
      </trkpt>
      <trkpt lat="43.817171389237046" lon="5.268062856048346">
        <ele>332.60000610351562</ele>
        <time>2014-12-08T12:41:59Z</time>
      </trkpt>
      <trkpt lat="43.817137023434043" lon="5.268288413062692">
        <ele>333.60000610351562</ele>
        <time>2014-12-08T12:42:04Z</time>
      </trkpt>
      <trkpt lat="43.817108944058418" lon="5.268417075276375">
        <ele>334</ele>
        <time>2014-12-08T12:42:07Z</time>
      </trkpt>
      <trkpt lat="43.817087905481458" lon="5.268544396385551">
        <ele>334.60000610351562</ele>
        <time>2014-12-08T12:42:10Z</time>
      </trkpt>
      <trkpt lat="43.817061921581626" lon="5.268711363896728">
        <ele>335.60000610351562</ele>
        <time>2014-12-08T12:42:14Z</time>
      </trkpt>
      <trkpt lat="43.817034177482128" lon="5.268906494602561">
        <ele>336.60000610351562</ele>
        <time>2014-12-08T12:42:19Z</time>
      </trkpt>
      <trkpt lat="43.81703426130116" lon="5.26898411102593">
        <ele>337</ele>
        <time>2014-12-08T12:42:21Z</time>
      </trkpt>
      <trkpt lat="43.817048175260425" lon="5.269136661663652">
        <ele>337.60000610351562</ele>
        <time>2014-12-08T12:42:25Z</time>
      </trkpt>
      <trkpt lat="43.817072901874781" lon="5.269248811528087">
        <ele>338.39999389648437</ele>
        <time>2014-12-08T12:42:28Z</time>
      </trkpt>
      <trkpt lat="43.817100562155247" lon="5.269353417679668">
        <ele>338.60000610351562</ele>
        <time>2014-12-08T12:42:31Z</time>
      </trkpt>
      <trkpt lat="43.817144567146897" lon="5.269442349672318">
        <ele>339.20001220703125</ele>
        <time>2014-12-08T12:42:34Z</time>
      </trkpt>
      <trkpt lat="43.817195110023022" lon="5.269598672166467">
        <ele>339.79998779296875</ele>
        <time>2014-12-08T12:42:39Z</time>
      </trkpt>
      <trkpt lat="43.817215897142887" lon="5.269708642736077">
        <ele>340.20001220703125</ele>
        <time>2014-12-08T12:42:42Z</time>
      </trkpt>
      <trkpt lat="43.817230062559247" lon="5.269862031564117">
        <ele>340.79998779296875</ele>
        <time>2014-12-08T12:42:46Z</time>
      </trkpt>
      <trkpt lat="43.817223943769932" lon="5.269937384873629">
        <ele>341.20001220703125</ele>
        <time>2014-12-08T12:42:48Z</time>
      </trkpt>
      <trkpt lat="43.817186392843723" lon="5.270094294101">
        <ele>342</ele>
        <time>2014-12-08T12:42:52Z</time>
      </trkpt>
      <trkpt lat="43.817149428650737" lon="5.270196218043566">
        <ele>342.39999389648437</ele>
        <time>2014-12-08T12:42:55Z</time>
      </trkpt>
      <trkpt lat="43.817106345668435" lon="5.270294873043895">
        <ele>343</ele>
        <time>2014-12-08T12:42:58Z</time>
      </trkpt>
      <trkpt lat="43.817049348726869" lon="5.270433509722352">
        <ele>343.60000610351562</ele>
        <time>2014-12-08T12:43:02Z</time>
      </trkpt>
      <trkpt lat="43.817000901326537" lon="5.270528811961412">
        <ele>344</ele>
        <time>2014-12-08T12:43:05Z</time>
      </trkpt>
      <trkpt lat="43.81693066097796" lon="5.270689576864243">
        <ele>344.60000610351562</ele>
        <time>2014-12-08T12:43:10Z</time>
      </trkpt>
      <trkpt lat="43.816887829452753" lon="5.270778508856893">
        <ele>345.20001220703125</ele>
        <time>2014-12-08T12:43:13Z</time>
      </trkpt>
      <trkpt lat="43.816830161958933" lon="5.270926030352712">
        <ele>345.60000610351562</ele>
        <time>2014-12-08T12:43:18Z</time>
      </trkpt>
      <trkpt lat="43.816782971844077" lon="5.271052261814475">
        <ele>346.20001220703125</ele>
        <time>2014-12-08T12:43:22Z</time>
      </trkpt>
      <trkpt lat="43.816738380119205" lon="5.271138092502952">
        <ele>346.79998779296875</ele>
        <time>2014-12-08T12:43:25Z</time>
      </trkpt>
      <trkpt lat="43.816666463389993" lon="5.271282847970724">
        <ele>347.39999389648437</ele>
        <time>2014-12-08T12:43:30Z</time>
      </trkpt>
      <trkpt lat="43.816638048738241" lon="5.271339761093259">
        <ele>347.60000610351562</ele>
        <time>2014-12-08T12:43:32Z</time>
      </trkpt>
      <trkpt lat="43.816535454243422" lon="5.271572358906269">
        <ele>348.60000610351562</ele>
        <time>2014-12-08T12:43:39Z</time>
      </trkpt>
      <trkpt lat="43.816458759829402" lon="5.271779978647828">
        <ele>349.60000610351562</ele>
        <time>2014-12-08T12:43:45Z</time>
      </trkpt>
      <trkpt lat="43.816440487280488" lon="5.271811494603753">
        <ele>349.79998779296875</ele>
        <time>2014-12-08T12:43:46Z</time>
      </trkpt>
      <trkpt lat="43.816345436498523" lon="5.272005787119269">
        <ele>350.79998779296875</ele>
        <time>2014-12-08T12:43:52Z</time>
      </trkpt>
      <trkpt lat="43.816246865317225" lon="5.272233942523599">
        <ele>352</ele>
        <time>2014-12-08T12:43:59Z</time>
      </trkpt>
      <trkpt lat="43.816156927496195" lon="5.272429743781686">
        <ele>352.79998779296875</ele>
        <time>2014-12-08T12:44:05Z</time>
      </trkpt>
      <trkpt lat="43.816134128719568" lon="5.272499062120915">
        <ele>353.20001220703125</ele>
        <time>2014-12-08T12:44:07Z</time>
      </trkpt>
      <trkpt lat="43.816073192283511" lon="5.272633759304881">
        <ele>353.79998779296875</ele>
        <time>2014-12-08T12:44:11Z</time>
      </trkpt>
      <trkpt lat="43.816037401556969" lon="5.272704334929586">
        <ele>354.20001220703125</ele>
        <time>2014-12-08T12:44:13Z</time>
      </trkpt>
      <trkpt lat="43.815952911973" lon="5.272907763719559">
        <ele>354.60000610351562</ele>
        <time>2014-12-08T12:44:18Z</time>
      </trkpt>
      <trkpt lat="43.815790638327599" lon="5.273173972964287">
        <ele>354.60000610351562</ele>
        <time>2014-12-08T12:44:24Z</time>
      </trkpt>
      <trkpt lat="43.815532308071852" lon="5.273503717035055">
        <ele>354.39999389648437</ele>
        <time>2014-12-08T12:44:30Z</time>
      </trkpt>
      <trkpt lat="43.815335081890225" lon="5.273781744763255">
        <ele>354.39999389648437</ele>
        <time>2014-12-08T12:44:34Z</time>
      </trkpt>
      <trkpt lat="43.8152966927737" lon="5.273871682584286">
        <ele>354.20001220703125</ele>
        <time>2014-12-08T12:44:35Z</time>
      </trkpt>
      <trkpt lat="43.815218238160014" lon="5.274289269000292">
        <ele>352.79998779296875</ele>
        <time>2014-12-08T12:44:39Z</time>
      </trkpt>
      <trkpt lat="43.815198205411434" lon="5.274502923712134">
        <ele>351.60000610351562</ele>
        <time>2014-12-08T12:44:41Z</time>
      </trkpt>
      <trkpt lat="43.815148500725627" lon="5.275141624733806">
        <ele>350.39999389648438</ele>
        <time>2014-12-08T12:44:47Z</time>
      </trkpt>
      <trkpt lat="43.81513986736536" lon="5.275248493999243">
        <ele>349.79998779296875</ele>
        <time>2014-12-08T12:44:48Z</time>
      </trkpt>
      <trkpt lat="43.815130311995745" lon="5.275356452912092">
        <ele>349.20001220703125</ele>
        <time>2014-12-08T12:44:49Z</time>
      </trkpt>
      <trkpt lat="43.815109692513943" lon="5.275573125109077">
        <ele>348</ele>
        <time>2014-12-08T12:44:51Z</time>
      </trkpt>
      <trkpt lat="43.815059149637818" lon="5.27612591162324">
        <ele>346.79998779296875</ele>
        <time>2014-12-08T12:44:56Z</time>
      </trkpt>
      <trkpt lat="43.815046241506934" lon="5.276240324601531">
        <ele>346.20001220703125</ele>
        <time>2014-12-08T12:44:57Z</time>
      </trkpt>
      <trkpt lat="43.815016569569707" lon="5.276709878817201">
        <ele>345.60000610351562</ele>
        <time>2014-12-08T12:45:01Z</time>
      </trkpt>
      <trkpt lat="43.815022185444832" lon="5.276827393099666">
        <ele>344.79998779296875</ele>
        <time>2014-12-08T12:45:02Z</time>
      </trkpt>
      <trkpt lat="43.815037105232477" lon="5.276945158839226">
        <ele>343.60000610351562</ele>
        <time>2014-12-08T12:45:03Z</time>
      </trkpt>
      <trkpt lat="43.815094437450171" lon="5.277174739167094">
        <ele>342.20001220703125</ele>
        <time>2014-12-08T12:45:05Z</time>
      </trkpt>
      <trkpt lat="43.815133413299918" lon="5.277288565412164">
        <ele>341.79998779296875</ele>
        <time>2014-12-08T12:45:06Z</time>
      </trkpt>
      <trkpt lat="43.815175238996744" lon="5.277402307838202">
        <ele>341.20001220703125</ele>
        <time>2014-12-08T12:45:07Z</time>
      </trkpt>
      <trkpt lat="43.815285712480545" lon="5.277759712189436">
        <ele>341.20001220703125</ele>
        <time>2014-12-08T12:45:10Z</time>
      </trkpt>
      <trkpt lat="43.81532208994031" lon="5.278015527874231">
        <ele>341.20001220703125</ele>
        <time>2014-12-08T12:45:12Z</time>
      </trkpt>
      <trkpt lat="43.815362239256501" lon="5.278407968580723">
        <ele>340</ele>
        <time>2014-12-08T12:45:15Z</time>
      </trkpt>
      <trkpt lat="43.815388223156333" lon="5.278678452596068">
        <ele>338.20001220703125</ele>
        <time>2014-12-08T12:45:17Z</time>
      </trkpt>
      <trkpt lat="43.815403142943978" lon="5.279096625745297">
        <ele>336.79998779296875</ele>
        <time>2014-12-08T12:45:20Z</time>
      </trkpt>
      <trkpt lat="43.815389396622777" lon="5.279237944632769">
        <ele>336</ele>
        <time>2014-12-08T12:45:21Z</time>
      </trkpt>
      <trkpt lat="43.815361903980374" lon="5.279377335682511">
        <ele>335.20001220703125</ele>
        <time>2014-12-08T12:45:22Z</time>
      </trkpt>
      <trkpt lat="43.815325275063515" lon="5.279515134170651">
        <ele>334.79998779296875</ele>
        <time>2014-12-08T12:45:23Z</time>
      </trkpt>
      <trkpt lat="43.815166940912604" lon="5.280060209333897">
        <ele>334.20001220703125</ele>
        <time>2014-12-08T12:45:27Z</time>
      </trkpt>
      <trkpt lat="43.8150480017066" lon="5.280473520979285">
        <ele>333</ele>
        <time>2014-12-08T12:45:30Z</time>
      </trkpt>
      <trkpt lat="43.814957309514284" lon="5.280741406604648">
        <ele>331.79998779296875</ele>
        <time>2014-12-08T12:45:32Z</time>
      </trkpt>
      <trkpt lat="43.814834849908948" lon="5.280989930033684">
        <ele>331.60000610351562</ele>
        <time>2014-12-08T12:45:34Z</time>
      </trkpt>
      <trkpt lat="43.814760586246848" lon="5.281098475679755">
        <ele>331.39999389648437</ele>
        <time>2014-12-08T12:45:35Z</time>
      </trkpt>
      <trkpt lat="43.814398152753711" lon="5.281597450375557">
        <ele>331</ele>
        <time>2014-12-08T12:45:40Z</time>
      </trkpt>
      <trkpt lat="43.814368899911642" lon="5.281725525856018">
        <ele>330.60000610351562</ele>
        <time>2014-12-08T12:45:41Z</time>
      </trkpt>
      <trkpt lat="43.81436781026423" lon="5.28185754083097">
        <ele>329.79998779296875</ele>
        <time>2014-12-08T12:45:42Z</time>
      </trkpt>
      <trkpt lat="43.81438298150897" lon="5.281986873596907">
        <ele>328.79998779296875</ele>
        <time>2014-12-08T12:45:43Z</time>
      </trkpt>
      <trkpt lat="43.814409719780087" lon="5.282113440334797">
        <ele>327.79998779296875</ele>
        <time>2014-12-08T12:45:44Z</time>
      </trkpt>
      <trkpt lat="43.814438218250871" lon="5.28224260546267">
        <ele>327.20001220703125</ele>
        <time>2014-12-08T12:45:45Z</time>
      </trkpt>
      <trkpt lat="43.814503848552704" lon="5.28249423019588">
        <ele>327</ele>
        <time>2014-12-08T12:45:47Z</time>
      </trkpt>
      <trkpt lat="43.814553888514638" lon="5.282600009813905">
        <ele>326.39999389648437</ele>
        <time>2014-12-08T12:45:48Z</time>
      </trkpt>
      <trkpt lat="43.814618429169059" lon="5.282686594873667">
        <ele>325.20001220703125</ele>
        <time>2014-12-08T12:45:49Z</time>
      </trkpt>
      <trkpt lat="43.814691100269556" lon="5.282757421955466">
        <ele>323.79998779296875</ele>
        <time>2014-12-08T12:45:50Z</time>
      </trkpt>
      <trkpt lat="43.814765196293592" lon="5.282825483009219">
        <ele>323.20001220703125</ele>
        <time>2014-12-08T12:45:51Z</time>
      </trkpt>
      <trkpt lat="43.814840968698263" lon="5.282895471900702">
        <ele>322</ele>
        <time>2014-12-08T12:45:52Z</time>
      </trkpt>
      <trkpt lat="43.814912969246507" lon="5.282971831038594">
        <ele>320.60000610351562</ele>
        <time>2014-12-08T12:45:53Z</time>
      </trkpt>
      <trkpt lat="43.814980695024133" lon="5.283058416098356">
        <ele>319.79998779296875</ele>
        <time>2014-12-08T12:45:54Z</time>
      </trkpt>
      <trkpt lat="43.81504213437438" lon="5.28315438888967">
        <ele>319.20001220703125</ele>
        <time>2014-12-08T12:45:55Z</time>
      </trkpt>
      <trkpt lat="43.815143806859851" lon="5.283374162390828">
        <ele>318.39999389648437</ele>
        <time>2014-12-08T12:45:57Z</time>
      </trkpt>
      <trkpt lat="43.815199546515942" lon="5.283622602000833">
        <ele>318</ele>
        <time>2014-12-08T12:45:59Z</time>
      </trkpt>
      <trkpt lat="43.815211448818445" lon="5.283753527328372">
        <ele>318</ele>
        <time>2014-12-08T12:46:00Z</time>
      </trkpt>
      <trkpt lat="43.815212538465858" lon="5.284153427928686">
        <ele>317</ele>
        <time>2014-12-08T12:46:03Z</time>
      </trkpt>
      <trkpt lat="43.815208934247494" lon="5.284416703507304">
        <ele>315.79998779296875</ele>
        <time>2014-12-08T12:46:05Z</time>
      </trkpt>
      <trkpt lat="43.815209018066525" lon="5.284682409837842">
        <ele>314.79998779296875</ele>
        <time>2014-12-08T12:46:07Z</time>
      </trkpt>
      <trkpt lat="43.815204156562686" lon="5.285343490540981">
        <ele>313.60000610351562</ele>
        <time>2014-12-08T12:46:12Z</time>
      </trkpt>
      <trkpt lat="43.815198540687561" lon="5.285870544612408">
        <ele>312.60000610351562</ele>
        <time>2014-12-08T12:46:16Z</time>
      </trkpt>
      <trkpt lat="43.815197367221117" lon="5.286002056673169">
        <ele>312.39999389648437</ele>
        <time>2014-12-08T12:46:17Z</time>
      </trkpt>
      <trkpt lat="43.815180938690901" lon="5.286262482404709">
        <ele>311.20001220703125</ele>
        <time>2014-12-08T12:46:19Z</time>
      </trkpt>
      <trkpt lat="43.815156882628798" lon="5.286388546228409">
        <ele>310.20001220703125</ele>
        <time>2014-12-08T12:46:20Z</time>
      </trkpt>
      <trkpt lat="43.815114721655846" lon="5.286507233977318">
        <ele>309.20001220703125</ele>
        <time>2014-12-08T12:46:21Z</time>
      </trkpt>
      <trkpt lat="43.814962087199092" lon="5.286845527589321">
        <ele>308.79998779296875</ele>
        <time>2014-12-08T12:46:24Z</time>
      </trkpt>
      <trkpt lat="43.81492487154901" lon="5.286966310814023">
        <ele>308.60000610351562</ele>
        <time>2014-12-08T12:46:25Z</time>
      </trkpt>
      <trkpt lat="43.814880782738328" lon="5.287213744595647">
        <ele>307.60000610351562</ele>
        <time>2014-12-08T12:46:27Z</time>
      </trkpt>
      <trkpt lat="43.814862007275224" lon="5.287466878071427">
        <ele>306.79998779296875</ele>
        <time>2014-12-08T12:46:29Z</time>
      </trkpt>
      <trkpt lat="43.814871562644839" lon="5.287716407328844">
        <ele>306.39999389648437</ele>
        <time>2014-12-08T12:46:31Z</time>
      </trkpt>
      <trkpt lat="43.814929816871881" lon="5.287955459207296">
        <ele>306</ele>
        <time>2014-12-08T12:46:33Z</time>
      </trkpt>
      <trkpt lat="43.815123606473207" lon="5.288201048970223">
        <ele>306.20001220703125</ele>
        <time>2014-12-08T12:46:36Z</time>
      </trkpt>
      <trkpt lat="43.815196193754673" lon="5.288264667615295">
        <ele>305.20001220703125</ele>
        <time>2014-12-08T12:46:37Z</time>
      </trkpt>
      <trkpt lat="43.815272049978375" lon="5.288315797224641">
        <ele>302.79998779296875</ele>
        <time>2014-12-08T12:46:38Z</time>
      </trkpt>
      <trkpt lat="43.815500373020768" lon="5.288460301235318">
        <ele>303.20001220703125</ele>
        <time>2014-12-08T12:46:41Z</time>
      </trkpt>
      <trkpt lat="43.815848808735609" lon="5.288699101656675">
        <ele>302.39999389648438</ele>
        <time>2014-12-08T12:46:46Z</time>
      </trkpt>
      <trkpt lat="43.816041089594364" lon="5.28883270919323">
        <ele>301.60000610351562</ele>
        <time>2014-12-08T12:46:49Z</time>
      </trkpt>
      <trkpt lat="43.816216439008713" lon="5.288956509903073">
        <ele>300.79998779296875</ele>
        <time>2014-12-08T12:46:52Z</time>
      </trkpt>
      <trkpt lat="43.816331271082163" lon="5.289028845727444">
        <ele>300.39999389648437</ele>
        <time>2014-12-08T12:46:54Z</time>
      </trkpt>
      <trkpt lat="43.816443588584661" lon="5.289090536534786">
        <ele>299.39999389648438</ele>
        <time>2014-12-08T12:46:56Z</time>
      </trkpt>
      <trkpt lat="43.816499160602689" lon="5.289108557626605">
        <ele>299</ele>
        <time>2014-12-08T12:46:57Z</time>
      </trkpt>
      <trkpt lat="43.816555151715875" lon="5.289117693901062">
        <ele>299.39999389648438</ele>
        <time>2014-12-08T12:46:58Z</time>
      </trkpt>
      <trkpt lat="43.81666537374258" lon="5.289130518212915">
        <ele>300.39999389648437</ele>
        <time>2014-12-08T12:47:00Z</time>
      </trkpt>
      <trkpt lat="43.816874418407679" lon="5.289111323654652">
        <ele>300.60000610351562</ele>
        <time>2014-12-08T12:47:04Z</time>
      </trkpt>
      <trkpt lat="43.816922949627042" lon="5.289093889296055">
        <ele>299.79998779296875</ele>
        <time>2014-12-08T12:47:05Z</time>
      </trkpt>
      <trkpt lat="43.81697072647512" lon="5.289072012528777">
        <ele>298.79998779296875</ele>
        <time>2014-12-08T12:47:06Z</time>
      </trkpt>
      <trkpt lat="43.81710609421134" lon="5.28898861259222">
        <ele>298.39999389648437</ele>
        <time>2014-12-08T12:47:09Z</time>
      </trkpt>
      <trkpt lat="43.817351181060076" lon="5.288789877668023">
        <ele>298.60000610351562</ele>
        <time>2014-12-08T12:47:15Z</time>
      </trkpt>
      <trkpt lat="43.817525692284107" lon="5.288664819672704">
        <ele>298.20001220703125</ele>
        <time>2014-12-08T12:47:19Z</time>
      </trkpt>
      <trkpt lat="43.817621748894453" lon="5.288636153563857">
        <ele>298</ele>
        <time>2014-12-08T12:47:21Z</time>
      </trkpt>
      <trkpt lat="43.817718056961894" lon="5.288636321201921">
        <ele>298</ele>
        <time>2014-12-08T12:47:23Z</time>
      </trkpt>
      <trkpt lat="43.817813191562891" lon="5.288655515760183">
        <ele>298.60000610351562</ele>
        <time>2014-12-08T12:47:25Z</time>
      </trkpt>
      <trkpt lat="43.817859375849366" lon="5.288668340072036">
        <ele>298.60000610351562</ele>
        <time>2014-12-08T12:47:26Z</time>
      </trkpt>
      <trkpt lat="43.818140337243676" lon="5.288816699758172">
        <ele>298.79998779296875</ele>
        <time>2014-12-08T12:47:33Z</time>
      </trkpt>
      <trkpt lat="43.818269418552518" lon="5.28902524150908">
        <ele>299.20001220703125</ele>
        <time>2014-12-08T12:47:38Z</time>
      </trkpt>
      <trkpt lat="43.818302610889077" lon="5.289120962843299">
        <ele>298.79998779296875</ele>
        <time>2014-12-08T12:47:40Z</time>
      </trkpt>
      <trkpt lat="43.818387687206268" lon="5.289422459900379">
        <ele>299.20001220703125</ele>
        <time>2014-12-08T12:47:46Z</time>
      </trkpt>
      <trkpt lat="43.818510565906763" lon="5.289783887565136">
        <ele>300</ele>
        <time>2014-12-08T12:47:54Z</time>
      </trkpt>
      <trkpt lat="43.818532526493073" lon="5.289828144013882">
        <ele>300.20001220703125</ele>
        <time>2014-12-08T12:47:55Z</time>
      </trkpt>
      <trkpt lat="43.818668397143483" lon="5.290092509239912">
        <ele>301.20001220703125</ele>
        <time>2014-12-08T12:48:01Z</time>
      </trkpt>
      <trkpt lat="43.81871659308672" lon="5.290173143148422">
        <ele>301.39999389648437</ele>
        <time>2014-12-08T12:48:03Z</time>
      </trkpt>
      <trkpt lat="43.818848608061671" lon="5.290414793416858">
        <ele>302.39999389648438</ele>
        <time>2014-12-08T12:48:09Z</time>
      </trkpt>
      <trkpt lat="43.818936282768846" lon="5.290576815605164">
        <ele>302</ele>
        <time>2014-12-08T12:48:13Z</time>
      </trkpt>
      <trkpt lat="43.819140549749136" lon="5.290872110053897">
        <ele>302.60000610351562</ele>
        <time>2014-12-08T12:48:21Z</time>
      </trkpt>
      <trkpt lat="43.819344229996204" lon="5.291084423661232">
        <ele>303</ele>
        <time>2014-12-08T12:48:28Z</time>
      </trkpt>
      <trkpt lat="43.819550843909383" lon="5.291315345093608">
        <ele>303.20001220703125</ele>
        <time>2014-12-08T12:48:35Z</time>
      </trkpt>
      <trkpt lat="43.819615887477994" lon="5.291387848556042">
        <ele>303.39999389648437</ele>
        <time>2014-12-08T12:48:37Z</time>
      </trkpt>
      <trkpt lat="43.819751925766468" lon="5.291554816067219">
        <ele>304</ele>
        <time>2014-12-08T12:48:41Z</time>
      </trkpt>
      <trkpt lat="43.819936998188496" lon="5.291906604543328">
        <ele>304.60000610351562</ele>
        <time>2014-12-08T12:48:48Z</time>
      </trkpt>
      <trkpt lat="43.819957198575139" lon="5.291961254552007">
        <ele>304.60000610351562</ele>
        <time>2014-12-08T12:48:49Z</time>
      </trkpt>
      <trkpt lat="43.820008914917707" lon="5.292120343074203">
        <ele>305.60000610351562</ele>
        <time>2014-12-08T12:48:52Z</time>
      </trkpt>
      <trkpt lat="43.820058619603515" lon="5.292313797399402">
        <ele>306.79998779296875</ele>
        <time>2014-12-08T12:48:56Z</time>
      </trkpt>
      <trkpt lat="43.820105642080307" lon="5.292583610862494">
        <ele>308</ele>
        <time>2014-12-08T12:49:02Z</time>
      </trkpt>
      <trkpt lat="43.820109497755766" lon="5.292627867311239">
        <ele>308.20001220703125</ele>
        <time>2014-12-08T12:49:03Z</time>
      </trkpt>
      <trkpt lat="43.82014587521553" lon="5.292876809835434">
        <ele>309.20001220703125</ele>
        <time>2014-12-08T12:49:09Z</time>
      </trkpt>
      <trkpt lat="43.820154340937734" lon="5.292919557541609">
        <ele>309.39999389648437</ele>
        <time>2014-12-08T12:49:10Z</time>
      </trkpt>
      <trkpt lat="43.820240758359432" lon="5.293218707665801">
        <ele>310.39999389648437</ele>
        <time>2014-12-08T12:49:17Z</time>
      </trkpt>
      <trkpt lat="43.82036087103188" lon="5.293539399281144">
        <ele>311.39999389648437</ele>
        <time>2014-12-08T12:49:25Z</time>
      </trkpt>
      <trkpt lat="43.82037453353405" lon="5.293579967692494">
        <ele>311.79998779296875</ele>
        <time>2014-12-08T12:49:26Z</time>
      </trkpt>
      <trkpt lat="43.820452569052577" lon="5.293870232999325">
        <ele>312.60000610351562</ele>
        <time>2014-12-08T12:49:33Z</time>
      </trkpt>
      <trkpt lat="43.820458436384797" lon="5.293965367600322">
        <ele>313</ele>
        <time>2014-12-08T12:49:35Z</time>
      </trkpt>
      <trkpt lat="43.820454748347402" lon="5.29429410584271">
        <ele>313.60000610351562</ele>
        <time>2014-12-08T12:49:42Z</time>
      </trkpt>
      <trkpt lat="43.820454748347402" lon="5.294337440282106">
        <ele>313.60000610351562</ele>
        <time>2014-12-08T12:49:43Z</time>
      </trkpt>
      <trkpt lat="43.82045466452837" lon="5.294608343392611">
        <ele>314.60000610351562</ele>
        <time>2014-12-08T12:49:50Z</time>
      </trkpt>
      <trkpt lat="43.820453155785799" lon="5.29470113106072">
        <ele>315.20001220703125</ele>
        <time>2014-12-08T12:49:52Z</time>
      </trkpt>
      <trkpt lat="43.820451814681292" lon="5.29479693621397">
        <ele>315.79998779296875</ele>
        <time>2014-12-08T12:49:54Z</time>
      </trkpt>
      <trkpt lat="43.820446701720357" lon="5.295099271461368">
        <ele>316.79998779296875</ele>
        <time>2014-12-08T12:50:00Z</time>
      </trkpt>
      <trkpt lat="43.820452401414514" lon="5.295594222843647">
        <ele>316.20001220703125</ele>
        <time>2014-12-08T12:50:10Z</time>
      </trkpt>
      <trkpt lat="43.820424154400826" lon="5.29598381370306">
        <ele>317.60000610351562</ele>
        <time>2014-12-08T12:50:18Z</time>
      </trkpt>
      <trkpt lat="43.820395907387137" lon="5.29612454585731">
        <ele>318</ele>
        <time>2014-12-08T12:50:21Z</time>
      </trkpt>
      <trkpt lat="43.820362882688642" lon="5.296303499490023">
        <ele>318</ele>
        <time>2014-12-08T12:50:25Z</time>
      </trkpt>
      <trkpt lat="43.820292977616191" lon="5.296636261045933">
        <ele>318.79998779296875</ele>
        <time>2014-12-08T12:50:32Z</time>
      </trkpt>
      <trkpt lat="43.820274621248245" lon="5.296738101169467">
        <ele>319</ele>
        <time>2014-12-08T12:50:34Z</time>
      </trkpt>
      <trkpt lat="43.820201614871621" lon="5.297127021476626">
        <ele>319.60000610351562</ele>
        <time>2014-12-08T12:50:41Z</time>
      </trkpt>
      <trkpt lat="43.820175798609853" lon="5.297363642603159">
        <ele>319.39999389648438</ele>
        <time>2014-12-08T12:50:45Z</time>
      </trkpt>
      <trkpt lat="43.820166327059269" lon="5.297484928742051">
        <ele>319.60000610351562</ele>
        <time>2014-12-08T12:50:47Z</time>
      </trkpt>
      <trkpt lat="43.82022550329566" lon="5.297698667272925">
        <ele>320</ele>
        <time>2014-12-08T12:50:51Z</time>
      </trkpt>
      <trkpt lat="43.82024503313005" lon="5.297743510454893">
        <ele>320.20001220703125</ele>
        <time>2014-12-08T12:50:52Z</time>
      </trkpt>
      <trkpt lat="43.82036036811769" lon="5.297919111326337">
        <ele>320.79998779296875</ele>
        <time>2014-12-08T12:50:57Z</time>
      </trkpt>
      <trkpt lat="43.820487940683961" lon="5.298120947554708">
        <ele>321</ele>
        <time>2014-12-08T12:51:03Z</time>
      </trkpt>
      <trkpt lat="43.82053873501718" lon="5.298259248957038">
        <ele>321.20001220703125</ele>
        <time>2014-12-08T12:51:06Z</time>
      </trkpt>
      <trkpt lat="43.820603359490633" lon="5.298454128205776">
        <ele>321.60000610351562</ele>
        <time>2014-12-08T12:51:10Z</time>
      </trkpt>
      <trkpt lat="43.820666391402483" lon="5.298689072951675">
        <ele>322.20001220703125</ele>
        <time>2014-12-08T12:51:15Z</time>
      </trkpt>
      <trkpt lat="43.820697404444218" lon="5.298784207552671">
        <ele>322.39999389648438</ele>
        <time>2014-12-08T12:51:17Z</time>
      </trkpt>
      <trkpt lat="43.82079379633069" lon="5.299166841432452">
        <ele>323</ele>
        <time>2014-12-08T12:51:25Z</time>
      </trkpt>
      <trkpt lat="43.82081039249897" lon="5.299266837537289">
        <ele>323.39999389648437</ele>
        <time>2014-12-08T12:51:27Z</time>
      </trkpt>
      <trkpt lat="43.820849871262908" lon="5.299648214131594">
        <ele>324.20001220703125</ele>
        <time>2014-12-08T12:51:34Z</time>
      </trkpt>
      <trkpt lat="43.820856744423509" lon="5.299760615453124">
        <ele>324.39999389648437</ele>
        <time>2014-12-08T12:51:36Z</time>
      </trkpt>
      <trkpt lat="43.820855151861906" lon="5.300044259056449">
        <ele>324.60000610351562</ele>
        <time>2014-12-08T12:51:41Z</time>
      </trkpt>
      <trkpt lat="43.820844171568751" lon="5.300096813589335">
        <ele>324.60000610351562</ele>
        <time>2014-12-08T12:51:42Z</time>
      </trkpt>
      <trkpt lat="43.82072925567627" lon="5.300330752506852">
        <ele>324.39999389648437</ele>
        <time>2014-12-08T12:51:47Z</time>
      </trkpt>
      <trkpt lat="43.820694973692298" lon="5.300368471071124">
        <ele>324.60000610351562</ele>
        <time>2014-12-08T12:51:48Z</time>
      </trkpt>
      <trkpt lat="43.820619955658913" lon="5.300428736954927">
        <ele>324.79998779296875</ele>
        <time>2014-12-08T12:51:50Z</time>
      </trkpt>
      <trkpt lat="43.82053479552269" lon="5.300456900149584">
        <ele>325.20001220703125</ele>
        <time>2014-12-08T12:51:52Z</time>
      </trkpt>
      <trkpt lat="43.820453826338053" lon="5.300477854907513">
        <ele>325.79998779296875</ele>
        <time>2014-12-08T12:51:54Z</time>
      </trkpt>
      <trkpt lat="43.820195160806179" lon="5.300492690876126">
        <ele>326.60000610351562</ele>
        <time>2014-12-08T12:52:00Z</time>
      </trkpt>
      <trkpt lat="43.820148892700672" lon="5.300501491874456">
        <ele>326.79998779296875</ele>
        <time>2014-12-08T12:52:01Z</time>
      </trkpt>
      <trkpt lat="43.819875055924058" lon="5.300551531836391">
        <ele>326.60000610351562</ele>
        <time>2014-12-08T12:52:06Z</time>
      </trkpt>
      <trkpt lat="43.819569200277328" lon="5.300738029181957">
        <ele>326.39999389648437</ele>
        <time>2014-12-08T12:52:11Z</time>
      </trkpt>
      <trkpt lat="43.819451602175832" lon="5.300848335027695">
        <ele>325.60000610351562</ele>
        <time>2014-12-08T12:52:13Z</time>
      </trkpt>
      <trkpt lat="43.819342888891697" lon="5.300981858745217">
        <ele>324.79998779296875</ele>
        <time>2014-12-08T12:52:15Z</time>
      </trkpt>
      <trkpt lat="43.819297626614571" lon="5.301057631149888">
        <ele>324.79998779296875</ele>
        <time>2014-12-08T12:52:16Z</time>
      </trkpt>
      <trkpt lat="43.819220261648297" lon="5.301321409642696">
        <ele>326.20001220703125</ele>
        <time>2014-12-08T12:52:19Z</time>
      </trkpt>
      <trkpt lat="43.81927608512342" lon="5.301556689664722">
        <ele>324.79998779296875</ele>
        <time>2014-12-08T12:52:22Z</time>
      </trkpt>
      <trkpt lat="43.819322856143117" lon="5.301608741283417">
        <ele>324.20001220703125</ele>
        <time>2014-12-08T12:52:23Z</time>
      </trkpt>
      <trkpt lat="43.819427210837603" lon="5.301666827872396">
        <ele>323.20001220703125</ele>
        <time>2014-12-08T12:52:25Z</time>
      </trkpt>
      <trkpt lat="43.819475993514061" lon="5.301687363535166">
        <ele>323.20001220703125</ele>
        <time>2014-12-08T12:52:26Z</time>
      </trkpt>
      <trkpt lat="43.819616977125406" lon="5.301718460395932">
        <ele>323.60000610351562</ele>
        <time>2014-12-08T12:52:29Z</time>
      </trkpt>
      <trkpt lat="43.819661736488342" lon="5.301723824813962">
        <ele>323.79998779296875</ele>
        <time>2014-12-08T12:52:30Z</time>
      </trkpt>
      <trkpt lat="43.819938255473971" lon="5.301746958866715">
        <ele>324</ele>
        <time>2014-12-08T12:52:36Z</time>
      </trkpt>
      <trkpt lat="43.820051327347755" lon="5.301750982180238">
        <ele>323</ele>
        <time>2014-12-08T12:52:38Z</time>
      </trkpt>
      <trkpt lat="43.820155514404178" lon="5.301774619147182">
        <ele>323.20001220703125</ele>
        <time>2014-12-08T12:52:40Z</time>
      </trkpt>
      <trkpt lat="43.820200441405177" lon="5.301801273599267">
        <ele>323.39999389648437</ele>
        <time>2014-12-08T12:52:41Z</time>
      </trkpt>
      <trkpt lat="43.820416526868939" lon="5.301962122321129">
        <ele>321.39999389648437</ele>
        <time>2014-12-08T12:52:46Z</time>
      </trkpt>
      <trkpt lat="43.820467405021191" lon="5.301992716267705">
        <ele>321</ele>
        <time>2014-12-08T12:52:47Z</time>
      </trkpt>
      <trkpt lat="43.820706456899643" lon="5.302111739292741">
        <ele>320.60000610351562</ele>
        <time>2014-12-08T12:52:51Z</time>
      </trkpt>
      <trkpt lat="43.820751802995801" lon="5.302161192521453">
        <ele>319.79998779296875</ele>
        <time>2014-12-08T12:52:52Z</time>
      </trkpt>
      <trkpt lat="43.820816176012158" lon="5.302294800058007">
        <ele>318.20001220703125</ele>
        <time>2014-12-08T12:52:54Z</time>
      </trkpt>
      <trkpt lat="43.820867640897632" lon="5.302493032068014">
        <ele>317.60000610351562</ele>
        <time>2014-12-08T12:52:57Z</time>
      </trkpt>
      <trkpt lat="43.820896558463573" lon="5.302611719816923">
        <ele>317.79998779296875</ele>
        <time>2014-12-08T12:52:59Z</time>
      </trkpt>
      <trkpt lat="43.820957913994789" lon="5.303070461377502">
        <ele>317.79998779296875</ele>
        <time>2014-12-08T12:53:06Z</time>
      </trkpt>
      <trkpt lat="43.820968810468912" lon="5.303391655907035">
        <ele>317.79998779296875</ele>
        <time>2014-12-08T12:53:10Z</time>
      </trkpt>
      <trkpt lat="43.820980545133352" lon="5.303458292037249">
        <ele>317.79998779296875</ele>
        <time>2014-12-08T12:53:11Z</time>
      </trkpt>
      <trkpt lat="43.821030082181096" lon="5.303550660610199">
        <ele>317</ele>
        <time>2014-12-08T12:53:13Z</time>
      </trkpt>
      <trkpt lat="43.821072829887271" lon="5.303577063605189">
        <ele>316.60000610351562</ele>
        <time>2014-12-08T12:53:14Z</time>
      </trkpt>
      <trkpt lat="43.82125555537641" lon="5.303652584552765">
        <ele>317</ele>
        <time>2014-12-08T12:53:19Z</time>
      </trkpt>
      <trkpt lat="43.821410452947021" lon="5.30370119959116">
        <ele>318</ele>
        <time>2014-12-08T12:53:25Z</time>
      </trkpt>
      <trkpt lat="43.821490416303277" lon="5.303725674748421">
        <ele>319.20001220703125</ele>
        <time>2014-12-08T12:53:29Z</time>
      </trkpt>
      <trkpt lat="43.821549341082573" lon="5.303748054429889">
        <ele>320</ele>
        <time>2014-12-08T12:53:32Z</time>
      </trkpt>
      <trkpt lat="43.821567529812455" lon="5.303754676133394">
        <ele>320.20001220703125</ele>
        <time>2014-12-08T12:53:33Z</time>
      </trkpt>
      <trkpt lat="43.821612875908613" lon="5.303769931197166">
        <ele>321.20001220703125</ele>
        <time>2014-12-08T12:53:36Z</time>
      </trkpt>
      <trkpt lat="43.821663754060864" lon="5.303774708881974">
        <ele>322</ele>
        <time>2014-12-08T12:53:39Z</time>
      </trkpt>
      <trkpt lat="43.821683451533318" lon="5.30378476716578">
        <ele>322.39999389648438</ele>
        <time>2014-12-08T12:53:40Z</time>
      </trkpt>
      <trkpt lat="43.821745393797755" lon="5.30381896533072">
        <ele>323.39999389648437</ele>
        <time>2014-12-08T12:53:43Z</time>
      </trkpt>
      <trkpt lat="43.821797529235482" lon="5.303849894553423">
        <ele>323.79998779296875</ele>
        <time>2014-12-08T12:53:46Z</time>
      </trkpt>
      <trkpt lat="43.821839187294245" lon="5.303828855976462">
        <ele>324.60000610351562</ele>
        <time>2014-12-08T12:53:48Z</time>
      </trkpt>
      <trkpt lat="43.821889646351337" lon="5.303761214017868">
        <ele>325.39999389648437</ele>
        <time>2014-12-08T12:53:51Z</time>
      </trkpt>
      <trkpt lat="43.821905069053173" lon="5.303744534030557">
        <ele>325.60000610351562</ele>
        <time>2014-12-08T12:53:52Z</time>
      </trkpt>
      <trkpt lat="43.821965418756008" lon="5.303673623129726">
        <ele>326.60000610351562</ele>
        <time>2014-12-08T12:53:56Z</time>
      </trkpt>
      <trkpt lat="43.821996012702584" lon="5.303639508783817">
        <ele>326.60000610351562</ele>
        <time>2014-12-08T12:53:58Z</time>
      </trkpt>
      <trkpt lat="43.822068180888891" lon="5.303576560690999">
        <ele>327.60000610351562</ele>
        <time>2014-12-08T12:54:03Z</time>
      </trkpt>
      <trkpt lat="43.822098355740309" lon="5.303585948422551">
        <ele>328</ele>
        <time>2014-12-08T12:54:05Z</time>
      </trkpt>
      <trkpt lat="43.822122747078538" lon="5.303611429408193">
        <ele>328.39999389648437</ele>
        <time>2014-12-08T12:54:07Z</time>
      </trkpt>
      <trkpt lat="43.822129955515265" lon="5.303630875423551">
        <ele>328.60000610351562</ele>
        <time>2014-12-08T12:54:08Z</time>
      </trkpt>
      <trkpt lat="43.822153173387051" lon="5.303683346137404">
        <ele>329.60000610351562</ele>
        <time>2014-12-08T12:54:11Z</time>
      </trkpt>
      <trkpt lat="43.822162561118603" lon="5.303694494068623">
        <ele>330</ele>
        <time>2014-12-08T12:54:12Z</time>
      </trkpt>
      <trkpt lat="43.82220882922411" lon="5.303750149905682">
        <ele>331.20001220703125</ele>
        <time>2014-12-08T12:54:16Z</time>
      </trkpt>
      <trkpt lat="43.822218719869852" lon="5.303765321150422">
        <ele>331.39999389648437</ele>
        <time>2014-12-08T12:54:17Z</time>
      </trkpt>
      <trkpt lat="43.822239423170686" lon="5.303803123533726">
        <ele>332.39999389648437</ele>
        <time>2014-12-08T12:54:20Z</time>
      </trkpt>
      <trkpt lat="43.822265239432454" lon="5.303865484893322">
        <ele>333.39999389648438</ele>
        <time>2014-12-08T12:54:24Z</time>
      </trkpt>
      <trkpt lat="43.822274124249816" lon="5.303880907595158">
        <ele>333.79998779296875</ele>
        <time>2014-12-08T12:54:25Z</time>
      </trkpt>
      <trkpt lat="43.822305137291551" lon="5.303942682221532">
        <ele>334.79998779296875</ele>
        <time>2014-12-08T12:54:29Z</time>
      </trkpt>
      <trkpt lat="43.822333719581366" lon="5.303970845416188">
        <ele>335.79998779296875</ele>
        <time>2014-12-08T12:54:32Z</time>
      </trkpt>
      <trkpt lat="43.822341850027442" lon="5.303987106308341">
        <ele>336.20001220703125</ele>
        <time>2014-12-08T12:54:33Z</time>
      </trkpt>
      <trkpt lat="43.822365738451481" lon="5.304027339443564">
        <ele>336.79998779296875</ele>
        <time>2014-12-08T12:54:36Z</time>
      </trkpt>
      <trkpt lat="43.822385435923934" lon="5.304061537608504">
        <ele>337.39999389648437</ele>
        <time>2014-12-08T12:54:39Z</time>
      </trkpt>
      <trkpt lat="43.822397505864501" lon="5.304084504023194">
        <ele>338</ele>
        <time>2014-12-08T12:54:41Z</time>
      </trkpt>
      <trkpt lat="43.822441007941961" lon="5.304146278649569">
        <ele>338.79998779296875</ele>
        <time>2014-12-08T12:54:46Z</time>
      </trkpt>
      <trkpt lat="43.822464309632778" lon="5.304182153195143">
        <ele>339</ele>
        <time>2014-12-08T12:54:49Z</time>
      </trkpt>
      <trkpt lat="43.822493562474847" lon="5.304235043004155">
        <ele>340</ele>
        <time>2014-12-08T12:54:53Z</time>
      </trkpt>
      <trkpt lat="43.822505716234446" lon="5.304255997762084">
        <ele>340.79998779296875</ele>
        <time>2014-12-08T12:54:55Z</time>
      </trkpt>
      <trkpt lat="43.822511918842793" lon="5.304265385493636">
        <ele>341.20001220703125</ele>
        <time>2014-12-08T12:54:56Z</time>
      </trkpt>
      <trkpt lat="43.822537399828434" lon="5.304357334971428">
        <ele>342.20001220703125</ele>
        <time>2014-12-08T12:55:02Z</time>
      </trkpt>
      <trkpt lat="43.822539411485195" lon="5.304371835663915">
        <ele>342.60000610351562</ele>
        <time>2014-12-08T12:55:03Z</time>
      </trkpt>
      <trkpt lat="43.822541087865829" lon="5.304396394640207">
        <ele>343.39999389648437</ele>
        <time>2014-12-08T12:55:05Z</time>
      </trkpt>
      <trkpt lat="43.822537483647466" lon="5.304483063519001">
        <ele>344.39999389648437</ele>
        <time>2014-12-08T12:55:10Z</time>
      </trkpt>
      <trkpt lat="43.822537902742624" lon="5.304499324411154">
        <ele>344.60000610351562</ele>
        <time>2014-12-08T12:55:11Z</time>
      </trkpt>
      <trkpt lat="43.822537232190371" lon="5.304528577253223">
        <ele>345</ele>
        <time>2014-12-08T12:55:13Z</time>
      </trkpt>
      <trkpt lat="43.822535807266831" lon="5.304574761539698">
        <ele>345.20001220703125</ele>
        <time>2014-12-08T12:55:16Z</time>
      </trkpt>
      <trkpt lat="43.822541339322925" lon="5.304586328566074">
        <ele>345.60000610351562</ele>
        <time>2014-12-08T12:55:17Z</time>
      </trkpt>
      <trkpt lat="43.822577130049467" lon="5.30466235242784">
        <ele>346.79998779296875</ele>
        <time>2014-12-08T12:55:22Z</time>
      </trkpt>
      <trkpt lat="43.822583081200719" lon="5.304675763472915">
        <ele>346.79998779296875</ele>
        <time>2014-12-08T12:55:23Z</time>
      </trkpt>
      <trkpt lat="43.822644772008061" lon="5.304734604433179">
        <ele>347.39999389648437</ele>
        <time>2014-12-08T12:55:29Z</time>
      </trkpt>
      <trkpt lat="43.822681484743953" lon="5.304781878367066">
        <ele>347.79998779296875</ele>
        <time>2014-12-08T12:55:32Z</time>
      </trkpt>
      <trkpt lat="43.822754072025418" lon="5.304881371557713">
        <ele>347.39999389648437</ele>
        <time>2014-12-08T12:55:37Z</time>
      </trkpt>
      <trkpt lat="43.822839735075831" lon="5.304995449259877">
        <ele>348.39999389648437</ele>
        <time>2014-12-08T12:55:43Z</time>
      </trkpt>
      <trkpt lat="43.82285675033927" lon="5.30501120723784">
        <ele>348.39999389648437</ele>
        <time>2014-12-08T12:55:44Z</time>
      </trkpt>
      <trkpt lat="43.82292028516531" lon="5.305066863074899">
        <ele>348.60000610351562</ele>
        <time>2014-12-08T12:55:48Z</time>
      </trkpt>
      <trkpt lat="43.82293495349586" lon="5.305082956328988">
        <ele>348.79998779296875</ele>
        <time>2014-12-08T12:55:49Z</time>
      </trkpt>
      <trkpt lat="43.823058754205704" lon="5.305232405662537">
        <ele>348.79998779296875</ele>
        <time>2014-12-08T12:55:56Z</time>
      </trkpt>
      <trkpt lat="43.823254723101854" lon="5.305486125871539">
        <ele>347.39999389648437</ele>
        <time>2014-12-08T12:56:03Z</time>
      </trkpt>
      <trkpt lat="43.823436526581645" lon="5.305746635422111">
        <ele>347.60000610351562</ele>
        <time>2014-12-08T12:56:10Z</time>
      </trkpt>
      <trkpt lat="43.823505425825715" lon="5.305847888812423">
        <ele>346.39999389648437</ele>
        <time>2014-12-08T12:56:13Z</time>
      </trkpt>
      <trkpt lat="43.823587903752923" lon="5.305965738371015">
        <ele>346.39999389648437</ele>
        <time>2014-12-08T12:56:16Z</time>
      </trkpt>
      <trkpt lat="43.823707513511181" lon="5.306122228503227">
        <ele>346.39999389648437</ele>
        <time>2014-12-08T12:56:20Z</time>
      </trkpt>
      <trkpt lat="43.82381203584373" lon="5.306202275678515">
        <ele>346.20001220703125</ele>
        <time>2014-12-08T12:56:23Z</time>
      </trkpt>
      <trkpt lat="43.823898956179619" lon="5.306167909875512">
        <ele>345.20001220703125</ele>
        <time>2014-12-08T12:56:26Z</time>
      </trkpt>
      <trkpt lat="43.823966011404991" lon="5.305971521884203">
        <ele>344</ele>
        <time>2014-12-08T12:56:30Z</time>
      </trkpt>
      <trkpt lat="43.82397472858429" lon="5.305896671488881">
        <ele>343.79998779296875</ele>
        <time>2014-12-08T12:56:31Z</time>
      </trkpt>
      <trkpt lat="43.824028372764587" lon="5.305543290451169">
        <ele>343.20001220703125</ele>
        <time>2014-12-08T12:56:35Z</time>
      </trkpt>
      <trkpt lat="43.824046142399311" lon="5.305441031232476">
        <ele>342.79998779296875</ele>
        <time>2014-12-08T12:56:36Z</time>
      </trkpt>
      <trkpt lat="43.824153682217002" lon="5.305025707930327">
        <ele>342.20001220703125</ele>
        <time>2014-12-08T12:56:40Z</time>
      </trkpt>
      <trkpt lat="43.824195507913828" lon="5.304922945797443">
        <ele>341.39999389648437</ele>
        <time>2014-12-08T12:56:41Z</time>
      </trkpt>
      <trkpt lat="43.824370102956891" lon="5.304648019373417">
        <ele>340.20001220703125</ele>
        <time>2014-12-08T12:56:44Z</time>
      </trkpt>
      <trkpt lat="43.824514355510473" lon="5.304498234763742">
        <ele>340.39999389648437</ele>
        <time>2014-12-08T12:56:46Z</time>
      </trkpt>
      <trkpt lat="43.824642347171903" lon="5.304356077685952">
        <ele>340.20001220703125</ele>
        <time>2014-12-08T12:56:48Z</time>
      </trkpt>
      <trkpt lat="43.82470085285604" lon="5.304283238947392">
        <ele>338.79998779296875</ele>
        <time>2014-12-08T12:56:49Z</time>
      </trkpt>
      <trkpt lat="43.824760196730494" lon="5.304213836789131">
        <ele>337.39999389648437</ele>
        <time>2014-12-08T12:56:50Z</time>
      </trkpt>
      <trkpt lat="43.824886595830321" lon="5.304083079099655">
        <ele>335.79998779296875</ele>
        <time>2014-12-08T12:56:52Z</time>
      </trkpt>
      <trkpt lat="43.825004110112786" lon="5.30395575799048">
        <ele>334</ele>
        <time>2014-12-08T12:56:54Z</time>
      </trkpt>
      <trkpt lat="43.825058341026306" lon="5.303901024162769">
        <ele>333</ele>
        <time>2014-12-08T12:56:55Z</time>
      </trkpt>
      <trkpt lat="43.825108632445335" lon="5.303850984200835">
        <ele>331.79998779296875</ele>
        <time>2014-12-08T12:56:56Z</time>
      </trkpt>
      <trkpt lat="43.825153643265367" lon="5.303808823227882">
        <ele>330.39999389648438</ele>
        <time>2014-12-08T12:56:57Z</time>
      </trkpt>
      <trkpt lat="43.825191697105765" lon="5.303772613406181">
        <ele>329.39999389648437</ele>
        <time>2014-12-08T12:56:58Z</time>
      </trkpt>
      <trkpt lat="43.825271492823958" lon="5.303767248988152">
        <ele>327.60000610351562</ele>
        <time>2014-12-08T12:57:00Z</time>
      </trkpt>
      <trkpt lat="43.825310971587896" lon="5.303800608962774">
        <ele>326.79998779296875</ele>
        <time>2014-12-08T12:57:01Z</time>
      </trkpt>
      <trkpt lat="43.825345002114773" lon="5.303854001685977">
        <ele>326.20001220703125</ele>
        <time>2014-12-08T12:57:02Z</time>
      </trkpt>
      <trkpt lat="43.825372578576207" lon="5.303983082994819">
        <ele>324</ele>
        <time>2014-12-08T12:57:04Z</time>
      </trkpt>
      <trkpt lat="43.825327064841986" lon="5.304080145433545">
        <ele>323.39999389648437</ele>
        <time>2014-12-08T12:57:07Z</time>
      </trkpt>
    </trkseg>
  </trk>

</gpx>
